# Wetter Temperatur Luftdruck Luftfeuchtigkeit Sichtweite Windgeschwindigkeit Windrichtung Zeit
1 Clouds -9 995 79 10000 4.12 30 21:57 02.12.2021
2 Clouds -9 995 79 10000 4.63 40 21:30 02.12.2021
3 Clouds -9 995 82 10000 4.63 30 20:40 02.12.2021
4 Clouds -9 994 81 10000 5.14 30 19:43 02.12.2021
5 Clear -8 994 82 10000 4.47 31 18:33 02.12.2021
6 Clouds -7 993 80 10000 1.79 8 15:52 02.12.2021
7 Clouds -7 992 80 10000 2.24 44 15:28 02.12.2021
8 Clouds -7 992 82 10000 0.89 64 14:48 02.12.2021
9 Clouds -7 991 79 10000 1.79 33 12:53 02.12.2021
10 Clouds -7 991 77 10000 1.34 61 12:19 02.12.2021
11 Clear -7 992 81 10000 1.79 37 10:38 02.12.2021
12 Clouds -8 993 82 10000 1.79 67 08:59 02.12.2021
13 Snow -8 992 82 10000 0.45 89 05:34 02.12.2021
14 Clouds -11 993 81 10000 0.89 324 00:55 02.12.2021
15 Clear -11 992 85 10000 0.51 0 23:30 01.12.2021
16 Clear -11 992 85 10000 0.89 322 22:25 01.12.2021
17 Clouds -10 993 85 10000 1.34 338 21:36 01.12.2021
18 Clouds -10 993 85 10000 0.89 293 19:58 01.12.2021
19 Clear -10 993 86 10000 0.89 283 19:34 01.12.2021
20 Clear -9 993 86 10000 0.89 294 17:50 01.12.2021
21 Clouds -8 993 86 10000 2.24 324 16:58 01.12.2021
22 Clouds -6 992 79 10000 1.34 320 14:59 01.12.2021
23 Clouds -5 991 76 10000 3.13 330 13:49 01.12.2021
24 Clouds -5 991 74 10000 1.79 302 13:30 01.12.2021
25 Snow -5 990 74 10000 3.58 316 10:43 01.12.2021
26 Snow -5 989 76 10000 2.68 327 09:32 01.12.2021
27 Snow -5 987 78 10000 3.58 314 08:36 01.12.2021
28 Snow -5 987 76 10000 2.68 327 07:38 01.12.2021
29 Snow -5 986 79 10000 3.13 313 07:19 01.12.2021
30 Snow -7 984 82 10000 4.02 311 03:47 01.12.2021
31 Snow -7 984 80 10000 4.02 328 02:34 01.12.2021
32 Snow -9 984 81 8000 4.02 296 23:56 30.11.2021
33 Snow -9 983 75 8000 6.17 300 23:28 30.11.2021
34 Snow -9 983 70 8000 6.17 300 21:55 30.11.2021
35 Snow -9 983 66 7000 7.2 310 20:46 30.11.2021
36 Snow -10 982 79 7000 6.69 310 20:19 30.11.2021
37 Snow -10 982 79 7000 7.2 310 19:38 30.11.2021
38 Snow -9 982 70 7000 7.2 310 18:38 30.11.2021
39 Snow -9 982 73 8000 5.66 310 17:21 30.11.2021
40 Snow -9 982 84 10000 4.92 295 15:44 30.11.2021
41 Clouds -9 982 82 10000 4.47 301 14:23 30.11.2021
42 Clouds -8 983 79 10000 4.02 320 13:28 30.11.2021
43 Clouds -8 981 78 10000 3.58 328 12:52 30.11.2021
44 Clouds -8 983 78 10000 4.47 309 11:50 30.11.2021
45 Clouds -8 983 73 10000 5.66 320 11:25 30.11.2021
46 Clouds -9 984 76 10000 5.66 320 10:34 30.11.2021
47 Clouds -9 985 85 10000 5.14 330 08:53 30.11.2021
48 Snow -9 986 75 10000 5.66 320 08:31 30.11.2021
49 Snow -9 986 76 10000 5.14 330 07:48 30.11.2021
50 Snow -8 989 82 10000 3.58 330 02:41 30.11.2021
51 Snow -7 990 84 10000 3.13 331 01:43 30.11.2021
52 Snow -7 991 84 10000 2.68 352 00:33 30.11.2021
53 Snow -7 992 85 8000 4.02 334 23:25 29.11.2021
54 Snow -7 993 86 5000 3.13 334 22:57 29.11.2021
55 Snow -7 993 85 4000 4.92 328 22:34 29.11.2021
56 Snow -7 994 85 10000 4.02 338 21:39 29.11.2021
57 Snow -6 995 85 10000 2.68 355 21:18 29.11.2021
58 Snow -6 995 84 10000 1.79 328 20:40 29.11.2021
59 Snow -6 996 84 10000 1.79 14 19:56 29.11.2021
60 Snow -6 996 84 10000 2.68 346 19:36 29.11.2021
61 Snow -6 997 84 10000 2.68 16 19:36 29.11.2021
62 Clouds -4 998 80 10000 7.03 36 18:52 29.11.2021
63 Clouds -4 1000 77 10000 7.39 38 17:55 29.11.2021
64 Clouds -4 1000 78 10000 7.79 39 17:20 29.11.2021
65 Clouds -4 1001 80 10000 7.81 39 16:29 29.11.2021
66 Clouds -4 1001 80 10000 7.81 39 15:52 29.11.2021
67 Snow -4 1003 82 10000 7.47 44 14:43 29.11.2021
68 Clouds -4 1003 82 5866 7.82 53 13:36 29.11.2021
69 Snow -3 1004 82 5836 7.74 55 12:42 29.11.2021
70 Snow -3 1005 83 5493 7.35 59 11:41 29.11.2021
71 Snow -3 1005 84 1582 7.36 63 10:58 29.11.2021
72 Snow -5 1006 80 10000 6.17 30 09:36 29.11.2021
73 Snow -6 1006 86 10000 6.69 30 06:21 29.11.2021
74 Snow -6 1007 86 10000 6.69 30 03:46 29.11.2021
75 Snow -6 1007 86 10000 5.14 30 00:43 29.11.2021
76 Snow -6 1007 79 10000 5.14 30 23:44 28.11.2021
77 Snow -6 1007 79 10000 5.14 30 23:24 28.11.2021
78 Clouds -7 1007 86 10000 5.14 40 21:52 28.11.2021
79 Clouds -7 1007 86 10000 5.14 40 21:23 28.11.2021
80 Clouds -7 1007 86 10000 5.14 30 20:34 28.11.2021
81 Clouds -7 1006 79 10000 5.14 30 19:28 28.11.2021
82 Clouds -7 1006 79 10000 4.12 30 18:35 28.11.2021
83 Clouds -7 1006 86 10000 4.12 20 17:56 28.11.2021
84 Clouds -7 1006 86 10000 4.12 10 17:32 28.11.2021
85 Clouds -7 1006 79 10000 3.09 20 16:44 28.11.2021
86 Clouds -7 1005 86 10000 3.6 20 16:22 28.11.2021
87 Clouds -7 1005 86 10000 3.6 30 15:32 28.11.2021
88 Clouds -7 1005 86 10000 3.09 10 14:48 28.11.2021
89 Clouds -7 1005 86 10000 3.6 20 13:49 28.11.2021
90 Clouds -7 1004 86 10000 4.12 20 12:51 28.11.2021
91 Clouds -7 1004 86 10000 4.63 20 11:18 28.11.2021
92 Clouds -7 1004 86 10000 5.14 40 10:22 28.11.2021
93 Clouds -7 1004 79 10000 5.66 30 09:38 28.11.2021
94 Clouds -8 1003 86 10000 5.66 20 07:59 28.11.2021
95 Clouds -7 1004 86 10000 5.66 30 00:20 28.11.2021
96 Clouds -7 1005 86 10000 5.14 20 21:20 27.11.2021
97 Clouds -7 1005 86 10000 4.63 20 19:47 27.11.2021
98 Clouds -7 1005 86 10000 5.14 30 17:27 27.11.2021
99 Clouds -8 1005 93 10000 6.17 30 15:59 27.11.2021
100 Clouds -8 1005 86 10000 5.14 40 14:26 27.11.2021
101 Clear -8 1005 93 10000 4.12 30 12:58 27.11.2021
102 Clear -7 1005 86 10000 4.12 20 10:52 27.11.2021
103 Clear -8 1005 93 10000 4.63 40 09:53 27.11.2021
104 Clear -9 1005 92 10000 3.09 30 08:44 27.11.2021
105 Clouds -9 1005 92 10000 3.6 30 06:34 27.11.2021
106 Clear -8 1003 93 10000 2.57 30 01:59 27.11.2021
107 Clear -7 1002 93 10000 2.06 30 23:39 26.11.2021
108 Clear -6 1002 86 10000 1.54 40 22:26 26.11.2021
109 Clear -6 1001 86 10000 2.06 40 21:41 26.11.2021
110 Clear -7 1001 93 10000 2.06 20 21:22 26.11.2021
111 Clear -7 1000 93 10000 2.06 20 20:40 26.11.2021
112 Clear -6 1000 93 10000 3.09 350 19:55 26.11.2021
113 Clear -5 999 86 10000 2.57 350 18:44 26.11.2021
114 Clouds -4 998 80 10000 3.6 360 17:24 26.11.2021
115 Clouds -3 998 80 10000 3.09 340 16:29 26.11.2021
116 Clouds -2 995 86 10000 3.09 300 14:25 26.11.2021
117 Clouds -1 995 80 10000 1.79 336 13:31 26.11.2021
118 Clouds -2 992 85 10000 1.79 305 10:43 26.11.2021
119 Clouds -2 991 81 10000 1.34 304 09:41 26.11.2021
120 Clear -3 990 82 10000 1.34 303 08:49 26.11.2021
121 Clear -2 990 85 10000 1.34 277 08:19 26.11.2021
122 Clear -2 988 82 10000 1.79 311 06:29 26.11.2021
123 Clouds -1 988 88 10000 2.68 330 04:52 26.11.2021
124 Clouds 1 987 83 10000 3.58 336 03:32 26.11.2021
125 Rain 3 988 87 8000 0.45 286 23:29 25.11.2021
126 Mist 3 989 87 1500 1.03 0 22:19 25.11.2021
127 Mist 3 989 89 1000 0.45 224 20:41 25.11.2021
128 Rain 3 990 86 10000 0.45 255 19:21 25.11.2021
129 Rain 3 991 87 10000 0.89 230 18:19 25.11.2021
130 Rain 3 991 89 10000 0.45 249 17:27 25.11.2021
131 Clouds 4 992 88 10000 0.89 217 16:41 25.11.2021
132 Rain 4 992 87 10000 0.89 236 15:58 25.11.2021
133 Rain 5 993 87 10000 1.34 267 14:24 25.11.2021
134 Rain 6 993 86 10000 1.79 236 12:55 25.11.2021
135 Rain 6 994 86 10000 1.79 253 11:56 25.11.2021
136 Drizzle 6 995 88 10000 3.13 232 10:34 25.11.2021
137 Clouds 5 996 87 10000 1.79 242 06:36 25.11.2021
138 Drizzle 3 1000 88 8000 1.79 166 02:56 25.11.2021
139 Clear 1 1004 86 10000 2.24 130 00:37 25.11.2021
140 Clear 0 1005 89 10000 0.45 96 22:29 24.11.2021
141 Clear 0 1005 85 10000 0.45 97 21:48 24.11.2021
142 Clear 0 1006 89 10000 0.45 162 21:21 24.11.2021
143 Clear 0 1006 85 10000 2.06 240 20:27 24.11.2021
144 Clear 0 1006 85 10000 0.45 311 19:36 24.11.2021
145 Clouds 0 1006 84 10000 0.89 309 18:19 24.11.2021
146 Clouds 1 1005 80 10000 0.89 309 16:21 24.11.2021
147 Clouds 2 1004 77 10000 4.02 314 14:57 24.11.2021
148 Clouds 2 1004 81 10000 2.68 310 14:21 24.11.2021
149 Clouds 3 1004 80 10000 2.24 318 13:34 24.11.2021
150 Clouds 4 1002 81 10000 3.58 303 11:26 24.11.2021
151 Clouds 4 1001 82 10000 4.02 312 10:55 24.11.2021
152 Clouds 4 1001 80 10000 2.68 314 10:35 24.11.2021
153 Clouds 4 1000 84 10000 1.79 302 09:33 24.11.2021
154 Clouds 3 999 84 10000 1.79 271 07:41 24.11.2021
155 Clouds 3 998 83 10000 2.24 270 05:38 24.11.2021
156 Clouds 4 998 86 10000 3.13 271 03:32 24.11.2021
157 Rain 2 1003 82 10000 2.68 221 23:33 23.11.2021
158 Snow 0 1005 84 10000 3.13 212 22:39 23.11.2021
159 Snow -1 1007 89 10000 1.79 214 21:45 23.11.2021
160 Clouds -2 1009 86 10000 0.45 190 20:23 23.11.2021
161 Snow -2 1009 86 10000 1.79 242 19:33 23.11.2021
162 Snow -1 1009 86 10000 3.13 225 18:34 23.11.2021
163 Snow -1 1009 86 10000 1.34 233 17:41 23.11.2021
164 Snow -1 1009 86 10000 1.34 233 17:41 23.11.2021
165 Snow -1 1010 86 10000 0.45 294 16:37 23.11.2021
166 Snow 0 1010 87 6000 0.89 297 15:27 23.11.2021
167 Snow 0 1010 87 7000 1.34 338 14:54 23.11.2021
168 Clouds 0 1010 89 10000 2.24 308 13:29 23.11.2021
169 Clouds 0 1009 88 10000 0.45 339 10:28 23.11.2021
170 Clouds 1 1009 88 10000 0.45 339 10:28 23.11.2021
171 Clouds 0 1009 88 10000 1.34 339 09:48 23.11.2021
172 Snow 0 1008 88 5000 0.89 0 08:41 23.11.2021
173 Snow 1 1006 87 10000 0.89 157 04:53 23.11.2021
174 Snow 1 1006 87 10000 2.24 189 03:35 23.11.2021
175 Snow 1 1008 80 10000 1.79 239 23:41 22.11.2021
176 Clouds 2 1008 84 10000 4.47 215 23:20 22.11.2021
177 Rain 1 1009 80 10000 1.79 206 22:30 22.11.2021
178 Snow -1 1009 84 10000 1.79 206 21:45 22.11.2021
179 Clouds -1 1009 83 10000 1.34 189 21:21 22.11.2021
180 Clouds -1 1009 82 10000 1.34 183 20:42 22.11.2021
181 Clouds -2 1009 78 10000 1.34 202 19:21 22.11.2021
182 Clear -2 1009 81 10000 0.89 197 18:41 22.11.2021
183 Clear -2 1010 79 10000 1.34 204 18:21 22.11.2021
184 Clouds -2 1010 80 10000 0.89 231 16:45 22.11.2021
185 Clouds -2 1011 80 10000 1.34 218 15:32 22.11.2021
186 Clouds -1 1011 78 10000 0.89 301 12:51 22.11.2021
187 Clouds -1 1012 78 10000 0.45 289 11:39 22.11.2021
188 Clouds -2 1012 80 10000 1.34 279 10:26 22.11.2021
189 Snow -4 1012 82 10000 0.89 263 08:44 22.11.2021
190 Clouds -4 1012 80 10000 0.89 275 08:24 22.11.2021
191 Clear -3 1011 81 10000 2.68 308 01:40 22.11.2021
192 Clear -3 1009 71 10000 2.24 314 23:21 21.11.2021
193 Clear -3 1009 71 10000 3.13 317 22:43 21.11.2021
194 Clear -2 1007 70 10000 4.02 326 20:55 21.11.2021
195 Clear -2 1007 70 10000 4.02 326 20:34 21.11.2021
196 Clear -1 1004 70 10000 3.58 324 18:55 21.11.2021
197 Clear -1 1003 70 10000 4.02 324 17:57 21.11.2021
198 Clear -1 1003 71 10000 4.47 324 17:36 21.11.2021
199 Clouds 1 1000 74 10000 4.47 338 14:56 21.11.2021
200 Rain 1 998 76 10000 4.02 329 14:38 21.11.2021
201 Rain 1 996 80 10000 3.13 338 12:59 21.11.2021
202 Clouds 1 996 81 10000 2.68 342 12:25 21.11.2021
203 Clouds 1 996 81 10000 2.24 338 11:37 21.11.2021
204 Clouds 1 995 81 10000 2.24 324 10:19 21.11.2021
205 Clouds 1 994 83 10000 1.79 326 09:45 21.11.2021
206 Snow 0 994 83 10000 1.34 319 08:32 21.11.2021
207 Snow 0 993 88 10000 1.34 319 07:53 21.11.2021
208 Clouds 0 993 84 10000 1.79 309 06:28 21.11.2021
209 Clouds 1 993 82 10000 1.79 315 05:42 21.11.2021
210 Clouds 1 993 82 10000 0.89 301 03:22 21.11.2021
211 Clouds 1 993 85 10000 1.34 305 02:55 21.11.2021
212 Clouds 2 993 83 10000 0.89 321 01:28 21.11.2021
213 Clouds 2 994 85 10000 0.89 294 00:43 21.11.2021
214 Clouds 2 994 84 10000 1.34 279 22:35 20.11.2021
215 Clouds 3 994 81 10000 0.89 266 21:32 20.11.2021
216 Clouds 3 994 81 10000 0.45 276 20:32 20.11.2021
217 Clouds 3 994 79 10000 2.68 303 18:45 20.11.2021
218 Clouds 3 994 79 10000 3.58 307 18:24 20.11.2021
219 Clouds 4 995 79 10000 4.47 311 17:22 20.11.2021
220 Clouds 4 995 77 10000 4.92 308 15:23 20.11.2021
221 Clouds 4 994 76 10000 3.58 304 14:39 20.11.2021
222 Clouds 5 995 79 10000 4.47 307 14:20 20.11.2021
223 Clouds 5 994 76 10000 5.36 314 11:56 20.11.2021
224 Clouds 5 994 76 10000 5.36 314 11:56 20.11.2021
225 Clouds 4 994 79 10000 4.47 304 09:58 20.11.2021
226 Clouds 4 992 81 10000 5.36 305 08:44 20.11.2021
227 Clouds 3 992 81 10000 4.92 317 06:50 20.11.2021
228 Clouds 2 991 84 10000 2.24 306 05:18 20.11.2021
229 Clouds 2 991 84 10000 3.58 305 04:49 20.11.2021
230 Clouds 2 986 89 10000 2.68 326 00:43 20.11.2021
231 Drizzle 2 986 96 4000 3.13 334 00:18 20.11.2021
232 Drizzle 3 984 86 6000 1.79 332 22:54 19.11.2021
233 Drizzle 3 983 88 6000 1.54 60 21:29 19.11.2021
234 Drizzle 3 983 89 5000 0.45 210 20:43 19.11.2021
235 Drizzle 3 983 89 4500 0.45 211 20:25 19.11.2021
236 Clouds 4 984 85 3500 0.89 27 19:46 19.11.2021
237 Clouds 3 984 86 5000 0.89 144 18:48 19.11.2021
238 Rain 3 986 89 10000 0.45 186 17:45 19.11.2021
239 Rain 3 988 88 10000 1.34 65 16:43 19.11.2021
240 Rain 4 990 87 10000 0.89 246 15:22 19.11.2021
241 Clouds 4 995 84 10000 0.89 266 11:54 19.11.2021
242 Clouds 3 996 85 10000 0.45 269 10:25 19.11.2021
243 Clouds 2 997 84 10000 1.79 260 08:39 19.11.2021
244 Clouds 1 998 85 10000 0.89 279 06:29 19.11.2021
245 Clouds 1 999 86 10000 1.79 302 04:19 19.11.2021
246 Clouds 1 1000 83 10000 1.34 268 23:55 18.11.2021
247 Clouds 1 1000 83 10000 0.89 255 23:29 18.11.2021
248 Clouds 1 1000 91 10000 0.45 257 21:21 18.11.2021
249 Clouds 1 999 85 10000 0.89 274 20:46 18.11.2021
250 Clouds 2 999 81 10000 1.79 273 20:23 18.11.2021
251 Clear 2 999 84 10000 1.34 266 19:42 18.11.2021
252 Clouds 2 999 83 10000 1.34 281 18:38 18.11.2021
253 Clouds 3 999 83 10000 1.79 272 17:53 18.11.2021
254 Clouds 3 999 87 10000 1.34 289 17:31 18.11.2021
255 Clouds 3 999 82 10000 2.24 290 16:42 18.11.2021
256 Clouds 4 998 85 10000 2.24 284 15:23 18.11.2021
257 Clouds 5 997 82 10000 3.58 305 13:21 18.11.2021
258 Rain 6 997 85 10000 2.24 315 11:45 18.11.2021
259 Rain 6 996 87 10000 1.79 298 11:26 18.11.2021
260 Rain 6 997 87 10000 1.79 276 10:44 18.11.2021
261 Rain 6 997 86 8000 2.24 232 08:49 18.11.2021
262 Rain 6 998 86 8000 3.13 225 07:19 18.11.2021
263 Rain 6 999 86 8000 2.68 184 05:46 18.11.2021
264 Clouds 5 1004 86 10000 2.68 182 01:27 18.11.2021
265 Clouds 5 1005 86 6000 4.02 176 23:46 17.11.2021
266 Clouds 5 1006 85 10000 4.92 186 22:40 17.11.2021
267 Clouds 5 1007 85 10000 2.68 188 22:20 17.11.2021
268 Clouds 5 1007 85 10000 2.24 186 21:36 17.11.2021
269 Clouds 6 1008 85 10000 5.36 197 20:18 17.11.2021
270 Clouds 6 1009 85 6000 4.47 183 17:36 17.11.2021
271 Clouds 6 1010 84 6000 4.02 188 16:45 17.11.2021
272 Clouds 6 1011 84 10000 2.68 181 13:50 17.11.2021
273 Clouds 6 1012 86 6000 2.24 185 12:39 17.11.2021
274 Drizzle 6 1012 86 5000 2.68 202 11:28 17.11.2021
275 Clouds 6 1013 84 8000 3.13 188 09:58 17.11.2021
276 Clouds 6 1013 85 6000 2.68 200 09:23 17.11.2021
277 -273 0 0 0 0 0 07:41 17.11.2021
278 Rain 5 1014 86 10000 1.34 211 03:31 17.11.2021
279 Drizzle 5 1016 88 6000 1.34 235 00:46 17.11.2021
280 Drizzle 5 1017 85 6000 0.89 190 22:41 16.11.2021
281 Clouds 5 1018 85 10000 0.89 248 20:20 16.11.2021
282 Clouds 5 1018 85 10000 0.45 234 19:57 16.11.2021
283 Clouds 5 1020 86 10000 1.34 221 18:53 16.11.2021
284 Clouds 5 1020 86 10000 2.24 219 18:29 16.11.2021
285 Clouds 5 1021 84 10000 1.34 233 17:31 16.11.2021
286 Clouds 6 1021 82 10000 0.89 265 16:31 16.11.2021
287 Clouds 6 1021 81 10000 1.34 257 15:48 16.11.2021
288 Clouds 6 1021 80 10000 1.79 241 14:31 16.11.2021
289 Clouds 6 1021 83 10000 1.34 242 11:22 16.11.2021
290 Clouds 5 1022 84 8000 1.79 250 09:45 16.11.2021
291 Clouds 5 1022 86 10000 1.34 245 08:25 16.11.2021
292 Clouds 5 1022 85 10000 2.24 234 07:31 16.11.2021
293 Clouds 6 1023 80 10000 3.13 240 01:20 16.11.2021
294 Clouds 5 1025 83 10000 4.47 227 22:48 15.11.2021
295 Clouds 5 1025 84 10000 3.58 221 22:21 15.11.2021
296 Clouds 4 1026 86 10000 3.13 207 21:52 15.11.2021
297 Clouds 4 1026 86 10000 3.13 224 21:26 15.11.2021
298 Clouds 4 1027 85 10000 2.24 226 19:41 15.11.2021
299 Clouds 3 1028 87 10000 4.02 216 18:18 15.11.2021
300 Clouds 3 1030 86 10000 2.68 204 16:19 15.11.2021
301 Clouds 2 1030 86 10000 2.24 221 15:40 15.11.2021
302 Clouds 2 1030 84 10000 4.47 215 15:21 15.11.2021
303 Clouds 2 1032 82 10000 3.58 209 13:22 15.11.2021
304 Clouds 1 1034 83 10000 1.34 182 10:57 15.11.2021
305 Clouds -1 1035 82 10000 1.79 137 09:27 15.11.2021
306 Mist -2 1035 81 1200 0.45 104 07:45 15.11.2021
307 Fog -3 1036 92 700 1.54 100 04:46 15.11.2021
308 Clouds -2 1035 88 7000 2.24 333 23:37 14.11.2021
309 Clouds -3 1034 89 10000 1.34 327 22:35 14.11.2021
310 Clouds -2 1034 86 10000 2.24 326 19:53 14.11.2021
311 Clouds -2 1033 86 10000 2.24 331 19:18 14.11.2021
312 Clouds -2 1033 86 10000 2.24 324 18:54 14.11.2021
313 Clouds -2 1033 87 10000 1.79 334 18:36 14.11.2021
314 Clouds -2 1033 88 10000 2.68 333 18:18 14.11.2021
315 Clouds -2 1032 86 10000 2.24 333 17:55 14.11.2021
316 Clouds -1 1032 88 10000 3.13 331 17:37 14.11.2021
317 Clouds -1 1032 88 10000 1.34 341 17:19 14.11.2021
318 Clouds -1 1032 88 10000 2.24 334 16:45 14.11.2021
319 Clouds -1 1032 92 10000 0.89 316 16:19 14.11.2021
320 Clouds 0 1031 85 10000 1.34 327 15:22 14.11.2021
321 Clouds 0 1031 84 10000 1.79 316 14:49 14.11.2021
322 Clouds 1 1031 81 10000 1.34 344 14:28 14.11.2021
323 Clouds 1 1031 82 10000 1.79 342 13:54 14.11.2021
324 Clouds 1 1031 81 10000 0.45 351 13:35 14.11.2021
325 Clouds 2 1030 77 10000 1.79 341 12:27 14.11.2021
326 Clear 2 1030 77 10000 2.24 339 11:41 14.11.2021
327 Clear 2 1029 76 10000 1.79 331 10:41 14.11.2021
328 Clear 1 1029 80 10000 2.24 341 09:47 14.11.2021
329 Clear 1 1028 85 10000 1.34 327 08:53 14.11.2021
330 Clouds 1 1027 86 10000 0.89 324 07:19 14.11.2021
331 Clouds 1 1025 84 10000 0.45 325 23:47 13.11.2021
332 Clouds 1 1025 82 10000 0.45 340 22:25 13.11.2021
333 Clouds 2 1025 83 10000 0.89 322 21:50 13.11.2021
334 Clouds 2 1024 82 10000 1.54 40 21:22 13.11.2021
335 Clouds 2 1025 81 10000 0.45 173 19:38 13.11.2021
336 Clouds 2 1025 81 10000 0.45 170 18:33 13.11.2021
337 Clouds 2 1024 81 10000 0.45 191 18:33 13.11.2021
338 Clouds 2 1024 81 10000 0.45 177 17:55 13.11.2021
339 Clouds 3 1024 80 10000 0.45 310 16:37 13.11.2021
340 Clouds 3 1024 81 10000 0.89 349 15:20 13.11.2021
341 Clouds 3 1024 81 10000 0.89 241 14:20 13.11.2021
342 Clouds 3 1024 82 10000 0.45 349 13:18 13.11.2021
343 Clouds 3 1024 85 10000 0.89 301 12:22 13.11.2021
344 Clouds 2 1023 87 10000 0.89 268 11:34 13.11.2021
345 Clouds 2 1023 84 10000 1.79 310 10:44 13.11.2021
346 Clouds 1 1022 84 10000 0.89 286 09:56 13.11.2021
347 Clouds 1 1022 81 10000 0.89 283 09:34 13.11.2021
348 Clouds 0 1022 88 10000 0.89 293 08:56 13.11.2021
349 Fog -1 1021 90 10000 0.89 309 08:22 13.11.2021
350 Fog 0 1019 92 10000 1.34 309 04:44 13.11.2021
351 Fog 0 1019 92 10000 1.34 307 04:25 13.11.2021
352 Clouds 1 1018 87 10000 0.89 314 01:30 13.11.2021
353 Clouds 4 1016 81 10000 1.34 309 22:46 12.11.2021
354 Clouds 4 1015 79 10000 2.68 320 21:45 12.11.2021
355 Clouds 5 1014 79 10000 3.58 318 19:46 12.11.2021
356 Clouds 5 1014 80 10000 2.68 309 19:27 12.11.2021
357 Clouds 5 1013 80 10000 3.13 300 18:28 12.11.2021
358 Clouds 5 1011 79 10000 2.24 308 16:23 12.11.2021
359 Clouds 6 1010 76 10000 3.13 303 15:32 12.11.2021
360 Clouds 6 1007 76 10000 4.02 310 11:33 12.11.2021
361 Clouds 6 1006 77 10000 4.47 308 10:51 12.11.2021
362 Clouds 6 1005 78 10000 3.13 306 09:37 12.11.2021
363 Clouds 5 1004 80 10000 4.47 311 08:38 12.11.2021
364 Clouds 5 999 82 10000 4.02 305 02:28 12.11.2021
365 Clouds 6 999 85 10000 2.24 267 23:39 11.11.2021
366 Clouds 6 999 85 10000 1.34 279 22:30 11.11.2021
367 Drizzle 7 999 86 10000 1.34 244 21:27 11.11.2021
368 Clouds 7 1000 84 10000 1.79 244 20:38 11.11.2021
369 Clouds 7 1002 83 10000 3.58 227 18:56 11.11.2021
370 Clouds 7 1004 84 10000 2.68 222 17:43 11.11.2021
371 Clouds 7 1005 84 10000 2.68 215 16:43 11.11.2021
372 Clouds 7 1007 83 10000 3.13 217 14:46 11.11.2021
373 Clouds 7 1007 81 10000 1.79 224 14:28 11.11.2021
374 Clouds 7 1008 83 10000 2.68 226 13:38 11.11.2021
375 Clouds 7 1009 82 10000 3.13 230 12:48 11.11.2021
376 Clear 5 1011 82 10000 1.34 235 10:36 11.11.2021
377 Clear 4 1011 83 10000 1.34 242 09:34 11.11.2021
378 Clear 3 1011 87 10000 1.34 235 07:38 11.11.2021
379 Clouds 5 1011 88 10000 1.34 257 03:58 11.11.2021
380 Clouds 8 1008 85 10000 1.79 251 23:00 10.11.2021
381 Clouds 8 1008 85 10000 2.24 263 22:22 10.11.2021
382 Clouds 9 1008 84 10000 1.34 252 21:21 10.11.2021
383 Clouds 9 1008 83 10000 1.34 258 20:46 10.11.2021
384 Clouds 9 1008 85 10000 2.24 231 19:47 10.11.2021
385 Clouds 9 1008 85 10000 2.24 231 19:47 10.11.2021
386 Clouds 9 1007 85 10000 2.24 232 18:33 10.11.2021
387 Clouds 9 1008 83 10000 2.24 235 16:34 10.11.2021
388 Drizzle 9 1008 85 10000 2.24 220 14:52 10.11.2021
389 Drizzle 9 1008 86 4500 2.24 231 13:41 10.11.2021
390 Drizzle 9 1009 86 8000 3.13 229 12:47 10.11.2021
391 Mist 9 1010 85 4500 2.24 217 10:39 10.11.2021
392 Drizzle 8 1010 84 4000 2.24 214 08:45 10.11.2021
393 Drizzle 7 1010 87 4000 3.13 225 07:44 10.11.2021
394 Drizzle 7 1011 85 5000 4.47 213 06:26 10.11.2021
395 Drizzle 7 1011 87 6000 4.92 208 05:51 10.11.2021
396 Drizzle 5 1015 85 3500 4.92 222 23:53 09.11.2021
397 Drizzle 5 1017 86 5000 5.36 199 21:48 09.11.2021
398 Drizzle 4 1018 86 4000 5.36 204 20:32 09.11.2021
399 Drizzle 4 1018 86 5000 4.47 200 19:25 09.11.2021
400 Rain 4 1020 87 7000 1.34 208 17:37 09.11.2021
401 Rain 4 1021 84 6000 3.58 204 15:45 09.11.2021
402 Clouds 4 1022 79 10000 4.02 194 14:29 09.11.2021
403 Clouds 2 1023 76 10000 3.58 200 12:53 09.11.2021
404 Clear 1 1023 81 10000 0.45 128 11:42 09.11.2021
405 Clear 0 1025 82 10000 1.54 210 10:45 09.11.2021
406 Clear -2 1024 83 10000 1.54 140 09:28 09.11.2021
407 Clear -4 1025 88 10000 0 0 08:26 09.11.2021
408 Clear -8 1025 100 10000 1.54 290 05:52 09.11.2021
409 Clear -4 1023 83 10000 1.79 310 02:23 09.11.2021
410 Clear -4 1022 82 10000 0.89 307 01:45 09.11.2021
411 Clear -3 1022 79 10000 0.89 325 23:58 08.11.2021
412 Clear -3 1021 79 10000 1.34 320 22:50 08.11.2021
413 Clear -2 1020 77 10000 2.24 327 21:59 08.11.2021
414 Clear -2 1019 77 10000 3.58 336 20:55 08.11.2021
415 Clear -1 1019 74 10000 2.68 334 19:51 08.11.2021
416 Clear -1 1018 72 10000 2.68 331 18:30 08.11.2021
417 Clear 0 1017 78 10000 4.47 331 16:34 08.11.2021
418 Clouds 1 1016 73 10000 2.68 338 15:25 08.11.2021
419 Clouds 2 1015 75 10000 4.92 340 14:40 08.11.2021
420 Clouds 2 1014 71 10000 3.13 337 13:33 08.11.2021
421 Clouds 2 1011 72 10000 4.02 1 11:56 08.11.2021
422 Snow 2 1010 77 10000 4.02 341 10:52 08.11.2021
423 Clouds 2 1009 75 10000 3.13 346 09:44 08.11.2021
424 Snow 1 1008 79 10000 4.47 339 08:54 08.11.2021
425 Snow 1 1004 81 10000 4.47 337 07:35 08.11.2021
426 Clouds 2 1002 79 10000 3.58 342 04:42 08.11.2021
427 Clouds 2 1001 78 10000 3.58 358 03:28 08.11.2021
428 Clouds 3 999 84 10000 3.13 5 23:46 07.11.2021
429 Rain 2 997 85 10000 2.68 22 21:54 07.11.2021
430 Rain 2 997 86 10000 1.79 13 21:20 07.11.2021
431 Rain 2 997 84 10000 2.68 36 19:40 07.11.2021
432 Rain 3 997 84 10000 1.79 30 18:22 07.11.2021
433 Drizzle 3 997 86 10000 1.79 27 16:54 07.11.2021
434 Drizzle 3 997 86 10000 1.34 77 15:54 07.11.2021
435 Rain 4 998 84 10000 0.89 121 14:29 07.11.2021
436 Rain 3 998 84 10000 0.89 125 13:35 07.11.2021
437 Clouds 3 999 82 10000 0.45 91 11:43 07.11.2021
438 Clouds 2 1000 91 10000 0.89 69 09:52 07.11.2021
439 Clouds 1 1000 90 10000 1.03 0 08:31 07.11.2021
440 Clouds 1 1002 86 10000 0.89 232 02:41 07.11.2021
441 Clouds 2 1003 84 10000 1.79 237 23:38 06.11.2021
442 Clouds 2 1002 84 10000 1.34 250 22:48 06.11.2021
443 Clear 2 1002 82 10000 0.89 247 21:33 06.11.2021
444 Clouds 2 1002 82 10000 1.79 264 20:50 06.11.2021
445 Clouds 3 1000 86 10000 1.34 261 18:56 06.11.2021
446 Clouds 4 999 86 10000 1.79 284 16:47 06.11.2021
447 Clouds 4 999 86 10000 1.79 284 16:47 06.11.2021
448 Clouds 4 999 86 10000 1.79 284 16:47 06.11.2021
449 Clouds 4 999 86 10000 1.79 284 16:47 06.11.2021
450 Clouds 4 999 86 10000 1.79 284 16:47 06.11.2021
451 Clouds 5 998 82 10000 2.24 307 15:20 06.11.2021
452 Rain 6 998 83 10000 2.68 303 13:38 06.11.2021
453 Clouds 7 998 83 10000 1.79 282 12:28 06.11.2021
454 Clouds 5 999 85 10000 1.34 290 09:33 06.11.2021
455 Clouds 4 999 88 10000 1.34 253 07:55 06.11.2021
456 Rain 5 999 91 10000 1.34 264 02:36 06.11.2021
457 Clouds 5 999 86 10000 1.34 248 23:37 05.11.2021
458 Clouds 5 998 85 10000 1.79 242 22:34 05.11.2021
459 Clouds 5 998 85 10000 1.79 259 21:50 05.11.2021
460 Clouds 5 997 83 10000 1.79 270 20:20 05.11.2021
461 Clouds 5 997 85 10000 2.24 281 19:48 05.11.2021
462 Clouds 6 997 86 10000 1.79 294 18:40 05.11.2021
463 Rain 5 995 86 10000 2.68 307 17:30 05.11.2021
464 Clouds 6 993 85 10000 2.68 330 15:43 05.11.2021
465 Rain 8 993 88 4000 4.02 203 13:38 05.11.2021
466 Mist 8 994 88 3000 3.13 191 11:27 05.11.2021
467 Rain 7 996 88 3000 0.89 142 08:41 05.11.2021
468 Rain 7 998 86 4000 1.79 132 07:39 05.11.2021
469 Rain 7 997 86 4000 1.79 133 07:39 05.11.2021
470 Rain 7 1000 88 4500 1.34 130 05:33 05.11.2021
471 Rain 6 1004 86 10000 0.89 124 02:26 05.11.2021
472 Clouds 6 1006 85 10000 0.89 109 00:52 05.11.2021
473 Clouds 6 1007 87 10000 0.45 195 23:24 04.11.2021
474 Clouds 7 1008 86 10000 0.45 189 22:19 04.11.2021
475 Clouds 7 1008 87 10000 0.45 177 21:38 04.11.2021
476 Clouds 8 1009 84 10000 2.68 198 20:50 04.11.2021
477 Clouds 8 1009 84 10000 1.79 191 20:22 04.11.2021
478 Clouds 8 1009 84 10000 2.24 225 19:47 04.11.2021
479 Clouds 7 1009 85 10000 2.24 198 18:52 04.11.2021
480 Clouds 7 1009 86 10000 2.24 199 18:18 04.11.2021
481 Clouds 7 1008 86 10000 1.79 212 16:48 04.11.2021
482 Clouds 8 1008 81 10000 1.34 245 14:42 04.11.2021
483 Clouds 9 1007 81 10000 2.24 230 12:53 04.11.2021
484 Clouds 8 1005 88 6000 1.79 260 09:42 04.11.2021
485 Clouds 8 1004 86 10000 1.79 191 08:31 04.11.2021
486 Clouds 8 1004 86 10000 1.79 196 07:35 04.11.2021
487 Clouds 8 1003 86 10000 1.79 225 04:47 04.11.2021
488 Drizzle 8 1002 86 2500 1.79 139 22:53 03.11.2021
489 Rain 8 1002 86 2500 1.79 136 21:49 03.11.2021
490 Drizzle 8 1002 86 2500 1.34 136 21:30 03.11.2021
491 Drizzle 8 1002 86 2500 1.34 139 20:36 03.11.2021
492 Drizzle 8 1002 86 2500 1.34 138 19:58 03.11.2021
493 Drizzle 8 1002 88 4000 1.34 132 18:57 03.11.2021
494 Drizzle 8 1003 88 3000 1.34 130 18:23 03.11.2021
495 Drizzle 7 1003 88 3000 1.34 143 17:36 03.11.2021
496 Clouds 7 1003 88 8000 1.34 135 16:26 03.11.2021
497 Clouds 7 1003 88 4000 1.34 131 15:43 03.11.2021
498 Rain 7 1004 86 4000 1.79 134 13:57 03.11.2021
499 Clouds 7 1005 85 10000 2.24 139 11:59 03.11.2021
500 Rain 7 1005 84 10000 2.68 134 11:25 03.11.2021
501 Rain 7 1006 83 10000 3.13 130 10:46 03.11.2021
502 Clouds 7 1006 82 10000 2.24 127 09:30 03.11.2021
503 Clouds 7 1006 78 10000 1.79 139 08:22 03.11.2021
504 Clouds 7 1006 78 10000 0.89 229 07:39 03.11.2021
505 Clouds 6 1007 80 10000 0.89 161 05:35 03.11.2021
506 Clouds 7 1007 83 10000 1.34 138 02:28 03.11.2021
507 Clouds 7 1008 83 10000 0.45 229 23:51 02.11.2021
508 Clouds 7 1008 84 10000 0.89 239 22:46 02.11.2021
509 Clouds 7 1008 83 10000 0.45 258 21:29 02.11.2021
510 Clear 7 1008 80 10000 0.89 191 20:33 02.11.2021
511 Clear 7 1008 82 10000 1.34 158 19:51 02.11.2021
512 Clouds 7 1008 82 10000 1.79 138 18:59 02.11.2021
513 Clouds 7 1008 84 10000 0.89 165 17:59 02.11.2021
514 Clouds 7 1008 84 10000 0.89 167 17:38 02.11.2021
515 Clouds 7 1008 84 10000 1.79 135 16:30 02.11.2021
516 Clouds 8 1008 83 10000 2.24 123 15:30 02.11.2021
517 Clear 8 1008 81 10000 1.79 132 14:28 02.11.2021
518 Clear 8 1009 82 10000 1.34 130 13:27 02.11.2021
519 Clear 8 1009 81 10000 1.34 133 12:39 02.11.2021
520 Clouds 8 1009 77 10000 0.89 155 11:33 02.11.2021
521 Clouds 8 1009 78 10000 0.45 170 10:52 02.11.2021
522 Clouds 7 1010 79 10000 0.89 150 10:26 02.11.2021
523 Clouds 6 1009 83 10000 0.89 212 08:43 02.11.2021
524 Clouds 5 1009 85 8000 1.34 187 06:50 02.11.2021
525 Clear 6 1008 83 10000 0.89 203 03:48 02.11.2021
526 Clear 6 1008 80 10000 0.89 183 02:18 02.11.2021
527 Clear 6 1008 84 10000 0.45 215 22:44 01.11.2021
528 Clear 7 1008 84 10000 0.89 196 20:52 01.11.2021
529 Clear 7 1008 86 10000 0.89 240 20:33 01.11.2021
530 Clear 8 1008 89 10000 0.89 208 19:52 01.11.2021
531 Clear 8 1008 87 10000 2.24 132 18:58 01.11.2021
532 Clear 8 1008 85 10000 2.24 138 18:21 01.11.2021
533 Clear 9 1008 83 10000 2.24 131 17:19 01.11.2021
534 Clear 9 1008 84 10000 1.79 139 16:43 01.11.2021
535 Clouds 10 1008 83 10000 1.79 132 15:46 01.11.2021
536 Clouds 10 1009 83 10000 1.79 128 15:20 01.11.2021
537 Clouds 10 1009 83 10000 1.34 124 15:20 01.11.2021
538 Clouds 11 1009 81 10000 1.34 129 14:41 01.11.2021
539 Clouds 11 1009 81 10000 1.34 123 14:20 01.11.2021
540 Clouds 11 1010 82 10000 0.89 134 13:18 01.11.2021
541 Clouds 11 1010 84 10000 0.89 150 12:24 01.11.2021
542 Clouds 10 1011 86 9000 1.34 131 10:23 01.11.2021
543 Mist 9 1011 88 5000 0.45 215 08:53 01.11.2021
544 Mist 9 1011 87 4800 0.45 201 07:47 01.11.2021
545 Clouds 8 1010 88 8000 0.89 184 05:53 01.11.2021
546 Clouds 8 1010 93 10000 0.89 248 03:40 01.11.2021
547 Clouds 9 1009 88 10000 1.34 208 23:59 31.10.2021
548 Clouds 10 1008 84 10000 3.13 232 21:31 31.10.2021
549 Clouds 10 1008 85 10000 3.58 206 20:25 31.10.2021
550 Clouds 10 1007 84 10000 3.13 210 18:51 31.10.2021
551 Clouds 10 1007 84 10000 4.47 193 18:25 31.10.2021
552 Clouds 9 1007 87 10000 1.79 202 16:48 31.10.2021
553 Clouds 9 1007 85 10000 0.45 182 15:18 31.10.2021
554 Clouds 9 1006 87 10000 2.24 194 13:27 31.10.2021
555 Clouds 8 1007 85 10000 0.89 203 12:30 31.10.2021
556 Clouds 8 1007 85 10000 2.68 196 10:51 31.10.2021
557 Clouds 8 1007 85 10000 1.34 178 09:43 31.10.2021
558 Clouds 8 1007 86 8000 0.45 215 08:48 31.10.2021
559 Clouds 8 1009 87 7000 0.45 221 04:55 31.10.2021
560 Clouds 9 1011 84 10000 0.89 227 00:47 31.10.2021
561 Clouds 9 1011 84 10000 2.68 225 22:28 30.10.2021
562 Clouds 9 1011 84 10000 1.79 219 21:30 30.10.2021
563 Clouds 9 1009 81 10000 1.34 209 19:57 30.10.2021
564 Mist 7 1011 92 4500 0.89 175 18:21 30.10.2021
565 Clouds 9 1012 86 10000 0.45 157 15:58 30.10.2021
566 Clouds 9 1012 84 10000 0.45 168 14:23 30.10.2021
567 Clouds 9 1012 86 10000 1.79 183 13:38 30.10.2021
568 Clouds 9 1012 86 10000 2.24 181 13:20 30.10.2021
569 Clouds 9 1013 85 10000 1.79 207 11:50 30.10.2021
570 Clouds 9 1013 84 10000 1.34 239 10:58 30.10.2021
571 Clouds 9 1012 84 10000 2.24 196 09:40 30.10.2021
572 Clouds 9 1011 84 10000 1.34 226 07:57 30.10.2021
573 Clouds 9 1011 84 10000 1.34 226 07:57 30.10.2021
574 Clouds 9 1011 82 10000 1.34 238 05:48 30.10.2021
575 Clouds 9 1011 81 10000 1.79 236 03:28 30.10.2021
576 Clouds 9 1011 84 10000 1.34 200 23:33 29.10.2021
577 Clouds 9 1011 86 9000 1.34 224 22:35 29.10.2021
578 Clouds 9 1011 92 7000 2.24 203 21:19 29.10.2021
579 Clouds 9 1011 87 8000 1.79 185 20:33 29.10.2021
580 Clouds 10 1011 85 9000 1.79 201 19:33 29.10.2021
581 Clouds 10 1011 85 9000 1.79 226 18:18 29.10.2021
582 Clouds 11 1011 85 10000 3.13 230 16:20 29.10.2021
583 Clouds 11 1011 85 10000 3.13 233 13:23 29.10.2021
584 Clouds 11 1010 88 10000 2.24 222 10:50 29.10.2021
585 Clouds 10 1011 88 10000 2.24 245 10:31 29.10.2021
586 Clouds 10 1010 87 10000 3.13 231 05:43 29.10.2021
587 Drizzle 11 1009 87 10000 2.24 234 00:35 29.10.2021
588 Drizzle 11 1009 88 7000 3.13 223 22:40 28.10.2021
589 Drizzle 11 1009 88 10000 2.24 239 21:20 28.10.2021
590 Mist 11 1009 88 3500 2.24 221 20:19 28.10.2021
591 Drizzle 10 1009 84 3000 3.13 198 18:47 28.10.2021
592 Mist 10 1010 91 3000 4.02 188 17:52 28.10.2021
593 Drizzle 10 1011 91 2500 2.68 191 16:39 28.10.2021
594 Mist 9 1011 91 1000 2.68 205 14:43 28.10.2021
595 Mist 9 1011 91 2000 2.24 187 13:33 28.10.2021
596 Mist 9 1011 89 1200 1.34 168 12:50 28.10.2021
597 Mist 8 1011 89 2000 1.79 198 11:51 28.10.2021
598 Fog 7 1011 85 300 1.34 205 10:47 28.10.2021
599 Fog 6 1011 86 300 0.45 143 09:37 28.10.2021
600 Fog 5 1009 85 300 0.45 13 08:37 28.10.2021
601 Fog 6 1009 88 800 0.45 319 07:41 28.10.2021
602 Clouds 7 1006 85 10000 2.68 309 03:51 28.10.2021
603 Clouds 9 999 85 10000 3.58 310 22:57 27.10.2021
604 Clouds 9 999 87 10000 2.68 306 22:26 27.10.2021
605 Clouds 9 998 87 10000 2.24 298 21:32 27.10.2021
606 Clouds 9 997 88 10000 2.24 292 20:46 27.10.2021
607 Drizzle 9 996 88 7000 2.68 287 19:48 27.10.2021
608 Drizzle 8 997 88 4000 2.68 199 18:56 27.10.2021
609 Drizzle 8 997 88 4000 3.13 214 18:37 27.10.2021
610 Rain 8 1001 88 7000 1.79 179 16:26 27.10.2021
611 Rain 8 1002 88 9000 2.68 205 15:29 27.10.2021
612 Rain 8 1003 85 10000 2.68 216 14:38 27.10.2021
613 Clouds 8 1005 85 10000 1.79 231 11:19 27.10.2021
614 Clouds 8 1005 85 10000 1.79 266 10:56 27.10.2021
615 Clouds 7 1005 85 10000 1.79 262 09:38 27.10.2021
616 Clouds 7 1004 89 10000 0.89 252 07:51 27.10.2021
617 Clouds 7 1004 89 10000 1.34 259 06:36 27.10.2021
618 Clouds 8 1003 88 10000 1.34 244 01:29 27.10.2021
619 Clouds 8 1003 90 10000 0.89 246 00:55 27.10.2021
620 Rain 8 1004 90 10000 1.79 240 23:56 26.10.2021
621 Rain 9 1003 88 8000 1.34 244 22:55 26.10.2021
622 Rain 9 1004 88 7000 0.89 238 22:27 26.10.2021
623 Rain 9 1004 88 5000 1.79 224 21:51 26.10.2021
624 Drizzle 9 1006 87 4000 5.66 200 19:59 26.10.2021
625 Drizzle 9 1005 88 6000 2.68 209 19:25 26.10.2021
626 Clouds 9 1005 85 10000 2.24 229 18:30 26.10.2021
627 Clouds 10 1006 83 10000 2.24 227 15:53 26.10.2021
628 Clouds 10 1007 82 10000 2.68 229 14:18 26.10.2021
629 Clouds 9 1007 84 10000 3.13 225 11:23 26.10.2021
630 Clouds 9 1008 85 10000 2.68 230 09:27 26.10.2021
631 Clouds 8 1008 84 10000 1.79 231 07:23 26.10.2021
632 Clouds 9 1009 78 10000 0.89 255 00:31 26.10.2021
633 Clouds 9 1009 77 10000 2.24 226 23:48 25.10.2021
634 Clouds 9 1010 74 10000 3.13 221 22:35 25.10.2021
635 Clouds 9 1010 76 10000 3.13 226 21:47 25.10.2021
636 Clouds 9 1011 77 10000 3.13 233 20:48 25.10.2021
637 Clouds 9 1011 75 10000 3.13 214 19:44 25.10.2021
638 Clouds 9 1011 75 10000 2.68 223 19:24 25.10.2021
639 Clouds 9 1011 76 10000 3.13 225 18:42 25.10.2021
640 Clouds 9 1012 72 10000 3.13 239 17:42 25.10.2021
641 Clouds 10 1012 72 10000 2.68 220 15:24 25.10.2021
642 Clouds 10 1013 74 10000 2.68 243 12:39 25.10.2021
643 Clouds 10 1013 77 10000 2.68 226 11:25 25.10.2021
644 Clouds 9 1013 79 10000 3.58 231 09:22 25.10.2021
645 Clouds 8 1013 85 10000 2.68 231 07:26 25.10.2021
646 Clouds 9 1013 87 10000 3.13 222 05:24 25.10.2021
647 Clouds 8 1016 88 10000 3.13 198 00:52 25.10.2021
648 Rain 8 1016 90 10000 2.24 222 00:34 25.10.2021
649 Clouds 7 1016 90 10000 2.24 200 23:42 24.10.2021
650 Clouds 7 1017 88 10000 3.58 214 22:39 24.10.2021
651 Clouds 6 1017 88 10000 4.47 199 22:20 24.10.2021
652 Rain 6 1018 88 10000 4.47 211 21:33 24.10.2021
653 Rain 5 1018 90 8000 4.02 197 20:39 24.10.2021
654 Rain 4 1019 87 10000 4.47 196 19:47 24.10.2021
655 Clouds 4 1020 84 10000 2.68 174 18:29 24.10.2021
656 Rain 3 1021 83 10000 2.68 169 17:45 24.10.2021
657 Clouds 3 1022 70 10000 1.79 193 15:57 24.10.2021
658 Clouds 3 1022 69 10000 0.89 197 15:19 24.10.2021
659 Clouds 3 1023 67 10000 1.79 238 13:19 24.10.2021
660 Clear 2 1023 74 10000 0.45 248 12:23 24.10.2021
661 Clouds 1 1023 73 10000 0.45 246 11:34 24.10.2021
662 Clouds 0 1022 76 10000 0.89 310 10:30 24.10.2021
663 Clear -2 1021 86 10000 0.89 303 08:00 24.10.2021
664 Clouds 0 1016 79 10000 3.58 337 01:26 24.10.2021
665 Clouds 0 1016 76 10000 1.79 319 23:51 23.10.2021
666 Clouds 1 1015 78 10000 2.24 337 22:40 23.10.2021
667 Clouds 1 1013 79 10000 4.02 328 20:39 23.10.2021
668 Clouds 1 1011 84 10000 2.68 328 19:00 23.10.2021
669 Clouds 1 1011 84 10000 3.13 331 18:41 23.10.2021
670 Clouds 2 1010 80 10000 1.79 327 17:44 23.10.2021
671 Clouds 2 1009 81 10000 1.79 327 17:44 23.10.2021
672 Clouds 2 1008 81 10000 3.58 338 16:45 23.10.2021
673 Clouds 3 1004 84 10000 5.36 334 14:45 23.10.2021
674 Clouds 2 998 88 10000 3.58 337 09:45 23.10.2021
675 Drizzle 2 985 87 10000 2.24 298 00:36 23.10.2021
676 Drizzle 3 984 87 10000 3.58 312 23:28 22.10.2021
677 Rain 4 982 86 10000 3.13 269 20:56 22.10.2021
678 Rain 5 982 85 10000 3.13 254 18:57 22.10.2021
679 Rain 5 981 85 10000 4.02 255 17:44 22.10.2021
680 Rain 6 979 81 10000 3.58 233 15:57 22.10.2021
681 Rain 6 978 80 10000 4.47 254 14:30 22.10.2021
682 Clouds 6 976 82 10000 3.58 270 12:41 22.10.2021
683 Rain 5 974 84 10000 3.58 248 10:50 22.10.2021
684 Rain 5 971 84 10000 3.58 241 09:56 22.10.2021
685 Rain 5 971 84 10000 3.58 241 09:56 22.10.2021
686 Rain 5 970 84 10000 4.47 248 09:32 22.10.2021
687 Rain 6 968 85 10000 4.02 246 07:26 22.10.2021
688 Rain 7 965 86 10000 4.02 243 04:59 22.10.2021
689 Clouds 9 966 87 10000 2.68 194 00:31 22.10.2021
690 Clouds 10 967 85 10000 4.02 197 23:48 21.10.2021
691 Clouds 10 967 85 10000 2.24 173 22:21 21.10.2021
692 Clouds 11 968 88 10000 2.24 190 20:55 21.10.2021
693 Rain 10 971 89 4500 1.34 203 20:20 21.10.2021
694 Rain 10 972 89 10000 1.34 136 19:30 21.10.2021
695 Rain 10 974 89 10000 2.24 139 18:52 21.10.2021
696 Rain 10 974 88 10000 0.89 146 18:27 21.10.2021
697 Clouds 10 976 88 10000 0.89 173 17:42 21.10.2021
698 Clouds 11 978 84 7000 4.12 160 16:26 21.10.2021
699 Clouds 11 979 84 10000 2.68 217 15:21 21.10.2021
700 Clouds 12 980 81 10000 1.79 191 14:50 21.10.2021
701 Clouds 12 981 82 10000 4.02 203 13:27 21.10.2021
702 Clouds 11 980 80 10000 5.36 230 11:35 21.10.2021
703 Clouds 10 979 83 10000 1.34 264 09:23 21.10.2021
704 Clouds 10 978 85 10000 1.34 243 07:32 21.10.2021
705 Clouds 10 978 88 10000 3.13 236 05:33 21.10.2021
706 Rain 12 978 91 10000 2.68 227 23:56 20.10.2021
707 Rain 12 978 89 8000 2.24 234 22:21 20.10.2021
708 Clouds 12 978 89 10000 3.58 227 21:45 20.10.2021
709 Clouds 11 978 91 10000 2.68 231 20:57 20.10.2021
710 Rain 11 978 91 10000 1.79 240 20:36 20.10.2021
711 Rain 12 979 89 10000 2.24 219 19:59 20.10.2021
712 Rain 12 979 89 10000 3.58 230 18:59 20.10.2021
713 Drizzle 12 980 89 10000 2.68 205 17:54 20.10.2021
714 Drizzle 10 983 91 2200 3.13 209 15:47 20.10.2021
715 Rain 7 988 88 3500 3.13 187 12:33 20.10.2021
716 Drizzle 5 995 88 4000 1.79 187 09:19 20.10.2021
717 Clouds 6 1004 73 10000 1.34 188 05:24 20.10.2021
718 Clouds 6 1012 76 10000 1.79 210 00:53 20.10.2021
719 Clouds 6 1013 76 10000 1.79 190 00:22 20.10.2021
720 Clouds 4 1016 72 10000 1.34 202 21:47 19.10.2021
721 Clouds 3 1014 72 10000 1.34 196 21:27 19.10.2021
722 Clouds 3 1016 71 10000 0.89 200 20:25 19.10.2021
723 Clouds 2 1016 75 10000 0.45 221 19:45 19.10.2021
724 Clear 2 1016 75 10000 0.45 163 19:21 19.10.2021
725 Clouds 2 1019 73 10000 0.89 212 17:59 19.10.2021
726 Clouds 4 1021 60 10000 0.89 227 15:57 19.10.2021
727 Clouds 5 1021 57 10000 1.34 258 15:20 19.10.2021
728 Clouds 5 1021 56 10000 1.79 311 14:27 19.10.2021
729 Clouds 5 1021 58 10000 1.79 304 13:36 19.10.2021
730 Clear 4 1022 66 10000 1.79 324 11:37 19.10.2021
731 Clear 3 1022 74 10000 1.79 337 10:39 19.10.2021
732 Clear -1 1019 81 10000 1.34 312 08:59 19.10.2021
733 Clear -2 1018 85 10000 0.89 325 07:50 19.10.2021
734 Clouds 2 1018 77 10000 2.24 314 00:27 19.10.2021
735 Clouds 3 1018 75 10000 3.13 327 23:56 18.10.2021
736 Clouds 3 1017 75 10000 2.68 314 23:20 18.10.2021
737 Clouds 3 1017 77 10000 3.58 313 22:54 18.10.2021
738 Clouds 3 1017 77 10000 3.13 323 21:54 18.10.2021
739 Clouds 3 1016 75 10000 4.02 327 20:42 18.10.2021
740 Clouds 4 1016 74 10000 2.24 323 20:19 18.10.2021
741 Clouds 4 1015 71 10000 4.47 337 19:30 18.10.2021
742 Clouds 5 1015 69 10000 4.92 338 18:58 18.10.2021
743 Clouds 6 1013 73 10000 3.58 315 15:56 18.10.2021
744 Clouds 6 1012 69 10000 4.47 323 14:28 18.10.2021
745 Clouds 5 1010 74 10000 4.47 306 10:55 18.10.2021
746 Clouds 4 1009 78 10000 4.02 325 09:31 18.10.2021
747 Clouds 4 1003 80 10000 3.58 295 05:32 18.10.2021
748 Clouds 3 1004 78 10000 1.79 304 23:45 17.10.2021
749 Clouds 4 1005 76 10000 2.68 303 21:58 17.10.2021
750 Clouds 4 1005 76 10000 2.24 300 21:40 17.10.2021
751 Clouds 4 1005 76 10000 1.79 295 20:40 17.10.2021
752 Clouds 5 1005 71 10000 1.34 258 19:43 17.10.2021
753 Clouds 5 1005 69 10000 0.89 271 19:24 17.10.2021
754 Clouds 6 1004 63 10000 1.79 279 17:47 17.10.2021
755 Clouds 8 1004 57 10000 3.13 272 15:54 17.10.2021
756 Clouds 8 1004 56 10000 3.13 296 14:32 17.10.2021
757 Clouds 8 1004 57 10000 3.13 304 13:56 17.10.2021
758 Clouds 8 1004 64 10000 2.68 285 12:35 17.10.2021
759 Clouds 6 1001 68 10000 2.24 290 10:44 17.10.2021
760 Clouds 6 1001 69 10000 2.68 289 09:48 17.10.2021
761 Clouds 3 1000 78 10000 1.79 274 07:42 17.10.2021
762 Clouds 4 997 84 10000 1.34 273 00:56 17.10.2021
763 Clouds 4 997 85 10000 2.24 248 00:24 17.10.2021
764 Rain 5 996 82 10000 3.58 276 22:31 16.10.2021
765 Clouds 6 996 78 10000 1.79 243 20:35 16.10.2021
766 Clear 6 996 75 10000 2.68 253 19:55 16.10.2021
767 Clear 6 996 75 10000 1.34 255 19:37 16.10.2021
768 Clear 6 996 73 10000 3.13 264 19:18 16.10.2021
769 Clear 6 996 71 10000 1.79 261 18:42 16.10.2021
770 Clear 6 996 70 10000 1.79 254 18:19 16.10.2021
771 Clear 7 995 67 10000 1.79 232 17:28 16.10.2021
772 Clouds 9 996 54 10000 2.68 249 15:38 16.10.2021
773 Clouds 8 995 63 10000 2.68 277 12:30 16.10.2021
774 Clouds 7 996 69 10000 3.13 278 10:48 16.10.2021
775 Clear 4 995 79 10000 3.13 246 08:32 16.10.2021
776 Clouds 4 992 79 10000 3.58 242 01:27 16.10.2021
777 Clouds 5 991 80 10000 2.68 259 23:57 15.10.2021
778 Clouds 5 991 80 10000 3.13 240 23:24 15.10.2021
779 Clouds 5 990 83 10000 3.13 255 22:20 15.10.2021
780 Clouds 6 989 77 10000 3.13 252 21:32 15.10.2021
781 Clouds 8 988 84 10000 4.02 244 20:50 15.10.2021
782 Clouds 9 988 84 10000 3.58 263 20:18 15.10.2021
783 Clouds 8 988 84 10000 2.68 191 18:45 15.10.2021
784 Rain 9 989 84 10000 1.34 230 17:58 15.10.2021
785 Clouds 10 990 88 2500 2.24 184 15:37 15.10.2021
786 Clouds 10 992 91 3000 2.24 184 13:39 15.10.2021
787 Clouds 9 994 88 10000 3.58 180 11:46 15.10.2021
788 Clouds 9 994 88 10000 2.68 184 10:58 15.10.2021
789 Drizzle 9 995 91 10000 4.02 180 10:19 15.10.2021
790 Clouds 8 997 88 10000 6.71 190 06:47 15.10.2021
791 Clouds 8 1001 82 10000 2.68 196 02:21 15.10.2021
792 Clouds 8 1003 78 10000 4.92 186 00:22 15.10.2021
793 Clouds 8 1004 76 10000 3.58 187 22:52 14.10.2021
794 Clouds 8 1005 76 10000 5.36 194 21:46 14.10.2021
795 Clouds 8 1006 74 10000 4.02 186 20:55 14.10.2021
796 Clouds 8 1006 74 10000 4.92 192 20:19 14.10.2021
797 Clouds 8 1007 74 10000 4.02 188 19:42 14.10.2021
798 Clouds 8 1008 70 10000 2.24 205 17:39 14.10.2021
799 Clouds 8 1008 70 10000 2.24 205 17:39 14.10.2021
800 Clouds 8 1008 69 10000 1.79 237 16:56 14.10.2021
801 Clouds 8 1009 71 10000 3.13 205 16:21 14.10.2021
802 Clouds 9 1009 70 10000 4.02 210 14:44 14.10.2021
803 Clouds 9 1009 73 10000 2.68 202 14:24 14.10.2021
804 Clouds 8 1011 71 10000 2.24 184 11:56 14.10.2021
805 Clouds 7 1013 69 10000 3.09 180 10:43 14.10.2021
806 Clouds 1 1010 92 10000 1.8 242 07:39 14.10.2021
807 Clear 3 1010 89 10000 0.45 300 03:51 14.10.2021
808 Clouds 4 1009 90 10000 2.03 298 00:31 14.10.2021
809 Fog 1 1013 100 10000 1.54 240 22:32 13.10.2021
810 Fog 4 1010 94 10000 0.45 308 21:34 13.10.2021
811 Clouds 5 1010 92 10000 0.89 297 20:22 13.10.2021
812 Clouds 6 1008 89 10000 0.89 291 19:19 13.10.2021
813 Clouds 5 1009 87 10000 0.45 289 18:37 13.10.2021
814 Clouds 9 1008 73 10000 0.45 292 15:53 13.10.2021
815 Clouds 10 1007 74 10000 1.34 330 14:46 13.10.2021
816 Clouds 9 1007 77 10000 0.45 298 14:22 13.10.2021
817 Clouds 8 1007 81 10000 1.34 343 12:23 13.10.2021
818 Clouds 8 1006 83 10000 0.89 317 11:35 13.10.2021
819 Clouds 6 1006 97 10000 1.34 327 08:57 13.10.2021
820 Clouds 6 1005 91 7000 0.89 4 07:43 13.10.2021
821 Clouds 7 1004 91 7000 1.34 325 02:30 13.10.2021
822 Drizzle 7 1005 91 8000 1.03 360 01:47 13.10.2021
823 Clouds 7 1005 87 10000 1.34 339 23:31 12.10.2021
824 Clouds 7 1005 89 10000 0.45 30 22:47 12.10.2021
825 Rain 7 1005 88 10000 0.45 342 22:23 12.10.2021
826 Rain 7 1004 91 10000 0.89 348 20:46 12.10.2021
827 Rain 7 1004 91 10000 0.89 308 20:18 12.10.2021
828 Clouds 8 1004 86 10000 0.89 321 18:45 12.10.2021
829 Clouds 8 1004 86 10000 0.89 333 18:18 12.10.2021
830 Clouds 9 1004 81 10000 0.89 194 16:44 12.10.2021
831 Clouds 10 1003 79 10000 1.34 190 15:58 12.10.2021
832 Clouds 10 1003 82 10000 0.89 199 14:46 12.10.2021
833 Clouds 10 1003 83 10000 1.03 0 13:44 12.10.2021
834 Clouds 9 1003 87 10000 0.45 322 12:40 12.10.2021
835 Rain 8 1002 89 10000 0.89 221 10:20 12.10.2021
836 Rain 7 1002 88 10000 2.06 160 08:44 12.10.2021
837 Rain 7 1002 87 10000 0.89 195 07:54 12.10.2021
838 Clouds 7 1002 87 10000 0.89 178 05:31 12.10.2021
839 Rain 7 1002 89 10000 2.68 223 04:33 12.10.2021
840 Clouds 9 1003 85 10000 4.02 184 01:28 12.10.2021
841 Clouds 9 1003 84 10000 4.47 192 23:41 11.10.2021
842 Clouds 9 1003 82 10000 2.24 191 22:59 11.10.2021
843 Clouds 9 1004 78 10000 4.92 198 21:46 11.10.2021
844 Clouds 9 1004 78 10000 4.92 198 21:46 11.10.2021
845 Clouds 8 1005 79 10000 4.47 201 21:18 11.10.2021
846 Rain 9 1006 82 10000 3.58 189 19:46 11.10.2021
847 Clouds 10 1006 78 10000 5.36 185 18:43 11.10.2021
848 Clouds 10 1006 76 10000 4.47 191 17:54 11.10.2021
849 Clouds 11 1007 74 10000 2.68 182 16:39 11.10.2021
850 Clouds 11 1008 74 10000 2.24 205 15:51 11.10.2021
851 Clouds 11 1008 73 10000 3.58 187 15:23 11.10.2021
852 Clouds 11 1011 75 10000 3.58 183 14:42 11.10.2021
853 Clouds 11 1012 79 10000 4.47 183 13:37 11.10.2021
854 Clouds 11 1013 81 10000 4.02 199 11:52 11.10.2021
855 Clouds 10 1014 87 10000 3.58 209 10:43 11.10.2021
856 Clouds 10 1014 86 10000 4.02 190 09:44 11.10.2021
857 Clouds 10 1012 84 10000 3.58 194 07:29 11.10.2021
858 Clouds 11 1016 82 10000 4.02 212 01:41 11.10.2021
859 Clouds 11 1016 82 10000 3.58 215 00:50 11.10.2021
860 Clouds 11 1017 82 10000 4.02 220 00:28 11.10.2021
861 Clouds 11 1018 82 10000 3.58 220 21:57 10.10.2021
862 Clouds 11 1018 82 10000 3.58 232 21:32 10.10.2021
863 Clouds 11 1018 81 10000 3.58 220 20:48 10.10.2021
864 Clouds 11 1018 81 10000 3.13 227 20:21 10.10.2021
865 Clouds 11 1019 81 10000 3.58 227 19:59 10.10.2021
866 Clouds 11 1019 81 10000 2.68 223 19:36 10.10.2021
867 Clouds 11 1019 82 10000 2.68 217 18:36 10.10.2021
868 Clouds 12 1023 82 10000 4.02 220 16:46 10.10.2021
869 Clouds 12 1024 83 10000 1.79 228 15:46 10.10.2021
870 Clouds 12 1021 82 10000 2.68 230 13:57 10.10.2021
871 Clouds 12 1022 83 10000 4.02 219 13:33 10.10.2021
872 Clouds 12 1022 83 10000 2.68 232 12:35 10.10.2021
873 Clouds 11 1022 85 10000 3.58 214 10:44 10.10.2021
874 Rain 11 1022 87 10000 2.68 231 09:30 10.10.2021
875 Rain 11 1023 88 10000 2.24 218 08:53 10.10.2021
876 Clouds 11 1023 87 10000 3.13 231 07:28 10.10.2021
877 Mist 11 1026 92 1600 1.79 209 02:45 10.10.2021
878 Drizzle 11 1027 92 3500 2.24 197 00:57 10.10.2021
879 Drizzle 11 1027 92 3500 1.79 202 00:23 10.10.2021
880 Drizzle 11 1027 89 4000 2.68 188 22:52 09.10.2021
881 Drizzle 11 1028 89 7000 1.34 209 21:45 09.10.2021
882 Drizzle 11 1028 89 7000 2.24 210 21:26 09.10.2021
883 Drizzle 12 1029 87 10000 2.68 210 19:44 09.10.2021
884 Clouds 12 1029 86 10000 1.79 212 18:59 09.10.2021
885 Clouds 12 1029 86 10000 1.79 190 18:33 09.10.2021
886 Clouds 13 1029 85 10000 1.79 217 16:43 09.10.2021
887 Clouds 13 1029 88 10000 2.68 221 15:33 09.10.2021
888 Drizzle 13 1030 88 8000 1.34 201 13:44 09.10.2021
889 Clouds 13 1030 87 10000 2.24 198 12:40 09.10.2021
890 Clouds 12 1030 96 10000 1.34 218 11:48 09.10.2021
891 Drizzle 12 1030 94 9000 1.34 222 10:42 09.10.2021
892 Mist 12 1030 89 4000 1.79 230 09:40 09.10.2021
893 Clouds 11 1030 92 7000 0.89 211 08:30 09.10.2021
894 Clouds 11 1030 91 9000 0.89 212 07:48 09.10.2021
895 Clouds 11 1030 89 8000 0.89 218 05:29 09.10.2021
896 Clouds 11 1033 89 10000 1.34 241 02:59 09.10.2021
897 Clouds 11 1033 89 10000 1.79 233 02:39 09.10.2021
898 Clouds 11 1033 87 10000 1.34 252 23:41 08.10.2021
899 Clouds 11 1033 86 10000 2.24 237 22:54 08.10.2021
900 Clouds 11 1034 86 10000 2.24 236 22:23 08.10.2021
901 Clouds 11 1034 86 10000 2.24 216 20:55 08.10.2021
902 Clouds 11 1034 86 10000 3.58 214 18:54 08.10.2021
903 Clouds 12 1035 84 10000 1.34 226 17:34 08.10.2021
904 Clouds 12 1032 82 10000 1.34 237 16:51 08.10.2021
905 Clouds 12 1032 81 10000 1.34 223 16:23 08.10.2021
906 Clouds 12 1035 84 10000 2.68 194 13:57 08.10.2021
907 Clouds 12 1033 88 10000 1.79 197 12:48 08.10.2021
908 Clouds 12 1033 85 10000 1.79 198 11:32 08.10.2021
909 Clouds 11 1033 88 10000 1.79 198 10:41 08.10.2021
910 Clouds 11 1033 88 10000 1.34 221 09:18 08.10.2021
911 Clouds 11 1030 89 10000 1.79 221 23:55 07.10.2021
912 Drizzle 11 1030 89 9000 2.68 214 23:18 07.10.2021
913 Clouds 11 1029 90 10000 2.68 218 21:45 07.10.2021
914 Clouds 10 1029 88 10000 2.24 225 21:20 07.10.2021
915 Drizzle 10 1029 90 6000 3.13 205 19:57 07.10.2021
916 Drizzle 10 1029 91 5000 2.24 212 19:28 07.10.2021
917 Clouds 10 1028 91 7000 2.24 227 18:22 07.10.2021
918 Drizzle 10 1028 89 4500 2.68 225 17:18 07.10.2021
919 Drizzle 10 1027 89 6000 2.68 216 15:34 07.10.2021
920 Clouds 10 1027 89 5000 4.02 193 13:47 07.10.2021
921 Rain 10 1027 85 8000 2.24 201 13:28 07.10.2021
922 Clouds 11 1027 78 10000 2.68 201 12:40 07.10.2021
923 Clouds 11 1026 77 10000 3.58 217 10:49 07.10.2021
924 Clouds 11 1026 76 10000 5.81 189 10:19 07.10.2021
925 Clouds 11 1026 76 10000 4.02 190 08:56 07.10.2021
926 Clouds 11 1026 77 10000 3.58 196 08:35 07.10.2021
927 Clouds 11 1025 74 10000 4.47 184 07:42 07.10.2021
928 Clouds 11 1025 74 10000 2.68 186 06:57 07.10.2021
929 Clear 13 1024 68 10000 1.79 184 02:24 07.10.2021
930 Clear 13 1024 69 10000 1.34 182 23:40 06.10.2021
931 Clear 13 1024 74 10000 2.68 180 22:46 06.10.2021
932 Clouds 13 1024 73 10000 2.24 173 21:49 06.10.2021
933 Clear 13 1023 70 10000 1.34 186 20:35 06.10.2021
934 Clear 13 1023 70 10000 0.89 178 19:46 06.10.2021
935 Clear 13 1022 67 10000 1.34 178 18:39 06.10.2021
936 Clear 13 1021 68 10000 1.34 184 16:55 06.10.2021
937 Clear 13 1021 66 10000 1.34 198 15:26 06.10.2021
938 Clear 13 1021 67 10000 0.89 176 13:54 06.10.2021
939 Clear 13 1020 67 10000 0.89 169 12:57 06.10.2021
940 Clear 13 1020 69 10000 0.89 185 12:39 06.10.2021
941 Clear 12 1020 70 10000 0.89 207 12:20 06.10.2021
942 Clear 11 1020 75 10000 1.34 171 09:58 06.10.2021
943 Clear 10 1020 77 10000 1.34 191 09:38 06.10.2021
944 Clear 10 1020 79 10000 1.34 201 08:42 06.10.2021
945 Clear 10 1020 81 10000 0.89 182 07:20 06.10.2021
946 Clear 10 1020 80 10000 0.89 180 05:26 06.10.2021
947 Clear 10 1021 80 10000 0.89 164 00:26 06.10.2021
948 Clear 10 1021 79 10000 0.45 186 23:52 05.10.2021
949 Clear 10 1021 80 10000 0.45 190 23:52 05.10.2021
950 Clear 10 1021 84 10000 0.89 146 23:32 05.10.2021
951 Clear 10 1021 84 10000 0.89 160 22:44 05.10.2021
952 Clouds 10 1022 84 10000 0.89 191 21:58 05.10.2021
953 Clouds 10 1022 84 10000 0.89 191 21:58 05.10.2021
954 Clouds 10 1022 84 10000 0.89 188 21:36 05.10.2021
955 Rain 10 1024 85 10000 0.45 137 20:41 05.10.2021
956 Rain 10 1024 85 10000 0.45 193 20:22 05.10.2021
957 Rain 10 1024 88 10000 0.45 200 19:33 05.10.2021
958 Clouds 10 1022 91 10000 0.89 154 18:49 05.10.2021
959 Rain 10 1021 91 10000 0.45 171 16:36 05.10.2021
960 Clouds 10 1021 89 10000 0.89 185 14:30 05.10.2021
961 Rain 10 1021 89 10000 0.89 195 13:33 05.10.2021
962 Rain 10 1021 89 10000 1.34 171 12:38 05.10.2021
963 Rain 10 1021 88 10000 0.89 167 11:59 05.10.2021
964 Rain 10 1020 86 10000 1.34 185 10:39 05.10.2021
965 Rain 10 1020 86 10000 1.34 185 10:39 05.10.2021
966 Clouds 11 1020 78 10000 2.68 178 08:56 05.10.2021
967 Clear 11 1019 78 10000 1.34 181 03:56 05.10.2021
968 Clear 12 1020 75 10000 1.34 199 23:53 04.10.2021
969 Clear 13 1020 75 10000 1.34 209 21:59 04.10.2021
970 Clear 13 1020 75 10000 0.89 157 19:34 04.10.2021
971 Clear 13 1020 71 10000 0.89 193 17:59 04.10.2021
972 Clear 14 1020 70 10000 1.34 167 16:23 04.10.2021
973 Clear 14 1020 70 10000 0.89 181 15:31 04.10.2021
974 Clear 14 1020 70 10000 1.34 154 14:42 04.10.2021
975 Clear 13 1020 70 10000 1.34 137 13:48 04.10.2021
976 Clear 13 1020 71 10000 1.34 146 13:24 04.10.2021
977 Clear 12 1020 75 10000 0.89 151 11:35 04.10.2021
978 Clear 11 1020 77 10000 0.45 179 10:48 04.10.2021
979 Clear 10 1020 82 10000 1.34 142 09:51 04.10.2021
980 Clear 10 1020 85 10000 1.34 186 08:33 04.10.2021
981 Clear 8 1019 85 10000 0.89 215 06:51 04.10.2021
982 Clouds 10 1020 87 10000 0.89 203 23:43 03.10.2021
983 Clouds 11 1020 85 10000 0.89 182 22:33 03.10.2021
984 Clear 11 1020 85 10000 1.34 162 21:37 03.10.2021
985 Clouds 11 1020 85 10000 0.89 201 20:54 03.10.2021
986 Clear 12 1020 82 10000 0.89 150 19:56 03.10.2021
987 Clear 12 1020 83 10000 0.89 167 18:33 03.10.2021
988 Clear 12 1020 80 10000 1.34 148 17:41 03.10.2021
989 Clear 13 1020 72 10000 1.34 131 15:45 03.10.2021
990 Clear 13 1020 74 10000 1.34 129 14:42 03.10.2021
991 Clouds 13 1020 77 10000 1.79 141 13:40 03.10.2021
992 Clouds 13 1020 77 10000 1.34 133 13:20 03.10.2021
993 Clouds 12 1021 76 10000 0.89 142 11:49 03.10.2021
994 Clouds 11 1021 75 10000 0.89 138 10:35 03.10.2021
995 Clear 9 1021 84 10000 1.34 171 08:33 03.10.2021
996 Clear 9 1022 82 10000 0.89 181 00:26 03.10.2021
997 Clear 10 1022 81 10000 0.89 165 22:23 02.10.2021
998 Clear 9 1024 86 10000 2.57 110 20:50 02.10.2021
999 Clear 10 1022 86 10000 0.45 214 18:59 02.10.2021
1000 Clear 10 1022 82 10000 0.89 141 18:31 02.10.2021
1001 Clouds 11 1022 81 10000 0.89 127 17:38 02.10.2021
1002 Clouds 13 1022 74 10000 0.45 139 16:46 02.10.2021
1003 Clouds 12 1023 76 10000 0.89 168 14:42 02.10.2021
1004 Clouds 10 1029 72 10000 0.45 147 15:38 30.09.2021
1005 Clouds 10 1030 70 10000 0.89 152 14:42 30.09.2021
1006 Clouds 10 1030 67 10000 0.45 201 12:22 30.09.2021
1007 Clouds 9 1031 70 10000 1.79 185 11:29 30.09.2021
1008 Clouds 10 1028 69 10000 0.89 196 10:26 30.09.2021
1009 Clouds 10 1030 82 10000 0.45 206 08:32 30.09.2021
1010 Clouds 10 1028 83 10000 1.34 171 07:57 30.09.2021
1011 Clear 9 1029 88 10000 0.45 180 05:25 30.09.2021
1012 Clouds 9 1031 91 10000 0.89 161 02:33 30.09.2021
1013 Clouds 9 1030 91 10000 1.34 175 00:35 30.09.2021
1014 Clouds 9 1030 91 10000 0.89 193 22:59 29.09.2021
1015 Clouds 10 1030 85 10000 0.45 189 21:54 29.09.2021
1016 Clear 10 1030 86 10000 3.09 100 20:40 29.09.2021
1017 Clear 10 1032 85 10000 0.45 116 20:20 29.09.2021
1018 Clear 10 1032 87 10000 0.89 145 19:24 29.09.2021
1019 Clear 10 1032 87 10000 0.89 129 18:18 29.09.2021
1020 Clouds 10 1032 88 10000 0.89 137 16:56 29.09.2021
1021 Clouds 10 1033 88 10000 0.45 140 16:28 29.09.2021
1022 Clouds 11 1031 87 10000 0.45 164 15:35 29.09.2021
1023 Clouds 11 1033 85 10000 4.12 130 14:37 29.09.2021
1024 Clouds 11 1031 84 10000 0.45 187 13:33 29.09.2021
1025 Clouds 11 1031 84 10000 0.45 155 12:39 29.09.2021
1026 Clouds 11 1031 85 10000 0.89 174 11:23 29.09.2021
1027 Clouds 10 1031 88 10000 0.89 142 10:28 29.09.2021
1028 Clouds 10 1031 89 10000 0.45 202 09:41 29.09.2021
1029 Clouds 8 1031 91 10000 0.45 174 07:51 29.09.2021
1030 Clouds 8 1033 92 10000 3.09 60 06:46 29.09.2021
1031 Clouds 8 1034 88 10000 0.89 114 00:28 29.09.2021
1032 Clouds 9 1034 84 10000 0.45 130 22:26 28.09.2021
1033 Clouds 9 1034 82 10000 0.89 119 21:54 28.09.2021
1034 Clouds 9 1034 80 10000 0.89 116 21:19 28.09.2021
1035 Clouds 9 1034 82 10000 0.89 129 19:49 28.09.2021
1036 Clouds 9 1033 82 10000 1.34 124 19:27 28.09.2021
1037 Clouds 10 1033 81 10000 0.89 159 18:41 28.09.2021
1038 Clouds 11 1033 77 10000 0.89 118 16:54 28.09.2021
1039 Clouds 11 1033 76 10000 1.34 137 15:19 28.09.2021
1040 Clouds 11 1033 81 10000 1.79 124 13:27 28.09.2021
1041 Clouds 11 1033 84 10000 1.34 137 12:24 28.09.2021
1042 Clouds 11 1033 86 10000 1.34 125 11:48 28.09.2021
1043 Clouds 10 1033 87 10000 0.89 135 11:27 28.09.2021
1044 Clouds 10 1033 89 8000 0.89 124 10:27 28.09.2021
1045 Fog 9 1032 94 500 0.45 143 09:29 28.09.2021
1046 Fog 7 1030 97 600 0.45 84 08:43 28.09.2021
1047 Clouds 7 1030 97 8000 0.45 60 08:18 28.09.2021
1048 Fog 5 1029 96 900 1.79 329 06:46 28.09.2021
1049 Clear 4 1030 91 10000 0.89 344 01:35 28.09.2021
1050 Fog 5 1030 92 10000 0.45 339 00:32 28.09.2021
1051 Clear 5 1030 93 10000 0.89 330 23:49 27.09.2021
1052 Clear 6 1030 91 10000 0.45 355 23:24 27.09.2021
1053 Clear 6 1029 93 10000 0.45 356 22:21 27.09.2021
1054 Clear 6 1029 93 10000 1.54 50 21:38 27.09.2021
1055 Clear 7 1029 92 10000 0.45 85 20:27 27.09.2021
1056 Clear 8 1029 88 10000 1.54 90 19:37 27.09.2021
1057 Clear 9 1029 82 10000 2.06 100 18:53 27.09.2021
1058 Clear 11 1029 74 10000 0.45 128 17:41 27.09.2021
1059 Clear 11 1029 74 10000 0.45 128 17:41 27.09.2021
1060 Clear 12 1031 74 10000 0.45 154 16:59 27.09.2021
1061 Clear 13 1031 73 10000 0.45 148 16:35 27.09.2021
1062 Clouds 13 1029 68 10000 0.89 136 15:39 27.09.2021
1063 Clouds 14 1030 67 10000 0.45 192 13:50 27.09.2021
1064 Clouds 13 1030 75 10000 0.45 160 12:25 27.09.2021
1065 Clouds 12 1029 77 10000 0.89 130 10:50 27.09.2021
1066 Fog 9 1031 90 300 0.89 100 09:42 27.09.2021
1067 Fog 5 1029 94 300 0.51 0 07:57 27.09.2021
1068 Fog 5 1027 92 300 0.89 318 03:40 27.09.2021
1069 Clear 5 1025 89 10000 0.45 321 23:53 26.09.2021
1070 Clear 7 1024 84 10000 1.54 40 21:59 26.09.2021
1071 Clear 7 1024 86 10000 0.45 315 21:27 26.09.2021
1072 Clear 8 1023 84 10000 0.45 307 20:30 26.09.2021
1073 Clear 9 1023 83 10000 1.54 320 19:54 26.09.2021
1074 Clear 9 1023 79 10000 1.54 20 19:26 26.09.2021
1075 Clear 9 1023 79 10000 1.54 340 19:26 26.09.2021
1076 Clear 9 1023 79 10000 1.54 340 19:26 26.09.2021
1077 Clear 11 1022 75 10000 0.45 327 18:41 26.09.2021
1078 Clear 13 1022 60 10000 1.79 330 17:38 26.09.2021
1079 Clear 14 1022 57 10000 1.79 330 17:20 26.09.2021
1080 Clear 14 1021 55 10000 1.34 327 16:23 26.09.2021
1081 Clear 14 1021 55 10000 1.79 337 15:47 26.09.2021
1082 Clear 14 1020 57 10000 2.24 309 14:23 26.09.2021
1083 Clear 14 1020 60 10000 1.79 341 13:43 26.09.2021
1084 Clouds 13 1019 68 10000 0.89 347 12:31 26.09.2021
1085 Clouds 12 1019 69 10000 2.24 308 11:56 26.09.2021
1086 Clouds 12 1018 69 10000 2.24 327 11:26 26.09.2021
1087 Clouds 10 1019 76 10000 3.58 343 09:52 26.09.2021
1088 Clouds 9 1018 84 10000 1.79 331 08:52 26.09.2021
1089 Clouds 10 1009 81 10000 3.13 314 01:18 26.09.2021
1090 Clouds 10 1009 81 10000 3.13 312 01:18 26.09.2021
1091 Clouds 10 1007 82 10000 2.68 314 00:18 26.09.2021
1092 Clear 10 1006 86 10000 1.79 305 22:40 25.09.2021
1093 Clear 10 1006 85 10000 3.13 315 22:20 25.09.2021
1094 Clear 10 1006 83 10000 2.68 315 21:47 25.09.2021
1095 Clear 10 1003 84 10000 1.79 306 20:53 25.09.2021
1096 Clouds 11 1002 83 10000 2.68 311 19:53 25.09.2021
1097 Clouds 11 1001 84 10000 0.45 218 18:31 25.09.2021
1098 Clouds 12 1000 81 10000 0.89 218 17:46 25.09.2021
1099 Clouds 12 997 82 10000 2.68 334 14:46 25.09.2021
1100 Clouds 11 997 84 10000 2.68 314 13:55 25.09.2021
1101 Clouds 11 996 85 10000 2.24 310 12:46 25.09.2021
1102 Clouds 10 995 90 10000 0.89 279 11:29 25.09.2021
1103 Clouds 9 994 92 10000 1.34 253 10:20 25.09.2021
1104 Clouds 9 993 96 10000 0.89 246 09:24 25.09.2021
1105 Clouds 8 993 94 10000 0.89 292 07:49 25.09.2021
1106 Rain 8 994 97 10000 0.89 215 00:56 25.09.2021
1107 Rain 8 994 97 10000 1.79 185 23:33 24.09.2021
1108 Clouds 8 996 94 7000 0.89 160 21:39 24.09.2021
1109 Clouds 8 996 92 10000 0.45 195 20:32 24.09.2021
1110 Clouds 8 997 91 10000 0.89 183 19:43 24.09.2021
1111 Clouds 9 998 91 10000 0.45 146 18:29 24.09.2021
1112 Clouds 9 998 91 10000 1.34 137 17:53 24.09.2021
1113 Clouds 8 997 91 10000 1.34 133 17:34 24.09.2021
1114 Clouds 8 996 92 10000 1.34 132 15:59 24.09.2021
1115 Clouds 8 996 92 10000 1.34 91 13:28 24.09.2021
1116 Clouds 8 994 91 10000 1.34 125 12:44 24.09.2021
1117 Clouds 8 995 92 10000 0.89 113 12:25 24.09.2021
1118 Clouds 8 996 96 10000 0.45 274 10:56 24.09.2021
1119 Clouds 8 993 96 10000 6.17 70 09:57 24.09.2021
1120 Rain 8 992 98 10000 5.66 70 08:23 24.09.2021
1121 Rain 8 991 96 5000 5.66 80 07:30 24.09.2021
1122 Drizzle 8 990 96 5000 6.17 90 05:57 24.09.2021
1123 Rain 8 989 95 6000 7.2 90 04:51 24.09.2021
1124 Rain 8 993 92 5000 9.39 131 22:38 23.09.2021
1125 Rain 8 994 90 7517 14.31 147 21:59 23.09.2021
1126 Rain 9 994 90 7000 12.52 148 21:20 23.09.2021
1127 Rain 9 994 90 7000 12.52 148 21:20 23.09.2021
1128 Rain 9 995 83 7000 11.62 151 20:32 23.09.2021
1129 Clouds 9 997 80 10000 12.96 151 18:36 23.09.2021
1130 Clouds 10 1000 76 10000 9.39 147 16:39 23.09.2021
1131 Clouds 10 1003 76 10000 8.94 164 15:19 23.09.2021
1132 Clouds 10 1004 77 10000 8.05 148 14:52 23.09.2021
1133 Clouds 9 1005 78 10000 7.6 158 13:27 23.09.2021
1134 Clouds 9 1006 76 10000 8.05 175 12:57 23.09.2021
1135 Clouds 9 1006 75 10000 8.05 175 12:37 23.09.2021
1136 Clouds 9 1007 76 10000 8.05 175 12:18 23.09.2021
1137 Clouds 9 1007 82 10000 7.2 150 10:31 23.09.2021
1138 Clouds 8 1008 84 10000 6.17 160 09:54 23.09.2021
1139 Clouds 8 1009 77 10000 5.66 150 08:56 23.09.2021
1140 Clouds 5 1012 90 10000 2.06 140 05:32 23.09.2021
1141 Clouds 3 1016 88 10000 1.03 0 00:21 23.09.2021
1142 Clear 3 1017 86 10000 0 0 22:52 22.09.2021
1143 Clear 4 1018 86 10000 0.51 0 22:20 22.09.2021
1144 Clear 4 1018 88 10000 0.51 0 21:42 22.09.2021
1145 Clear 5 1018 88 10000 0 0 20:57 22.09.2021
1146 Clear 6 1019 84 10000 0.51 0 19:48 22.09.2021
1147 Clear 7 1019 83 10000 0.51 0 19:26 22.09.2021
1148 Clouds 8 1019 76 10000 3.09 200 18:30 22.09.2021
1149 Clouds 10 1020 71 10000 1.63 170 17:18 22.09.2021
1150 Clouds 11 1021 63 10000 2.06 70 15:38 22.09.2021
1151 Clouds 11 1021 64 10000 2.06 30 14:27 22.09.2021
1152 Clouds 10 1022 69 10000 2.06 100 12:55 22.09.2021
1153 Clouds 9 1025 70 10000 0.45 198 11:18 22.09.2021
1154 Clear 6 1025 81 10000 1.79 46 09:30 22.09.2021
1155 Clear 5 1025 87 10000 2.68 32 08:44 22.09.2021
1156 Clear 2 1024 87 10000 2.68 43 07:31 22.09.2021
1157 Clear 1 1022 89 10000 3.09 20 06:23 22.09.2021
1158 Clear 2 1023 89 10000 2.57 360 05:48 22.09.2021
1159 Clear 2 1025 89 10000 2.68 32 03:59 22.09.2021
1160 Clear 2 1024 89 10000 2.24 33 02:55 22.09.2021
1161 Clouds 4 1024 87 10000 2.68 46 23:31 21.09.2021
1162 Clouds 5 1024 86 10000 2.24 30 21:49 21.09.2021
1163 Clouds 6 1025 83 10000 1.79 13 20:31 21.09.2021
1164 Clouds 6 1024 81 10000 1.34 11 19:25 21.09.2021
1165 Clouds 7 1022 78 10000 2.06 350 18:35 21.09.2021
1166 Clouds 8 1023 75 10000 1.34 68 16:47 21.09.2021
1167 Clouds 9 1022 73 10000 2.57 360 15:56 21.09.2021
1168 Clouds 8 1023 72 10000 1.79 40 14:59 21.09.2021
1169 Clouds 9 1022 72 10000 3.09 40 13:58 21.09.2021
1170 Clouds 9 1022 73 10000 3.09 40 13:39 21.09.2021
1171 Clouds 8 1024 76 10000 1.34 49 12:44 21.09.2021
1172 Clouds 6 1022 81 10000 4.12 30 10:42 21.09.2021
1173 Clouds 6 1023 81 10000 3.6 30 08:57 21.09.2021
1174 Clouds 3 1023 93 10000 3.09 20 07:37 21.09.2021
1175 Clouds 3 1023 93 10000 3.09 20 07:37 21.09.2021
1176 Clouds 4 1023 87 10000 3.6 20 05:18 21.09.2021
1177 Clouds 5 1025 75 10000 3.6 20 22:54 20.09.2021
1178 Clouds 5 1026 75 10000 3.09 30 21:43 20.09.2021
1179 Clouds 6 1026 70 10000 3.6 20 21:24 20.09.2021
1180 Clouds 7 1028 68 10000 2.24 126 19:47 20.09.2021
1181 Clouds 9 1027 65 10000 1.79 39 17:54 20.09.2021
1182 Clouds 9 1027 64 10000 2.24 62 17:19 20.09.2021
1183 Clouds 10 1027 64 10000 2.24 67 16:23 20.09.2021
1184 Clouds 10 1026 61 10000 5.66 30 15:36 20.09.2021
1185 Clouds 10 1028 62 10000 1.79 53 14:27 20.09.2021
1186 Clouds 10 1029 61 10000 1.79 90 12:44 20.09.2021
1187 Clouds 10 1029 63 10000 0.89 64 12:22 20.09.2021
1188 Clouds 8 1029 66 10000 2.68 70 10:52 20.09.2021
1189 Clouds 8 1029 68 10000 1.79 182 09:51 20.09.2021
1190 Clouds 8 1029 68 10000 3.58 134 09:31 20.09.2021
1191 Clouds 7 1029 70 10000 4.02 69 08:35 20.09.2021
1192 Clouds 6 1027 77 10000 5.14 30 06:22 20.09.2021
1193 Clouds 6 1027 77 10000 5.14 30 06:22 20.09.2021
1194 Clouds 7 1029 70 10000 4.02 38 22:58 19.09.2021
1195 Clouds 8 1029 68 10000 2.68 76 21:50 19.09.2021
1196 Clouds 8 1029 70 10000 1.79 51 20:59 19.09.2021
1197 Clouds 8 1028 69 10000 2.68 75 19:54 19.09.2021
1198 Clouds 9 1028 68 10000 1.34 53 18:53 19.09.2021
1199 Clouds 9 1028 68 10000 1.34 53 18:53 19.09.2021
1200 Clouds 10 1028 66 10000 0.45 342 17:42 19.09.2021
1201 Clouds 10 1027 61 10000 1.79 86 16:35 19.09.2021
1202 Clouds 10 1028 62 10000 1.79 94 15:31 19.09.2021
1203 Clouds 10 1026 60 10000 5.66 60 14:49 19.09.2021
1204 Clouds 10 1028 66 10000 0.89 76 13:52 19.09.2021
1205 Clouds 9 1029 65 10000 1.34 335 12:55 19.09.2021
1206 Clouds 9 1029 67 10000 2.68 232 11:46 19.09.2021
1207 Clouds 9 1029 66 10000 2.24 107 11:22 19.09.2021
1208 Clouds 8 1028 70 10000 4.02 32 09:51 19.09.2021
1209 Clouds 8 1029 70 10000 3.13 56 09:23 19.09.2021
1210 Clouds 7 1026 76 10000 4.63 40 06:48 19.09.2021
1211 Clouds 8 1028 75 10000 3.13 72 00:48 19.09.2021
1212 Clouds 8 1028 79 10000 4.02 57 22:58 18.09.2021
1213 Clouds 8 1028 79 10000 2.68 60 21:56 18.09.2021
1214 Clouds 8 1026 77 10000 3.6 40 20:46 18.09.2021
1215 Clouds 8 1027 77 10000 1.79 59 19:42 18.09.2021
1216 Clouds 8 1028 75 10000 1.79 59 19:22 18.09.2021
1217 Clouds 9 1025 73 10000 4.98 71 18:58 18.09.2021
1218 Clouds 9 1025 69 10000 3.09 60 18:29 18.09.2021
1219 Clouds 10 1027 67 10000 0.89 103 16:35 18.09.2021
1220 Clouds 10 1028 75 10000 0.45 252 13:53 18.09.2021
1221 Clouds 10 1027 77 10000 3.6 90 13:31 18.09.2021
1222 Clouds 9 1026 79 10000 3.6 70 12:52 18.09.2021
1223 Clouds 9 1027 80 10000 5.14 100 11:59 18.09.2021
1224 Rain 10 1027 70 10000 6.69 50 11:29 18.09.2021
1225 Rain 9 1028 81 10000 0.89 64 10:23 18.09.2021
1226 Rain 8 1028 81 10000 1.79 82 09:23 18.09.2021
1227 Rain 7 1028 84 10000 1.79 28 08:24 18.09.2021
1228 Clouds 8 1027 73 10000 2.24 64 00:52 18.09.2021
1229 Clouds 8 1030 77 10000 2.68 59 23:55 17.09.2021
1230 Clouds 8 1027 69 10000 2.24 60 22:45 17.09.2021
1231 Clouds 8 1026 68 10000 2.68 59 22:22 17.09.2021
1232 Clouds 8 1026 68 10000 2.24 77 21:32 17.09.2021
1233 Clouds 9 1026 70 10000 1.79 56 19:31 17.09.2021
1234 Clouds 10 1025 67 10000 0.89 137 18:30 17.09.2021
1235 Clouds 10 1025 68 10000 3.13 104 16:34 17.09.2021
1236 Clouds 10 1025 64 10000 0.89 41 14:34 17.09.2021
1237 Clouds 11 1024 60 10000 2.68 51 11:43 17.09.2021
1238 Rain 9 1024 72 10000 1.79 86 09:57 17.09.2021
1239 Clouds 7 1023 75 10000 1.79 120 07:42 17.09.2021
1240 Clear 7 1021 69 10000 5.14 60 05:27 17.09.2021
1241 Clouds 7 1023 77 10000 2.24 93 00:29 17.09.2021
1242 Clouds 7 1023 75 10000 1.34 94 22:41 16.09.2021
1243 Clouds 7 1023 75 10000 1.34 115 22:23 16.09.2021
1244 Clouds 7 1023 73 10000 1.79 71 21:31 16.09.2021
1245 Clouds 8 1023 72 10000 0.89 53 20:29 16.09.2021
1246 Clouds 8 1023 67 10000 0.45 82 18:38 16.09.2021
1247 Clouds 9 1023 67 10000 0.45 106 17:59 16.09.2021
1248 Clouds 10 1021 59 10000 3.09 50 15:31 16.09.2021
1249 Clouds 10 1023 59 10000 0.89 177 14:43 16.09.2021
1250 Clouds 10 1024 59 10000 1.34 39 13:23 16.09.2021
1251 Clouds 10 1024 60 10000 1.79 75 12:40 16.09.2021
1252 Clouds 9 1024 61 10000 1.34 143 11:46 16.09.2021
1253 Clouds 9 1024 64 10000 1.34 103 10:50 16.09.2021
1254 Clouds 8 1024 66 10000 2.24 68 10:21 16.09.2021
1255 Clouds 7 1024 72 10000 1.34 54 08:45 16.09.2021
1256 Clouds 7 1024 79 10000 1.34 70 07:46 16.09.2021
1257 Clouds 7 1022 80 10000 2.06 50 06:55 16.09.2021
1258 Clouds 7 1022 80 10000 2.06 50 06:31 16.09.2021
1259 Clouds 6 1022 93 10000 2.06 40 02:58 16.09.2021
1260 Clouds 7 1022 88 10000 1.03 300 00:46 16.09.2021
1261 Clouds 7 1021 85 10000 1.03 350 22:59 15.09.2021
1262 Clouds 7 1021 82 10000 2.06 350 22:20 15.09.2021
1263 Clouds 7 1021 83 10000 1.54 320 21:30 15.09.2021
1264 Clouds 7 1021 83 10000 1.54 320 21:30 15.09.2021
1265 Clouds 8 1021 82 10000 1.03 330 20:24 15.09.2021
1266 Clouds 8 1021 74 10000 2.06 350 19:29 15.09.2021
1267 Clouds 10 1023 67 10000 1.34 25 18:25 15.09.2021
1268 Clouds 10 1022 65 10000 1.79 50 17:27 15.09.2021
1269 Clouds 10 1022 63 10000 4.02 43 16:27 15.09.2021
1270 Clouds 10 1021 65 10000 3.13 47 14:46 15.09.2021
1271 Clouds 10 1021 66 10000 3.13 47 14:24 15.09.2021
1272 Clouds 10 1021 67 10000 3.58 72 13:40 15.09.2021
1273 Clouds 10 1021 68 10000 2.68 48 13:21 15.09.2021
1274 Clouds 9 1021 71 10000 1.79 78 12:21 15.09.2021
1275 Clouds 9 1020 72 10000 3.13 33 11:47 15.09.2021
1276 Clouds 8 1020 76 10000 2.24 341 10:56 15.09.2021
1277 Clouds 8 1019 79 10000 3.13 8 09:31 15.09.2021
1278 Clouds 6 1018 85 10000 2.68 343 08:41 15.09.2021
1279 Clear 5 1017 88 10000 1.34 309 05:54 15.09.2021
1280 Clear 6 1017 77 10000 0.89 316 23:56 14.09.2021
1281 Clear 7 1017 70 10000 1.79 318 21:58 14.09.2021
1282 Clear 8 1016 67 10000 3.58 311 20:56 14.09.2021
1283 Clear 10 1016 62 10000 3.58 314 19:51 14.09.2021
1284 Clouds 12 1015 53 10000 3.13 349 17:53 14.09.2021
1285 Clouds 12 1015 54 10000 2.68 330 17:28 14.09.2021
1286 Clouds 13 1014 53 10000 4.47 267 15:39 14.09.2021
1287 Clouds 12 1014 55 10000 3.13 300 14:31 14.09.2021
1288 Clouds 11 1015 56 10000 3.13 356 13:20 14.09.2021
1289 Clouds 11 1013 56 10000 4.47 330 10:55 14.09.2021
1290 Clouds 10 1012 63 10000 3.58 349 09:51 14.09.2021
1291 Clouds 9 1012 72 10000 4.47 319 08:49 14.09.2021
1292 Clouds 8 1009 75 10000 5.66 280 06:47 14.09.2021
1293 Clear 9 1011 76 10000 3.58 304 00:41 14.09.2021
1294 Clear 9 1011 73 10000 3.13 278 22:53 13.09.2021
1295 Clear 9 1011 72 10000 3.58 315 22:24 13.09.2021
1296 Clear 9 1011 70 10000 4.47 296 21:53 13.09.2021
1297 Clear 10 1011 67 10000 4.47 324 20:51 13.09.2021
1298 Clear 11 1010 60 10000 4.47 316 19:26 13.09.2021
1299 Clear 12 1009 55 10000 3.58 310 18:43 13.09.2021
1300 Clear 14 1008 52 10000 7.15 321 16:51 13.09.2021
1301 Clouds 15 1007 54 10000 4.92 343 15:32 13.09.2021
1302 Clouds 14 1005 76 10000 5.36 23 12:54 13.09.2021
1303 Clouds 13 1002 88 10000 7.2 310 10:58 13.09.2021
1304 Clouds 14 1002 88 10000 7.2 310 10:58 13.09.2021
1305 Clouds 13 1001 94 10000 6.69 290 09:40 13.09.2021
1306 Clouds 14 1000 95 10000 5.66 300 07:27 13.09.2021
1307 Clouds 15 1005 98 6000 2.24 256 23:41 12.09.2021
1308 Mist 15 1005 98 4000 1.79 266 22:25 12.09.2021
1309 Mist 15 1005 98 3500 1.79 252 21:37 12.09.2021
1310 Clouds 15 1006 96 10000 2.24 259 20:29 12.09.2021
1311 Clouds 15 1007 97 10000 2.24 248 19:51 12.09.2021
1312 Clouds 15 1006 95 10000 2.68 267 19:20 12.09.2021
1313 Clouds 16 1004 95 10000 4.63 230 18:29 12.09.2021
1314 Clouds 16 1007 98 10000 3.58 266 16:32 12.09.2021
1315 Mist 16 1005 98 1500 4.12 180 14:54 12.09.2021
1316 Drizzle 15 1006 95 1500 3.09 160 13:45 12.09.2021
1317 Clouds 14 1009 98 10000 1.34 126 11:31 12.09.2021
1318 Rain 14 1010 96 4000 2.24 113 09:27 12.09.2021
1319 Rain 14 1008 95 3000 3.6 110 08:38 12.09.2021
1320 Fog 13 1014 97 600 2.24 133 01:50 12.09.2021
1321 Fog 13 1012 100 350 2.06 140 23:28 11.09.2021
1322 Fog 14 1012 95 150 2.57 150 21:50 11.09.2021
1323 Mist 14 1014 94 4500 1.54 90 20:31 11.09.2021
1324 Clouds 16 1012 89 10000 2.57 140 19:20 11.09.2021
1325 Clouds 17 1012 86 10000 1.03 0 17:29 11.09.2021
1326 Clouds 18 1012 85 10000 1.03 0 15:48 11.09.2021
1327 Clouds 18 1012 87 10000 1.03 0 13:33 11.09.2021
1328 Clouds 17 1012 88 10000 1.54 220 12:48 11.09.2021
1329 Clouds 16 1012 93 10000 2.57 90 11:18 11.09.2021
1330 Clouds 14 1014 95 10000 0.89 141 09:38 11.09.2021
1331 Clouds 14 1014 94 10000 1.03 0 07:45 11.09.2021
1332 Clouds 13 1012 92 10000 1.54 90 06:48 11.09.2021
1333 Clouds 13 1017 88 10000 3.09 70 23:23 10.09.2021
1334 Clouds 13 1017 89 10000 2.06 60 22:24 10.09.2021
1335 Clouds 13 1018 87 10000 3.25 102 21:53 10.09.2021
1336 Clouds 13 1018 84 10000 0.45 68 19:58 10.09.2021
1337 Clear 14 1018 80 10000 0.45 126 18:26 10.09.2021
1338 Clear 15 1019 73 10000 0.89 147 16:48 10.09.2021
1339 Clouds 16 1017 71 10000 4.63 150 13:55 10.09.2021
1340 Clouds 15 1017 74 10000 2.57 100 11:54 10.09.2021
1341 Clouds 12 1019 90 10000 0.89 126 08:36 10.09.2021
1342 Clouds 11 1018 93 10000 1.79 55 07:48 10.09.2021
1343 Clouds 14 1013 95 10000 2.57 30 00:42 10.09.2021
1344 Clouds 15 1011 90 10000 3.09 10 22:24 09.09.2021
1345 Clouds 15 1011 92 10000 2.57 30 21:39 09.09.2021
1346 Clouds 15 1010 89 10000 3.09 30 20:46 09.09.2021
1347 Clouds 17 1009 69 10000 3.09 250 18:58 09.09.2021
1348 Clear 18 1009 82 10000 5.14 220 17:56 09.09.2021
1349 Clouds 19 1011 80 10000 3.58 255 16:40 09.09.2021
1350 Clouds 21 1009 74 10000 6.17 210 15:27 09.09.2021
1351 Clouds 20 1011 81 10000 4.92 258 12:48 09.09.2021
1352 Clouds 18 1012 85 10000 4.47 262 11:33 09.09.2021
1353 Clear 16 1013 89 10000 0.45 86 09:39 09.09.2021
1354 Clear 14 1012 92 10000 1.54 200 08:32 09.09.2021
1355 Clouds 12 1011 96 10000 2.06 240 06:24 09.09.2021
1356 Clear 13 1013 94 10000 3.09 240 01:31 09.09.2021
1357 Clear 13 1013 94 10000 3.09 240 01:31 09.09.2021
1358 Clouds 15 1012 92 10000 2.24 326 22:34 08.09.2021
1359 Clouds 15 1012 91 10000 1.34 297 20:57 08.09.2021
1360 Clouds 16 1011 89 10000 1.34 284 19:48 08.09.2021
1361 Clouds 16 1011 88 10000 1.34 276 18:50 08.09.2021
1362 Clouds 16 1011 88 10000 1.79 295 18:27 08.09.2021
1363 Clouds 16 1011 87 10000 2.24 269 17:54 08.09.2021
1364 Clouds 17 1011 84 10000 3.58 262 16:27 08.09.2021
1365 Clouds 17 1011 85 10000 3.58 262 13:53 08.09.2021
1366 Clouds 17 1012 87 10000 4.02 265 12:42 08.09.2021
1367 Clouds 17 1012 87 10000 4.92 261 12:24 08.09.2021
1368 Rain 16 1012 89 10000 4.02 283 11:26 08.09.2021
1369 Rain 15 1010 92 10000 3.6 210 10:32 08.09.2021
1370 Clouds 15 1012 93 10000 2.24 284 09:57 08.09.2021
1371 Clear 14 1012 93 10000 1.34 264 07:55 08.09.2021
1372 Clear 13 1012 93 10000 2.68 294 07:29 08.09.2021
1373 Clouds 13 1012 91 10000 4.12 210 23:41 07.09.2021
1374 Clouds 14 1015 91 10000 1.34 256 22:30 07.09.2021
1375 Clouds 14 1016 88 10000 1.34 290 20:50 07.09.2021
1376 Clouds 14 1016 87 10000 2.24 266 19:40 07.09.2021
1377 Clouds 15 1014 85 10000 5.14 210 18:37 07.09.2021
1378 Clouds 15 1017 84 10000 4.02 269 17:40 07.09.2021
1379 Clouds 16 1018 80 10000 3.58 261 15:57 07.09.2021
1380 Clouds 16 1016 78 10000 4.63 210 14:54 07.09.2021
1381 Clouds 16 1017 76 10000 4.12 220 13:52 07.09.2021
1382 Clear 15 1019 70 10000 3.13 273 12:23 07.09.2021
1383 Clear 14 1020 70 10000 2.24 274 10:59 07.09.2021
1384 Clear 13 1020 74 10000 2.68 261 10:20 07.09.2021
1385 Clear 8 1018 87 10000 1.03 260 07:51 07.09.2021
1386 Clear 6 1018 89 10000 1.03 240 06:42 07.09.2021
1387 Clear 6 1020 87 10000 0.89 329 02:43 07.09.2021
1388 Clear 6 1020 87 10000 0.89 326 02:23 07.09.2021
1389 Clear 7 1018 86 10000 1.03 0 00:21 07.09.2021
1390 Clouds 9 1018 81 10000 2.81 301 23:31 06.09.2021
1391 Clear 8 1018 87 10000 1.03 270 22:53 06.09.2021
1392 Clear 9 1018 87 10000 1.03 270 22:24 06.09.2021
1393 Clear 11 1018 81 10000 1.03 280 20:37 06.09.2021
1394 Clear 13 1020 69 10000 3.09 300 19:20 06.09.2021
1395 Clear 15 1019 59 10000 2.57 280 18:36 06.09.2021
1396 Clear 16 1020 56 10000 1.34 301 17:54 06.09.2021
1397 Clouds 16 1020 60 10000 2.68 355 16:34 06.09.2021
1398 Clouds 16 1018 67 10000 3.09 250 15:25 06.09.2021
1399 Clouds 15 1021 75 10000 2.57 260 13:44 06.09.2021
1400 Clouds 16 1019 72 10000 2.06 320 12:45 06.09.2021
1401 Clouds 15 1019 79 10000 1.03 0 10:37 06.09.2021
1402 Clouds 10 1020 92 10000 0 0 07:48 06.09.2021
1403 Clear 10 1022 88 10000 0.45 279 04:36 06.09.2021
1404 Clear 9 1022 72 10000 2.06 220 23:23 05.09.2021
1405 Clear 10 1023 71 10000 2.68 257 22:33 05.09.2021
1406 Clear 10 1025 69 10000 2.68 257 21:56 05.09.2021
1407 Clear 10 1023 64 10000 2.68 263 21:21 05.09.2021
1408 Clear 11 1026 63 10000 3.13 307 19:45 05.09.2021
1409 Clear 13 1024 56 10000 2.68 268 17:52 05.09.2021
1410 Clear 13 1024 54 10000 1.79 273 16:33 05.09.2021
1411 Clouds 14 1025 53 10000 3.58 314 15:20 05.09.2021
1412 Clouds 13 1025 56 10000 4.02 293 12:44 05.09.2021
1413 Clouds 12 1026 57 10000 4.92 281 11:35 05.09.2021
1414 Clouds 11 1026 57 10000 2.24 269 10:40 05.09.2021
1415 Clouds 10 1025 60 10000 3.13 287 09:35 05.09.2021
1416 Clear 8 1025 71 10000 1.79 294 08:34 05.09.2021
1417 Clear 3 1024 83 10000 2.24 315 05:47 05.09.2021
1418 Clear 5 1022 77 10000 2.24 298 00:39 05.09.2021
1419 Clear 6 1022 75 10000 1.79 298 23:56 04.09.2021
1420 Clear 6 1022 73 10000 2.24 297 23:24 04.09.2021
1421 Clear 7 1021 70 10000 2.68 286 22:35 04.09.2021
1422 Clear 8 1020 63 10000 1.79 300 20:58 04.09.2021
1423 Clear 10 1019 58 10000 2.24 309 19:33 04.09.2021
1424 Clear 12 1018 48 10000 3.13 326 17:25 04.09.2021
1425 Clear 13 1017 48 10000 4.92 319 14:37 04.09.2021
1426 Clouds 12 1016 58 10000 4.02 299 11:37 04.09.2021
1427 Clouds 11 1016 59 10000 4.02 350 10:38 04.09.2021
1428 Clear 7 1015 79 10000 3.13 297 07:43 04.09.2021
1429 Clear 7 1011 81 10000 3.58 289 00:50 04.09.2021
1430 Clear 7 1011 81 10000 4.02 296 00:19 04.09.2021
1431 Clear 7 1013 82 10000 3.58 293 23:21 03.09.2021
1432 Clouds 8 1012 79 10000 3.13 291 21:43 03.09.2021
1433 Clouds 8 1012 78 10000 3.13 291 20:58 03.09.2021
1434 Clouds 9 1011 76 10000 3.13 286 20:28 03.09.2021
1435 Rain 9 1011 73 10000 4.02 308 19:35 03.09.2021
1436 Clouds 10 1011 71 10000 3.13 292 18:27 03.09.2021
1437 Clouds 12 1010 64 10000 2.68 307 16:50 03.09.2021
1438 Clouds 13 1009 57 10000 3.13 326 15:39 03.09.2021
1439 Clouds 12 1009 58 10000 3.58 327 14:28 03.09.2021
1440 Clouds 12 1009 58 10000 3.58 327 14:28 03.09.2021
1441 Clouds 11 1008 66 10000 4.47 311 11:21 03.09.2021
1442 Clouds 9 1007 74 10000 4.92 325 09:21 03.09.2021
1443 Clouds 9 1006 76 10000 4.92 324 08:18 03.09.2021
1444 Clouds 9 1004 77 10000 4.47 305 06:49 03.09.2021
1445 Clouds 12 1005 79 10000 4.02 282 23:56 02.09.2021
1446 Clouds 12 1005 80 10000 3.13 279 22:21 02.09.2021
1447 Rain 11 1007 81 10000 2.24 251 20:46 02.09.2021
1448 Rain 13 1010 67 10000 4.02 262 18:49 02.09.2021
1449 Clouds 14 1012 58 10000 4.47 282 16:39 02.09.2021
1450 Clouds 14 1013 55 10000 2.24 278 15:30 02.09.2021
1451 Clouds 14 1014 53 10000 3.13 289 13:33 02.09.2021
1452 Clouds 14 1015 60 10000 3.13 275 11:44 02.09.2021
1453 Clouds 14 1015 61 10000 5.81 277 11:18 02.09.2021
1454 Clear 12 1013 66 10000 2.24 293 08:57 02.09.2021
1455 Clear 8 1015 81 10000 3.58 297 07:28 02.09.2021
1456 Clear 7 1015 83 10000 3.13 294 05:32 02.09.2021
1457 Clear 7 1015 80 10000 4.02 289 02:37 02.09.2021
1458 Clear 8 1015 80 10000 3.58 295 01:49 02.09.2021
1459 Clear 9 1014 78 10000 3.13 300 23:41 01.09.2021
1460 Clear 9 1014 78 10000 3.58 300 23:19 01.09.2021
1461 Clear 9 1012 76 10000 3.13 289 22:29 01.09.2021
1462 Clear 10 1012 73 10000 3.13 292 21:32 01.09.2021
1463 Clouds 11 1011 65 10000 3.13 290 19:37 01.09.2021
1464 Clouds 14 1012 57 10000 4.47 290 17:52 01.09.2021
1465 Clouds 14 1012 60 10000 3.13 297 16:59 01.09.2021
1466 Clouds 14 1012 60 10000 2.24 296 16:35 01.09.2021
1467 Clouds 15 1013 58 10000 3.13 18 13:59 01.09.2021
1468 Clouds 15 1013 59 10000 4.92 308 11:47 01.09.2021
1469 Clouds 13 1013 72 10000 4.92 281 09:49 01.09.2021
1470 Clouds 12 1013 80 10000 3.58 291 08:27 01.09.2021
1471 Clear 11 1012 82 10000 3.58 287 06:42 01.09.2021
1472 Clear 11 1012 83 10000 3.58 296 06:42 01.09.2021
1473 Clear 13 1015 78 10000 2.68 299 23:32 31.08.2021
1474 Clouds 14 1013 77 10000 2.68 305 22:21 31.08.2021
1475 Rain 16 1013 73 10000 1.34 267 19:52 31.08.2021
1476 Clear 17 1013 66 10000 0.89 263 19:23 31.08.2021
1477 Clear 18 1014 58 10000 0.45 167 17:44 31.08.2021
1478 Clear 19 1014 58 10000 1.34 198 17:25 31.08.2021
1479 Clear 19 1014 56 10000 0.89 141 16:41 31.08.2021
1480 Clear 20 1015 52 10000 1.79 327 15:26 31.08.2021
1481 Clear 18 1018 58 10000 2.68 35 12:19 31.08.2021
1482 Clear 17 1018 54 10000 2.68 16 11:19 31.08.2021
1483 Clear 17 1019 58 10000 2.68 51 10:43 31.08.2021
1484 Clear 16 1019 64 10000 3.58 35 09:41 31.08.2021
1485 Clear 12 1019 76 10000 2.68 338 07:48 31.08.2021
1486 Clear 9 1020 76 10000 2.68 344 05:57 31.08.2021
1487 Clear 11 1020 81 10000 2.24 343 23:36 30.08.2021
1488 Clear 12 1020 80 10000 2.24 344 22:36 30.08.2021
1489 Clear 14 1021 73 10000 2.24 6 21:35 30.08.2021
1490 Clear 14 1020 79 10000 2.06 20 20:41 30.08.2021
1491 Clear 16 1020 75 10000 2.06 20 19:53 30.08.2021
1492 Clear 18 1020 68 10000 3.09 30 18:58 30.08.2021
1493 Clear 19 1020 54 10000 2.24 48 17:49 30.08.2021
1494 Clear 20 1020 53 10000 2.68 122 16:27 30.08.2021
1495 Clear 20 1020 51 10000 0.89 6 15:45 30.08.2021
1496 Rain 19 1021 52 10000 4.47 114 13:58 30.08.2021
1497 Clouds 19 1021 54 10000 3.13 61 12:58 30.08.2021
1498 Clouds 18 1022 58 10000 4.92 83 10:42 30.08.2021
1499 Clouds 12 1021 82 10000 3.58 335 03:24 30.08.2021
1500 Clouds 15 1021 80 10000 1.34 109 21:35 29.08.2021
1501 Clear 16 1020 74 10000 1.34 111 20:46 29.08.2021
1502 Clear 17 1019 69 10000 1.79 120 19:27 29.08.2021
1503 Clear 19 1018 65 10000 1.79 141 17:58 29.08.2021
1504 Clear 19 1019 64 10000 3.58 17 15:58 29.08.2021
1505 Clear 19 1018 63 10000 3.13 32 14:27 29.08.2021
1506 Clear 19 1018 63 10000 3.58 54 13:55 29.08.2021
1507 Rain 19 1018 65 10000 4.02 22 12:43 29.08.2021
1508 Rain 19 1020 58 10000 4.47 34 11:54 29.08.2021
1509 Rain 19 1020 61 10000 3.58 54 11:32 29.08.2021
1510 Rain 19 1020 62 10000 5.81 57 10:46 29.08.2021
1511 Rain 19 1020 62 10000 5.36 96 10:27 29.08.2021
1512 Rain 19 1020 62 10000 5.36 96 10:27 29.08.2021
1513 Rain 18 1020 69 10000 4.92 99 09:26 29.08.2021
1514 Clear 14 1020 83 10000 3.58 18 03:26 29.08.2021
1515 Clear 16 1019 80 10000 2.68 32 22:29 28.08.2021
1516 Rain 18 1019 78 10000 3.13 20 20:30 28.08.2021
1517 Clouds 20 1021 75 10000 3.58 18 18:53 28.08.2021
1518 Clouds 20 1021 75 10000 2.68 60 18:21 28.08.2021
1519 Clouds 19 1021 74 10000 3.13 42 17:45 28.08.2021
1520 Clouds 20 1021 71 10000 3.58 27 16:21 28.08.2021
1521 Clouds 19 1022 73 10000 3.58 60 14:43 28.08.2021
1522 Clouds 18 1022 71 10000 4.02 30 13:47 28.08.2021
1523 Clouds 16 1023 74 10000 4.02 64 12:46 28.08.2021
1524 Clouds 15 1023 80 10000 4.92 84 11:58 28.08.2021
1525 Clouds 15 1023 81 10000 3.58 58 10:44 28.08.2021
1526 Clouds 14 1022 78 10000 4.47 73 09:33 28.08.2021
1527 Clouds 14 1022 79 10000 4.47 90 07:25 28.08.2021
1528 Clouds 14 1024 82 10000 4.02 27 22:50 27.08.2021
1529 Clouds 13 1024 82 10000 2.68 35 21:26 27.08.2021
1530 Clouds 13 1024 82 10000 4.47 25 20:33 27.08.2021
1531 Drizzle 13 1024 82 6000 4.47 30 19:26 27.08.2021
1532 Drizzle 13 1024 82 10000 4.92 27 18:38 27.08.2021
1533 Clouds 14 1024 82 10000 4.47 67 17:27 27.08.2021
1534 Rain 14 1023 78 10000 4.47 24 15:57 27.08.2021
1535 Clouds 14 1023 76 10000 3.58 63 14:44 27.08.2021
1536 Clouds 14 1024 80 10000 3.58 71 12:55 27.08.2021
1537 Clouds 13 1022 79 10000 4.92 64 11:37 27.08.2021
1538 Clouds 13 1024 81 10000 6.26 73 10:44 27.08.2021
1539 Clouds 13 1024 81 10000 4.47 51 09:51 27.08.2021
1540 Clouds 13 1023 79 10000 4.92 56 08:48 27.08.2021
1541 Clouds 13 1023 79 10000 5.81 49 06:58 27.08.2021
1542 Clouds 13 1022 78 10000 4.47 60 05:31 27.08.2021
1543 Drizzle 12 1021 81 5000 4.47 78 00:36 27.08.2021
1544 Drizzle 12 1021 82 8000 6.26 78 23:19 26.08.2021
1545 Drizzle 13 1019 78 10000 4.47 62 22:19 26.08.2021
1546 Drizzle 13 1019 78 10000 4.47 62 22:19 26.08.2021
1547 Clouds 13 1018 80 10000 4.92 50 20:44 26.08.2021
1548 Rain 14 1018 80 10000 4.47 63 18:53 26.08.2021
1549 Rain 15 1018 82 10000 6.71 95 17:45 26.08.2021
1550 Clouds 15 1016 80 10000 5.36 82 16:35 26.08.2021
1551 Clouds 14 1016 81 10000 5.36 75 15:55 26.08.2021
1552 Rain 14 1016 80 10000 6.26 98 13:48 26.08.2021
1553 Rain 14 1016 82 10000 7.6 91 12:56 26.08.2021
1554 Clouds 14 1015 79 10000 8.05 102 12:30 26.08.2021
1555 Clouds 14 1014 83 10000 6.71 92 10:21 26.08.2021
1556 Clouds 13 1012 80 10000 5.36 67 08:34 26.08.2021
1557 Rain 13 1010 98 10000 5.81 140 06:34 26.08.2021
1558 Clouds 12 1004 67 10000 4.47 126 22:54 25.08.2021
1559 Clouds 12 1004 66 10000 4.47 130 22:35 25.08.2021
1560 Rain 12 1006 72 10000 4.47 145 21:42 25.08.2021
1561 Rain 12 1005 72 8000 4.92 136 20:48 25.08.2021
1562 Rain 12 1005 72 8000 5.81 138 20:28 25.08.2021
1563 Rain 13 1003 66 10000 4.47 147 18:42 25.08.2021
1564 Rain 13 1004 70 6000 4.92 133 17:36 25.08.2021
1565 Rain 13 1003 74 8000 4.47 154 15:44 25.08.2021
1566 Rain 13 1004 78 5000 5.36 141 14:48 25.08.2021
1567 Rain 13 1004 78 5000 4.47 149 14:29 25.08.2021
1568 Rain 13 1005 77 8000 4.92 159 12:56 25.08.2021
1569 Rain 13 1006 78 10000 4.02 150 11:26 25.08.2021
1570 Rain 12 1006 72 9000 5.36 178 10:43 25.08.2021
1571 Rain 12 1006 77 8000 4.92 163 09:55 25.08.2021
1572 Rain 12 1008 79 7000 4.47 190 08:50 25.08.2021
1573 Rain 12 1008 81 7000 4.02 144 08:29 25.08.2021
1574 Rain 12 1015 78 10000 2.68 196 03:53 25.08.2021
1575 Clouds 13 1020 75 10000 1.79 233 23:44 24.08.2021
1576 Clouds 13 1022 73 10000 1.79 140 21:48 24.08.2021
1577 Clouds 12 1022 73 10000 1.79 140 21:48 24.08.2021
1578 Clouds 13 1022 71 10000 1.79 157 20:46 24.08.2021
1579 Clouds 13 1024 72 10000 0.89 139 19:45 24.08.2021
1580 Clouds 14 1025 65 10000 1.79 24 17:58 24.08.2021
1581 Clouds 14 1025 65 10000 1.79 24 17:58 24.08.2021
1582 Clouds 14 1025 63 10000 2.68 342 17:27 24.08.2021
1583 Clouds 14 1025 63 10000 1.79 48 16:41 24.08.2021
1584 Clouds 14 1026 66 10000 4.02 16 14:28 24.08.2021
1585 Clouds 14 1026 69 10000 3.58 343 13:24 24.08.2021
1586 Clouds 12 1026 71 10000 4.02 334 11:38 24.08.2021
1587 Clouds 12 1026 75 10000 2.68 359 10:48 24.08.2021
1588 Clouds 12 1025 77 10000 3.13 355 10:26 24.08.2021
1589 Drizzle 11 1025 83 10000 5.81 329 08:50 24.08.2021
1590 Clouds 9 1025 89 10000 4.47 320 06:45 24.08.2021
1591 Clouds 9 1024 88 10000 5.36 324 04:48 24.08.2021
1592 Clouds 9 1023 76 10000 4.02 328 00:45 24.08.2021
1593 Clouds 10 1023 70 10000 4.47 315 22:52 23.08.2021
1594 Clouds 11 1023 69 10000 3.58 298 22:21 23.08.2021
1595 Clouds 12 1022 65 10000 3.13 305 20:27 23.08.2021
1596 Clouds 13 1022 61 10000 4.47 304 18:50 23.08.2021
1597 Clouds 14 1022 56 10000 3.58 331 16:35 23.08.2021
1598 Clouds 14 1021 58 10000 4.92 347 14:29 23.08.2021
1599 Clouds 14 1021 60 10000 4.92 291 12:56 23.08.2021
1600 Clouds 13 1021 64 10000 4.92 303 11:48 23.08.2021
1601 Clouds 13 1021 71 10000 5.36 309 10:37 23.08.2021
1602 Clouds 12 1020 75 10000 4.47 339 09:31 23.08.2021
1603 Clouds 11 1020 81 10000 4.02 299 07:58 23.08.2021
1604 Clouds 11 1020 79 10000 2.68 304 06:48 23.08.2021
1605 Clouds 11 1020 82 10000 3.13 293 05:40 23.08.2021
1606 Clouds 12 1019 92 10000 3.13 294 00:51 23.08.2021
1607 Clouds 13 1018 89 10000 2.68 291 22:44 22.08.2021
1608 Clouds 14 1017 84 10000 3.58 289 22:23 22.08.2021
1609 Clouds 15 1017 80 10000 2.68 292 20:21 22.08.2021
1610 Clouds 16 1016 77 10000 2.24 297 19:22 22.08.2021
1611 Clouds 16 1017 78 10000 1.34 331 16:27 22.08.2021
1612 Clouds 16 1017 81 10000 2.24 307 14:56 22.08.2021
1613 Clouds 16 1016 80 10000 2.68 286 14:35 22.08.2021
1614 Clouds 16 1015 83 10000 3.13 276 13:20 22.08.2021
1615 Clouds 15 1015 82 10000 1.79 304 12:51 22.08.2021
1616 Clouds 16 1015 77 10000 4.02 288 11:58 22.08.2021
1617 Clouds 15 1015 79 10000 4.92 274 11:39 22.08.2021
1618 Clouds 15 1015 83 10000 2.68 358 10:20 22.08.2021
1619 Clouds 13 1014 89 10000 2.68 280 08:18 22.08.2021
1620 Clouds 12 1012 93 10000 3.58 282 04:50 22.08.2021
1621 Clear 13 1011 91 10000 3.13 266 22:51 21.08.2021
1622 Clear 13 1011 91 10000 2.68 266 22:27 21.08.2021
1623 Clouds 15 1011 87 10000 0.89 243 19:22 21.08.2021
1624 Clouds 15 1011 87 10000 0.89 243 19:22 21.08.2021
1625 Rain 16 1011 84 10000 3.13 262 18:39 21.08.2021
1626 Clouds 17 1010 70 10000 1.79 232 17:48 21.08.2021
1627 Clouds 18 1012 70 10000 1.79 273 16:50 21.08.2021
1628 Clouds 18 1012 71 10000 2.68 287 15:51 21.08.2021
1629 Clouds 17 1012 73 10000 2.24 263 15:26 21.08.2021
1630 Clouds 17 1012 83 10000 2.24 239 14:21 21.08.2021
1631 Clouds 17 1012 78 10000 1.79 246 12:43 21.08.2021
1632 Clouds 16 1012 79 10000 0.45 137 12:23 21.08.2021
1633 Thunderstorm 14 1011 87 10000 3.58 124 09:21 21.08.2021
1634 Clear 11 1010 89 10000 0.45 147 01:39 21.08.2021
1635 Clear 13 1009 79 10000 0.45 229 22:42 20.08.2021
1636 Clear 14 1010 72 10000 0.45 223 20:51 20.08.2021
1637 Clouds 18 1009 61 10000 3.13 234 17:46 20.08.2021
1638 Clouds 18 1008 66 10000 3.13 212 15:42 20.08.2021
1639 Clouds 17 1007 70 10000 4.47 247 13:23 20.08.2021
1640 Clouds 16 1006 73 10000 4.02 238 11:32 20.08.2021
1641 Clouds 16 1005 76 10000 4.47 252 10:41 20.08.2021
1642 Rain 16 1005 77 10000 4.47 255 09:29 20.08.2021
1643 Clouds 16 1005 77 10000 4.47 293 08:40 20.08.2021
1644 Clear 14 1003 88 10000 2.68 252 06:22 20.08.2021
1645 Clear 14 1002 89 10000 1.34 230 04:21 20.08.2021
1646 Clouds 14 1001 87 10000 1.34 225 00:18 20.08.2021
1647 Clouds 14 1001 87 10000 3.13 243 22:39 19.08.2021
1648 Clouds 14 1000 87 10000 2.24 246 22:18 19.08.2021
1649 Clouds 14 999 88 10000 2.68 242 20:23 19.08.2021
1650 Clouds 15 999 89 10000 4.02 229 19:30 19.08.2021
1651 Rain 15 997 86 10000 3.13 222 17:18 19.08.2021
1652 Clouds 16 996 77 10000 5.36 231 15:40 19.08.2021
1653 Clouds 16 995 90 10000 2.24 201 13:19 19.08.2021
1654 Clouds 16 995 87 10000 2.24 203 12:31 19.08.2021
1655 Rain 16 994 91 10000 2.68 219 11:18 19.08.2021
1656 Rain 15 994 94 7000 1.34 240 09:49 19.08.2021
1657 Rain 15 994 95 7000 1.79 237 09:29 19.08.2021
1658 Rain 15 994 94 10000 2.24 203 08:54 19.08.2021
1659 Clouds 14 994 96 2500 3.58 195 06:32 19.08.2021
1660 Rain 14 996 92 10000 0.89 219 02:21 19.08.2021
1661 Rain 14 996 95 7000 1.79 283 01:41 19.08.2021
1662 Clouds 15 994 92 10000 2.24 216 22:40 18.08.2021
1663 Clouds 15 995 94 10000 2.24 223 21:37 18.08.2021
1664 Clouds 15 994 95 6000 4.47 195 20:22 18.08.2021
1665 Rain 15 993 93 10000 5.81 136 19:28 18.08.2021
1666 Rain 15 995 89 10000 4.92 144 18:35 18.08.2021
1667 Clouds 16 996 88 10000 3.58 161 17:24 18.08.2021
1668 Clouds 15 996 95 10000 5.36 172 15:41 18.08.2021
1669 Rain 15 996 90 2500 4.92 145 15:22 18.08.2021
1670 Rain 16 996 82 10000 8.94 119 13:25 18.08.2021
1671 Rain 16 997 81 10000 7.15 122 12:39 18.08.2021
1672 Clouds 16 997 83 10000 6.71 135 12:21 18.08.2021
1673 Clouds 15 996 87 10000 4.92 148 08:59 18.08.2021
1674 Clouds 15 1000 93 10000 3.13 159 03:21 18.08.2021
1675 Clouds 16 998 91 10000 1.79 224 22:40 17.08.2021
1676 Clouds 16 998 93 10000 2.24 233 22:21 17.08.2021
1677 Clouds 17 998 91 10000 2.68 220 21:22 17.08.2021
1678 Clouds 18 999 94 7000 9.83 201 20:42 17.08.2021
1679 Rain 18 1000 97 8000 8.05 101 18:49 17.08.2021
1680 Rain 18 1002 75 8000 4.92 92 17:26 17.08.2021
1681 Rain 18 1003 76 7000 5.81 85 16:28 17.08.2021
1682 Rain 18 1003 79 8000 4.02 86 15:35 17.08.2021
1683 Clouds 19 1005 73 10000 4.92 109 13:23 17.08.2021
1684 Clouds 18 1004 72 10000 4.02 123 11:00 17.08.2021
1685 Clouds 18 1004 73 10000 1.34 143 09:20 17.08.2021
1686 Clouds 17 1005 70 10000 1.34 135 07:30 17.08.2021
1687 Clouds 16 1006 72 10000 5.36 119 23:28 16.08.2021
1688 Rain 16 1007 69 8000 5.36 124 22:54 16.08.2021
1689 Clouds 16 1007 70 8000 4.47 117 22:35 16.08.2021
1690 Rain 16 1007 73 10000 1.34 148 21:51 16.08.2021
1691 Rain 16 1007 72 10000 2.68 130 20:52 16.08.2021
1692 Rain 17 1008 79 10000 3.13 124 19:29 16.08.2021
1693 Rain 17 1008 75 10000 4.02 125 18:50 16.08.2021
1694 Rain 18 1008 62 10000 3.58 128 17:55 16.08.2021
1695 Clouds 20 1007 56 10000 4.63 190 16:57 16.08.2021
1696 Clouds 20 1007 62 10000 2.24 206 15:28 16.08.2021
1697 Clouds 19 1009 64 10000 1.34 242 14:27 16.08.2021
1698 Clouds 18 1009 72 10000 2.24 234 13:21 16.08.2021
1699 Clouds 19 1008 73 10000 3.13 200 12:28 16.08.2021
1700 Clouds 18 1007 72 10000 2.68 185 09:43 16.08.2021
1701 Clear 17 1008 85 10000 1.79 279 08:43 16.08.2021
1702 Clear 15 1006 89 10000 1.79 265 07:30 16.08.2021
1703 Clear 13 1005 82 10000 1.34 218 05:58 16.08.2021
1704 Clear 13 1002 82 10000 2.24 256 01:28 16.08.2021
1705 Clear 14 1000 80 10000 2.24 244 21:34 15.08.2021
1706 Clouds 15 1002 78 10000 4.47 242 19:57 15.08.2021
1707 Rain 16 999 80 7000 2.68 232 18:41 15.08.2021
1708 Rain 16 999 74 10000 2.24 239 17:49 15.08.2021
1709 Clouds 17 1001 75 10000 2.68 230 17:22 15.08.2021
1710 Clouds 17 1001 77 10000 4.02 212 15:45 15.08.2021
1711 Thunderstorm 17 1001 73 10000 4.02 195 14:38 15.08.2021
1712 Thunderstorm 18 1000 68 10000 3.58 216 13:34 15.08.2021
1713 Clouds 17 1002 79 10000 5.81 304 10:50 15.08.2021
1714 Clouds 16 1001 78 10000 4.02 234 08:34 15.08.2021
1715 Rain 16 1004 79 10000 2.68 216 01:22 15.08.2021
1716 Rain 16 1004 78 10000 2.68 194 00:32 15.08.2021
1717 Clear 17 1007 76 10000 1.79 235 21:27 14.08.2021
1718 Clouds 17 1008 74 10000 2.24 222 20:28 14.08.2021
1719 Clouds 18 1008 70 10000 3.13 239 19:31 14.08.2021
1720 Clouds 19 1009 66 10000 1.34 244 18:23 14.08.2021
1721 Clouds 20 1009 65 10000 5.36 232 16:39 14.08.2021
1722 Clouds 20 1008 62 10000 3.13 240 15:34 14.08.2021
1723 Clouds 20 1009 69 10000 3.58 214 13:48 14.08.2021
1724 Clouds 19 1010 78 10000 2.68 224 10:58 14.08.2021
1725 Clouds 17 1010 78 4000 2.68 217 09:43 14.08.2021
1726 Clouds 17 1012 79 10000 1.79 169 04:52 14.08.2021
1727 Clouds 17 1013 78 10000 0.89 235 23:51 13.08.2021
1728 Clear 18 1014 75 10000 1.79 248 21:51 13.08.2021
1729 Clear 19 1014 70 10000 1.79 235 20:22 13.08.2021
1730 Clouds 21 1014 67 10000 2.68 247 18:46 13.08.2021
1731 Clouds 22 1016 67 10000 2.24 216 17:18 13.08.2021
1732 Rain 22 1016 67 10000 1.79 272 15:55 13.08.2021
1733 Clouds 23 1016 57 10000 3.13 264 11:55 13.08.2021
1734 Clouds 22 1016 56 10000 2.24 278 11:18 13.08.2021
1735 Clear 18 1017 81 10000 1.34 347 08:40 13.08.2021
1736 Clear 18 1015 75 10000 1.79 265 07:48 13.08.2021
1737 Clear 15 1016 80 10000 1.79 288 06:32 13.08.2021
1738 Clear 14 1014 79 10000 1.34 296 00:29 13.08.2021
1739 Clear 16 1014 78 10000 2.24 289 21:51 12.08.2021
1740 Clouds 17 1014 81 10000 1.79 271 20:35 12.08.2021
1741 Clouds 18 1014 80 10000 1.34 273 19:50 12.08.2021
1742 Rain 18 1015 77 10000 2.24 344 18:34 12.08.2021
1743 Rain 19 1014 74 10000 1.79 299 16:50 12.08.2021
1744 Thunderstorm 19 1016 78 10000 0.89 288 15:51 12.08.2021
1745 Clouds 20 1016 71 10000 1.34 317 13:52 12.08.2021
1746 Thunderstorm 20 1016 79 10000 0.89 113 11:38 12.08.2021
1747 Clouds 18 1017 89 10000 1.54 20 08:59 12.08.2021
1748 Clouds 17 1014 74 10000 1.54 330 07:30 12.08.2021
1749 Clouds 17 1014 76 10000 0.89 283 23:21 11.08.2021
1750 Clear 17 1016 85 10000 1.54 100 21:53 11.08.2021
1751 Clouds 19 1015 70 10000 1.79 141 19:20 11.08.2021
1752 Clouds 20 1015 70 10000 0.89 140 18:26 11.08.2021
1753 Clouds 21 1015 65 10000 2.68 136 15:36 11.08.2021
1754 Clouds 21 1016 65 10000 2.24 121 15:18 11.08.2021
1755 Clouds 22 1014 57 10000 4.02 115 13:50 11.08.2021
1756 Clouds 22 1014 57 10000 1.34 129 12:29 11.08.2021
1757 Clouds 21 1014 58 10000 0.89 127 11:45 11.08.2021
1758 Clouds 20 1016 65 10000 0.89 111 11:21 11.08.2021
1759 Clouds 18 1017 72 10000 1.79 108 08:54 11.08.2021
1760 Clear 15 1015 71 10000 0.89 80 06:58 11.08.2021
1761 Clear 16 1017 80 10000 0.45 163 22:34 10.08.2021
1762 Clear 16 1017 79 10000 0.89 195 21:50 10.08.2021
1763 Clear 17 1017 77 10000 0.45 187 20:55 10.08.2021
1764 Clouds 19 1017 73 10000 1.79 164 19:27 10.08.2021
1765 Clouds 20 1016 67 10000 1.34 203 18:18 10.08.2021
1766 Clouds 21 1016 65 10000 2.24 195 15:37 10.08.2021
1767 Clouds 21 1016 65 10000 2.24 231 14:40 10.08.2021
1768 Clouds 19 1018 74 10000 2.24 196 10:54 10.08.2021
1769 Clouds 18 1018 75 10000 2.68 209 09:33 10.08.2021
1770 Clouds 17 1015 74 10000 0.89 230 06:21 10.08.2021
1771 Clouds 16 1015 75 10000 1.79 237 00:55 10.08.2021
1772 Clouds 17 1014 77 10000 1.79 192 23:35 09.08.2021
1773 Clouds 17 1016 80 10000 1.34 205 21:53 09.08.2021
1774 Clouds 17 1016 80 10000 1.34 242 21:28 09.08.2021
1775 Rain 19 1014 73 10000 2.24 178 18:48 09.08.2021
1776 Clouds 20 1014 70 10000 0.89 220 16:57 09.08.2021
1777 Clouds 20 1015 73 10000 1.79 280 14:37 09.08.2021
1778 Clouds 19 1015 76 10000 3.13 235 13:31 09.08.2021
1779 Clouds 19 1013 74 10000 2.68 221 11:48 09.08.2021
1780 Clouds 18 1014 78 10000 1.34 243 09:44 09.08.2021
1781 Clouds 17 1012 73 10000 2.24 143 08:25 09.08.2021
1782 Clear 18 1011 68 10000 2.68 116 21:33 08.08.2021
1783 Clear 19 1011 69 10000 2.68 122 20:55 08.08.2021
1784 Clear 20 1011 64 10000 0.89 122 18:23 08.08.2021
1785 Clear 21 1011 65 10000 0.89 212 16:38 08.08.2021
1786 Clouds 21 1010 69 10000 1.34 195 15:29 08.08.2021
1787 Clouds 20 1011 74 10000 1.34 228 12:48 08.08.2021
1788 Clouds 18 1009 75 10000 1.34 223 10:37 08.08.2021
1789 Mist 17 1005 97 1400 3.6 130 06:42 08.08.2021
1790 Fog 17 1004 97 500 2.06 80 03:41 08.08.2021
1791 Clouds 16 1004 97 3500 4.12 70 00:26 08.08.2021
1792 Clouds 16 1005 76 3500 5.81 77 22:18 07.08.2021
1793 Clouds 16 1005 77 3500 4.92 81 21:36 07.08.2021
1794 Clouds 16 1006 80 10000 6.71 80 18:29 07.08.2021
1795 Rain 15 1007 82 5000 4.92 53 16:52 07.08.2021
1796 Rain 15 1008 83 9000 4.02 53 15:37 07.08.2021
1797 Rain 17 1008 76 10000 3.58 94 13:54 07.08.2021
1798 Rain 17 1009 74 10000 5.81 64 11:41 07.08.2021
1799 Rain 17 1009 70 10000 5.81 54 09:35 07.08.2021
1800 Clouds 15 1011 72 10000 3.58 68 04:56 07.08.2021
1801 Clouds 18 1013 52 10000 4.47 107 23:21 06.08.2021
1802 Clear 19 1012 56 10000 3.58 108 20:39 06.08.2021
1803 Clear 20 1012 55 10000 3.13 117 20:18 06.08.2021
1804 Clear 20 1012 54 10000 3.13 92 19:45 06.08.2021
1805 Clear 22 1012 43 10000 5.14 100 17:51 06.08.2021
1806 Clear 22 1013 43 10000 5.36 128 13:33 06.08.2021
1807 Clear 20 1016 47 10000 3.58 46 09:57 06.08.2021
1808 Clear 18 1017 57 10000 4.02 97 08:29 06.08.2021
1809 Clear 12 1017 79 10000 3.13 341 00:35 06.08.2021
1810 Clear 13 1017 75 10000 1.34 267 23:18 05.08.2021
1811 Clear 15 1016 63 10000 1.03 220 20:48 05.08.2021
1812 Clear 17 1016 52 10000 0.89 283 19:49 05.08.2021
1813 Clear 19 1015 44 10000 0.89 220 18:25 05.08.2021
1814 Clear 20 1016 43 10000 1.79 274 15:43 05.08.2021
1815 Clear 20 1016 46 10000 3.13 205 12:48 05.08.2021
1816 Clear 17 1018 58 10000 2.24 120 08:52 05.08.2021
1817 Clear 14 1018 59 10000 0.89 123 07:38 05.08.2021
1818 Clear 11 1017 83 10000 1.34 313 00:55 05.08.2021
1819 Clear 13 1016 78 10000 2.24 262 22:21 04.08.2021
1820 Clear 15 1016 76 10000 0.89 228 21:25 04.08.2021
1821 Clear 16 1015 68 10000 0.89 250 19:24 04.08.2021
1822 Rain 18 1015 58 10000 2.24 253 16:59 04.08.2021
1823 Clouds 19 1013 51 10000 2.24 216 14:45 04.08.2021
1824 Clear 18 1015 54 10000 1.79 241 12:21 04.08.2021
1825 Clear 11 1014 83 10000 0.89 275 06:23 04.08.2021
1826 Clear 15 1009 63 10000 2.24 300 20:55 03.08.2021
1827 Clear 16 1009 61 10000 3.13 300 20:25 03.08.2021
1828 Clouds 17 1007 60 10000 3.58 277 18:37 03.08.2021
1829 Rain 17 1006 66 10000 4.92 289 16:47 03.08.2021
1830 Clouds 17 1004 66 10000 4.92 307 13:56 03.08.2021
1831 Clouds 15 1002 74 10000 4.02 285 10:57 03.08.2021
1832 Clouds 15 1001 75 10000 4.47 286 09:30 03.08.2021
1833 Clear 19 1000 63 10000 0.45 203 19:24 02.08.2021
1834 Clouds 21 1001 60 10000 1.34 207 16:39 02.08.2021
1835 Clouds 21 1000 55 10000 1.34 221 15:30 02.08.2021
1836 Clouds 21 1001 63 10000 3.13 158 12:29 02.08.2021
1837 Clouds 21 1001 66 10000 1.79 214 11:57 02.08.2021
1838 Clouds 19 1001 70 10000 2.24 222 09:50 02.08.2021
1839 Clouds 16 1003 81 10000 0.89 217 04:26 02.08.2021
1840 Clouds 20 1002 67 10000 1.79 230 18:27 01.08.2021
1841 Clouds 21 999 62 10000 3.58 215 15:31 01.08.2021
1842 Clouds 19 1000 78 10000 3.13 249 11:38 01.08.2021
1843 Clouds 18 1000 75 10000 1.79 207 09:37 01.08.2021
1844 Clouds 15 1001 80 10000 0.89 224 03:48 01.08.2021
1845 Clear 17 1002 81 10000 1.34 222 22:52 31.07.2021
1846 Clear 18 1001 74 10000 0.89 244 20:54 31.07.2021
1847 Clouds 21 1000 66 10000 2.24 184 17:49 31.07.2021
1848 Clouds 21 998 64 10000 1.79 258 16:36 31.07.2021
1849 Clouds 21 997 61 10000 2.68 206 12:50 31.07.2021
1850 Clouds 17 998 79 10000 2.24 281 08:57 31.07.2021
1851 Clouds 14 993 84 10000 3.13 278 02:29 31.07.2021
1852 Rain 16 994 81 10000 2.24 220 20:36 30.07.2021
1853 Clouds 16 994 81 10000 2.68 197 20:18 30.07.2021
1854 Rain 17 998 71 10000 3.58 211 09:38 30.07.2021
1855 Clouds 23 1001 64 10000 2.68 226 18:19 29.07.2021
1856 Clouds 19 1003 78 10000 3.58 218 06:59 29.07.2021
1857 Clouds 19 1003 78 10000 1.79 226 04:34 29.07.2021
1858 Clouds 20 1006 77 10000 2.24 200 21:22 28.07.2021
1859 Clouds 22 1007 70 10000 1.34 196 17:47 28.07.2021
1860 Clouds 22 1006 72 10000 1.34 192 15:52 28.07.2021
1861 Rain 19 1010 79 7000 3.58 95 08:24 28.07.2021
1862 Clear 21 1012 53 10000 3.6 60 23:31 27.07.2021
1863 Clear 23 1016 51 10000 0.89 94 21:28 27.07.2021
1864 Clear 28 1016 34 10000 5.81 102 14:53 27.07.2021
1865 Clear 28 1017 39 10000 5.81 111 11:41 27.07.2021
1866 Clear 27 1019 48 10000 3.58 139 09:49 27.07.2021
1867 Clear 28 1019 31 10000 2.24 133 17:54 26.07.2021
1868 Clear 28 1020 33 10000 2.24 187 15:31 26.07.2021
1869 Clear 15 1021 81 10000 0.89 282 04:52 26.07.2021
1870 Clear 22 1019 53 10000 1.79 238 20:56 25.07.2021
1871 Clear 25 1018 42 10000 2.24 198 18:25 25.07.2021
1872 Clear 23 1021 49 10000 4.02 222 15:46 25.07.2021
1873 Clear 24 1018 40 10000 2.24 112 10:56 25.07.2021
1874 Clear 19 1019 50 10000 1.79 285 08:19 25.07.2021
1875 Clear 18 1017 67 10000 1.79 237 21:37 24.07.2021
1876 Clear 20 1016 58 10000 1.79 232 20:19 24.07.2021
1877 Clear 22 1015 41 10000 2.68 218 14:37 24.07.2021
1878 Clear 11 1017 80 10000 2.68 331 04:20 24.07.2021
1879 Clear 21 1012 41 10000 1.79 4 14:38 23.07.2021
1880 Clear 20 1013 45 10000 2.68 323 12:41 23.07.2021
1881 Clear 12 1011 79 10000 2.24 294 04:48 23.07.2021
1882 Clear 19 1010 48 10000 5.81 276 20:33 22.07.2021
1883 Clear 22 1012 42 10000 5.81 258 11:28 22.07.2021
1884 Clear 20 1013 58 10000 2.68 253 08:54 22.07.2021
1885 Clear 12 1015 72 10000 2.68 262 03:22 22.07.2021
1886 Clear 15 1017 55 10000 2.68 300 21:45 21.07.2021
1887 Clear 16 1015 51 10000 2.68 290 21:27 21.07.2021
1888 Clear 19 1015 38 10000 4.47 17 13:23 21.07.2021
1889 Clouds 17 1015 48 10000 2.68 318 09:24 21.07.2021
1890 Clear 14 1014 69 10000 3.13 311 07:25 21.07.2021
1891 Clear 14 1010 68 10000 2.68 294 23:28 20.07.2021
1892 Rain 17 1009 80 10000 1.79 281 16:37 20.07.2021
1893 Rain 17 1009 79 10000 2.24 258 15:59 20.07.2021
1894 Rain 19 1008 61 10000 3.58 240 15:24 20.07.2021
1895 Clouds 20 1008 50 10000 2.68 215 10:21 20.07.2021
1896 Clear 12 1011 73 10000 2.24 258 04:47 20.07.2021
1897 Clear 16 1012 56 10000 2.68 292 21:29 19.07.2021
1898 Clear 20 1012 44 10000 3.58 269 12:53 19.07.2021
1899 Clear 21 1012 44 10000 3.13 268 12:53 19.07.2021
1900 Clouds 19 1012 52 10000 3.13 271 10:28 19.07.2021
1901 Clear 22 1006 35 10000 3.58 284 19:25 18.07.2021
1902 Clouds 27 1004 52 10000 2.68 232 13:49 18.07.2021
1903 Clouds 25 1006 67 10000 2.68 232 10:18 18.07.2021
1904 Clear 18 1010 60 10000 3.09 220 22:24 17.07.2021
1905 Clear 20 1011 53 10000 3.6 210 21:44 17.07.2021
1906 Clear 23 1011 46 10000 3.6 210 20:49 17.07.2021
1907 Clear 26 1015 34 10000 1.34 156 12:25 17.07.2021
1908 Clear 19 1018 60 10000 3.13 0 07:19 17.07.2021
1909 Clear 24 1014 41 10000 4.12 310 20:48 16.07.2021
1910 Clouds 28 1015 48 10000 4.02 307 13:22 16.07.2021
1911 Clouds 23 1015 75 10000 3.58 326 07:32 16.07.2021
1912 Clear 21 1012 78 10000 2.57 260 00:36 16.07.2021
1913 Clouds 30 1010 46 10000 2.24 208 13:52 15.07.2021
1914 Clouds 29 1011 56 10000 2.24 160 10:31 15.07.2021
1915 Clear 20 1015 87 10000 1.03 0 00:33 15.07.2021
1916 Clear 30 1013 35 10000 3.6 170 19:22 14.07.2021
1917 Clear 30 1015 42 10000 1.34 124 15:55 14.07.2021
1918 Rain 25 1016 62 10000 1.03 0 07:48 14.07.2021
1919 Clear 25 1017 61 10000 3.09 200 21:44 13.07.2021
1920 Clear 27 1016 47 10000 2.57 180 19:55 13.07.2021
1921 Clear 28 1015 48 10000 1.34 160 19:28 13.07.2021
1922 Clear 28 1016 46 10000 1.34 153 18:45 13.07.2021
1923 Clear 28 1018 51 10000 1.34 152 18:27 13.07.2021
1924 Clear 28 1018 51 10000 2.24 146 17:56 13.07.2021
1925 Clear 29 1018 41 10000 2.24 198 13:21 13.07.2021
1926 Clear 25 1022 58 10000 0.45 176 08:49 13.07.2021
1927 Clear 25 1018 44 10000 3.09 220 20:00 12.07.2021
1928 Clear 27 1019 44 10000 0.45 231 16:45 12.07.2021
1929 Clouds 25 1020 60 10000 2.24 203 10:56 12.07.2021
1930 Clear 19 1019 71 10000 3.09 230 21:59 11.07.2021
1931 Clouds 23 1020 60 10000 3.13 246 19:53 11.07.2021
1932 Clouds 24 1019 70 10000 5.36 240 09:19 11.07.2021
1933 Clear 24 1018 72 10000 3.09 90 22:30 10.07.2021
1934 Clear 29 1018 61 10000 4.02 126 12:20 10.07.2021
1935 Clear 24 1017 71 10000 4.47 105 07:49 10.07.2021
1936 Clear 20 1019 68 10000 2.06 60 23:19 09.07.2021
1937 Clear 25 1021 47 10000 4.02 108 18:20 09.07.2021
1938 Clear 26 1022 36 10000 1.54 70 14:48 09.07.2021
1939 Rain 18 1024 72 10000 1.79 351 07:36 09.07.2021
1940 Clear 17 1025 79 10000 0.45 2 23:49 08.07.2021
1941 Clear 20 1022 76 10000 1.79 264 22:30 08.07.2021
1942 Clouds 25 1022 56 10000 1.34 288 18:56 08.07.2021
1943 Clouds 25 1022 56 10000 2.24 323 17:37 08.07.2021
1944 Clouds 22 1021 76 10000 3.13 354 13:31 08.07.2021
1945 Clouds 21 1021 78 10000 1.79 304 12:40 08.07.2021
1946 Clouds 21 1021 79 10000 3.13 320 11:30 08.07.2021
1947 Rain 21 1022 92 10000 1.34 331 09:51 08.07.2021
1948 Clouds 20 1018 94 10000 1.54 110 04:42 08.07.2021
1949 Clear 20 1022 91 10000 0.51 0 23:50 07.07.2021
1950 Clear 21 1018 77 10000 3.09 150 22:21 07.07.2021
1951 Clear 22 1018 76 10000 3.09 160 21:48 07.07.2021
1952 Clear 23 1021 81 10000 3.09 160 21:27 07.07.2021
1953 Clear 24 1018 73 10000 3.6 140 20:42 07.07.2021
1954 Clear 25 1018 65 10000 2.57 180 19:55 07.07.2021
1955 Clear 26 1018 67 10000 2.57 180 19:27 07.07.2021
1956 Clouds 27 1018 60 10000 3.13 128 16:49 07.07.2021
1957 Clouds 28 1018 54 10000 3.58 130 15:26 07.07.2021
1958 Clouds 26 1017 60 10000 1.34 142 12:24 07.07.2021
1959 Clouds 22 1019 89 10000 0.89 150 07:45 07.07.2021
1960 Clear 20 1018 90 10000 2.68 212 05:57 07.07.2021
1961 Clear 19 1015 90 10000 3.09 180 05:30 07.07.2021
1962 Clouds 22 1017 85 10000 3.6 240 20:57 06.07.2021
1963 Rain 23 1016 78 10000 1.54 100 19:18 06.07.2021
1964 Rain 24 1017 77 10000 2.06 150 18:45 06.07.2021
1965 Clear 24 1017 73 10000 3.6 170 18:23 06.07.2021
1966 Clear 27 1015 53 10000 4.92 112 13:44 06.07.2021
1967 Clear 24 1015 65 10000 3.58 113 10:28 06.07.2021
1968 Clear 24 1015 65 10000 3.58 113 10:28 06.07.2021
1969 Clear 24 1015 67 10000 3.58 121 09:40 06.07.2021
1970 Clear 23 1014 71 10000 4.63 120 08:32 06.07.2021
1971 Clear 23 1014 71 10000 4.63 120 08:32 06.07.2021
1972 Clear 19 1013 79 10000 2.06 70 04:50 06.07.2021
1973 Clear 20 1014 59 10000 2.57 80 23:59 05.07.2021
1974 Clear 22 1014 53 10000 3.09 80 21:59 05.07.2021
1975 Clear 26 1014 36 10000 4.02 119 17:22 05.07.2021
1976 Clear 27 1015 34 10000 5.66 140 14:29 05.07.2021
1977 Clear 20 1016 81 10000 4.12 80 06:28 05.07.2021
1978 Clear 19 1016 79 10000 3.6 70 05:43 05.07.2021
1979 Clear 15 1016 80 10000 3.09 60 04:25 05.07.2021
1980 Clear 16 1016 71 10000 2.06 50 22:56 04.07.2021
1981 Clear 26 1016 36 10000 5.81 110 18:51 04.07.2021
1982 Clear 26 1016 32 10000 5.81 100 16:23 04.07.2021
1983 Clear 25 1017 44 10000 4.92 115 11:50 04.07.2021
1984 Clouds 23 1018 57 10000 5.81 105 09:24 04.07.2021
1985 Clear 16 1018 73 10000 0.45 33 23:32 03.07.2021
1986 Clear 16 1016 70 10000 1.54 50 22:39 03.07.2021
1987 Clear 26 1016 34 10000 2.24 152 14:26 03.07.2021
1988 Clear 26 1016 39 10000 4.47 115 12:38 03.07.2021
1989 Clear 24 1015 39 10000 4.02 102 09:29 03.07.2021
1990 Clear 24 1016 46 10000 3.09 40 08:46 03.07.2021
1991 Clear 14 1016 82 10000 2.24 315 03:21 03.07.2021
1992 Clear 22 1017 61 10000 5.36 125 12:51 02.07.2021
1993 Clear 19 1017 76 10000 2.24 24 07:40 02.07.2021
1994 Clear 16 1018 88 10000 1.34 36 04:38 02.07.2021
1995 Clouds 20 1017 72 10000 4.02 19 22:33 01.07.2021
1996 Clouds 20 1015 66 10000 3.6 30 21:51 01.07.2021
1997 Clouds 21 1018 74 10000 0.45 285 20:45 01.07.2021
1998 Clouds 24 1015 57 10000 4.63 10 19:21 01.07.2021
1999 Clouds 24 1015 57 10000 4.12 20 18:49 01.07.2021
2000 Clouds 24 1015 53 10000 5.14 10 17:48 01.07.2021
2001 Clouds 25 1015 53 10000 6.17 350 17:18 01.07.2021
2002 Clouds 24 1017 61 10000 0.45 153 15:25 01.07.2021
2003 Clouds 26 1014 49 10000 3.58 68 14:23 01.07.2021
2004 Clouds 25 1015 54 10000 2.24 15 10:55 01.07.2021
2005 Clouds 25 1015 54 10000 2.24 15 10:55 01.07.2021
2006 Clear 18 1014 70 10000 2.68 9 05:47 01.07.2021
2007 Clear 19 1013 61 10000 3.13 353 23:21 30.06.2021
2008 Clear 19 1012 66 10000 3.13 351 22:20 30.06.2021
2009 Clear 19 1012 66 10000 3.58 346 21:22 30.06.2021
2010 Clouds 19 1012 74 10000 2.24 6 20:27 30.06.2021
2011 Rain 19 1011 75 10000 4.47 282 18:54 30.06.2021
2012 Clear 26 1008 44 10000 2.68 236 14:26 30.06.2021
2013 Clear 25 1008 44 10000 0.89 253 13:21 30.06.2021
2014 Clear 22 1009 58 10000 1.79 28 07:57 30.06.2021
2015 Clear 20 1007 56 10000 2.57 310 21:29 29.06.2021
2016 Clear 25 1008 38 10000 2.68 311 18:36 29.06.2021
2017 Clear 26 1007 33 10000 3.13 347 17:43 29.06.2021
2018 Clear 26 1009 36 10000 4.02 328 16:36 29.06.2021
2019 Clear 26 1009 36 10000 4.92 287 15:38 29.06.2021
2020 Clear 25 1010 37 10000 3.58 321 13:31 29.06.2021
2021 Clear 25 1010 40 10000 1.34 346 12:19 29.06.2021
2022 Clear 17 1012 68 10000 2.24 291 00:41 29.06.2021
2023 Clear 20 1011 57 10000 2.24 278 21:47 28.06.2021
2024 Clear 24 1010 38 10000 3.58 323 19:40 28.06.2021
2025 Clear 25 1011 35 10000 3.13 306 17:29 28.06.2021
2026 Clear 25 1012 47 10000 2.24 302 15:22 28.06.2021
2027 Clouds 24 1012 53 10000 3.58 334 12:58 28.06.2021
2028 Clear 20 1013 71 10000 2.68 314 07:50 28.06.2021
2029 Clear 17 1011 76 10000 3.6 300 23:45 27.06.2021
2030 Clear 21 1012 61 10000 0.45 274 21:33 27.06.2021
2031 Clear 23 1010 46 10000 4.63 300 19:40 27.06.2021
2032 Clouds 25 1010 61 10000 4.12 310 16:50 27.06.2021
2033 Clouds 24 1011 63 10000 3.13 192 13:24 27.06.2021
2034 Clouds 18 1014 95 10000 0.89 265 06:41 27.06.2021
2035 Clear 20 1011 88 10000 2.57 230 22:46 26.06.2021
2036 Clouds 22 1011 73 10000 1.54 230 20:59 26.06.2021
2037 Clouds 22 1011 73 10000 2.06 250 20:40 26.06.2021
2038 Clouds 23 1010 64 10000 5.14 290 19:25 26.06.2021
2039 Clouds 24 1012 65 10000 3.13 233 15:22 26.06.2021
2040 Clouds 23 1013 74 10000 3.58 205 12:28 26.06.2021
2041 Clouds 23 1013 74 10000 3.58 205 12:28 26.06.2021
2042 Clouds 22 1011 73 10000 3.6 230 08:54 26.06.2021
2043 Clear 17 1014 97 10000 1.54 220 04:35 26.06.2021
2044 Clear 22 1011 73 10000 2.06 210 20:40 25.06.2021
2045 Clouds 23 1011 73 10000 1.54 140 19:38 25.06.2021
2046 Clouds 24 1013 68 10000 1.79 154 17:52 25.06.2021
2047 Clouds 24 1014 68 10000 1.34 158 16:49 25.06.2021
2048 Clouds 24 1012 68 10000 1.79 159 14:58 25.06.2021
2049 Clouds 23 1015 71 10000 1.34 157 11:19 25.06.2021
2050 Clouds 20 1013 73 10000 1.03 0 08:48 25.06.2021
2051 Clouds 19 1016 88 10000 0.51 0 07:20 25.06.2021
2052 Clear 16 1013 94 10000 1.03 30 03:49 25.06.2021
2053 Clouds 20 1015 78 10000 2.57 350 22:20 24.06.2021
2054 Clouds 21 1015 83 10000 1.54 230 21:40 24.06.2021
2055 Clouds 23 1014 69 10000 0.89 132 20:40 24.06.2021
2056 Clouds 23 1014 67 10000 1.54 250 18:47 24.06.2021
2057 Clouds 23 1015 66 10000 1.79 182 16:19 24.06.2021
2058 Clouds 23 1016 70 10000 1.34 163 15:22 24.06.2021
2059 Clouds 23 1016 71 10000 0.45 49 14:47 24.06.2021
2060 Clouds 21 1015 71 10000 1.79 122 11:20 24.06.2021
2061 Clouds 20 1018 76 10000 0.89 336 09:34 24.06.2021
2062 Clouds 19 1017 76 10000 3.13 294 08:23 24.06.2021
2063 Fog 17 1019 97 600 2.06 260 03:32 24.06.2021
2064 Clouds 19 1018 80 10000 0.89 217 23:20 23.06.2021
2065 Clouds 21 1017 78 10000 0.89 221 21:44 23.06.2021
2066 Clouds 21 1016 76 10000 2.24 226 20:38 23.06.2021
2067 Clouds 21 1016 75 10000 1.34 227 18:35 23.06.2021
2068 Clouds 21 1014 76 10000 1.34 228 17:32 23.06.2021
2069 Clouds 20 1015 68 10000 1.79 130 16:34 23.06.2021
2070 Clouds 28 1012 57 10000 4.02 128 13:22 23.06.2021
2071 Clouds 29 1012 55 10000 2.24 123 11:59 23.06.2021
2072 Clear 29 1014 61 10000 2.57 180 09:55 23.06.2021
2073 Clear 28 1014 58 10000 2.06 180 08:49 23.06.2021
2074 Clear 26 1014 69 10000 1.03 0 07:52 23.06.2021
2075 Clear 24 1013 81 10000 0.51 0 06:58 23.06.2021
2076 Clear 19 1013 94 10000 0.51 350 04:25 23.06.2021
2077 Clear 21 1013 83 10000 4.12 170 00:44 23.06.2021
2078 Clear 21 1012 83 10000 3.09 170 23:55 22.06.2021
2079 Clear 23 1012 73 10000 3.09 170 22:44 22.06.2021
2080 Clear 23 1012 69 10000 3.09 180 22:22 22.06.2021
2081 Clear 24 1011 69 10000 3.09 160 21:37 22.06.2021
2082 Clear 28 1011 48 10000 5.66 210 19:42 22.06.2021
2083 Clouds 29 1010 54 10000 4.12 180 18:54 22.06.2021
2084 Clouds 29 1010 53 10000 0.89 92 18:24 22.06.2021
2085 Clear 30 1010 51 10000 4.12 140 17:21 22.06.2021
2086 Clear 31 1010 48 10000 3.6 130 16:30 22.06.2021
2087 Clear 31 1010 48 10000 3.6 130 16:30 22.06.2021
2088 Clear 30 1011 48 10000 6.17 120 14:36 22.06.2021
2089 Clear 30 1011 51 10000 4.92 126 13:48 22.06.2021
2090 Clear 30 1011 50 10000 6.17 120 12:35 22.06.2021
2091 Clear 28 1011 58 10000 4.02 135 10:58 22.06.2021
2092 Clear 26 1012 67 10000 3.09 150 09:21 22.06.2021
2093 Clear 22 1012 82 10000 2.57 150 06:37 22.06.2021
2094 Clear 20 1013 88 10000 1.03 70 00:37 22.06.2021
2095 Clouds 23 1013 69 10000 3.6 130 22:59 21.06.2021
2096 Clouds 24 1013 73 10000 1.54 220 21:48 21.06.2021
2097 Clear 28 1012 51 10000 2.57 220 20:53 21.06.2021
2098 Clear 28 1012 48 10000 3.6 230 20:21 21.06.2021
2099 Clear 29 1012 51 10000 4.12 220 19:49 21.06.2021
2100 Clear 30 1012 45 10000 7.2 210 18:25 21.06.2021
2101 Clear 31 1012 46 10000 6.69 190 16:56 21.06.2021
2102 Clear 31 1012 45 10000 1.34 212 16:30 21.06.2021
2103 Clear 31 1012 45 10000 1.34 212 16:30 21.06.2021
2104 Clear 31 1012 46 10000 1.79 244 15:57 21.06.2021
2105 Clouds 31 1012 46 10000 1.34 206 15:20 21.06.2021
2106 Clear 31 1012 49 10000 6.69 190 13:47 21.06.2021
2107 Clear 30 1012 50 10000 3.13 140 12:55 21.06.2021
2108 Clear 30 1012 53 10000 1.79 171 12:35 21.06.2021
2109 Clear 28 1012 60 10000 2.24 170 10:55 21.06.2021
2110 Clear 27 1012 64 10000 1.79 148 10:23 21.06.2021
2111 Clear 26 1012 65 10000 2.68 142 08:47 21.06.2021
2112 Clear 26 1012 61 10000 3.6 150 07:57 21.06.2021
2113 Clear 18 1013 83 10000 2.06 100 01:53 21.06.2021
2114 Clear 20 1014 73 10000 1.54 130 23:52 20.06.2021
2115 Clear 20 1014 73 10000 1.54 130 23:32 20.06.2021
2116 Clear 22 1014 68 10000 2.57 170 22:47 20.06.2021
2117 Clear 24 1013 64 10000 4.12 160 21:44 20.06.2021
2118 Clear 25 1013 59 10000 1.34 160 20:27 20.06.2021
2119 Clear 28 1013 47 10000 6.17 210 19:38 20.06.2021
2120 Clear 28 1013 49 10000 0.45 161 18:49 20.06.2021
2121 Clear 29 1013 42 10000 1.34 247 17:45 20.06.2021
2122 Clear 30 1014 42 10000 7.2 200 16:44 20.06.2021
2123 Clear 30 1014 40 10000 7.72 200 15:38 20.06.2021
2124 Clear 30 1014 40 10000 1.79 224 14:55 20.06.2021
2125 Clear 30 1014 41 10000 7.2 180 14:36 20.06.2021
2126 Clear 30 1014 41 10000 7.2 180 14:36 20.06.2021
2127 Clear 29 1014 44 10000 2.24 233 13:28 20.06.2021
2128 Clear 28 1014 52 10000 0.89 171 11:48 20.06.2021
2129 Clear 27 1015 56 10000 4.63 190 11:23 20.06.2021
2130 Clear 26 1014 62 10000 5.14 170 09:49 20.06.2021
2131 Clear 25 1014 57 10000 5.14 180 08:59 20.06.2021
2132 Clear 16 1015 84 10000 1.03 120 02:25 20.06.2021
2133 Clear 18 1016 77 10000 2.06 120 23:35 19.06.2021
2134 Clear 19 1016 68 10000 2.57 170 22:43 19.06.2021
2135 Clear 21 1016 64 10000 3.6 160 21:48 19.06.2021
2136 Clear 24 1016 53 10000 4.12 150 20:37 19.06.2021
2137 Clear 26 1016 44 10000 5.66 160 18:47 19.06.2021
2138 Clear 27 1016 44 10000 5.66 160 17:55 19.06.2021
2139 Clear 27 1016 43 10000 3.58 128 17:21 19.06.2021
2140 Clear 28 1017 41 10000 4.02 118 15:52 19.06.2021
2141 Clear 28 1017 40 10000 1.79 164 14:20 19.06.2021
2142 Clear 28 1018 41 10000 5.14 200 12:47 19.06.2021
2143 Clear 27 1018 46 10000 4.63 190 11:53 19.06.2021
2144 Clear 26 1017 45 10000 1.34 177 10:42 19.06.2021
2145 Clear 26 1018 47 10000 5.66 210 10:22 19.06.2021
2146 Clear 25 1018 50 10000 5.14 210 08:57 19.06.2021
2147 Clear 22 1018 56 10000 4.63 210 07:44 19.06.2021
2148 Clear 19 1017 67 10000 3.6 210 05:54 19.06.2021
2149 Clear 17 1018 55 10000 2.57 240 00:35 19.06.2021
2150 Clear 18 1018 52 10000 4.12 230 23:59 18.06.2021
2151 Clear 19 1018 49 10000 4.12 230 23:25 18.06.2021
2152 Clear 18 1018 76 10000 3.58 232 22:47 18.06.2021
2153 Clear 20 1018 49 10000 4.12 220 21:57 18.06.2021
2154 Clear 21 1017 49 10000 5.14 220 21:29 18.06.2021
2155 Clear 22 1017 49 10000 5.14 210 20:38 18.06.2021
2156 Clear 25 1017 50 10000 8.23 210 19:25 18.06.2021
2157 Clear 26 1017 47 10000 8.75 220 18:21 18.06.2021
2158 Clear 26 1017 44 10000 2.68 229 17:18 18.06.2021
2159 Clear 27 1018 42 10000 8.75 200 15:55 18.06.2021
2160 Clear 27 1018 41 10000 2.24 219 14:56 18.06.2021
2161 Clear 26 1018 44 10000 1.79 238 14:29 18.06.2021
2162 Clear 26 1018 48 10000 1.79 201 13:32 18.06.2021
2163 Clouds 25 1018 49 10000 3.13 225 12:44 18.06.2021
2164 Clear 24 1019 51 10000 2.24 208 11:56 18.06.2021
2165 Clear 24 1019 54 10000 6.69 190 11:20 18.06.2021
2166 Clear 23 1019 60 10000 5.66 170 10:51 18.06.2021
2167 Clear 22 1019 58 10000 3.13 213 10:21 18.06.2021
2168 Clear 22 1019 62 10000 2.24 188 09:40 18.06.2021
2169 Clear 22 1019 58 10000 0.89 79 08:44 18.06.2021
2170 Clear 20 1019 67 10000 1.34 217 07:52 18.06.2021
2171 Clear 19 1019 67 10000 2.24 211 07:21 18.06.2021
2172 Clear 13 1021 76 10000 3.09 180 00:48 18.06.2021
2173 Clear 14 1021 77 10000 4.12 190 23:41 17.06.2021
2174 Clear 14 1021 77 10000 3.6 170 22:49 17.06.2021
2175 Clear 15 1021 82 10000 4.12 150 22:23 17.06.2021
2176 Clear 16 1021 72 10000 4.63 170 21:38 17.06.2021
2177 Clear 18 1021 59 10000 4.12 180 20:49 17.06.2021
2178 Clear 18 1021 63 10000 1.34 118 20:23 17.06.2021
2179 Clear 19 1021 58 10000 1.34 137 19:46 17.06.2021
2180 Clear 22 1022 43 10000 6.17 210 18:33 17.06.2021
2181 Clear 22 1022 45 10000 6.17 190 17:42 17.06.2021
2182 Clear 22 1022 47 10000 6.69 200 17:19 17.06.2021
2183 Clear 22 1022 44 10000 1.79 199 16:25 17.06.2021
2184 Clear 22 1022 48 10000 3.13 235 14:58 17.06.2021
2185 Clear 22 1022 52 10000 2.24 227 13:59 17.06.2021
2186 Clear 21 1022 55 10000 2.68 203 12:50 17.06.2021
2187 Clear 21 1022 53 10000 1.79 210 12:23 17.06.2021
2188 Clear 20 1022 63 10000 1.34 255 10:54 17.06.2021
2189 Clear 19 1022 62 10000 2.24 238 10:30 17.06.2021
2190 Clear 19 1022 65 10000 0.89 339 09:57 17.06.2021
2191 Clear 18 1022 65 10000 1.34 217 09:35 17.06.2021
2192 Clear 16 1021 69 10000 3.58 115 08:21 17.06.2021
2193 Clouds 14 1021 76 10000 3.09 220 06:55 17.06.2021
2194 Clear 12 1020 82 10000 1.54 220 04:20 17.06.2021
2195 Clear 12 1018 67 10000 2.57 220 23:50 16.06.2021
2196 -273 0 0 0 0 0 23:31 16.06.2021
2197 Clear 12 1018 62 10000 2.57 220 23:30 16.06.2021
2198 Clear 13 1018 55 10000 2.57 220 22:38 16.06.2021
2199 Clear 15 1018 48 10000 3.6 240 21:48 16.06.2021
2200 Clear 16 1018 48 10000 3.6 240 21:26 16.06.2021
2201 Clear 17 1017 48 10000 5.14 230 20:46 16.06.2021
2202 Clear 18 1017 42 10000 6.17 230 20:19 16.06.2021
2203 Clear 19 1017 42 10000 6.69 230 19:43 16.06.2021
2204 Clear 19 1017 42 10000 7.72 230 19:18 16.06.2021
2205 Clear 20 1017 37 10000 8.23 240 18:32 16.06.2021
2206 Clear 21 1016 35 10000 7.2 240 17:53 16.06.2021
2207 Clear 21 1016 35 10000 4.47 228 17:27 16.06.2021
2208 Clear 21 1016 37 10000 1.79 200 16:44 16.06.2021
2209 Clear 21 1016 37 10000 3.58 236 16:44 16.06.2021
2210 Clear 21 1016 36 10000 4.02 232 16:22 16.06.2021
2211 Clear 21 1016 40 10000 1.79 233 15:39 16.06.2021
2212 Clear 21 1017 45 10000 1.79 222 14:57 16.06.2021
2213 Clear 21 1017 43 10000 2.24 212 14:39 16.06.2021
2214 Clear 21 1017 42 10000 1.79 214 14:20 16.06.2021
2215 Clear 21 1017 44 10000 2.68 220 13:40 16.06.2021
2216 Clear 21 1017 45 10000 3.13 202 13:21 16.06.2021
2217 Clear 21 1017 47 10000 1.79 228 12:34 16.06.2021
2218 Clear 20 1017 47 10000 2.68 217 11:52 16.06.2021
2219 Clear 20 1017 49 10000 2.68 201 11:18 16.06.2021
2220 Clear 19 1016 50 10000 2.24 228 10:40 16.06.2021
2221 Clear 18 1016 55 10000 3.09 270 09:46 16.06.2021
2222 Clear 15 1016 59 10000 2.57 280 08:48 16.06.2021
2223 Clear 16 1016 65 10000 2.24 319 07:49 16.06.2021
2224 Clear 14 1016 77 10000 3.09 280 07:30 16.06.2021
2225 Clear 9 1014 87 10000 2.06 250 02:49 16.06.2021
2226 Clear 11 1012 76 10000 3.09 240 23:52 15.06.2021
2227 Clear 12 1012 71 10000 3.09 230 23:24 15.06.2021
2228 Clear 12 1012 71 10000 3.09 230 22:56 15.06.2021
2229 Clear 12 1012 71 10000 3.09 230 22:56 15.06.2021
2230 Clear 13 1012 67 10000 2.57 240 22:37 15.06.2021
2231 Clear 15 1011 63 10000 3.6 250 21:42 15.06.2021
2232 Clear 16 1011 51 10000 3.6 270 20:51 15.06.2021
2233 Clear 17 1010 48 10000 3.13 266 19:44 15.06.2021
2234 Clear 18 1010 50 10000 2.24 230 18:32 15.06.2021
2235 Clear 19 1009 46 10000 3.13 212 16:54 15.06.2021
2236 Clear 19 1009 47 10000 2.68 223 16:25 15.06.2021
2237 Clear 19 1009 46 10000 4.02 233 15:39 15.06.2021
2238 Clear 19 1009 45 10000 7.72 240 14:46 15.06.2021
2239 Clear 19 1008 43 10000 2.24 278 13:45 15.06.2021
2240 Clouds 19 1008 44 10000 6.26 259 13:21 15.06.2021
2241 Clouds 19 1008 46 10000 3.58 277 12:44 15.06.2021
2242 Clouds 18 1008 51 10000 4.47 242 11:49 15.06.2021
2243 Clouds 18 1007 55 10000 6.69 240 11:19 15.06.2021
2244 Clouds 17 1007 57 10000 7.72 230 10:47 15.06.2021
2245 Clouds 17 1007 59 10000 7.72 230 10:29 15.06.2021
2246 Clouds 16 1006 63 10000 7.2 250 09:32 15.06.2021
2247 Clouds 15 1005 66 10000 8.23 250 08:28 15.06.2021
2248 Clouds 15 1005 74 10000 6.69 240 07:43 15.06.2021
2249 Clouds 14 1005 84 10000 6.69 240 06:37 15.06.2021
2250 Clouds 14 1004 77 10000 3.58 231 04:31 15.06.2021
2251 Clear 16 1007 61 10000 4.02 193 00:47 15.06.2021
2252 Clear 16 1007 62 10000 4.02 193 00:47 15.06.2021
2253 Clear 16 1008 60 10000 3.13 205 23:45 14.06.2021
2254 Clear 16 1008 58 10000 3.58 191 23:25 14.06.2021
2255 Clear 17 1009 56 10000 3.58 187 22:42 14.06.2021
2256 Clear 17 1009 58 10000 4.02 200 22:20 14.06.2021
2257 Clear 17 1010 57 10000 4.02 195 21:41 14.06.2021
2258 Clear 17 1010 55 10000 8.23 190 21:22 14.06.2021
2259 Clear 18 1010 55 10000 6.69 200 20:50 14.06.2021
2260 Clear 18 1011 55 10000 7.2 210 19:54 14.06.2021
2261 Clear 18 1011 53 10000 2.24 230 19:35 14.06.2021
2262 Clear 19 1011 46 10000 3.58 229 18:59 14.06.2021
2263 Clear 19 1012 48 10000 2.68 223 18:24 14.06.2021
2264 Clear 19 1012 47 10000 3.58 229 17:54 14.06.2021
2265 Clear 19 1013 49 10000 4.47 222 17:29 14.06.2021
2266 Clear 20 1013 47 10000 4.47 227 16:20 14.06.2021
2267 Clear 20 1014 47 10000 3.13 258 15:48 14.06.2021
2268 Clear 20 1014 48 10000 2.68 227 15:20 14.06.2021
2269 Clear 20 1014 48 10000 3.58 216 14:43 14.06.2021
2270 Clear 20 1015 52 10000 2.68 213 13:35 14.06.2021
2271 Clear 20 1015 51 10000 3.58 233 12:54 14.06.2021
2272 Clear 20 1015 51 10000 2.24 226 12:31 14.06.2021
2273 Clear 20 1016 48 10000 2.68 208 11:46 14.06.2021
2274 Clear 19 1016 52 10000 2.68 198 10:54 14.06.2021
2275 Clear 18 1016 47 10000 2.24 232 09:40 14.06.2021
2276 Clear 17 1016 51 10000 4.12 220 09:21 14.06.2021
2277 Clear 17 1016 55 10000 3.6 220 08:41 14.06.2021
2278 Clear 15 1016 58 10000 1.54 260 07:43 14.06.2021
2279 Clear 11 1016 71 10000 2.57 270 06:23 14.06.2021
2280 Clear 9 1016 78 10000 3.09 270 04:51 14.06.2021
2281 Clear 10 1014 69 10000 3.13 289 00:43 14.06.2021
2282 Clear 11 1014 71 10000 3.6 290 23:40 13.06.2021
2283 Clear 12 1013 64 10000 3.13 289 23:19 13.06.2021
2284 Clear 13 1013 60 10000 3.13 289 22:40 13.06.2021
2285 Clear 14 1013 61 10000 5.14 290 22:18 13.06.2021
2286 Clear 14 1012 58 10000 6.17 290 21:39 13.06.2021
2287 Clear 15 1012 55 10000 4.02 281 21:20 13.06.2021
2288 Clear 16 1012 52 10000 4.47 292 20:33 13.06.2021
2289 Clear 17 1011 49 10000 4.47 283 19:59 13.06.2021
2290 Clear 17 1011 50 10000 4.47 277 19:41 13.06.2021
2291 Clear 18 1010 52 10000 4.02 274 19:21 13.06.2021
2292 Clouds 19 1010 51 10000 5.36 288 18:31 13.06.2021
2293 Clouds 19 1009 50 10000 2.24 319 17:49 13.06.2021
2294 Clouds 20 1008 48 10000 3.13 298 16:47 13.06.2021
2295 Clouds 20 1008 53 10000 4.92 294 15:50 13.06.2021
2296 Clouds 19 1007 55 10000 4.02 301 14:58 13.06.2021
2297 Clouds 19 1007 59 10000 5.36 305 14:27 13.06.2021
2298 Clouds 18 1006 67 10000 4.02 338 13:41 13.06.2021
2299 Clouds 17 1006 71 10000 5.36 303 13:21 13.06.2021
2300 Clouds 16 1006 76 10000 4.92 305 12:45 13.06.2021
2301 Clouds 15 1005 77 10000 4.92 324 11:53 13.06.2021
2302 Rain 15 1005 77 10000 4.47 311 11:27 13.06.2021
2303 Rain 15 1004 79 10000 4.47 299 10:46 13.06.2021
2304 Clouds 14 1004 75 10000 4.02 298 10:18 13.06.2021
2305 Rain 14 1004 79 10000 4.02 301 09:43 13.06.2021
2306 Rain 14 1003 78 10000 4.02 291 09:22 13.06.2021
2307 Rain 15 1002 100 10000 4.12 300 08:43 13.06.2021
2308 Rain 14 1002 78 10000 3.58 310 08:24 13.06.2021
2309 Rain 14 1001 64 10000 1.79 285 06:49 13.06.2021
2310 Rain 15 1000 79 10000 1.34 121 00:52 13.06.2021
2311 Rain 15 1000 78 10000 3.09 210 23:21 12.06.2021
2312 Rain 15 1000 78 10000 3.09 210 23:21 12.06.2021
2313 Clouds 15 1000 80 10000 2.57 210 22:34 12.06.2021
2314 Rain 15 1000 80 10000 0.45 242 21:52 12.06.2021
2315 Rain 15 1000 80 10000 1.34 223 21:33 12.06.2021
2316 Rain 16 1000 81 10000 1.34 235 20:25 12.06.2021
2317 Rain 16 1000 81 10000 1.34 235 20:25 12.06.2021
2318 Rain 16 1000 82 10000 3.09 210 19:58 12.06.2021
2319 Rain 16 1000 88 10000 3.09 210 19:23 12.06.2021
2320 Rain 17 1000 85 10000 5.14 190 18:36 12.06.2021
2321 Rain 17 1000 72 10000 5.14 190 17:50 12.06.2021
2322 Rain 17 1000 72 10000 6.69 190 17:19 12.06.2021
2323 Clouds 18 1000 59 10000 8.23 200 16:31 12.06.2021
2324 Rain 19 1000 53 10000 4.47 217 15:33 12.06.2021
2325 Clouds 20 1001 54 10000 1.79 250 14:38 12.06.2021
2326 Clouds 21 1001 56 10000 6.69 180 14:19 12.06.2021
2327 Clouds 21 1002 59 10000 2.24 131 12:57 12.06.2021
2328 Clouds 22 1002 56 10000 6.17 160 12:37 12.06.2021
2329 Clouds 22 1002 60 10000 7.2 160 12:19 12.06.2021
2330 Clouds 21 1003 56 10000 6.17 180 11:19 12.06.2021
2331 Clouds 20 1003 60 10000 7.2 190 10:29 12.06.2021
2332 Clouds 20 1003 60 10000 7.2 190 10:29 12.06.2021
2333 Clouds 21 1004 61 10000 6.17 170 09:49 12.06.2021
2334 Clouds 20 1004 63 10000 5.14 170 09:23 12.06.2021
2335 Clear 19 1005 78 10000 5.66 190 07:42 12.06.2021
2336 Clear 16 1006 84 10000 3.09 150 06:20 12.06.2021
2337 Clear 13 1010 90 10000 2.06 90 00:54 12.06.2021
2338 Clear 15 1011 82 10000 1.54 90 22:53 11.06.2021
2339 Clear 15 1012 72 10000 1.54 100 22:19 11.06.2021
2340 Clear 17 1012 59 10000 2.57 110 21:46 11.06.2021
2341 Clear 18 1012 59 10000 2.57 110 21:26 11.06.2021
2342 Clear 20 1012 43 10000 4.12 120 20:22 11.06.2021
2343 Clear 22 1013 37 10000 3.6 120 19:29 11.06.2021
2344 Clear 22 1013 33 10000 4.63 110 18:39 11.06.2021
2345 Clear 23 1014 31 10000 4.63 100 17:50 11.06.2021
2346 Clear 24 1014 31 10000 5.14 140 16:37 11.06.2021
2347 Clear 24 1014 31 10000 5.66 140 15:27 11.06.2021
2348 Clear 24 1014 33 10000 5.66 140 14:44 11.06.2021
2349 Clear 24 1014 39 10000 2.68 116 13:45 11.06.2021
2350 Clear 25 1015 42 10000 4.63 160 12:29 11.06.2021
2351 Clear 24 1015 43 10000 4.12 150 11:52 11.06.2021
2352 Clear 24 1015 45 10000 3.58 131 11:24 11.06.2021
2353 Clear 23 1015 45 10000 2.68 135 09:37 11.06.2021
2354 Clear 22 1016 51 10000 2.06 120 08:57 11.06.2021
2355 Clear 21 1016 52 10000 1.54 110 07:54 11.06.2021
2356 Clear 16 1016 72 10000 1.54 60 06:26 11.06.2021
2357 Clear 13 1016 77 10000 0.51 0 23:59 10.06.2021
2358 Clear 14 1016 82 10000 0.51 0 22:42 10.06.2021
2359 Clear 14 1016 76 10000 1.03 110 22:23 10.06.2021
2360 Clear 16 1016 63 10000 2.06 200 21:41 10.06.2021
2361 Clear 19 1016 43 10000 3.09 170 20:59 10.06.2021
2362 Clear 22 1015 37 10000 3.6 140 19:56 10.06.2021
2363 Clear 22 1015 40 10000 3.09 130 19:26 10.06.2021
2364 Clear 23 1015 35 10000 3.09 120 18:34 10.06.2021
2365 Clear 24 1015 35 10000 2.57 130 17:58 10.06.2021
2366 Clear 23 1016 38 10000 3.09 150 17:23 10.06.2021
2367 Clear 24 1016 35 10000 2.57 150 16:43 10.06.2021
2368 Clear 24 1016 34 10000 0.89 133 15:42 10.06.2021
2369 Clear 23 1016 33 10000 2.68 121 13:42 10.06.2021
2370 Clear 24 1016 38 10000 2.46 120 12:43 10.06.2021
2371 Clear 23 1016 42 10000 2.2 132 11:29 10.06.2021
2372 Clear 23 1016 40 10000 2.23 128 10:34 10.06.2021
2373 Clear 21 1016 41 10000 1.81 101 08:25 10.06.2021
2374 Clear 12 1016 75 10000 1.79 294 00:58 10.06.2021
2375 Clear 12 1016 75 10000 1.46 44 00:20 10.06.2021
2376 Clear 13 1016 78 10000 1.22 33 22:51 09.06.2021
2377 Clear 14 1016 73 10000 1.13 22 22:18 09.06.2021
2378 Clear 15 1016 61 10000 1.2 75 21:30 09.06.2021
2379 Clear 17 1016 39 10000 1.2 75 20:44 09.06.2021
2380 Clear 19 1016 39 10000 0.94 63 19:55 09.06.2021
2381 Clear 20 1016 39 10000 0.45 225 19:36 09.06.2021
2382 Clouds 21 1016 33 10000 0.89 193 17:45 09.06.2021
2383 Clear 23 1016 31 10000 3.01 109 15:35 09.06.2021
2384 Clear 23 1017 34 10000 3.23 111 14:41 09.06.2021
2385 Clear 22 1017 37 10000 4.92 85 13:34 09.06.2021
2386 Clouds 23 1017 37 10000 3.39 115 12:59 09.06.2021
2387 Clouds 23 1017 43 10000 3.27 117 12:37 09.06.2021
2388 Clouds 22 1017 47 10000 3.13 126 11:20 09.06.2021
2389 Clouds 22 1017 45 10000 2.24 151 09:42 09.06.2021
2390 Clear 20 1017 49 10000 2.88 101 08:45 09.06.2021
2391 Clear 18 1017 77 10000 2.24 75 07:19 09.06.2021
2392 Clear 15 1017 75 10000 0.45 343 05:42 09.06.2021
2393 Clear 14 1017 87 10000 2.69 69 22:57 08.06.2021
2394 Clear 14 1017 87 10000 2.69 69 22:36 08.06.2021
2395 Clear 16 1017 72 10000 1.47 87 21:31 08.06.2021
2396 Clear 19 1017 59 10000 2.14 96 19:46 08.06.2021
2397 Clear 20 1017 49 10000 1.34 86 17:53 08.06.2021
2398 Clear 21 1017 49 10000 1.31 86 17:53 08.06.2021
2399 Clear 21 1017 49 10000 1.31 86 17:53 08.06.2021
2400 Clear 20 1017 51 10000 3.13 133 17:34 08.06.2021
2401 Clear 21 1017 45 10000 3.58 118 15:31 08.06.2021
2402 Clouds 22 1017 54 10000 4.02 122 13:33 08.06.2021
2403 Clouds 21 1018 66 10000 4.02 138 11:55 08.06.2021
2404 Clear 19 1018 79 10000 3.18 95 08:19 08.06.2021
2405 Fog 13 1017 82 10000 0.89 3 04:26 08.06.2021
2406 Fog 15 1018 83 10000 2.96 84 23:53 07.06.2021
2407 Clear 18 1017 88 10000 2.59 24 20:42 07.06.2021
2408 Rain 19 1017 59 10000 2.28 23 18:56 07.06.2021
2409 Rain 21 1017 64 10000 4.47 89 16:25 07.06.2021
2410 Rain 25 1017 48 10000 2.18 230 14:22 07.06.2021
2411 Clear 26 1017 37 10000 1.34 240 11:51 07.06.2021
2412 Clear 25 1017 43 10000 1.79 321 10:27 07.06.2021
2413 Clear 24 1017 53 10000 1.74 18 09:58 07.06.2021
2414 Clear 22 1017 56 10000 2.21 6 09:25 07.06.2021
2415 Clear 20 1017 61 10000 0.89 318 07:41 07.06.2021
2416 Clear 16 1017 79 10000 3.39 331 22:53 06.06.2021
2417 Clear 19 1017 68 10000 2.24 274 20:47 06.06.2021
2418 Clouds 20 1017 66 10000 2.68 256 18:46 06.06.2021
2419 Clouds 20 1018 74 10000 3.22 317 17:29 06.06.2021
2420 Rain 23 1017 49 10000 3.49 248 14:38 06.06.2021
2421 Clear 25 1017 42 10000 1.79 29 12:30 06.06.2021
2422 Clear 25 1018 45 10000 2.14 242 11:50 06.06.2021
2423 Clouds 24 1018 53 10000 1.13 315 10:25 06.06.2021
2424 Clear 24 1018 49 10000 1.13 315 09:31 06.06.2021
2425 Clear 22 1018 56 10000 1.74 331 08:57 06.06.2021
2426 Clear 21 1018 64 10000 2.31 335 08:24 06.06.2021
2427 Clear 14 1018 76 10000 2.24 326 05:23 06.06.2021
2428 Clear 15 1019 75 10000 2.55 332 23:19 05.06.2021
2429 Clear 17 1019 59 10000 2.74 329 22:21 05.06.2021
2430 Clear 21 1018 46 10000 2.83 312 20:42 05.06.2021
2431 Clear 23 1018 40 10000 2.69 292 19:38 05.06.2021
2432 Clear 24 1019 38 10000 3.19 247 17:20 05.06.2021
2433 Clear 23 1019 43 10000 3.44 236 15:57 05.06.2021
2434 Clear 23 1021 45 10000 2.24 163 13:48 05.06.2021
2435 Clear 24 1021 40 10000 1.34 169 11:45 05.06.2021
2436 Clear 24 1021 40 10000 1.34 169 11:45 05.06.2021
2437 Clouds 23 1021 40 10000 1.35 299 10:35 05.06.2021
2438 Clear 22 1022 52 10000 1 304 09:22 05.06.2021
2439 Clear 17 1022 72 10000 1.08 348 07:20 05.06.2021
2440 Clear 13 1024 78 10000 1.38 320 23:30 04.06.2021
2441 Clear 15 1024 68 10000 1.32 291 22:21 04.06.2021
2442 Clear 17 1024 59 10000 1.55 275 21:25 04.06.2021
2443 Clear 21 1024 40 10000 0.89 232 19:47 04.06.2021
2444 Clear 22 1024 37 10000 1.59 155 18:26 04.06.2021
2445 Clear 23 1025 38 10000 1.66 150 16:50 04.06.2021
2446 Clear 23 1026 35 10000 2.48 127 15:35 04.06.2021
2447 Clear 22 1027 43 10000 1.79 128 11:53 04.06.2021
2448 Clear 22 1027 43 10000 2.65 120 10:39 04.06.2021
2449 Clear 18 1027 57 10000 2.88 71 07:28 04.06.2021
2450 Clear 15 1028 67 10000 1.34 354 05:53 04.06.2021
2451 Clear 14 1028 70 10000 2.72 60 05:53 04.06.2021
2452 Clear 12 1029 70 10000 1.92 59 23:36 03.06.2021
2453 Clear 16 1029 55 10000 2.34 86 20:57 03.06.2021
2454 Clear 17 1029 45 10000 2.38 87 20:23 03.06.2021
2455 Clear 20 1030 40 10000 2.38 87 19:48 03.06.2021
2456 Clear 20 1030 36 10000 2.24 105 17:41 03.06.2021
2457 Clear 21 1031 37 10000 4.36 84 15:37 03.06.2021
2458 Clear 21 1032 37 10000 4.45 85 14:43 03.06.2021
2459 Clear 20 1032 35 10000 4.47 111 12:44 03.06.2021
2460 Clear 20 1033 38 10000 6.26 105 09:53 03.06.2021
2461 Clear 19 1032 40 10000 4.92 113 09:21 03.06.2021
2462 Clear 16 1032 63 10000 3.07 97 06:48 03.06.2021
2463 Clear 15 1031 71 10000 0.56 152 23:22 02.06.2021
2464 Clouds 15 1031 65 10000 0.39 220 21:52 02.06.2021
2465 Clear 17 1030 42 10000 0.72 228 21:20 02.06.2021
2466 Clear 18 1030 37 10000 1.03 168 20:27 02.06.2021
2467 Clear 20 1030 32 10000 1.02 167 19:31 02.06.2021
2468 Clear 21 1029 33 10000 0.83 207 16:40 02.06.2021
2469 Clear 21 1030 43 10000 1.59 195 15:19 02.06.2021
2470 Clear 22 1029 46 10000 2.56 182 13:26 02.06.2021
2471 Clear 21 1030 42 10000 2.24 143 11:42 02.06.2021
2472 Clear 21 1030 41 10000 2.24 356 10:41 02.06.2021
2473 Clouds 20 1030 43 10000 2.68 39 09:52 02.06.2021
2474 Clouds 20 1030 45 10000 1.79 344 09:27 02.06.2021
2475 Clear 19 1030 51 10000 1.79 331 08:43 02.06.2021
2476 Clear 15 1030 59 10000 1.79 337 06:56 02.06.2021
2477 Clear 8 1029 80 10000 2.24 314 03:49 02.06.2021
2478 Clear 10 1028 75 10000 1.4 67 23:32 01.06.2021
2479 Clear 12 1028 76 10000 1.45 78 21:38 01.06.2021
2480 Clear 15 1026 46 10000 1.79 122 20:31 01.06.2021
2481 Clear 18 1026 42 10000 3.13 140 17:49 01.06.2021
2482 Clear 18 1025 42 10000 2.68 134 16:55 01.06.2021
2483 Clear 17 1025 42 10000 6.71 108 14:55 01.06.2021
2484 Clear 17 1025 44 10000 6.26 94 13:18 01.06.2021
2485 Clouds 16 1024 47 10000 5.81 117 12:20 01.06.2021
2486 Clouds 16 1024 55 10000 5.81 120 11:22 01.06.2021
2487 Clouds 16 1024 53 10000 4.02 101 10:39 01.06.2021
2488 Clouds 15 1023 65 10000 4.92 109 09:44 01.06.2021
2489 Clouds 13 1023 75 10000 3.58 108 08:37 01.06.2021
2490 Clouds 11 1021 77 10000 1.79 36 06:51 01.06.2021
2491 Rain 11 1018 78 10000 2.68 118 23:46 31.05.2021
2492 Rain 11 1019 77 10000 2.68 97 23:24 31.05.2021
2493 Rain 11 1018 77 10000 3.13 26 22:54 31.05.2021
2494 Clouds 11 1017 84 10000 2.68 116 21:36 31.05.2021
2495 Rain 12 1016 80 10000 1.34 91 20:29 31.05.2021
2496 Rain 12 1017 75 10000 0.55 72 19:41 31.05.2021
2497 Clouds 14 1016 55 10000 0.89 223 18:20 31.05.2021
2498 Clouds 16 1017 48 10000 2.6 246 17:25 31.05.2021
2499 Clouds 17 1017 42 10000 1.34 200 16:25 31.05.2021
2500 Clear 16 1017 44 10000 5.66 220 14:42 31.05.2021
2501 Clouds 14 1019 56 10000 1.79 218 13:24 31.05.2021
2502 Rain 14 1020 54 10000 1.34 204 12:39 31.05.2021
2503 Clouds 14 1020 52 10000 1.34 232 11:49 31.05.2021
2504 Clouds 14 1020 52 10000 1.79 224 10:54 31.05.2021
2505 Clear 14 1021 54 10000 2.24 200 09:53 31.05.2021
2506 Clear 14 1021 54 10000 1.34 227 08:55 31.05.2021
2507 Clear 13 1021 52 10000 1.34 194 08:18 31.05.2021
2508 Clear 12 1022 54 10000 3.85 225 07:37 31.05.2021
2509 Clear 8 1023 73 10000 1.34 237 04:55 31.05.2021
2510 Clear 9 1024 58 10000 2.66 225 23:26 30.05.2021
2511 Clear 8 1025 59 10000 2.66 225 22:49 30.05.2021
2512 Clear 8 1026 53 10000 2.7 226 22:27 30.05.2021
2513 Clear 9 1026 50 10000 2.7 226 21:43 30.05.2021
2514 Clear 11 1026 47 10000 2.49 217 21:20 30.05.2021
2515 Clear 12 1024 47 10000 3.6 190 20:44 30.05.2021
2516 Clear 13 1025 42 10000 1.79 183 19:55 30.05.2021
2517 Clear 13 1025 42 10000 1.79 217 19:31 30.05.2021
2518 Clear 14 1025 41 10000 2.87 200 18:28 30.05.2021
2519 Clear 14 1025 40 10000 3.11 179 17:20 30.05.2021
2520 Clear 14 1026 43 10000 2.24 171 16:40 30.05.2021
2521 Clear 14 1026 44 10000 1.34 289 15:54 30.05.2021
2522 Clear 15 1026 42 10000 2.68 176 15:27 30.05.2021
2523 Clear 15 1027 42 10000 1.79 204 13:42 30.05.2021
2524 Clear 16 1026 40 10000 3.35 121 12:28 30.05.2021
2525 Clear 15 1026 41 10000 2.68 141 11:33 30.05.2021
2526 Clear 14 1026 42 10000 5.36 116 10:51 30.05.2021
2527 Clear 14 1026 40 10000 1.79 160 10:20 30.05.2021
2528 Clear 15 1026 41 10000 1.34 185 09:45 30.05.2021
2529 Clear 14 1026 43 10000 2.68 134 09:25 30.05.2021
2530 Clear 14 1026 43 10000 2.68 134 09:25 30.05.2021
2531 Clear 14 1026 45 10000 3.13 113 08:44 30.05.2021
2532 Clear 10 1026 60 10000 1.34 9 06:27 30.05.2021
2533 Clear 7 1024 69 10000 3.58 339 01:35 30.05.2021
2534 Clear 7 1024 75 10000 2.24 316 23:51 29.05.2021
2535 Clear 9 1023 71 10000 0.89 196 22:27 29.05.2021
2536 Clear 9 1023 73 10000 2.6 332 21:54 29.05.2021
2537 Clear 11 1023 61 10000 0.89 215 21:27 29.05.2021
2538 Clear 12 1023 52 10000 0.45 183 20:52 29.05.2021
2539 Clear 13 1023 51 10000 0.89 290 20:34 29.05.2021
2540 Clear 13 1022 47 10000 0.89 210 19:58 29.05.2021
2541 Clear 15 1022 38 10000 1.34 106 18:41 29.05.2021
2542 Clear 15 1022 33 10000 1.79 300 17:27 29.05.2021
2543 Clear 15 1022 34 10000 2.68 14 16:23 29.05.2021
2544 Clear 15 1022 34 10000 4.92 5 15:25 29.05.2021
2545 Clear 14 1022 37 10000 2.68 13 13:53 29.05.2021
2546 Clear 14 1022 40 10000 3.58 20 13:21 29.05.2021
2547 Clear 14 1022 40 10000 3.58 33 12:43 29.05.2021
2548 Clear 14 1022 43 10000 3.13 46 12:25 29.05.2021
2549 Clear 13 1021 45 10000 4.47 2 11:25 29.05.2021
2550 Clear 13 1021 46 10000 0.89 45 10:51 29.05.2021
2551 Clouds 12 1021 50 10000 4.47 19 10:26 29.05.2021
2552 Clouds 12 1021 49 10000 4.92 22 09:42 29.05.2021
2553 Clouds 11 1020 46 10000 6.69 20 09:18 29.05.2021
2554 Clear 11 1020 52 10000 5.36 21 07:58 29.05.2021
2555 Clear 10 1019 61 10000 3.58 9 06:50 29.05.2021
2556 Clear 7 1016 87 10000 4.48 349 00:54 29.05.2021
2557 Clear 8 1016 87 10000 3.93 327 23:50 28.05.2021
2558 Clear 10 1015 83 10000 3.13 270 22:24 28.05.2021
2559 Clouds 11 1014 75 10000 2.68 266 21:36 28.05.2021
2560 Clouds 12 1013 71 10000 4.12 250 20:47 28.05.2021
2561 Clouds 13 1014 66 10000 3.58 255 19:58 28.05.2021
2562 Clouds 13 1014 65 10000 4.02 274 19:37 28.05.2021
2563 Clouds 14 1014 61 10000 3.13 273 18:49 28.05.2021
2564 Clouds 14 1014 62 10000 3.58 267 18:27 28.05.2021
2565 Clouds 15 1014 59 10000 2.24 284 17:32 28.05.2021
2566 Clouds 15 1014 59 10000 3.13 245 16:42 28.05.2021
2567 Clouds 14 1014 59 10000 2.24 280 15:58 28.05.2021
2568 Clouds 14 1015 62 10000 1.79 227 15:33 28.05.2021
2569 Clouds 14 1015 62 10000 3.13 245 14:37 28.05.2021
2570 Clouds 14 1015 62 10000 2.24 213 13:46 28.05.2021
2571 Clouds 14 1015 62 10000 4.02 211 12:59 28.05.2021
2572 Clouds 14 1015 62 10000 3.13 238 12:37 28.05.2021
2573 Clouds 14 1015 62 10000 2.68 214 11:39 28.05.2021
2574 Clouds 13 1014 65 10000 2.24 206 10:53 28.05.2021
2575 Clouds 13 1014 67 10000 1.79 224 10:24 28.05.2021
2576 Clouds 13 1014 71 10000 2.24 234 09:30 28.05.2021
2577 Clouds 13 1014 74 10000 1.34 230 08:47 28.05.2021
2578 Clouds 12 1014 76 10000 2.24 240 08:28 28.05.2021
2579 Clouds 11 1014 82 10000 3.13 256 07:40 28.05.2021
2580 Clouds 10 1014 90 10000 2.35 256 07:22 28.05.2021
2581 Clouds 10 1014 77 10000 1.34 256 06:36 28.05.2021
2582 Clouds 7 1013 73 200 1.34 266 03:38 28.05.2021
2583 Clouds 8 1013 82 10000 1.33 349 23:43 27.05.2021
2584 Clouds 9 1013 82 10000 0.95 352 23:21 27.05.2021
2585 Clouds 10 1013 80 10000 1.09 34 22:21 27.05.2021
2586 Clouds 10 1012 79 10000 1.09 35 21:48 27.05.2021
2587 Clouds 11 1012 78 10000 0.45 130 21:27 27.05.2021
2588 Clouds 11 1012 75 10000 0.89 135 20:47 27.05.2021
2589 Clouds 11 1012 74 10000 1.34 105 20:24 27.05.2021
2590 Clouds 12 1012 78 10000 1.79 127 19:31 27.05.2021
2591 Clouds 12 1012 77 10000 2.4 91 18:44 27.05.2021
2592 Clouds 13 1012 78 10000 1.79 119 18:25 27.05.2021
2593 Clouds 12 1012 78 10000 1.79 138 17:27 27.05.2021
2594 Clouds 13 1012 78 10000 3.58 128 16:57 27.05.2021
2595 Clouds 12 1012 77 10000 1.79 105 16:31 27.05.2021
2596 Clouds 12 1012 78 10000 3.58 133 15:42 27.05.2021
2597 Clouds 12 1012 77 10000 3.13 105 15:18 27.05.2021
2598 Clouds 12 1011 76 10000 5.14 140 14:32 27.05.2021
2599 Clouds 12 1012 81 10000 2.68 126 13:55 27.05.2021
2600 Clouds 12 1012 82 10000 2.24 123 13:22 27.05.2021
2601 Clouds 12 1012 81 10000 2.68 108 12:59 27.05.2021
2602 Clouds 11 1012 84 10000 2.24 141 12:41 27.05.2021
2603 Clouds 11 1012 85 10000 3.13 134 12:22 27.05.2021
2604 Clouds 11 1012 86 10000 3.58 121 11:46 27.05.2021
2605 Clouds 11 1012 84 10000 4.02 129 10:54 27.05.2021
2606 Clouds 11 1012 83 10000 4.02 122 10:29 27.05.2021
2607 Clouds 11 1012 82 10000 3.58 116 09:54 27.05.2021
2608 Clouds 11 1011 82 10000 1.79 162 08:53 27.05.2021
2609 Clouds 10 1011 81 10000 2.24 125 08:26 27.05.2021
2610 Clouds 9 1011 85 10000 2.68 156 06:44 27.05.2021
2611 Clouds 8 1010 76 10000 2.24 148 01:54 27.05.2021
2612 Clear 9 1010 71 10000 2.24 163 00:35 27.05.2021
2613 Clouds 9 1009 90 10000 7.1 175 23:33 26.05.2021
2614 Clouds 9 1009 92 10000 7.42 172 22:50 26.05.2021
2615 Clouds 9 1009 92 10000 7.42 172 22:32 26.05.2021
2616 Clouds 8 1009 95 10000 7.71 174 21:57 26.05.2021
2617 Clouds 8 1009 95 10000 7.71 174 21:38 26.05.2021
2618 Rain 8 1008 95 10000 8.18 169 21:18 26.05.2021
2619 Rain 8 1009 99 10000 3.13 140 20:42 26.05.2021
2620 Rain 8 1009 97 8000 3.13 140 20:22 26.05.2021
2621 Rain 8 1008 97 10000 1.79 150 19:44 26.05.2021
2622 Rain 8 1008 97 10000 2.24 208 19:20 26.05.2021
2623 Rain 8 1007 96 10000 1.79 218 18:43 26.05.2021
2624 Rain 9 1006 97 6000 2.24 196 17:45 26.05.2021
2625 Rain 8 1006 97 5000 9.39 101 16:56 26.05.2021
2626 Rain 9 1006 96 6000 9.39 101 16:36 26.05.2021
2627 Rain 9 1006 97 6000 12.07 96 16:18 26.05.2021
2628 Rain 9 1006 97 7000 9.83 80 15:41 26.05.2021
2629 Rain 9 1006 94 6000 8.49 80 15:23 26.05.2021
2630 Rain 9 1007 95 6000 11.62 82 14:45 26.05.2021
2631 Rain 9 1008 94 7000 8.94 92 14:19 26.05.2021
2632 Rain 10 1008 93 10000 6.71 81 13:42 26.05.2021
2633 Clouds 10 1009 90 10000 9.39 73 12:51 26.05.2021
2634 Rain 10 1010 93 10000 8.05 68 12:28 26.05.2021
2635 Rain 10 1010 90 10000 8.49 61 11:38 26.05.2021
2636 Rain 10 1011 90 10000 7.15 79 11:19 26.05.2021
2637 Rain 10 1011 90 10000 7.6 85 11:19 26.05.2021
2638 Rain 10 1012 90 10000 8.49 72 10:38 26.05.2021
2639 Rain 10 1013 85 8000 7.6 68 09:58 26.05.2021
2640 Rain 10 1013 83 10000 7.6 91 09:40 26.05.2021
2641 Rain 11 1014 78 10000 8.94 102 08:59 26.05.2021
2642 Rain 11 1013 71 10000 8.23 60 08:27 26.05.2021
2643 Rain 11 1015 78 10000 7.6 98 07:34 26.05.2021
2644 Clouds 11 1016 74 10000 6.26 98 06:24 26.05.2021
2645 Rain 11 1018 74 10000 8.11 79 01:46 26.05.2021
2646 Clear 10 1020 69 10000 3.58 98 23:50 25.05.2021
2647 Clear 11 1020 65 10000 2.68 87 22:55 25.05.2021
2648 Clear 11 1020 62 10000 3.58 91 22:26 25.05.2021
2649 Clear 11 1020 63 10000 3.58 89 21:45 25.05.2021
2650 Clear 12 1020 61 10000 4.02 86 21:25 25.05.2021
2651 Clear 12 1021 59 10000 3.58 116 20:37 25.05.2021
2652 Clouds 12 1020 77 10000 5.39 84 19:54 25.05.2021
2653 Clouds 13 1020 54 10000 5.26 84 19:35 25.05.2021
2654 Clear 13 1020 51 10000 5.26 84 18:59 25.05.2021
2655 Clear 14 1020 50 10000 5.26 84 18:40 25.05.2021
2656 Clear 14 1021 48 10000 4.92 97 18:20 25.05.2021
2657 Clear 14 1021 48 10000 7.15 96 16:55 25.05.2021
2658 Clear 15 1021 46 10000 8.05 108 16:36 25.05.2021
2659 Clear 15 1021 46 10000 4.82 94 15:58 25.05.2021
2660 Clear 15 1021 47 10000 7.15 104 15:30 25.05.2021
2661 Clear 14 1021 48 10000 4.47 92 14:57 25.05.2021
2662 Clear 15 1021 48 10000 5.17 95 14:39 25.05.2021
2663 Clouds 14 1022 51 10000 4.47 103 13:54 25.05.2021
2664 Clouds 14 1022 52 10000 5.81 102 13:35 25.05.2021
2665 Clouds 14 1022 55 10000 4.02 90 12:49 25.05.2021
2666 Clouds 14 1022 56 10000 4.47 133 12:29 25.05.2021
2667 Clouds 14 1022 56 10000 6.26 127 11:44 25.05.2021
2668 Clouds 14 1022 56 10000 4.02 107 11:26 25.05.2021
2669 Clouds 13 1022 62 10000 4.47 131 10:45 25.05.2021
2670 Clouds 13 1022 65 10000 5.36 103 09:55 25.05.2021
2671 Clear 13 1022 66 10000 4.02 120 09:30 25.05.2021
2672 Clear 13 1022 66 10000 4.02 120 09:30 25.05.2021
2673 Clear 12 1022 67 10000 4.92 88 08:20 25.05.2021
2674 Clear 11 1021 65 10000 2.24 112 06:52 25.05.2021
2675 Clear 6 1020 72 10000 2.89 57 03:58 25.05.2021
2676 Clear 7 1021 88 10000 2.27 53 00:51 25.05.2021
2677 Clear 9 1020 88 10000 2.08 26 23:38 24.05.2021
2678 Clear 9 1020 86 10000 1.92 336 23:19 24.05.2021
2679 Clear 10 1020 86 10000 1.92 336 22:40 24.05.2021
2680 Clouds 10 1018 83 10000 2.41 301 22:20 24.05.2021
2681 Clouds 11 1018 79 10000 3.32 267 21:22 24.05.2021
2682 Clear 13 1018 78 10000 3.16 280 20:55 24.05.2021
2683 Clear 12 1018 78 10000 3.17 280 20:55 24.05.2021
2684 Clear 13 1017 64 10000 3.66 263 20:24 24.05.2021
2685 Clear 14 1017 63 10000 0.45 251 19:51 24.05.2021
2686 Clear 14 1017 60 10000 3.66 264 19:31 24.05.2021
2687 Clear 15 1016 53 10000 1.79 236 18:59 24.05.2021
2688 Clear 15 1016 56 10000 1.34 234 18:33 24.05.2021
2689 Clear 16 1016 52 10000 1.34 233 17:56 24.05.2021
2690 Clear 16 1016 54 10000 2.24 228 17:25 24.05.2021
2691 Clear 16 1015 54 10000 2.24 227 16:48 24.05.2021
2692 Clear 16 1015 52 10000 2.24 223 15:55 24.05.2021
2693 Clear 16 1015 52 10000 1.34 204 15:27 24.05.2021
2694 Clear 17 1015 50 10000 2.68 206 14:50 24.05.2021
2695 Clear 17 1014 50 10000 2.24 228 14:19 24.05.2021
2696 Clear 17 1014 49 10000 1.34 145 13:42 24.05.2021
2697 Clear 17 1014 44 10000 0.89 210 13:18 24.05.2021
2698 Clear 16 1013 44 10000 4.63 256 12:29 24.05.2021
2699 Clear 16 1013 44 10000 4.66 255 11:52 24.05.2021
2700 Clear 15 1012 61 10000 4.35 259 11:26 24.05.2021
2701 Clear 14 1012 61 10000 4.35 259 10:53 24.05.2021
2702 Clear 14 1012 64 10000 4.07 269 10:21 24.05.2021
2703 Clear 13 1012 64 10000 4.07 269 09:42 24.05.2021
2704 Clear 12 1012 69 10000 3.88 277 09:18 24.05.2021
2705 Clear 12 1012 69 10000 3.88 277 08:37 24.05.2021
2706 Clear 9 1010 81 10000 3.63 298 06:59 24.05.2021
2707 Clear 6 1008 93 10000 3.25 294 04:27 24.05.2021
2708 Clear 7 1008 83 10000 2.24 268 03:30 24.05.2021
2709 Clear 9 1007 93 10000 3.35 299 00:44 24.05.2021
2710 Clear 9 1006 92 10000 3.49 295 23:50 23.05.2021
2711 Clear 10 1006 92 10000 3.6 292 23:21 23.05.2021
2712 Clouds 11 1006 74 10000 3.13 285 22:35 23.05.2021
2713 Clouds 11 1005 92 10000 3.6 291 21:57 23.05.2021
2714 Clouds 12 1004 62 10000 3.6 300 21:23 23.05.2021
2715 Clouds 12 1005 90 10000 3.63 295 20:57 23.05.2021
2716 Clouds 13 1005 90 10000 3.39 297 20:34 23.05.2021
2717 Clouds 14 1004 86 10000 3.83 312 19:54 23.05.2021
2718 Clouds 14 1004 83 10000 3.97 316 19:36 23.05.2021
2719 Rain 14 1004 71 10000 1.34 258 18:38 23.05.2021
2720 Clouds 15 1004 70 10000 0.89 251 17:52 23.05.2021
2721 Rain 15 1004 70 10000 1.34 249 17:34 23.05.2021
2722 Clouds 15 1004 66 10000 2.24 251 16:54 23.05.2021
2723 Clouds 15 1004 64 10000 1.34 230 16:28 23.05.2021
2724 Clouds 15 1004 63 10000 3.58 206 15:59 23.05.2021
2725 Clouds 15 1004 66 10000 1.79 183 15:41 23.05.2021
2726 Clouds 15 1004 61 10000 2.24 157 15:22 23.05.2021
2727 Clouds 16 1004 76 10000 3.57 233 14:49 23.05.2021
2728 Clouds 16 1005 51 10000 2.24 295 14:24 23.05.2021
2729 Clouds 16 1005 57 10000 2.68 299 13:30 23.05.2021
2730 Clouds 15 1005 59 10000 0.89 48 12:35 23.05.2021
2731 Clouds 15 1005 62 10000 2.24 110 11:59 23.05.2021
2732 Clouds 14 1005 67 10000 2.24 1 11:26 23.05.2021
2733 Clouds 13 1005 72 10000 1.34 11 10:43 23.05.2021
2734 Clouds 12 1005 73 10000 1.79 12 10:24 23.05.2021
2735 Clouds 12 1005 76 10000 0.89 280 09:43 23.05.2021
2736 Clouds 10 1005 80 10000 1.34 325 08:39 23.05.2021
2737 Clouds 9 1005 84 10000 2.24 320 07:47 23.05.2021
2738 Clouds 8 1005 85 10000 1.79 3 07:28 23.05.2021
2739 Clouds 7 1005 96 1100 1.45 28 05:48 23.05.2021
2740 Clouds 8 1005 96 2000 0.89 197 01:39 23.05.2021
2741 Clouds 8 1005 96 2000 0.89 197 01:39 23.05.2021
2742 Clouds 8 1005 96 1500 0.45 184 23:48 22.05.2021
2743 Clouds 8 1005 96 8000 1.34 225 23:23 22.05.2021
2744 Clear 9 1005 96 10000 1.34 205 22:48 22.05.2021
2745 Clear 9 1005 96 10000 1.79 207 22:29 22.05.2021
2746 Clear 9 1005 96 10000 1.79 147 21:48 22.05.2021
2747 Clear 10 1004 95 10000 2.24 139 21:25 22.05.2021
2748 Clear 11 1004 91 10000 0.89 102 20:53 22.05.2021
2749 Clear 12 1004 87 10000 1.34 135 20:23 22.05.2021
2750 Clouds 13 1003 74 10000 1.79 202 19:41 22.05.2021
2751 Clouds 14 1003 66 10000 1.79 131 19:21 22.05.2021
2752 Clouds 14 1003 65 10000 2.68 219 18:40 22.05.2021
2753 Clouds 15 1003 60 10000 3.13 212 17:58 22.05.2021
2754 Clouds 15 1003 60 10000 1.79 228 17:31 22.05.2021
2755 Clouds 15 1003 62 10000 3.58 182 16:52 22.05.2021
2756 Clouds 16 1002 52 10000 4.47 228 15:58 22.05.2021
2757 Clouds 16 1002 52 10000 3.58 211 15:32 22.05.2021
2758 Clouds 16 1002 53 10000 5.36 233 14:38 22.05.2021
2759 Clouds 16 1002 53 10000 2.68 226 14:19 22.05.2021
2760 Clouds 16 1002 54 10000 3.58 218 13:48 22.05.2021
2761 Clouds 15 1002 57 10000 3.58 223 12:53 22.05.2021
2762 Clouds 15 1002 58 10000 2.68 210 12:23 22.05.2021
2763 Clouds 14 1002 61 10000 3.13 219 11:44 22.05.2021
2764 Clouds 14 1001 64 10000 3.58 220 10:52 22.05.2021
2765 Clouds 13 1001 68 10000 2.68 210 10:28 22.05.2021
2766 Clouds 11 1001 81 10000 3.13 226 09:36 22.05.2021
2767 Clouds 10 1001 84 10000 2.24 211 08:34 22.05.2021
2768 Clouds 10 1000 85 10000 1.79 245 07:48 22.05.2021
2769 Clouds 8 1000 91 10000 1.79 214 05:59 22.05.2021
2770 Clouds 7 1000 87 10000 2.68 247 02:57 22.05.2021
2771 Clouds 8 1000 75 10000 3.58 256 23:51 21.05.2021
2772 Clouds 8 1000 76 10000 3.58 266 23:18 21.05.2021
2773 Clouds 8 1000 76 10000 2.24 254 22:29 21.05.2021
2774 Clouds 9 1000 74 10000 3.13 244 21:51 21.05.2021
2775 Clouds 9 999 71 10000 4.02 262 21:27 21.05.2021
2776 Clouds 9 999 84 10000 6.28 262 20:52 21.05.2021
2777 Clouds 9 999 84 10000 6.05 259 20:30 21.05.2021
2778 Clouds 9 998 82 10000 7.2 265 19:58 21.05.2021
2779 Clouds 10 999 70 10000 4.47 246 19:31 21.05.2021
2780 Clouds 11 998 80 10000 7.96 254 18:48 21.05.2021
2781 Clouds 12 998 63 10000 4.47 252 18:28 21.05.2021
2782 Clouds 12 997 79 10000 8.17 249 17:47 21.05.2021
2783 Clouds 12 998 61 10000 4.47 251 17:29 21.05.2021
2784 Clouds 12 997 80 10000 8.85 249 16:41 21.05.2021
2785 Clouds 13 997 82 10000 9 246 16:21 21.05.2021
2786 Rain 12 997 82 10000 9 246 15:44 21.05.2021
2787 Rain 12 997 83 10000 8.93 246 15:26 21.05.2021
2788 Clouds 12 997 86 10000 9.09 246 14:52 21.05.2021
2789 Clouds 12 997 84 10000 8.23 254 14:32 21.05.2021
2790 Clouds 11 997 86 10000 7.06 254 13:29 21.05.2021
2791 Clouds 11 997 87 10000 6.57 259 12:25 21.05.2021
2792 Clouds 11 997 87 10000 6.57 259 11:44 21.05.2021
2793 Rain 11 997 88 10000 6.06 266 11:25 21.05.2021
2794 Clouds 10 997 88 10000 6.05 266 10:51 21.05.2021
2795 Clouds 10 996 81 10000 4.02 264 10:28 21.05.2021
2796 Clouds 10 996 84 10000 5.36 260 09:33 21.05.2021
2797 Clouds 10 996 89 10000 4.47 264 08:47 21.05.2021
2798 Rain 9 996 91 10000 4.92 280 08:21 21.05.2021
2799 Rain 9 996 87 10000 6.76 297 07:27 21.05.2021
2800 Rain 10 997 92 10000 3.58 269 05:53 21.05.2021
2801 Rain 11 1000 91 7000 1.79 277 00:51 21.05.2021
2802 Rain 11 1001 91 7000 2.24 287 00:19 21.05.2021
2803 Rain 11 1001 95 9000 2.24 293 23:28 20.05.2021
2804 Rain 11 1002 95 10000 1.34 303 22:59 20.05.2021
2805 Rain 11 1002 95 10000 2.68 299 22:40 20.05.2021
2806 Rain 11 1002 95 9000 2.68 314 22:18 20.05.2021
2807 Rain 12 1002 94 10000 1.79 301 21:47 20.05.2021
2808 Rain 11 1002 100 10000 2.57 300 21:19 20.05.2021
2809 Rain 12 1003 91 10000 1.34 315 20:36 20.05.2021
2810 Rain 12 1003 90 10000 1.34 304 20:18 20.05.2021
2811 Rain 13 1003 95 10000 3.14 277 19:42 20.05.2021
2812 Rain 13 1004 90 10000 2.41 276 19:21 20.05.2021
2813 Rain 13 1003 86 10000 2.25 286 18:37 20.05.2021
2814 Rain 14 1003 86 10000 2.25 286 17:49 20.05.2021
2815 Rain 14 1004 84 10000 1.04 308 17:31 20.05.2021
2816 Rain 14 1004 84 10000 1.06 308 16:53 20.05.2021
2817 Rain 15 1005 84 10000 0.79 20 16:29 20.05.2021
2818 Clouds 15 1005 84 10000 0.79 20 15:43 20.05.2021
2819 Clouds 15 1005 82 10000 1.14 9 15:25 20.05.2021
2820 Clouds 16 1006 73 10000 1.83 25 14:41 20.05.2021
2821 Clouds 15 1006 73 10000 1.82 25 14:21 20.05.2021
2822 Clouds 16 1005 60 10000 3.58 313 13:38 20.05.2021
2823 Clouds 15 1005 63 10000 2.68 324 12:51 20.05.2021
2824 Clouds 15 1005 75 10000 4.04 338 12:23 20.05.2021
2825 Clouds 15 1005 66 10000 4.03 339 11:59 20.05.2021
2826 Clouds 15 1006 82 10000 3.67 325 11:21 20.05.2021
2827 Clouds 14 1006 81 10000 3.67 325 10:53 20.05.2021
2828 Clouds 14 1006 81 10000 3.67 325 10:34 20.05.2021
2829 Clouds 13 1005 80 10000 4.47 306 09:58 20.05.2021
2830 Clouds 12 1005 83 10000 3.13 294 09:39 20.05.2021
2831 Clouds 11 1006 88 10000 2.68 293 09:18 20.05.2021
2832 Clouds 11 1005 89 10000 3.58 266 08:51 20.05.2021
2833 Clouds 11 1005 89 10000 4.02 285 08:22 20.05.2021
2834 Clouds 10 1005 91 10000 3.58 290 07:50 20.05.2021
2835 Clouds 10 1005 95 10000 3.13 285 07:19 20.05.2021
2836 Clouds 10 1004 91 10000 3.13 287 06:45 20.05.2021
2837 Clouds 10 1003 92 10000 3.13 292 05:27 20.05.2021
2838 Clouds 10 1002 96 10000 2.68 266 03:24 20.05.2021
2839 Clouds 10 1001 95 10000 1.79 266 00:53 20.05.2021
2840 Clouds 11 1001 88 10000 3.58 269 23:56 19.05.2021
2841 Clouds 11 1000 88 10000 3.13 273 23:26 19.05.2021
2842 Clouds 11 1000 92 10000 3.13 290 22:57 19.05.2021
2843 Clouds 11 1000 92 10000 2.68 281 22:38 19.05.2021
2844 Clouds 11 1000 88 10000 4.92 284 22:18 19.05.2021
2845 Clouds 11 999 88 10000 4.02 295 21:41 19.05.2021
2846 Clouds 12 999 88 10000 3.13 290 21:21 19.05.2021
2847 Clouds 12 999 88 10000 3.58 316 20:57 19.05.2021
2848 Clouds 12 999 88 10000 3.58 316 20:57 19.05.2021
2849 Clouds 12 999 88 10000 2.68 274 20:24 19.05.2021
2850 Clouds 12 999 90 10000 3.13 279 19:49 19.05.2021
2851 Clouds 12 999 90 10000 3.58 298 19:25 19.05.2021
2852 Clouds 12 999 95 10000 2.68 281 18:49 19.05.2021
2853 Clouds 12 999 95 10000 2.68 272 18:28 19.05.2021
2854 Clouds 13 999 95 10000 2.68 264 17:48 19.05.2021
2855 Clouds 13 1000 94 10000 2.68 278 17:20 19.05.2021
2856 Clouds 14 999 92 10000 0.89 278 16:41 19.05.2021
2857 Clouds 14 999 92 10000 3.13 267 16:21 19.05.2021
2858 Clouds 14 999 92 10000 0.45 130 15:45 19.05.2021
2859 Clouds 14 999 87 10000 0.89 154 14:58 19.05.2021
2860 Clouds 14 1000 86 10000 0.45 143 14:38 19.05.2021
2861 Clouds 14 1000 90 10000 2.24 132 13:54 19.05.2021
2862 Clouds 14 1000 90 10000 1.34 127 13:36 19.05.2021
2863 Clouds 14 999 90 10000 0.89 148 12:46 19.05.2021
2864 Clouds 14 999 89 10000 0.89 129 12:23 19.05.2021
2865 Clouds 14 999 93 10000 1.79 111 11:59 19.05.2021
2866 Clouds 14 999 94 10000 0.89 133 11:41 19.05.2021
2867 Clouds 13 1000 95 10000 0.89 196 11:21 19.05.2021
2868 Clouds 14 999 90 7000 2.24 133 10:52 19.05.2021
2869 Clouds 13 999 91 7000 0.89 110 10:30 19.05.2021
2870 Clouds 13 1000 90 8000 1.79 126 09:50 19.05.2021
2871 Clouds 13 1000 90 7000 1.86 347 09:20 19.05.2021
2872 Clouds 13 1000 90 6000 1.92 5 08:48 19.05.2021
2873 Rain 13 1000 91 6000 1.93 4 08:30 19.05.2021
2874 Rain 13 1000 90 4000 0.45 148 07:46 19.05.2021
2875 Rain 13 1000 89 2500 1.48 26 06:45 19.05.2021
2876 Clouds 12 1000 89 1400 0.45 28 05:41 19.05.2021
2877 Clouds 13 1001 91 10000 2.24 328 03:18 19.05.2021
2878 Rain 13 1002 91 10000 1.79 325 00:35 19.05.2021
2879 Rain 13 1002 89 10000 4.47 332 23:52 18.05.2021
2880 Rain 13 1003 88 10000 3.58 349 23:28 18.05.2021
2881 Rain 13 1003 87 10000 2.68 331 22:46 18.05.2021
2882 Clouds 13 1003 86 10000 2.24 317 22:25 18.05.2021
2883 Clouds 12 1003 83 10000 2.68 346 21:46 18.05.2021
2884 Clouds 13 1003 82 10000 3.58 356 21:28 18.05.2021
2885 Clouds 13 1003 81 10000 4.02 332 20:48 18.05.2021
2886 Rain 13 1004 79 10000 3.58 359 20:19 18.05.2021
2887 Clouds 13 1006 79 10000 3.58 322 19:50 18.05.2021
2888 Clouds 13 1006 78 10000 4.02 338 19:30 18.05.2021
2889 Clouds 13 1006 78 10000 3.58 310 18:55 18.05.2021
2890 Clouds 14 1006 78 10000 4.47 310 18:36 18.05.2021
2891 Clouds 14 1006 78 10000 1.79 314 18:18 18.05.2021
2892 Clouds 14 1007 78 10000 2.24 346 17:35 18.05.2021
2893 Clouds 15 1006 79 10000 2.68 15 16:44 18.05.2021
2894 Clouds 15 1006 81 10000 2.24 2 16:26 18.05.2021
2895 Clouds 15 1007 79 10000 2.68 345 15:43 18.05.2021
2896 Rain 15 1007 76 10000 3.13 0 15:22 18.05.2021
2897 Rain 16 1006 65 10000 2.24 33 14:39 18.05.2021
2898 Clouds 16 1007 66 10000 1.79 7 13:55 18.05.2021
2899 Clouds 16 1006 66 10000 2.68 358 12:53 18.05.2021
2900 Clear 15 1008 71 10000 3.13 343 12:23 18.05.2021
2901 Clear 15 1008 75 10000 2.24 20 11:42 18.05.2021
2902 Clouds 14 1008 78 10000 2.24 14 11:23 18.05.2021
2903 Clouds 14 1008 78 10000 1.34 352 10:45 18.05.2021
2904 Clear 14 1008 77 10000 3.13 331 10:26 18.05.2021
2905 Clouds 13 1008 80 10000 2.24 315 09:36 18.05.2021
2906 Clouds 12 1006 93 10000 3.09 330 08:53 18.05.2021
2907 Clouds 11 1007 93 10000 2.06 10 08:20 18.05.2021
2908 Clouds 11 1007 93 10000 2.06 360 07:42 18.05.2021
2909 Clouds 10 1006 93 10000 2.57 340 06:51 18.05.2021
2910 Clouds 10 1006 93 10000 3.09 280 02:44 18.05.2021
2911 Mist 10 1006 100 4000 3.6 260 02:25 18.05.2021
2912 Fog 11 1006 100 10000 0.51 0 00:49 18.05.2021
2913 Fog 11 1006 100 10000 0.51 0 00:27 18.05.2021
2914 Fog 11 1006 100 10000 2.06 240 23:43 17.05.2021
2915 Fog 11 1006 100 10000 0.51 0 23:21 17.05.2021
2916 Clouds 11 1006 100 10000 1.03 310 22:46 17.05.2021
2917 Clouds 12 1006 94 10000 2.57 260 22:25 17.05.2021
2918 Clouds 12 1006 94 10000 2.57 260 22:25 17.05.2021
2919 Clouds 12 1006 94 10000 2.57 260 21:59 17.05.2021
2920 Clouds 13 1005 100 10000 2.06 210 21:22 17.05.2021
2921 Clouds 13 1005 94 10000 3.09 180 20:48 17.05.2021
2922 Clouds 13 1005 94 10000 5.14 140 20:22 17.05.2021
2923 Clouds 13 1005 94 10000 5.14 130 19:48 17.05.2021
2924 Clouds 14 1005 94 10000 4.63 90 19:27 17.05.2021
2925 Rain 14 1005 94 10000 5.14 80 18:52 17.05.2021
2926 Rain 14 1005 94 10000 5.14 80 18:32 17.05.2021
2927 Rain 14 1005 94 10000 3.09 80 17:59 17.05.2021
2928 Rain 14 1005 94 10000 4.12 110 17:41 17.05.2021
2929 Rain 14 1006 100 7000 4.12 90 16:58 17.05.2021
2930 Rain 14 1006 94 5000 4.63 100 16:25 17.05.2021
2931 Clouds 15 1006 94 6000 3.6 80 15:54 17.05.2021
2932 Rain 15 1006 94 4500 4.63 120 15:24 17.05.2021
2933 Clouds 15 1005 88 10000 3.09 50 14:47 17.05.2021
2934 Clouds 14 1006 100 10000 3.6 60 14:29 17.05.2021
2935 Clouds 14 1007 94 5000 3.6 90 13:56 17.05.2021
2936 Rain 14 1006 59 10000 7.2 110 12:47 17.05.2021
2937 Rain 15 1006 56 10000 7.2 110 12:27 17.05.2021
2938 Clear 16 1006 59 10000 6.17 100 11:50 17.05.2021
2939 Clear 17 1006 59 10000 6.17 100 11:27 17.05.2021
2940 Clear 16 1006 63 10000 6.17 110 10:57 17.05.2021
2941 Clear 17 1006 63 10000 6.69 100 10:32 17.05.2021
2942 Clear 16 1007 67 10000 5.14 120 09:59 17.05.2021
2943 Clouds 15 1007 67 10000 6.69 110 08:50 17.05.2021
2944 Clouds 14 1007 67 10000 5.66 100 08:23 17.05.2021
2945 Clouds 13 1007 72 10000 5.66 90 07:33 17.05.2021
2946 Clear 12 1007 71 10000 5.66 80 06:44 17.05.2021
2947 Clear 11 1007 76 10000 4.63 80 06:19 17.05.2021
2948 Clear 8 1008 87 10000 2.57 50 03:33 17.05.2021
2949 Clear 8 1009 93 10000 1.54 30 01:30 17.05.2021
2950 Clear 9 1009 87 10000 1.54 100 00:37 17.05.2021
2951 Clear 10 1009 76 10000 2.06 120 23:32 16.05.2021
2952 Clear 10 1009 81 10000 2.06 120 22:58 16.05.2021
2953 Clear 10 1009 81 10000 2.06 120 22:30 16.05.2021
2954 Clear 11 1009 62 10000 2.06 170 21:58 16.05.2021
2955 Clear 12 1009 62 10000 2.06 170 21:39 16.05.2021
2956 Clear 13 1009 54 10000 2.06 180 21:20 16.05.2021
2957 Clear 14 1008 47 10000 2.57 220 20:39 16.05.2021
2958 Clear 14 1008 41 10000 3.09 230 20:19 16.05.2021
2959 Clear 15 1008 36 10000 3.6 210 19:41 16.05.2021
2960 Clear 16 1008 41 10000 4.63 200 19:20 16.05.2021
2961 Clear 16 1008 39 10000 4.63 200 18:43 16.05.2021
2962 Clear 16 1008 44 10000 3.6 210 18:23 16.05.2021
2963 Clear 17 1008 45 10000 4.63 200 17:52 16.05.2021
2964 Clear 16 1008 45 10000 4.63 200 17:29 16.05.2021
2965 Clear 16 1008 45 10000 6.17 210 16:59 16.05.2021
2966 Clear 16 1008 45 10000 6.17 210 16:41 16.05.2021
2967 Clear 16 1008 45 10000 5.66 190 16:20 16.05.2021
2968 Clear 17 1008 51 10000 5.14 210 15:46 16.05.2021
2969 Clear 16 1008 55 10000 5.66 200 15:22 16.05.2021
2970 Clear 16 1008 52 10000 5.66 190 14:47 16.05.2021
2971 Clear 17 1008 52 10000 6.17 190 14:19 16.05.2021
2972 Clear 17 1008 48 10000 5.66 190 13:55 16.05.2021
2973 Clear 17 1008 52 10000 5.66 180 13:21 16.05.2021
2974 Clear 18 1008 45 10000 5.66 200 12:53 16.05.2021
2975 Clear 18 1008 45 10000 5.66 200 12:33 16.05.2021
2976 Clear 18 1008 42 10000 4.12 230 11:59 16.05.2021
2977 Clear 18 1007 39 10000 4.63 200 11:36 16.05.2021
2978 Clouds 17 1007 45 10000 4.63 200 10:54 16.05.2021
2979 Clouds 17 1007 45 10000 4.63 200 10:33 16.05.2021
2980 Clouds 17 1008 45 10000 4.63 200 10:33 16.05.2021
2981 Clouds 16 1007 51 10000 3.09 250 09:54 16.05.2021
2982 Clear 15 1007 55 10000 3.09 260 09:28 16.05.2021
2983 Clear 14 1006 58 10000 3.09 290 08:54 16.05.2021
2984 Clear 14 1006 58 10000 3.09 290 08:27 16.05.2021
2985 Clouds 12 1006 71 10000 3.09 260 07:33 16.05.2021
2986 Clouds 12 1006 71 10000 3.09 260 07:33 16.05.2021
2987 Clouds 12 1006 71 10000 3.09 260 07:33 16.05.2021
2988 Clear 11 1006 76 10000 2.57 270 06:59 16.05.2021
2989 Clear 10 1005 81 10000 2.06 270 04:43 16.05.2021
2990 Clear 11 1005 76 10000 3.6 300 00:47 16.05.2021
2991 Clear 12 1005 82 10000 3.09 270 23:56 15.05.2021
2992 Clear 12 1005 82 10000 1.54 240 23:21 15.05.2021
2993 Clear 12 1005 82 10000 2.57 240 22:49 15.05.2021
2994 Clear 12 1005 82 10000 1.54 240 22:23 15.05.2021
2995 Clear 14 1005 77 10000 2.06 220 21:41 15.05.2021
2996 Clear 14 1005 72 10000 3.6 210 21:21 15.05.2021
2997 Clear 16 1005 72 10000 2.57 210 20:38 15.05.2021
2998 Clear 17 1005 63 10000 3.09 200 20:19 15.05.2021
2999 Clear 17 1005 63 10000 3.6 180 19:35 15.05.2021
3000 Clear 18 1004 59 10000 1.03 0 18:43 15.05.2021
3001 Clear 17 1005 63 10000 3.09 190 18:20 15.05.2021
3002 Clear 17 1005 59 10000 3.09 190 17:25 15.05.2021
3003 Clouds 18 1005 59 10000 2.57 170 16:47 15.05.2021
3004 Clouds 18 1005 59 10000 3.09 160 16:25 15.05.2021
3005 Clouds 18 1005 59 10000 3.09 160 15:57 15.05.2021
3006 Clouds 18 1005 55 10000 4.63 160 14:59 15.05.2021
3007 Clouds 19 1005 55 10000 4.12 130 14:30 15.05.2021
3008 Clouds 18 1005 59 10000 4.63 120 13:54 15.05.2021
3009 Clouds 19 1005 59 10000 4.63 120 13:29 15.05.2021
3010 Clouds 17 1006 67 10000 5.66 110 12:29 15.05.2021
3011 Clouds 16 1006 72 10000 4.63 110 11:49 15.05.2021
3012 Clouds 15 1006 72 10000 5.14 150 10:55 15.05.2021
3013 Clouds 15 1006 77 10000 3.6 110 10:00 15.05.2021
3014 Clouds 15 1006 77 10000 3.6 90 09:25 15.05.2021
3015 Rain 14 1006 77 10000 4.12 120 08:32 15.05.2021
3016 Clouds 13 1006 82 10000 3.09 110 07:36 15.05.2021
3017 Clouds 13 1005 82 10000 3.09 80 07:18 15.05.2021
3018 Clouds 13 1006 82 10000 1.54 80 06:41 15.05.2021
3019 Clouds 12 1006 82 10000 2.57 80 04:22 15.05.2021
3020 Clouds 13 1006 76 10000 2.06 110 01:30 15.05.2021
3021 Clouds 14 1007 67 10000 2.06 90 23:49 14.05.2021
3022 Clear 13 1007 67 10000 2.57 80 23:19 14.05.2021
3023 Clouds 13 1007 72 10000 2.57 80 22:25 14.05.2021
3024 Clouds 14 1007 72 10000 1.54 130 21:44 14.05.2021
3025 Clouds 13 1007 72 10000 2.06 50 21:18 14.05.2021
3026 Clouds 14 1007 67 10000 2.57 80 20:35 14.05.2021
3027 Clouds 14 1007 58 10000 3.09 90 19:54 14.05.2021
3028 Clouds 14 1007 58 10000 4.63 110 19:31 14.05.2021
3029 Clouds 14 1007 58 10000 4.63 110 18:58 14.05.2021
3030 Clear 15 1007 51 10000 5.14 100 18:35 14.05.2021
3031 Clear 16 1007 48 10000 5.66 90 17:49 14.05.2021
3032 Clear 16 1007 48 10000 5.66 90 17:25 14.05.2021
3033 Clear 17 1008 45 10000 6.17 100 16:59 14.05.2021
3034 Clear 17 1007 45 10000 6.17 110 16:41 14.05.2021
3035 Clear 17 1007 45 10000 6.17 120 16:22 14.05.2021
3036 Clouds 16 1007 48 10000 5.14 110 15:20 14.05.2021
3037 Clouds 16 1008 51 10000 6.17 110 14:40 14.05.2021
3038 Clouds 16 1008 48 10000 7.2 130 13:46 14.05.2021
3039 Clouds 17 1008 42 10000 6.69 120 13:27 14.05.2021
3040 Clouds 16 1008 48 10000 5.66 100 12:37 14.05.2021
3041 Clouds 17 1008 48 10000 5.14 120 12:18 14.05.2021
3042 Clear 16 1008 55 10000 4.63 120 11:26 14.05.2021
3043 Clear 16 1008 55 10000 5.66 120 10:43 14.05.2021
3044 Clear 15 1008 55 10000 3.6 90 10:24 14.05.2021
3045 Clear 15 1008 63 10000 2.06 110 09:44 14.05.2021
3046 Clear 15 1008 63 10000 3.6 140 09:25 14.05.2021
3047 Clear 14 1008 63 10000 1.54 150 08:34 14.05.2021
3048 Clear 13 1008 67 10000 3.6 140 07:35 14.05.2021
3049 Clear 12 1008 71 10000 2.57 130 06:43 14.05.2021
3050 Clear 9 1008 93 10000 1.54 40 02:46 14.05.2021
3051 Clear 10 1008 87 10000 2.06 40 00:59 14.05.2021
3052 Clear 12 1009 81 10000 1.54 80 23:54 13.05.2021
3053 Clear 11 1009 81 10000 1.54 80 23:32 13.05.2021
3054 Clear 12 1009 58 10000 2.57 130 22:59 13.05.2021
3055 Clear 12 1009 58 10000 2.57 130 22:39 13.05.2021
3056 Clear 13 1009 58 10000 3.09 120 22:21 13.05.2021
3057 Clear 15 1009 71 10000 2.72 138 21:41 13.05.2021
3058 Clear 14 1009 55 10000 3.09 130 21:22 13.05.2021
3059 Clear 19 1010 77 10000 2.75 101 20:46 13.05.2021
3060 Clear 21 1010 76 10000 2.98 105 19:56 13.05.2021
3061 Clear 21 1010 76 10000 2.98 105 19:37 13.05.2021
3062 Clear 21 1010 73 10000 3.98 105 19:19 13.05.2021
3063 Clear 22 1010 73 10000 3.98 105 18:45 13.05.2021
3064 Clear 22 1010 71 10000 4.7 98 18:22 13.05.2021
3065 Clear 23 1010 71 10000 4.7 98 17:41 13.05.2021
3066 Clear 23 1011 73 10000 4.88 93 17:22 13.05.2021
3067 Clear 23 1011 73 10000 4.88 93 16:48 13.05.2021
3068 Clear 24 1011 74 10000 5.32 95 16:19 13.05.2021
3069 Clear 25 1011 74 10000 5.32 95 15:56 13.05.2021
3070 Clear 25 1011 72 10000 5.81 99 15:25 13.05.2021
3071 Clear 25 1011 72 10000 6.08 97 14:57 13.05.2021
3072 Clear 25 1011 72 10000 6.08 97 14:38 13.05.2021
3073 Clear 25 1011 70 10000 6.1 93 14:20 13.05.2021
3074 Clear 25 1011 70 10000 6.11 93 13:43 13.05.2021
3075 Clear 26 1012 69 10000 5.56 88 13:24 13.05.2021
3076 Clear 25 1012 69 10000 5.56 88 12:41 13.05.2021
3077 Clear 25 1012 70 10000 4.94 93 12:18 13.05.2021
3078 Clear 22 1011 43 10000 7.15 104 11:39 13.05.2021
3079 Clear 22 1012 70 10000 5.08 92 10:56 13.05.2021
3080 Clear 22 1012 70 10000 5.08 92 10:36 13.05.2021
3081 Clear 21 1012 70 10000 5.05 85 09:51 13.05.2021
3082 Clear 23 1013 70 10000 5.05 88 09:29 13.05.2021
3083 Clear 21 1013 70 10000 5.16 81 08:38 13.05.2021
3084 Clear 19 1013 71 10000 4.05 77 08:19 13.05.2021
3085 Clear 16 1014 75 10000 3.54 73 07:20 13.05.2021
3086 Clear 12 1014 62 10000 1.34 82 05:51 13.05.2021
3087 Clear 12 1014 57 10000 2.12 152 02:39 13.05.2021
3088 Clear 12 1016 86 10000 3.46 140 00:51 13.05.2021
3089 Clear 13 1016 84 10000 3.8 142 23:42 12.05.2021
3090 Clear 15 1015 41 10000 4.61 146 22:56 12.05.2021
3091 Clear 15 1015 41 10000 4.61 146 22:56 12.05.2021
3092 Clear 16 1015 42 10000 3.13 105 22:21 12.05.2021
3093 Clear 16 1015 45 10000 4.47 108 21:52 12.05.2021
3094 Clear 16 1016 75 10000 4.83 139 21:18 12.05.2021
3095 Clear 17 1015 39 10000 3.6 100 20:48 12.05.2021
3096 Clear 20 1016 74 10000 3.58 126 19:52 12.05.2021
3097 Clear 23 1016 69 10000 3.59 120 18:52 12.05.2021
3098 Clear 20 1016 39 10000 4.02 116 18:27 12.05.2021
3099 Clear 23 1017 65 10000 3.74 108 17:55 12.05.2021
3100 Clear 22 1016 36 10000 1.79 66 17:34 12.05.2021
3101 Clear 25 1017 62 10000 3.96 98 16:50 12.05.2021
3102 Clear 25 1018 60 10000 4.02 96 16:25 12.05.2021
3103 Clear 24 1017 25 10000 6.17 110 15:42 12.05.2021
3104 Clear 22 1017 25 10000 6.69 110 14:58 12.05.2021
3105 Clear 23 1017 25 10000 5.66 120 14:35 12.05.2021
3106 Clear 23 1018 25 10000 5.66 130 13:49 12.05.2021
3107 Clear 23 1018 27 10000 6.17 120 13:30 12.05.2021
3108 Clear 21 1018 26 10000 5.66 140 12:37 12.05.2021
3109 Clear 19 1018 26 10000 6.69 150 11:49 12.05.2021
3110 Clear 18 1018 26 10000 6.69 150 11:31 12.05.2021
3111 Clear 17 1018 34 10000 4.63 130 10:58 12.05.2021
3112 Clear 17 1018 34 10000 4.63 130 10:58 12.05.2021
3113 Clear 17 1018 34 10000 4.63 130 10:29 12.05.2021
3114 Clear 16 1018 37 10000 5.66 140 09:45 12.05.2021
3115 Clear 16 1018 37 10000 5.66 140 09:26 12.05.2021
3116 Clear 15 1018 39 10000 4.12 150 08:48 12.05.2021
3117 Clear 14 1018 39 10000 4.12 150 08:28 12.05.2021
3118 Clear 15 1018 41 10000 4.63 130 07:29 12.05.2021
3119 Clear 11 1018 62 10000 1.54 70 05:43 12.05.2021
3120 Clear 12 1018 62 10000 2.57 120 00:46 12.05.2021
3121 Clear 13 1018 58 10000 2.57 120 00:28 12.05.2021
3122 Clear 13 1018 58 10000 3.6 120 23:46 11.05.2021
3123 Clear 14 1018 58 10000 2.57 110 23:28 11.05.2021
3124 Clear 14 1018 51 10000 3.6 130 22:47 11.05.2021
3125 Clear 14 1017 55 10000 2.57 100 22:20 11.05.2021
3126 Clear 14 1017 51 10000 2.57 110 21:52 11.05.2021
3127 Clear 14 1017 51 10000 2.57 110 21:33 11.05.2021
3128 Clear 14 1017 51 10000 2.57 110 21:33 11.05.2021
3129 Clear 16 1017 48 10000 2.06 110 20:55 11.05.2021
3130 Clear 18 1017 42 10000 3.09 120 20:37 11.05.2021
3131 Clear 18 1017 40 10000 2.57 120 20:19 11.05.2021
3132 Clear 21 1017 37 10000 3.09 120 19:38 11.05.2021
3133 Clear 23 1017 33 10000 3.09 130 19:20 11.05.2021
3134 Clear 23 1017 33 10000 4.12 130 18:43 11.05.2021
3135 Clear 23 1017 35 10000 4.12 150 18:24 11.05.2021
3136 Clear 19 1017 31 10000 4.63 160 17:38 11.05.2021
3137 Clear 19 1017 31 10000 4.63 160 17:38 11.05.2021
3138 Clear 19 1017 31 10000 4.63 160 17:19 11.05.2021
3139 Clear 20 1017 31 10000 6.17 160 16:39 11.05.2021
3140 Clear 20 1017 29 10000 5.14 180 16:20 11.05.2021
3141 Clear 20 1017 33 10000 4.63 160 15:42 11.05.2021
3142 Clear 20 1017 33 10000 5.14 160 15:18 11.05.2021
3143 Clear 20 1018 33 10000 5.66 170 14:43 11.05.2021
3144 Clear 20 1018 35 10000 5.66 170 14:22 11.05.2021
3145 Clear 20 1018 35 10000 6.17 150 13:42 11.05.2021
3146 Clear 19 1018 40 10000 6.17 170 13:21 11.05.2021
3147 Clear 20 1018 40 10000 6.17 170 12:51 11.05.2021
3148 Clear 19 1018 40 10000 6.17 170 12:27 11.05.2021
3149 Clear 20 1018 42 10000 6.17 170 11:47 11.05.2021
3150 Clear 19 1018 42 10000 6.17 190 11:26 11.05.2021
3151 Clear 19 1018 45 10000 6.69 180 10:53 11.05.2021
3152 Clear 17 1018 45 10000 6.69 180 10:27 11.05.2021
3153 Clear 16 1017 48 10000 5.14 190 09:58 11.05.2021
3154 Clear 16 1017 48 10000 5.14 190 09:37 11.05.2021
3155 Clear 16 1017 48 10000 7.2 180 09:19 11.05.2021
3156 Clear 15 1017 51 10000 6.69 190 08:46 11.05.2021
3157 Clear 14 1017 55 10000 4.63 170 08:25 11.05.2021
3158 Clear 14 1017 58 10000 5.66 180 07:47 11.05.2021
3159 Clear 13 1017 55 10000 5.66 180 07:20 11.05.2021
3160 Clear 12 1016 62 10000 4.12 150 02:21 11.05.2021
3161 Clear 11 1016 71 10000 3.09 160 00:53 11.05.2021
3162 Clear 12 1016 71 10000 3.09 160 00:34 11.05.2021
3163 Clear 12 1016 66 10000 4.63 150 23:40 10.05.2021
3164 Clear 12 1016 66 10000 4.12 140 23:19 10.05.2021
3165 Clear 11 1016 76 10000 3.09 140 22:41 10.05.2021
3166 Clear 12 1016 76 10000 3.09 150 22:18 10.05.2021
3167 Clear 13 1016 76 10000 2.57 130 21:35 10.05.2021
3168 Clear 13 1015 58 10000 2.57 150 20:59 10.05.2021
3169 Clear 14 1015 58 10000 2.57 150 20:40 10.05.2021
3170 Clear 15 1015 58 10000 4.12 140 20:19 10.05.2021
3171 Clear 16 1015 55 10000 4.12 130 19:43 10.05.2021
3172 Clear 17 1015 51 10000 4.63 140 19:20 10.05.2021
3173 Clear 17 1015 51 10000 4.63 140 18:53 10.05.2021
3174 Clear 17 1015 52 10000 3.09 160 18:22 10.05.2021
3175 Clear 17 1015 52 10000 3.09 160 17:44 10.05.2021
3176 Clear 17 1015 55 10000 3.6 150 17:24 10.05.2021
3177 Clear 16 1015 55 10000 3.6 150 16:46 10.05.2021
3178 Clear 16 1015 55 10000 3.6 140 16:26 10.05.2021
3179 Clear 15 1015 63 10000 2.57 130 15:34 10.05.2021
3180 Clear 14 1015 67 10000 2.57 160 14:59 10.05.2021
3181 Clear 14 1015 67 10000 3.09 150 14:40 10.05.2021
3182 Clear 13 1015 71 10000 3.09 160 14:20 10.05.2021
3183 Clear 12 1015 71 10000 3.09 170 13:35 10.05.2021
3184 Clear 11 1015 76 10000 4.12 180 12:48 10.05.2021
3185 Clouds 10 1014 76 10000 4.12 180 12:23 10.05.2021
3186 Clear 10 1014 76 10000 4.12 190 11:45 10.05.2021
3187 Clouds 10 1014 81 10000 4.12 190 11:26 10.05.2021
3188 Clouds 10 1014 81 10000 3.6 210 10:46 10.05.2021
3189 Clouds 10 1014 81 10000 3.6 210 10:46 10.05.2021
3190 Rain 10 1014 81 10000 3.6 210 10:27 10.05.2021
3191 Rain 10 1014 81 10000 4.12 210 09:44 10.05.2021
3192 Rain 10 1013 81 10000 4.12 220 09:23 10.05.2021
3193 Rain 9 1013 81 10000 4.12 180 08:34 10.05.2021
3194 Clouds 9 1012 76 10000 5.14 180 07:55 10.05.2021
3195 Clouds 9 1012 76 10000 5.14 180 07:35 10.05.2021
3196 Clouds 8 1012 81 10000 5.66 160 06:58 10.05.2021
3197 Clouds 8 1012 81 10000 5.66 150 06:20 10.05.2021
3198 Rain 7 1014 81 10000 6.17 150 00:55 10.05.2021
3199 Rain 7 1015 87 10000 3.09 130 23:52 09.05.2021
3200 Rain 7 1015 81 10000 2.57 120 22:42 09.05.2021
3201 Rain 7 1015 76 10000 3.6 140 22:20 09.05.2021
3202 Rain 7 1015 76 10000 3.6 140 21:48 09.05.2021
3203 Clear 7 1015 76 10000 4.12 160 21:19 09.05.2021
3204 Clear 8 1015 71 10000 4.12 180 20:41 09.05.2021
3205 Clear 8 1015 61 10000 3.6 200 19:57 09.05.2021
3206 Clouds 8 1015 61 10000 4.12 210 19:36 09.05.2021
3207 Clouds 9 1015 61 10000 5.14 210 19:18 09.05.2021
3208 Clouds 10 1015 57 10000 6.17 220 18:40 09.05.2021
3209 Clouds 10 1015 53 10000 7.2 220 18:20 09.05.2021
3210 Clear 10 1015 53 10000 7.2 210 17:28 09.05.2021
3211 Clear 10 1015 40 10000 8.23 220 16:39 09.05.2021
3212 Clear 11 1015 37 10000 8.23 220 16:20 09.05.2021
3213 Clear 11 1015 37 10000 8.23 210 15:23 09.05.2021
3214 Clear 11 1015 35 10000 8.23 230 14:52 09.05.2021
3215 Clear 11 1015 35 10000 9.26 220 13:50 09.05.2021
3216 Clear 11 1015 35 10000 9.26 220 13:31 09.05.2021
3217 Clouds 11 1015 43 10000 8.75 210 12:47 09.05.2021
3218 Clouds 11 1015 43 10000 8.75 210 12:47 09.05.2021
3219 Clouds 10 1015 54 10000 7.2 210 12:22 09.05.2021
3220 Clouds 9 1015 71 10000 5.14 170 11:23 09.05.2021
3221 Clouds 8 1015 71 10000 4.12 180 10:47 09.05.2021
3222 Clouds 8 1015 76 10000 4.12 170 10:29 09.05.2021
3223 Clouds 7 1015 61 10000 4.12 170 09:38 09.05.2021
3224 Rain 7 1015 57 10000 2.57 170 09:18 09.05.2021
3225 Rain 7 1015 57 10000 2.57 170 09:18 09.05.2021
3226 Clouds 6 1014 65 10000 4.12 180 08:44 09.05.2021
3227 Clouds 6 1014 70 10000 3.6 150 08:22 09.05.2021
3228 Rain 5 1014 70 10000 2.57 130 07:29 09.05.2021
3229 Clouds 4 1014 75 10000 1.54 190 06:40 09.05.2021
3230 Clear 1 1013 75 10000 2.06 280 03:29 09.05.2021
3231 Clear 3 1011 60 10000 3.6 260 23:56 08.05.2021
3232 Clear 4 1011 56 10000 3.09 260 23:31 08.05.2021
3233 Clear 4 1010 65 10000 3.09 240 22:55 08.05.2021
3234 Clear 5 1010 65 10000 3.09 220 22:22 08.05.2021
3235 Clear 6 1010 60 10000 3.6 220 21:52 08.05.2021
3236 Clear 6 1009 61 10000 2.57 240 21:19 08.05.2021
3237 Clear 6 1009 61 10000 2.57 240 20:57 08.05.2021
3238 Clear 7 1009 53 10000 2.06 240 20:31 08.05.2021
3239 Clouds 8 1009 49 10000 5.66 240 19:27 08.05.2021
3240 Clouds 8 1009 49 10000 5.66 240 18:55 08.05.2021
3241 Rain 8 1008 49 10000 6.17 260 18:37 08.05.2021
3242 Rain 9 1008 46 10000 7.2 260 17:58 08.05.2021
3243 Rain 10 1008 46 10000 7.2 260 17:35 08.05.2021
3244 Clouds 10 1007 34 10000 4.63 280 16:32 08.05.2021
3245 Clouds 10 1007 34 10000 4.12 270 15:57 08.05.2021
3246 Clouds 9 1007 42 10000 3.6 280 15:39 08.05.2021
3247 Clouds 9 1007 42 10000 3.09 290 15:20 08.05.2021
3248 Clouds 9 1007 42 10000 3.09 290 15:20 08.05.2021
3249 Clouds 9 1007 40 10000 5.14 280 14:27 08.05.2021
3250 Clouds 8 1006 42 10000 5.14 300 13:56 08.05.2021
3251 Clouds 8 1006 46 10000 5.14 310 13:24 08.05.2021
3252 Clouds 8 1006 53 10000 6.17 300 12:38 08.05.2021
3253 Clouds 8 1006 53 10000 6.17 300 12:38 08.05.2021
3254 Clouds 7 1005 61 10000 5.66 320 11:54 08.05.2021
3255 Clouds 7 1005 61 10000 5.66 320 11:29 08.05.2021
3256 Clouds 6 1005 65 10000 6.17 320 10:42 08.05.2021
3257 Clouds 4 1005 81 10000 5.14 330 10:23 08.05.2021
3258 Clouds 4 1005 81 10000 5.14 330 09:53 08.05.2021
3259 Clouds 5 1005 81 10000 6.17 330 09:33 08.05.2021
3260 Clouds 4 1004 87 10000 4.12 300 08:31 08.05.2021
3261 Clouds 4 1004 93 10000 2.57 330 07:41 08.05.2021
3262 Clouds 4 1004 87 10000 2.57 310 07:23 08.05.2021
3263 Clouds 3 1004 87 10000 2.06 310 06:40 08.05.2021
3264 Clouds 3 1003 93 10000 1.54 330 02:30 08.05.2021
3265 Clouds 2 1003 93 10000 0.51 0 00:52 08.05.2021
3266 Clouds 2 1003 93 10000 0.51 0 00:34 08.05.2021
3267 Clouds 3 1003 80 10000 2.06 230 23:34 07.05.2021
3268 Clouds 4 1003 80 10000 3.6 210 22:57 07.05.2021
3269 Clouds 3 1003 80 10000 3.6 210 22:33 07.05.2021
3270 Clouds 4 1003 81 10000 5.14 180 21:45 07.05.2021
3271 Clouds 4 1002 75 10000 4.63 180 21:27 07.05.2021
3272 Clouds 4 1002 75 10000 5.66 190 20:50 07.05.2021
3273 Clouds 4 1002 75 10000 5.66 190 20:31 07.05.2021
3274 Clouds 5 1002 65 10000 6.69 210 19:49 07.05.2021
3275 Clouds 5 1002 65 10000 6.69 210 19:27 07.05.2021
3276 Clouds 6 1002 70 10000 5.66 190 18:47 07.05.2021
3277 Clouds 6 1002 70 10000 5.14 190 18:28 07.05.2021
3278 Clouds 6 1002 70 10000 5.14 190 18:28 07.05.2021
3279 Clouds 7 1001 70 10000 5.14 210 17:42 07.05.2021
3280 Clouds 7 1001 66 10000 6.17 210 17:20 07.05.2021
3281 Clouds 7 1001 66 10000 5.66 200 16:41 07.05.2021
3282 Clouds 8 1001 66 10000 5.66 200 16:22 07.05.2021
3283 Clouds 7 1001 76 10000 4.12 200 15:44 07.05.2021
3284 Clouds 7 1001 87 10000 3.6 180 15:26 07.05.2021
3285 Clouds 6 1001 87 10000 4.63 160 14:38 07.05.2021
3286 Clouds 6 1001 87 10000 4.63 180 14:20 07.05.2021
3287 Clouds 6 1000 81 10000 4.63 160 13:27 07.05.2021
3288 Clouds 6 1000 81 10000 4.63 180 12:49 07.05.2021
3289 Clouds 5 1000 87 10000 4.12 170 12:29 07.05.2021
3290 Clouds 5 1000 87 10000 4.12 170 11:52 07.05.2021
3291 Clouds 5 1000 87 10000 4.63 150 11:31 07.05.2021
3292 Clouds 4 999 93 10000 3.6 140 10:51 07.05.2021
3293 Clouds 4 999 93 10000 3.6 140 10:25 07.05.2021
3294 Clouds 4 999 93 10000 2.57 120 09:59 07.05.2021
3295 Clouds 4 999 93 10000 1.54 110 08:58 07.05.2021
3296 Clouds 4 998 93 10000 1.54 80 08:58 07.05.2021
3297 Clouds 4 998 93 10000 1.54 80 08:36 07.05.2021
3298 Clouds 3 998 87 10000 2.06 60 07:47 07.05.2021
3299 Clouds 3 997 100 10000 2.06 40 06:45 07.05.2021
3300 Clouds 3 997 93 10000 2.57 20 04:57 07.05.2021
3301 Clouds 4 996 87 10000 2.06 40 01:51 07.05.2021
3302 Clouds 5 996 81 10000 1.54 10 23:30 06.05.2021
3303 Clouds 5 995 87 10000 1.54 10 22:35 06.05.2021
3304 Clouds 5 995 87 10000 2.57 10 21:43 06.05.2021
3305 Clouds 6 995 81 10000 3.09 30 20:48 06.05.2021
3306 Clouds 6 995 81 10000 3.09 30 20:25 06.05.2021
3307 Clouds 6 994 81 10000 3.6 10 19:55 06.05.2021
3308 Clouds 6 994 75 10000 3.6 20 19:26 06.05.2021
3309 Clouds 6 994 81 10000 4.63 10 18:58 06.05.2021
3310 Clouds 7 994 76 10000 4.12 30 18:36 06.05.2021
3311 Clouds 7 994 76 10000 3.09 50 17:51 06.05.2021
3312 Clouds 8 994 76 10000 3.6 40 17:29 06.05.2021
3313 Clouds 9 993 66 10000 2.06 0 16:58 06.05.2021
3314 Clouds 9 993 66 10000 2.06 0 16:37 06.05.2021
3315 Clouds 9 993 71 10000 3.09 360 16:18 06.05.2021
3316 Clouds 9 994 71 10000 3.09 350 15:42 06.05.2021
3317 Clouds 8 994 71 10000 3.6 10 15:19 06.05.2021
3318 Clouds 6 994 71 10000 3.6 20 14:26 06.05.2021
3319 Clouds 7 994 71 10000 3.6 350 13:53 06.05.2021
3320 Clouds 7 994 71 10000 3.6 350 13:24 06.05.2021
3321 Rain 7 994 76 10000 2.57 40 12:47 06.05.2021
3322 Clouds 6 994 76 10000 2.57 40 12:24 06.05.2021
3323 Clouds 7 994 81 10000 2.57 40 11:48 06.05.2021
3324 Clouds 7 994 87 10000 2.57 40 11:24 06.05.2021
3325 Clouds 6 994 87 10000 2.06 60 10:51 06.05.2021
3326 Clouds 6 994 87 10000 2.06 60 10:27 06.05.2021
3327 Clouds 6 994 93 10000 3.09 70 09:46 06.05.2021
3328 Clouds 5 994 93 10000 3.09 70 09:27 06.05.2021
3329 Clouds 6 994 93 10000 3.6 80 08:49 06.05.2021
3330 Clouds 5 995 93 10000 3.6 90 08:23 06.05.2021
3331 Clouds 5 995 93 10000 4.12 80 07:48 06.05.2021
3332 Clouds 5 995 93 10000 3.6 100 07:19 06.05.2021
3333 Clouds 5 995 100 8000 3.6 80 06:26 06.05.2021
3334 Mist 4 995 100 5000 3.09 80 05:48 06.05.2021
3335 Mist 4 996 93 5000 2.57 70 04:33 06.05.2021
3336 Clouds 5 996 93 10000 2.57 90 02:32 06.05.2021
3337 Rain 4 997 100 8000 5.14 90 23:43 05.05.2021
3338 Rain 4 997 100 7000 4.12 90 22:36 05.05.2021
3339 Rain 4 998 100 6000 4.63 90 21:59 05.05.2021
3340 Clouds 4 998 100 6000 4.63 90 21:38 05.05.2021
3341 Clouds 4 998 93 6000 5.14 100 21:18 05.05.2021
3342 Clouds 4 998 93 5000 4.63 100 20:35 05.05.2021
3343 Clouds 4 998 93 5000 4.63 100 20:35 05.05.2021
3344 Clouds 4 998 100 8000 5.14 80 19:44 05.05.2021
3345 Clouds 4 998 100 8000 5.14 80 19:24 05.05.2021
3346 Rain 3 999 100 10000 6.17 90 18:44 05.05.2021
3347 Rain 3 999 93 10000 5.14 90 18:18 05.05.2021
3348 Clouds 3 999 93 7000 5.66 70 17:44 05.05.2021
3349 Snow 3 999 93 7000 5.66 70 17:26 05.05.2021
3350 Snow 2 999 100 10000 6.17 80 16:49 05.05.2021
3351 Snow 2 999 100 10000 6.17 80 16:29 05.05.2021
3352 Rain 3 1000 100 10000 6.17 70 15:51 05.05.2021
3353 Rain 3 1000 100 10000 5.66 80 15:21 05.05.2021
3354 Snow 3 1000 100 10000 6.17 80 14:43 05.05.2021
3355 Snow 3 1000 100 10000 6.17 80 14:24 05.05.2021
3356 Snow 3 1000 81 10000 7.2 80 13:41 05.05.2021
3357 Rain 4 1000 75 10000 9.26 80 13:21 05.05.2021
3358 Rain 4 1000 70 10000 8.23 80 12:28 05.05.2021
3359 Clouds 4 1000 70 10000 8.23 70 11:50 05.05.2021
3360 Clouds 4 1000 70 10000 8.23 70 11:30 05.05.2021
3361 Clouds 4 1000 70 10000 6.69 80 10:53 05.05.2021
3362 Clouds 4 1000 70 10000 6.69 80 10:35 05.05.2021
3363 Clouds 4 1001 70 10000 6.69 80 09:50 05.05.2021
3364 Clouds 4 1001 75 10000 8.23 80 08:59 05.05.2021
3365 Clouds 4 1001 65 10000 8.23 70 08:40 05.05.2021
3366 Clouds 4 1001 70 10000 7.2 70 08:22 05.05.2021
3367 Clouds 4 1002 81 10000 4.63 90 07:43 05.05.2021
3368 Clouds 3 1002 87 10000 5.14 80 07:20 05.05.2021
3369 Clouds 3 1002 81 10000 4.12 70 06:30 05.05.2021
3370 Clouds 3 1004 75 10000 3.09 100 01:46 05.05.2021
3371 Clouds 4 1005 75 10000 3.09 100 23:48 04.05.2021
3372 Clouds 4 1005 75 10000 3.09 100 23:29 04.05.2021
3373 Clouds 4 1005 70 10000 3.09 80 22:45 04.05.2021
3374 Clear 3 1005 75 10000 2.06 80 22:21 04.05.2021
3375 Clear 4 1005 75 10000 1.03 90 21:52 04.05.2021
3376 Clouds 5 1005 60 10000 2.06 130 21:32 04.05.2021
3377 Clouds 5 1005 60 10000 4.12 140 20:56 04.05.2021
3378 Clouds 6 1005 60 10000 4.12 140 20:38 04.05.2021
3379 Clouds 6 1005 56 10000 3.6 150 20:20 04.05.2021
3380 Clouds 7 1005 53 10000 4.12 140 19:41 04.05.2021
3381 Clouds 7 1005 53 10000 5.14 130 19:20 04.05.2021
3382 Clear 7 1005 53 10000 3.6 140 18:48 04.05.2021
3383 Clear 7 1005 53 10000 3.6 140 18:20 04.05.2021
3384 Clear 8 1005 49 10000 4.12 160 17:44 04.05.2021
3385 Clear 9 1005 37 10000 3.09 120 17:21 04.05.2021
3386 Clear 8 1004 40 10000 5.14 40 16:40 04.05.2021
3387 Clear 9 1004 37 10000 4.12 30 16:21 04.05.2021
3388 Clear 10 1004 37 10000 5.14 40 15:26 04.05.2021
3389 Clear 10 1004 37 10000 5.66 40 14:47 04.05.2021
3390 Clear 10 1004 34 10000 4.12 350 13:47 04.05.2021
3391 Clear 10 1004 34 10000 4.12 350 13:26 04.05.2021
3392 Clear 10 1004 32 10000 6.17 340 12:57 04.05.2021
3393 Clear 10 1003 29 10000 6.69 350 12:37 04.05.2021
3394 Clear 10 1003 32 10000 6.17 350 12:19 04.05.2021
3395 Clear 10 1003 32 10000 5.14 340 11:41 04.05.2021
3396 Clear 9 1003 34 10000 5.14 350 11:21 04.05.2021
3397 Clear 9 1003 34 10000 5.66 340 10:40 04.05.2021
3398 Clear 8 1003 36 10000 5.66 340 10:20 04.05.2021
3399 Clear 7 1003 39 10000 5.66 360 09:27 04.05.2021
3400 Clear 6 1003 39 10000 5.66 10 08:54 04.05.2021
3401 Clear 6 1003 39 10000 5.66 10 08:35 04.05.2021
3402 Clear 6 1003 45 10000 5.14 340 07:54 04.05.2021
3403 Clear 6 1003 45 10000 5.14 340 07:54 04.05.2021
3404 Clear 5 1003 45 10000 5.14 340 07:34 04.05.2021
3405 Clear 4 1003 48 10000 4.12 330 06:27 04.05.2021
3406 Clear 3 1003 52 10000 3.6 330 04:57 04.05.2021
3407 Clear 3 1004 48 10000 4.12 330 03:40 04.05.2021
3408 Clear 5 1004 45 10000 3.6 320 00:47 04.05.2021
3409 Clear 6 1004 45 10000 3.09 330 23:42 03.05.2021
3410 Clear 5 1004 52 10000 3.6 330 22:51 03.05.2021
3411 Clear 6 1004 52 10000 3.6 330 22:31 03.05.2021
3412 Clear 6 1004 56 10000 3.09 330 21:54 03.05.2021
3413 Clear 6 1004 56 10000 3.09 330 21:32 03.05.2021
3414 Clear 7 1004 49 10000 2.57 340 20:59 03.05.2021
3415 Clear 7 1004 49 10000 3.09 330 20:40 03.05.2021
3416 Clear 7 1004 45 10000 2.57 350 20:21 03.05.2021
3417 Clear 8 1004 42 10000 2.57 360 19:39 03.05.2021
3418 Clear 8 1005 42 10000 4.63 20 18:51 03.05.2021
3419 Clear 9 1005 40 10000 6.17 40 18:27 03.05.2021
3420 Clear 9 1005 37 10000 6.17 20 17:42 03.05.2021
3421 Clear 9 1005 37 10000 4.12 10 17:21 03.05.2021
3422 Clear 9 1005 37 10000 4.63 20 16:49 03.05.2021
3423 Clear 9 1005 34 10000 4.12 10 16:19 03.05.2021
3424 Clear 9 1005 31 10000 5.14 30 15:41 03.05.2021
3425 Clear 9 1005 29 10000 6.17 20 14:48 03.05.2021
3426 Clear 9 1005 29 10000 6.17 30 14:20 03.05.2021
3427 Clear 9 1005 27 10000 7.2 40 13:47 03.05.2021
3428 Clear 9 1005 27 10000 7.2 40 13:28 03.05.2021
3429 Clear 9 1006 27 10000 7.2 30 12:44 03.05.2021
3430 Clear 8 1006 27 10000 8.23 30 12:23 03.05.2021
3431 Clear 8 1006 27 10000 8.23 10 11:41 03.05.2021
3432 Clear 8 1006 27 10000 8.23 10 11:22 03.05.2021
3433 Clear 8 1007 27 10000 7.72 10 11:22 03.05.2021
3434 Clear 8 1007 27 10000 7.2 20 10:46 03.05.2021
3435 Clear 8 1007 27 10000 7.2 20 10:25 03.05.2021
3436 Clear 7 1008 29 10000 7.2 30 09:47 03.05.2021
3437 Clear 6 1009 31 10000 5.66 20 08:56 03.05.2021
3438 Clear 6 1009 31 10000 5.66 20 08:26 03.05.2021
3439 Clear 5 1009 39 10000 4.63 20 07:59 03.05.2021
3440 Clear 4 1009 45 10000 4.63 20 07:30 03.05.2021
3441 Clear 2 1010 60 10000 3.09 20 06:21 03.05.2021
3442 Clear 1 1010 64 10000 3.09 20 05:52 03.05.2021
3443 Clear 1 1010 64 10000 3.09 20 05:52 03.05.2021
3444 Clear 1 1012 80 10000 1.03 40 01:33 03.05.2021
3445 Clear 0 1013 69 10000 2.57 350 00:19 03.05.2021
3446 Clear 1 1014 69 10000 2.57 340 23:23 02.05.2021
3447 Clear 1 1014 80 10000 1.03 360 22:47 02.05.2021
3448 Clear 2 1014 69 10000 1.03 0 22:20 02.05.2021
3449 Clear 1 1014 69 10000 1.03 0 21:54 02.05.2021
3450 Clear 2 1014 64 10000 1.03 310 21:30 02.05.2021
3451 Clear 5 1015 42 10000 2.57 200 20:29 02.05.2021
3452 Clear 6 1015 39 10000 4.12 170 19:57 02.05.2021
3453 Clear 6 1015 39 10000 4.12 170 19:38 02.05.2021
3454 Clear 7 1015 36 10000 5.66 170 19:19 02.05.2021
3455 Clear 7 1014 34 10000 6.17 150 18:43 02.05.2021
3456 Clear 8 1014 34 10000 6.17 150 18:25 02.05.2021
3457 Clear 8 1014 34 10000 2.57 200 17:46 02.05.2021
3458 Clear 8 1014 34 10000 2.57 200 17:27 02.05.2021
3459 Clear 8 1015 34 10000 4.12 180 16:52 02.05.2021
3460 Clear 8 1015 36 10000 6.69 180 16:29 02.05.2021
3461 Clear 9 1016 37 10000 2.06 0 15:46 02.05.2021
3462 Clear 9 1016 37 10000 2.06 0 15:28 02.05.2021
3463 Clear 9 1016 23 10000 3.09 60 14:59 02.05.2021
3464 Clear 9 1016 25 10000 1.54 0 14:37 02.05.2021
3465 Clear 8 1016 27 10000 1.54 0 13:50 02.05.2021
3466 Clear 8 1016 27 10000 1.54 0 13:25 02.05.2021
3467 Clear 8 1016 29 10000 2.06 110 12:58 02.05.2021
3468 Clear 8 1016 33 10000 2.57 0 12:40 02.05.2021
3469 Clear 8 1017 31 10000 2.57 320 12:20 02.05.2021
3470 Clear 8 1017 31 10000 3.09 20 11:47 02.05.2021
3471 Clear 7 1017 33 10000 2.06 0 11:27 02.05.2021
3472 Clear 7 1017 33 10000 2.06 30 10:23 02.05.2021
3473 Clear 7 1017 33 10000 2.06 30 09:56 02.05.2021
3474 Clear 5 1017 33 10000 3.09 0 09:37 02.05.2021
3475 Clouds 5 1017 39 10000 4.63 10 09:18 02.05.2021
3476 Clear 4 1017 45 10000 3.6 10 08:43 02.05.2021
3477 Clear 3 1017 52 10000 3.09 340 08:22 02.05.2021
3478 Clear 2 1016 55 10000 3.6 350 07:26 02.05.2021
3479 Clear -1 1015 69 10000 3.09 320 05:53 02.05.2021
3480 Clear -1 1015 74 10000 3.09 320 04:20 02.05.2021
3481 Clear 0 1014 69 10000 2.06 10 00:37 02.05.2021
3482 Clear 2 1013 52 10000 3.09 30 23:44 01.05.2021
3483 Clear 3 1013 48 10000 2.57 30 23:25 01.05.2021
3484 Clear 3 1013 48 10000 3.09 30 22:44 01.05.2021
3485 Clear 5 1013 48 10000 3.09 30 22:22 01.05.2021
3486 Clouds 5 1013 52 10000 2.57 340 21:45 01.05.2021
3487 Clear 6 1013 56 10000 1.54 360 21:24 01.05.2021
3488 Clear 6 1013 56 10000 1.54 360 21:24 01.05.2021
3489 Clear 6 1013 56 10000 1.54 360 20:56 01.05.2021
3490 Clear 7 1012 39 10000 1.54 290 20:32 01.05.2021
3491 Clear 7 1012 39 10000 1.54 290 19:59 01.05.2021
3492 Clear 8 1012 39 10000 2.57 270 19:31 01.05.2021
3493 Clear 8 1012 39 10000 2.57 270 18:56 01.05.2021
3494 Clear 8 1012 39 10000 2.57 270 18:35 01.05.2021
3495 Clear 8 1012 39 10000 2.57 270 18:35 01.05.2021
3496 Clear 8 1012 39 10000 2.57 240 17:56 01.05.2021
3497 Clear 8 1012 45 10000 3.6 260 17:32 01.05.2021
3498 Clouds 8 1012 42 10000 4.12 270 16:50 01.05.2021
3499 Clouds 8 1012 42 10000 4.12 270 16:31 01.05.2021
3500 Clouds 8 1012 42 10000 3.09 280 15:50 01.05.2021
3501 Clouds 8 1012 42 10000 3.6 300 14:54 01.05.2021
3502 Clouds 8 1012 39 10000 5.14 300 13:44 01.05.2021
3503 Clouds 8 1012 39 10000 5.14 300 13:24 01.05.2021
3504 Clouds 8 1012 39 10000 5.66 290 12:44 01.05.2021
3505 Clouds 7 1012 36 10000 5.66 300 12:21 01.05.2021
3506 Clouds 8 1011 42 10000 5.66 310 11:43 01.05.2021
3507 Clouds 8 1011 39 10000 7.72 280 11:25 01.05.2021
3508 Clear 8 1011 39 10000 7.72 290 10:55 01.05.2021
3509 Clouds 8 1011 39 10000 7.72 270 09:58 01.05.2021
3510 Clouds 8 1011 42 10000 5.14 260 09:39 01.05.2021
3511 Clouds 6 1011 49 10000 6.17 230 09:20 01.05.2021
3512 Clouds 5 1011 56 10000 4.63 240 08:19 01.05.2021
3513 Clear 4 1011 60 10000 4.12 240 07:28 01.05.2021
3514 Clear 0 1011 80 10000 2.57 260 05:33 01.05.2021
3515 Clear 2 1009 74 10000 4.12 310 01:38 01.05.2021
3516 Clear 2 1009 69 10000 3.6 310 00:28 01.05.2021
3517 Clear 3 1008 69 10000 3.6 300 23:43 30.04.2021
3518 Clear 4 1008 60 10000 2.57 330 22:47 30.04.2021
3519 Clear 4 1008 60 10000 3.09 330 22:20 30.04.2021
3520 Clear 5 1007 48 10000 3.09 330 21:46 30.04.2021
3521 Clear 5 1007 48 10000 3.09 330 21:25 30.04.2021
3522 Clear 6 1007 52 10000 2.57 300 20:51 30.04.2021
3523 Clear 7 1007 52 10000 2.57 300 20:30 30.04.2021
3524 Clouds 8 1007 44 10000 1.79 300 19:47 30.04.2021
3525 Clear 9 1006 34 10000 6.17 310 18:49 30.04.2021
3526 Clear 9 1006 34 10000 5.66 310 18:29 30.04.2021
3527 Clear 9 1006 34 10000 5.66 310 17:55 30.04.2021
3528 Clear 9 1006 34 10000 5.66 300 17:32 30.04.2021
3529 Clear 9 1005 29 10000 6.17 300 16:54 30.04.2021
3530 Clear 9 1005 29 10000 6.17 300 16:32 30.04.2021
3531 Clear 10 1006 29 10000 4.63 340 15:44 30.04.2021
3532 Clear 9 1006 29 10000 3.6 310 15:26 30.04.2021
3533 Clear 9 1006 29 10000 4.12 0 14:58 30.04.2021
3534 Clear 10 1006 29 10000 4.12 0 14:39 30.04.2021
3535 Clear 9 1006 29 10000 4.63 330 14:18 30.04.2021
3536 Clear 9 1006 27 10000 4.12 330 13:39 30.04.2021
3537 Clear 9 1006 31 10000 4.63 350 12:58 30.04.2021
3538 Clear 8 1007 34 10000 4.12 300 12:37 30.04.2021
3539 Clear 8 1007 34 10000 3.6 310 11:52 30.04.2021
3540 Clear 8 1007 39 10000 4.12 320 11:23 30.04.2021
3541 Clouds 8 1008 39 10000 2.57 290 10:48 30.04.2021
3542 Clouds 7 1008 39 10000 2.57 290 10:30 30.04.2021
3543 Clouds 7 1008 42 10000 2.06 0 09:47 30.04.2021
3544 Clear 6 1008 45 10000 2.57 30 09:21 30.04.2021
3545 Clear 5 1008 52 10000 2.06 10 08:36 30.04.2021
3546 Clear 3 1008 60 10000 2.06 360 07:36 30.04.2021
3547 Clear 1 1009 75 10000 2.06 350 07:18 30.04.2021
3548 Clear 1 1009 80 10000 1.54 340 06:44 30.04.2021
3549 Clear 0 1009 86 10000 2.06 350 06:21 30.04.2021
3550 Clear -2 1010 100 10000 2.06 340 02:59 30.04.2021
3551 Clear -1 1011 93 10000 1.03 20 01:53 30.04.2021
3552 Clear -1 1011 93 10000 1.03 20 01:31 30.04.2021
3553 Clear 0 1012 86 10000 1.54 230 23:32 29.04.2021
3554 Clear 1 1012 86 10000 1.5 270 22:46 29.04.2021
3555 Clear 1 1012 86 10000 2.13 247 22:26 29.04.2021
3556 Clear 2 1012 80 10000 2.57 210 21:57 29.04.2021
3557 Clear 2 1012 80 10000 2.57 210 21:39 29.04.2021
3558 Clear 4 1012 60 10000 2.57 200 21:20 29.04.2021
3559 Clear 5 1012 56 10000 3.09 210 20:44 29.04.2021
3560 Clouds 5 1012 56 10000 3.6 200 20:24 29.04.2021
3561 Clouds 6 1012 52 10000 4.12 210 19:57 29.04.2021
3562 Clouds 6 1012 52 10000 4.12 210 19:37 29.04.2021
3563 Clouds 6 1012 52 10000 3.09 210 19:19 29.04.2021
3564 Clouds 7 1012 45 10000 4.12 210 18:40 29.04.2021
3565 Clouds 7 1012 49 10000 6.69 220 17:48 29.04.2021
3566 Clouds 7 1012 45 10000 7.2 200 17:24 29.04.2021
3567 Rain 7 1013 45 10000 6.17 200 16:52 29.04.2021
3568 Rain 8 1013 46 10000 5.14 190 16:26 29.04.2021
3569 Clouds 8 1013 49 10000 5.66 190 15:54 29.04.2021
3570 Clouds 8 1013 49 10000 4.63 190 15:28 29.04.2021
3571 Clouds 7 1013 49 10000 4.63 180 14:52 29.04.2021
3572 Clouds 7 1014 45 10000 4.12 200 14:27 29.04.2021
3573 Clouds 7 1014 33 10000 2.57 280 13:52 29.04.2021
3574 Clouds 7 1014 33 10000 2.57 280 13:29 29.04.2021
3575 Clear 7 1014 33 10000 3.09 280 12:50 29.04.2021
3576 Clear 7 1014 33 10000 3.09 280 12:30 29.04.2021
3577 Clouds 7 1014 39 10000 2.06 240 11:51 29.04.2021
3578 Clouds 7 1014 45 10000 3.6 270 11:29 29.04.2021
3579 Clouds 6 1014 49 10000 3.09 260 10:55 29.04.2021
3580 Clouds 6 1014 49 10000 3.09 260 10:35 29.04.2021
3581 Clouds 6 1014 49 10000 2.57 270 09:54 29.04.2021
3582 Clouds 6 1014 60 10000 3.09 290 09:33 29.04.2021
3583 Clouds 4 1014 75 10000 3.09 270 08:56 29.04.2021
3584 Clouds 4 1014 75 10000 3.09 270 08:33 29.04.2021
3585 Clear 3 1014 80 10000 2.57 290 07:53 29.04.2021
3586 Clear 3 1014 80 10000 2.57 290 07:29 29.04.2021
3587 Clear 1 1014 93 10000 2.06 260 06:28 29.04.2021
3588 Clear -1 1014 93 10000 2.06 210 02:53 29.04.2021
3589 Clear 1 1014 93 10000 3.22 291 00:25 29.04.2021
3590 Clouds 1 1014 80 10000 1.54 300 23:20 28.04.2021
3591 Clouds 2 1014 80 10000 2.57 290 22:51 28.04.2021
3592 Clouds 3 1014 80 10000 1.54 310 22:21 28.04.2021
3593 Clouds 3 1014 75 10000 1.54 240 21:42 28.04.2021
3594 Clouds 3 1014 75 10000 1.54 240 21:22 28.04.2021
3595 Clouds 4 1014 70 10000 1.03 280 21:22 28.04.2021
3596 Clouds 3 1014 70 10000 1.03 280 20:54 28.04.2021
3597 Clouds 4 1014 70 10000 4.63 270 20:36 28.04.2021
3598 Clouds 4 1013 70 10000 3.09 220 20:18 28.04.2021
3599 Clouds 5 1013 56 10000 3.09 220 19:29 28.04.2021
3600 Rain 5 1013 52 10000 4.12 290 18:53 28.04.2021
3601 Rain 5 1013 52 10000 4.12 290 18:34 28.04.2021
3602 Clouds 6 1013 42 10000 2.57 290 17:50 28.04.2021
3603 Rain 6 1013 42 10000 2.57 290 17:28 28.04.2021
3604 Clouds 7 1013 39 10000 4.63 280 16:54 28.04.2021
3605 Clouds 7 1013 42 10000 4.63 260 16:20 28.04.2021
3606 Clouds 7 1013 42 10000 4.12 260 15:47 28.04.2021
3607 Rain 7 1013 39 10000 4.12 270 14:59 28.04.2021
3608 Clouds 7 1013 42 10000 3.09 310 14:40 28.04.2021
3609 Clouds 6 1013 42 10000 4.12 260 14:20 28.04.2021
3610 Clouds 7 1013 42 10000 3.09 300 13:42 28.04.2021
3611 Clouds 7 1013 36 10000 4.12 290 13:22 28.04.2021
3612 Clouds 7 1013 45 10000 4.12 290 12:41 28.04.2021
3613 Clouds 6 1013 38 10000 3.6 330 12:21 28.04.2021
3614 Clouds 6 1013 39 10000 5.14 340 11:38 28.04.2021
3615 Clouds 5 1013 42 10000 5.14 330 11:19 28.04.2021
3616 Clouds 4 1013 45 10000 5.14 310 10:39 28.04.2021
3617 Clouds 5 1013 45 10000 4.12 320 10:19 28.04.2021
3618 Clouds 4 1012 52 10000 3.6 310 09:43 28.04.2021
3619 Clouds 3 1013 65 10000 3.6 300 09:24 28.04.2021
3620 Clouds 4 1012 65 10000 2.57 290 08:47 28.04.2021
3621 Clear 1 1012 80 10000 2.06 330 07:31 28.04.2021
3622 Clear 1 1012 86 10000 3.09 320 06:45 28.04.2021
3623 Clear -1 1012 86 10000 2.57 310 05:27 28.04.2021
3624 Clouds 1 1011 86 10000 2.06 280 02:42 28.04.2021
3625 Clouds 1 1011 75 10000 2.06 340 01:36 28.04.2021
3626 Clouds 2 1011 69 10000 3.09 290 00:26 28.04.2021
3627 Clouds 1 1011 80 10000 2.57 290 23:42 27.04.2021
3628 Clear 2 1011 75 10000 3.09 310 22:56 27.04.2021
3629 Clear 3 1011 75 10000 3.09 310 22:37 27.04.2021
3630 Clear 3 1011 80 10000 2.57 300 22:18 27.04.2021
3631 Clear 2 1011 80 10000 2.06 300 21:42 27.04.2021
3632 Clear 3 1011 80 10000 2.06 310 21:20 27.04.2021
3633 Clear 4 1011 70 10000 1.54 320 20:43 27.04.2021
3634 Clouds 4 1011 70 10000 1.54 310 20:20 27.04.2021
3635 Clear 4 1011 65 10000 2.06 310 19:45 27.04.2021
3636 Clear 5 1011 60 10000 3.09 320 19:21 27.04.2021
3637 Clear 5 1011 65 10000 3.6 320 18:50 27.04.2021
3638 Clear 5 1011 65 10000 3.6 320 18:31 27.04.2021
3639 Clouds 5 1011 56 10000 4.63 330 17:43 27.04.2021
3640 Clouds 5 1011 56 10000 4.63 330 17:25 27.04.2021
3641 Clouds 5 1011 56 10000 4.12 330 16:46 27.04.2021
3642 Clouds 5 1011 56 10000 4.12 330 16:24 27.04.2021
3643 Clouds 5 1011 65 10000 5.14 320 15:49 27.04.2021
3644 Clouds 5 1011 60 10000 4.63 330 15:22 27.04.2021
3645 Clouds 6 1011 65 10000 4.63 330 14:51 27.04.2021
3646 Clouds 5 1011 65 10000 5.14 320 14:28 27.04.2021
3647 Clouds 5 1011 75 10000 4.63 310 13:58 27.04.2021
3648 Clouds 5 1011 75 10000 4.63 310 13:33 27.04.2021
3649 Clouds 5 1011 75 10000 4.63 340 12:45 27.04.2021
3650 Clouds 5 1011 70 10000 4.63 10 11:59 27.04.2021
3651 Clouds 5 1011 70 10000 4.63 10 11:59 27.04.2021
3652 Clouds 5 1011 70 10000 4.63 10 11:34 27.04.2021
3653 Clouds 5 1011 75 10000 4.63 360 10:58 27.04.2021
3654 Clouds 5 1011 70 10000 5.14 10 10:32 27.04.2021
3655 Clouds 4 1011 75 10000 4.63 360 09:57 27.04.2021
3656 Clouds 3 1011 75 10000 4.63 360 09:27 27.04.2021
3657 Clouds 3 1011 81 10000 4.63 360 08:39 27.04.2021
3658 Clouds 3 1011 93 10000 3.6 350 07:52 27.04.2021
3659 Clouds 2 1011 93 10000 4.12 340 07:28 27.04.2021
3660 Clouds 2 1011 93 10000 3.09 340 06:38 27.04.2021
3661 Drizzle 2 1011 93 10000 3.6 340 05:51 27.04.2021
3662 Clouds 3 1011 93 10000 4.12 350 02:36 27.04.2021
3663 Clouds 3 1011 93 10000 2.57 330 00:30 27.04.2021
3664 Drizzle 3 1011 93 10000 2.57 360 23:50 26.04.2021
3665 Drizzle 3 1012 93 10000 3.09 350 23:22 26.04.2021
3666 Drizzle 3 1012 93 10000 3.09 350 22:53 26.04.2021
3667 Drizzle 3 1012 93 10000 3.09 350 22:30 26.04.2021
3668 Drizzle 3 1011 93 10000 3.6 350 21:42 26.04.2021
3669 Drizzle 3 1011 93 10000 3.6 360 21:23 26.04.2021
3670 Clouds 4 1011 93 10000 3.09 360 20:54 26.04.2021
3671 Clouds 4 1011 93 10000 3.09 360 20:35 26.04.2021
3672 Clouds 4 1011 81 10000 4.12 360 19:52 26.04.2021
3673 Clouds 4 1011 81 10000 4.12 360 19:34 26.04.2021
3674 Clouds 4 1011 87 10000 4.63 350 18:48 26.04.2021
3675 Clouds 4 1011 87 10000 4.63 350 18:29 26.04.2021
3676 Clouds 4 1011 87 10000 4.63 350 17:52 26.04.2021
3677 Clouds 4 1011 87 10000 4.63 350 17:31 26.04.2021
3678 Clouds 4 1011 93 10000 5.14 360 16:50 26.04.2021
3679 Clouds 5 1011 93 10000 5.14 360 16:29 26.04.2021
3680 Clouds 5 1011 93 10000 4.63 350 15:58 26.04.2021
3681 Clouds 5 1011 87 10000 4.63 350 15:39 26.04.2021
3682 Clouds 5 1011 93 10000 5.66 360 15:20 26.04.2021
3683 Clouds 5 1011 93 10000 5.14 350 14:39 26.04.2021
3684 Clouds 5 1011 93 10000 5.66 360 14:18 26.04.2021
3685 Clouds 5 1011 93 10000 5.66 350 13:42 26.04.2021
3686 Clouds 5 1011 87 10000 5.66 350 13:22 26.04.2021
3687 Clouds 4 1010 93 10000 5.14 350 11:58 26.04.2021
3688 Clouds 4 1010 93 10000 5.14 350 11:39 26.04.2021
3689 Clouds 4 1010 93 10000 5.14 350 10:55 26.04.2021
3690 Clouds 4 1010 93 10000 5.14 350 10:33 26.04.2021
3691 Clouds 4 1009 100 10000 5.14 340 09:59 26.04.2021
3692 Clouds 3 1009 100 10000 5.14 340 09:40 26.04.2021
3693 Clouds 3 1009 100 10000 4.63 350 09:21 26.04.2021
3694 Rain 3 1009 93 10000 3.6 340 08:22 26.04.2021
3695 Rain 3 1009 93 10000 3.6 340 07:57 26.04.2021
3696 Clouds 3 1009 100 10000 3.6 340 07:38 26.04.2021
3697 Clouds 2 1008 100 10000 4.12 350 06:49 26.04.2021
3698 Clouds 2 1008 100 10000 4.12 340 05:58 26.04.2021
3699 Snow 1 1008 100 8000 3.6 340 04:40 26.04.2021
3700 Snow 1 1008 100 4000 4.12 330 03:25 26.04.2021
3701 Snow 1 1008 93 4000 4.12 310 01:44 26.04.2021
3702 Snow 1 1009 100 3500 4.12 300 00:47 26.04.2021
3703 Snow 1 1009 93 5000 4.63 290 23:49 25.04.2021
3704 Snow 1 1009 93 5000 4.63 290 23:29 25.04.2021
3705 Snow 1 1009 93 5000 4.63 290 22:59 25.04.2021
3706 Snow 1 1009 93 5000 4.63 300 22:39 25.04.2021
3707 Snow 2 1010 93 5000 5.14 300 22:19 25.04.2021
3708 Snow 2 1010 93 7000 5.14 310 21:42 25.04.2021
3709 Snow 2 1010 93 10000 6.17 310 21:24 25.04.2021
3710 Rain 3 1010 93 10000 5.66 320 20:48 25.04.2021
3711 Rain 3 1010 93 10000 6.17 320 20:26 25.04.2021
3712 Clouds 3 1010 93 10000 6.17 330 19:48 25.04.2021
3713 Rain 4 1010 93 10000 6.17 330 19:28 25.04.2021
3714 Rain 4 1010 87 10000 6.17 340 18:54 25.04.2021
3715 Clouds 4 1010 93 10000 4.63 330 18:30 25.04.2021
3716 Clouds 4 1010 93 10000 5.66 340 17:58 25.04.2021
3717 Clouds 5 1009 87 10000 6.69 320 17:39 25.04.2021
3718 Clouds 5 1010 87 10000 3.6 340 17:21 25.04.2021
3719 Clouds 5 1010 87 10000 3.6 340 17:21 25.04.2021
3720 Clouds 5 1009 87 10000 3.6 350 16:42 25.04.2021
3721 Clouds 6 1009 75 10000 7.2 320 16:23 25.04.2021
3722 Clouds 6 1009 87 10000 5.14 320 15:28 25.04.2021
3723 Clouds 6 1009 81 10000 6.69 320 14:56 25.04.2021
3724 Clouds 6 1009 70 10000 7.2 320 14:22 25.04.2021
3725 Clouds 5 1009 75 10000 7.2 320 13:52 25.04.2021
3726 Clouds 5 1009 75 10000 7.2 320 13:22 25.04.2021
3727 Clouds 5 1009 75 10000 6.69 300 12:49 25.04.2021
3728 Clouds 5 1009 75 10000 6.69 300 12:26 25.04.2021
3729 Clouds 5 1009 81 10000 6.17 330 11:53 25.04.2021
3730 Clouds 4 1009 81 10000 5.66 340 11:31 25.04.2021
3731 Clouds 4 1009 81 10000 6.17 330 10:48 25.04.2021
3732 Clouds 3 1009 87 10000 5.66 330 10:21 25.04.2021
3733 Clouds 3 1009 87 10000 5.66 340 09:47 25.04.2021
3734 Clouds 3 1009 87 10000 6.17 330 09:25 25.04.2021
3735 Clouds 3 1009 87 10000 6.17 330 08:22 25.04.2021
3736 Clouds 2 1009 93 10000 4.63 330 07:46 25.04.2021
3737 Clouds 2 1009 93 10000 4.63 330 07:19 25.04.2021
3738 Clouds 2 1009 93 10000 4.63 330 07:19 25.04.2021
3739 Clouds 2 1009 93 10000 4.63 330 07:19 25.04.2021
3740 Clouds 2 1009 93 10000 5.14 330 06:31 25.04.2021
3741 Clouds 2 1008 93 10000 4.12 330 04:56 25.04.2021
3742 Clouds 2 1008 93 10000 4.12 330 04:37 25.04.2021
3743 Clouds 3 1008 93 10000 4.63 330 01:44 25.04.2021
3744 Clouds 3 1008 93 10000 4.12 340 00:59 25.04.2021
3745 Clouds 2 1008 100 10000 4.63 330 00:21 25.04.2021
3746 Snow 2 1008 100 10000 4.63 330 23:48 24.04.2021
3747 Clouds 2 1008 100 10000 4.63 330 23:24 24.04.2021
3748 Clouds 2 1008 100 10000 4.12 330 22:37 24.04.2021
3749 Clouds 2 1008 93 10000 3.09 300 21:56 24.04.2021
3750 Rain 2 1008 93 10000 3.09 300 21:28 24.04.2021
3751 Clouds 2 1008 100 10000 2.06 320 20:50 24.04.2021
3752 Clouds 2 1008 100 10000 2.06 320 20:32 24.04.2021
3753 Clouds 3 1008 93 10000 2.06 290 19:56 24.04.2021
3754 Clouds 3 1008 93 10000 2.06 290 19:29 24.04.2021
3755 Clouds 3 1008 93 10000 2.57 290 18:58 24.04.2021
3756 Snow 3 1008 100 10000 2.57 320 18:32 24.04.2021
3757 Clouds 4 1008 93 10000 1.03 0 17:54 24.04.2021
3758 Clouds 3 1007 93 8000 2.57 360 17:26 24.04.2021
3759 Snow 3 1007 100 10000 2.57 300 16:49 24.04.2021
3760 Snow 3 1007 100 10000 2.57 300 16:30 24.04.2021
3761 Rain 4 1007 87 6000 1.54 260 15:36 24.04.2021
3762 Rain 4 1007 87 6000 1.54 260 15:36 24.04.2021
3763 Clouds 5 1007 81 10000 3.6 270 14:54 24.04.2021
3764 Rain 4 1007 87 10000 2.57 270 14:29 24.04.2021
3765 Clouds 4 1006 93 4000 4.12 50 13:51 24.04.2021
3766 Clouds 4 1006 93 4000 4.12 50 13:30 24.04.2021
3767 Clouds 4 1006 87 10000 3.6 310 12:38 24.04.2021
3768 Clouds 4 1006 87 10000 4.63 330 12:18 24.04.2021
3769 Clouds 4 1006 87 10000 4.63 310 11:43 24.04.2021
3770 Snow 3 1005 93 10000 4.63 310 10:55 24.04.2021
3771 Snow 3 1005 93 10000 4.63 310 10:32 24.04.2021
3772 Snow 3 1005 87 8000 4.63 310 09:56 24.04.2021
3773 Snow 2 1005 93 6000 4.63 300 09:27 24.04.2021
3774 Snow 2 1005 93 3000 4.63 300 07:52 24.04.2021
3775 Snow 1 1004 93 7000 2.57 270 06:54 24.04.2021
3776 Clouds 1 1004 93 10000 2.57 270 04:28 24.04.2021
3777 Clouds 1 1005 93 10000 3.09 230 00:48 24.04.2021
3778 Clouds 1 1005 93 10000 4.12 240 23:30 23.04.2021
3779 Clouds 1 1005 86 10000 4.12 240 22:46 23.04.2021
3780 Clouds 1 1005 86 10000 3.6 240 22:20 23.04.2021
3781 Clouds 1 1005 86 10000 3.09 250 21:44 23.04.2021
3782 Clouds 2 1005 80 10000 4.12 250 21:25 23.04.2021
3783 Clouds 2 1005 87 10000 3.09 240 20:41 23.04.2021
3784 Clouds 3 1005 75 10000 4.12 250 20:20 23.04.2021
3785 Clouds 3 1005 81 10000 5.14 260 19:52 23.04.2021
3786 Clouds 3 1005 81 10000 5.14 260 19:27 23.04.2021
3787 Clouds 4 1005 75 10000 4.12 260 18:50 23.04.2021
3788 Clouds 4 1005 87 10000 3.6 240 18:28 23.04.2021
3789 Clouds 4 1005 93 10000 1.54 210 17:51 23.04.2021
3790 Clouds 4 1005 100 10000 1.03 0 17:28 23.04.2021
3791 Clouds 3 1005 100 10000 1.03 0 16:59 23.04.2021
3792 Clouds 3 1005 100 10000 0.51 0 16:33 23.04.2021
3793 Snow 4 1005 93 7000 3.6 280 15:53 23.04.2021
3794 Snow 4 1005 93 7000 3.6 280 15:34 23.04.2021
3795 Rain 4 1004 93 10000 3.09 270 14:34 23.04.2021
3796 Clouds 3 1004 93 10000 2.06 240 13:39 23.04.2021
3797 Clouds 4 1003 93 10000 0.51 0 12:48 23.04.2021
3798 Clouds 4 1003 93 10000 0.51 0 12:23 23.04.2021
3799 Clouds 3 1003 93 3500 1.03 40 11:46 23.04.2021
3800 Snow 2 1003 93 3500 1.03 40 11:27 23.04.2021
3801 Snow 2 1003 100 1200 1.54 50 10:43 23.04.2021
3802 Clouds 2 1003 93 3500 1.03 50 10:22 23.04.2021
3803 Rain 2 1003 100 10000 0.51 0 09:39 23.04.2021
3804 Snow 2 1002 100 5000 1.03 0 08:48 23.04.2021
3805 Clouds 2 1002 100 5000 1.03 0 08:48 23.04.2021
3806 Snow 1 1002 100 5000 1.03 0 08:26 23.04.2021
3807 Snow 1 1002 100 2000 2.06 30 07:38 23.04.2021
3808 Snow 1 1002 100 1500 2.06 140 06:50 23.04.2021
3809 Rain 2 1002 93 10000 1.03 90 05:24 23.04.2021
3810 Clear 3 1003 87 10000 1.03 0 02:58 23.04.2021
3811 Clouds 3 1003 81 10000 1.03 80 00:40 23.04.2021
3812 Clouds 4 1004 87 10000 1.54 80 23:49 22.04.2021
3813 Clear 3 1004 87 10000 1.03 0 22:44 22.04.2021
3814 Clear 4 1004 81 10000 1.03 0 22:21 22.04.2021
3815 Clear 4 1004 81 10000 1.03 0 22:21 22.04.2021
3816 Clear 5 1004 75 10000 2.06 130 21:47 22.04.2021
3817 Clear 5 1005 70 10000 3.6 140 21:29 22.04.2021
3818 Clear 6 1005 70 10000 3.6 140 20:58 22.04.2021
3819 Clear 6 1005 65 10000 5.14 140 20:40 22.04.2021
3820 Clear 6 1005 65 10000 5.14 140 20:20 22.04.2021
3821 Clear 8 1004 49 10000 3.6 210 19:43 22.04.2021
3822 Clear 8 1004 49 10000 3.6 210 19:23 22.04.2021
3823 Clear 9 1004 43 10000 4.63 170 18:41 22.04.2021
3824 Clear 10 1004 40 10000 5.66 190 18:19 22.04.2021
3825 Clear 10 1004 43 10000 5.14 190 17:37 22.04.2021
3826 Clear 10 1004 43 10000 5.66 180 17:18 22.04.2021
3827 Clouds 10 1004 43 10000 5.66 200 16:44 22.04.2021
3828 Clouds 10 1004 43 10000 5.66 200 16:24 22.04.2021
3829 Clear 11 1004 40 10000 6.69 190 15:44 22.04.2021
3830 Clear 10 1004 37 10000 7.2 190 15:21 22.04.2021
3831 Clear 11 1004 37 10000 5.66 200 14:42 22.04.2021
3832 Clear 11 1003 35 10000 6.69 200 14:23 22.04.2021
3833 Clear 11 1003 37 10000 7.2 190 13:41 22.04.2021
3834 Clear 11 1003 37 10000 7.2 190 13:41 22.04.2021
3835 Clouds 10 1003 43 10000 5.66 210 13:21 22.04.2021
3836 Clouds 10 1003 50 10000 5.14 200 12:48 22.04.2021
3837 Clouds 10 1003 50 10000 5.14 200 12:29 22.04.2021
3838 Clouds 8 1002 66 10000 4.12 200 11:49 22.04.2021
3839 Clouds 8 1002 76 10000 4.63 170 11:25 22.04.2021
3840 Clouds 8 1002 76 10000 4.12 170 10:46 22.04.2021
3841 Clouds 7 1002 70 10000 4.12 170 10:27 22.04.2021
3842 Clouds 7 1002 70 10000 4.12 170 09:58 22.04.2021
3843 Clouds 7 1001 66 10000 5.14 150 09:31 22.04.2021
3844 Clouds 6 1001 93 8000 1.54 90 08:45 22.04.2021
3845 Mist 5 1001 100 4500 2.06 110 08:23 22.04.2021
3846 Fog 4 1001 100 700 1.54 80 07:46 22.04.2021
3847 Fog 4 1001 100 700 1.54 80 07:27 22.04.2021
3848 Fog 2 1000 100 200 2.57 90 06:40 22.04.2021
3849 Mist 2 1000 100 5000 1.54 50 05:50 22.04.2021
3850 Clouds 0 1000 100 10000 2.06 50 05:20 22.04.2021
3851 Clear 2 1001 93 10000 2.57 50 01:39 22.04.2021
3852 Clear 3 1001 87 10000 2.57 80 23:54 21.04.2021
3853 Clear 3 1001 87 10000 2.57 80 23:34 21.04.2021
3854 Clear 4 1001 81 10000 2.57 110 22:44 21.04.2021
3855 Clear 4 1001 81 10000 4.12 110 22:24 21.04.2021
3856 Clear 4 1002 81 10000 4.12 110 21:50 21.04.2021
3857 Clear 4 1002 81 10000 4.63 120 21:25 21.04.2021
3858 Clear 5 1002 81 10000 4.63 120 20:59 21.04.2021
3859 Clear 6 1002 75 10000 4.12 110 20:21 21.04.2021
3860 Clear 5 1002 70 10000 5.14 110 19:45 21.04.2021
3861 Clear 7 1002 65 10000 6.17 110 19:25 21.04.2021
3862 Clear 7 1001 61 10000 5.66 120 18:49 21.04.2021
3863 Clear 9 1001 57 10000 5.14 140 18:30 21.04.2021
3864 Clear 10 1002 50 10000 4.63 130 17:49 21.04.2021
3865 Clear 10 1002 50 10000 4.63 130 17:25 21.04.2021
3866 Clear 11 1002 46 10000 5.14 150 16:57 21.04.2021
3867 Clouds 11 1002 43 10000 2.06 250 16:30 21.04.2021
3868 Clouds 11 1002 43 10000 2.57 0 15:42 21.04.2021
3869 Clouds 11 1002 43 10000 2.57 0 15:42 21.04.2021
3870 Clouds 12 1002 46 10000 2.57 200 15:18 21.04.2021
3871 Clouds 12 1002 43 10000 3.09 150 14:42 21.04.2021
3872 Clouds 12 1003 43 10000 3.09 190 14:22 21.04.2021
3873 Clouds 11 1003 46 10000 3.09 0 13:44 21.04.2021
3874 Clouds 11 1004 46 10000 3.6 160 13:21 21.04.2021
3875 Clouds 11 1004 47 10000 3.6 0 12:32 21.04.2021
3876 Clouds 10 1005 50 10000 4.12 150 11:51 21.04.2021
3877 Clouds 11 1005 50 10000 4.12 150 11:32 21.04.2021
3878 Clouds 10 1005 46 10000 4.63 150 10:57 21.04.2021
3879 Clouds 9 1005 50 10000 3.6 140 10:36 21.04.2021
3880 Clouds 9 1006 53 10000 4.12 130 09:54 21.04.2021
3881 Clear 9 1006 57 10000 3.6 100 09:19 21.04.2021
3882 Clear 8 1007 61 10000 3.09 80 08:41 21.04.2021
3883 Clear 7 1007 61 10000 2.06 100 08:20 21.04.2021
3884 Clear 6 1007 65 10000 1.54 100 07:32 21.04.2021
3885 Clear 5 1008 70 10000 1.54 70 06:57 21.04.2021
3886 Clear 1 1009 75 10000 2.57 60 05:26 21.04.2021
3887 Clear 4 1012 70 10000 2.06 70 01:33 21.04.2021
3888 Clear 5 1013 52 10000 2.57 80 23:51 20.04.2021
3889 Clear 5 1013 52 10000 2.57 80 23:31 20.04.2021
3890 Clear 5 1013 52 10000 3.09 70 22:41 20.04.2021
3891 Clear 5 1013 45 10000 3.09 60 22:22 20.04.2021
3892 Clear 7 1014 45 10000 3.6 70 21:47 20.04.2021
3893 Clear 8 1014 39 10000 4.12 70 21:26 20.04.2021
3894 Clear 8 1014 36 10000 3.6 70 20:45 20.04.2021
3895 Clear 9 1015 34 10000 4.12 80 20:24 20.04.2021
3896 Clear 9 1015 37 10000 4.12 90 19:57 20.04.2021
3897 Clear 9 1015 37 10000 4.12 90 19:39 20.04.2021
3898 Clear 10 1015 34 10000 4.63 70 19:21 20.04.2021
3899 Clear 10 1015 32 10000 5.66 90 18:36 20.04.2021
3900 Clear 11 1016 30 10000 4.63 90 17:46 20.04.2021
3901 Clear 11 1017 30 10000 4.63 90 17:28 20.04.2021
3902 Clear 11 1017 32 10000 6.17 60 16:49 20.04.2021
3903 Clear 11 1017 28 10000 6.69 90 15:53 20.04.2021
3904 Clear 11 1017 28 10000 6.69 90 15:29 20.04.2021
3905 Clear 12 1018 30 10000 6.69 90 14:58 20.04.2021
3906 Clear 11 1018 30 10000 7.2 60 14:35 20.04.2021
3907 Clear 11 1018 26 10000 5.66 80 13:52 20.04.2021
3908 Clear 11 1019 28 10000 5.66 90 13:22 20.04.2021
3909 Clear 11 1019 28 10000 5.66 90 12:41 20.04.2021
3910 Clear 11 1020 28 10000 5.66 80 12:20 20.04.2021
3911 Clear 10 1020 35 10000 6.17 80 11:44 20.04.2021
3912 Clear 10 1020 35 10000 6.17 80 11:44 20.04.2021
3913 Clear 10 1020 35 10000 5.14 80 11:21 20.04.2021
3914 Clear 9 1020 37 10000 4.12 70 10:43 20.04.2021
3915 Clear 9 1020 37 10000 4.12 70 10:43 20.04.2021
3916 Clear 8 1021 42 10000 3.6 90 10:23 20.04.2021
3917 Clear 8 1021 45 10000 3.09 40 09:28 20.04.2021
3918 Clear 7 1021 45 10000 3.09 40 08:55 20.04.2021
3919 Clear 6 1022 49 10000 4.12 50 08:22 20.04.2021
3920 Clear 6 1022 52 10000 4.12 40 07:47 20.04.2021
3921 Clear 3 1022 56 10000 2.57 30 06:45 20.04.2021
3922 Clear 1 1023 60 10000 3.09 30 05:38 20.04.2021
3923 Clear 1 1023 60 10000 3.09 20 04:41 20.04.2021
3924 Clear 2 1024 64 10000 3.09 30 01:26 20.04.2021
3925 Clear 4 1025 64 10000 2.57 40 00:34 20.04.2021
3926 Clear 4 1026 65 10000 2.57 40 23:36 19.04.2021
3927 Clear 5 1026 49 10000 2.57 60 22:57 19.04.2021
3928 Clear 6 1026 49 10000 2.57 60 22:33 19.04.2021
3929 Clear 6 1026 52 10000 2.57 60 21:50 19.04.2021
3930 Clear 7 1026 52 10000 2.57 60 21:28 19.04.2021
3931 Clear 7 1026 46 10000 2.57 80 20:46 19.04.2021
3932 Clear 7 1026 46 10000 2.57 80 20:25 19.04.2021
3933 -273 0 0 0 0 0 20:01 19.04.2021
3934 Clear 9 1026 40 10000 2.57 120 19:40 19.04.2021
3935 Clear 11 1026 40 10000 3.6 140 19:21 19.04.2021
3936 Clear 11 1026 37 10000 3.6 130 18:45 19.04.2021
3937 Clear 12 1026 37 10000 4.12 120 18:21 19.04.2021
3938 Clear 12 1026 37 10000 4.12 120 18:21 19.04.2021
3939 Clear 12 1026 40 10000 4.63 140 17:50 19.04.2021
3940 Clear 12 1026 37 10000 4.63 130 17:27 19.04.2021
3941 Clear 12 1027 38 10000 5.14 130 16:49 19.04.2021
3942 Clear 12 1027 38 10000 5.14 130 16:49 19.04.2021
3943 Clear 12 1027 38 10000 5.66 130 16:31 19.04.2021
3944 Clear 12 1027 38 10000 5.14 130 15:44 19.04.2021
3945 Clear 12 1027 38 10000 5.14 130 15:24 19.04.2021
3946 Clear 12 1027 41 10000 5.66 130 14:52 19.04.2021
3947 Clear 12 1027 41 10000 5.66 130 14:33 19.04.2021
3948 Clear 13 1028 38 10000 2.57 160 13:53 19.04.2021
3949 Clear 13 1028 38 10000 2.57 160 13:29 19.04.2021
3950 Clear 12 1028 35 10000 4.12 70 12:50 19.04.2021
3951 Clear 12 1029 35 10000 4.12 40 12:29 19.04.2021
3952 Clear 12 1029 37 10000 4.63 50 11:59 19.04.2021
3953 Clear 11 1029 37 10000 4.63 50 11:39 19.04.2021
3954 Clear 11 1029 37 10000 5.66 70 11:19 19.04.2021
3955 Clear 11 1029 40 10000 5.14 40 10:43 19.04.2021
3956 Clear 10 1029 43 10000 5.14 40 10:19 19.04.2021
3957 Clear 10 1029 43 10000 5.14 40 09:42 19.04.2021
3958 Clear 10 1029 50 10000 5.14 50 09:23 19.04.2021
3959 Clear 10 1029 49 10000 4.63 60 08:34 19.04.2021
3960 Clear 8 1029 57 10000 4.12 50 07:50 19.04.2021
3961 Clear 6 1029 61 10000 4.63 50 07:21 19.04.2021
3962 Clear 5 1029 60 10000 3.6 50 06:47 19.04.2021
3963 Clear 4 1030 60 10000 3.6 40 04:40 19.04.2021
3964 Clear 3 1030 70 10000 2.57 30 01:49 19.04.2021
3965 Clear 4 1030 70 10000 2.57 30 00:34 19.04.2021
3966 Clear 5 1029 65 10000 2.06 40 23:21 18.04.2021
3967 Clear 5 1029 65 10000 2.06 40 22:57 18.04.2021
3968 Clear 4 1029 60 10000 1.54 60 22:31 18.04.2021
3969 Clear 8 1029 40 10000 4.12 80 21:53 18.04.2021
3970 Clear 6 1029 53 10000 2.57 90 21:28 18.04.2021
3971 Clear 7 1029 53 10000 2.06 70 20:44 18.04.2021
3972 Clear 7 1029 46 10000 1.54 80 20:25 18.04.2021
3973 Clear 9 1029 46 10000 1.54 80 19:57 18.04.2021
3974 Clear 11 1029 32 10000 2.06 110 19:38 18.04.2021
3975 Clear 12 1028 28 10000 3.6 130 19:18 18.04.2021
3976 Clear 12 1028 28 10000 4.12 140 18:44 18.04.2021
3977 Clear 13 1028 28 10000 4.12 140 18:25 18.04.2021
3978 Clear 14 1028 26 10000 4.63 140 17:45 18.04.2021
3979 Clear 13 1028 26 10000 4.63 140 17:27 18.04.2021
3980 Clear 15 1028 25 10000 5.14 140 16:45 18.04.2021
3981 Clear 15 1028 25 10000 4.63 140 16:24 18.04.2021
3982 Clear 14 1028 25 10000 4.63 170 15:43 18.04.2021
3983 Clear 14 1028 25 10000 4.63 170 15:25 18.04.2021
3984 Clear 15 1029 21 10000 4.63 90 14:46 18.04.2021
3985 Clear 14 1029 21 10000 4.63 30 14:21 18.04.2021
3986 Clear 16 1029 23 10000 4.63 40 13:55 18.04.2021
3987 Clear 14 1029 23 10000 4.63 40 13:34 18.04.2021
3988 Clear 15 1030 23 10000 4.63 60 12:50 18.04.2021
3989 Clear 15 1030 23 10000 4.63 60 12:26 18.04.2021
3990 Clear 13 1030 26 10000 6.17 50 11:42 18.04.2021
3991 Clear 13 1030 26 10000 5.14 60 11:21 18.04.2021
3992 Clear 12 1030 28 10000 5.14 60 10:47 18.04.2021
3993 Clear 11 1030 28 10000 6.17 70 10:22 18.04.2021
3994 Clear 12 1030 30 10000 5.66 50 09:52 18.04.2021
3995 Clear 12 1030 30 10000 5.66 50 09:34 18.04.2021
3996 Clear 10 1030 34 10000 4.12 60 08:56 18.04.2021
3997 Clear 9 1030 40 10000 4.12 50 08:35 18.04.2021
3998 Clear 7 1030 45 10000 4.63 40 07:55 18.04.2021
3999 Clear 6 1030 45 10000 4.63 40 07:37 18.04.2021
4000 Clear 4 1030 56 10000 4.63 30 05:41 18.04.2021
4001 Clear 4 1030 56 10000 4.12 30 05:22 18.04.2021
4002 Clear 5 1030 48 10000 2.57 20 02:39 18.04.2021
4003 Clear 5 1030 52 10000 3.6 30 02:20 18.04.2021
4004 Clear 5 1030 49 10000 2.57 30 00:37 18.04.2021
4005 Clear 6 1030 49 10000 3.09 30 23:33 17.04.2021
4006 Clear 6 1030 45 10000 3.09 40 22:51 17.04.2021
4007 Clear 7 1030 42 10000 2.57 40 22:30 17.04.2021
4008 Clear 7 1030 42 10000 2.57 40 22:30 17.04.2021
4009 Clear 6 1030 49 10000 2.57 30 21:46 17.04.2021
4010 Clear 6 1030 49 10000 2.57 30 21:28 17.04.2021
4011 Clear 8 1029 37 10000 2.57 60 20:43 17.04.2021
4012 Clear 8 1029 37 10000 2.57 60 20:24 17.04.2021
4013 Clear 11 1029 26 10000 3.6 90 19:43 17.04.2021
4014 Clear 12 1029 26 10000 3.6 80 19:20 17.04.2021
4015 Clear 12 1029 26 10000 3.6 80 19:20 17.04.2021
4016 Clear 14 1029 25 10000 4.12 80 18:53 17.04.2021
4017 Clear 13 1029 21 10000 5.14 30 18:25 17.04.2021
4018 Clear 16 1029 20 10000 5.14 40 17:48 17.04.2021
4019 Clear 15 1029 21 10000 4.63 50 17:29 17.04.2021
4020 Clear 14 1029 21 10000 6.17 40 16:41 17.04.2021
4021 Clear 15 1029 20 10000 5.66 50 16:23 17.04.2021
4022 Clear 16 1029 18 10000 4.63 70 15:23 17.04.2021
4023 Clear 16 1029 19 10000 6.69 90 14:44 17.04.2021
4024 Clear 17 1030 19 10000 5.14 70 14:20 17.04.2021
4025 Clear 16 1030 20 10000 6.17 50 13:44 17.04.2021
4026 Clear 15 1030 21 10000 7.72 50 12:55 17.04.2021
4027 Clear 15 1030 21 10000 7.72 50 12:33 17.04.2021
4028 Clear 13 1030 23 10000 7.2 60 11:52 17.04.2021
4029 Clear 13 1030 23 10000 7.2 60 11:33 17.04.2021
4030 Clear 13 1030 23 10000 7.2 60 11:33 17.04.2021
4031 Clear 12 1030 24 10000 7.72 60 10:56 17.04.2021
4032 Clear 11 1030 26 10000 5.66 50 10:38 17.04.2021
4033 Clear 11 1030 30 10000 5.14 50 09:51 17.04.2021
4034 Clear 10 1030 29 10000 6.17 40 08:54 17.04.2021
4035 Clear 9 1030 34 10000 5.14 40 08:33 17.04.2021
4036 Clear 6 1030 42 10000 5.14 40 07:46 17.04.2021
4037 Clear 3 1030 48 10000 4.63 40 05:43 17.04.2021
4038 Clear 4 1030 45 10000 4.63 40 03:46 17.04.2021
4039 Clear 6 1030 39 10000 4.12 40 00:56 17.04.2021
4040 Clear 5 1030 39 10000 4.12 40 00:37 17.04.2021
4041 Clear 5 1030 39 10000 4.12 30 00:18 17.04.2021
4042 Clear 6 1030 42 10000 4.12 30 23:34 16.04.2021
4043 Clear 7 1030 39 10000 4.12 40 22:52 16.04.2021
4044 Clear 7 1030 39 10000 4.12 40 22:24 16.04.2021
4045 Clear 7 1030 39 10000 4.12 40 21:57 16.04.2021
4046 Clear 7 1029 39 10000 3.6 30 21:39 16.04.2021
4047 Clear 8 1029 36 10000 3.6 30 20:56 16.04.2021
4048 Clear 8 1029 36 10000 3.6 30 20:37 16.04.2021
4049 Clear 8 1029 31 10000 4.12 40 19:58 16.04.2021
4050 Clear 9 1029 29 10000 4.63 40 19:40 16.04.2021
4051 Clear 10 1029 28 10000 5.66 50 19:18 16.04.2021
4052 Clear 11 1028 26 10000 7.2 40 18:25 16.04.2021
4053 Clear 12 1028 24 10000 6.69 50 17:49 16.04.2021
4054 Clear 13 1028 24 10000 7.2 50 17:20 16.04.2021
4055 Clear 13 1028 22 10000 6.69 30 16:45 16.04.2021
4056 Clear 13 1028 21 10000 6.69 60 16:26 16.04.2021
4057 Clear 13 1028 21 10000 6.69 60 15:55 16.04.2021
4058 Clear 14 1029 23 10000 6.69 40 15:29 16.04.2021
4059 Clear 13 1029 24 10000 6.69 30 14:44 16.04.2021
4060 Clear 13 1029 24 10000 8.23 50 14:23 16.04.2021
4061 Clear 13 1029 24 10000 8.23 50 13:55 16.04.2021
4062 Clear 12 1029 26 10000 7.2 40 13:22 16.04.2021
4063 Clear 11 1030 28 10000 6.17 50 12:53 16.04.2021
4064 Clouds 11 1030 31 10000 6.26 105 12:33 16.04.2021
4065 Clear 10 1030 25 10000 6.69 60 11:59 16.04.2021
4066 Clear 10 1030 29 10000 6.69 60 11:39 16.04.2021
4067 Clear 10 1030 32 10000 8.23 60 11:20 16.04.2021
4068 Clear 8 1030 34 10000 8.23 60 10:40 16.04.2021
4069 Clear 8 1030 34 10000 7.72 60 10:20 16.04.2021
4070 Clear 8 1030 36 10000 6.69 50 09:44 16.04.2021
4071 Clear 7 1030 42 10000 6.17 50 09:21 16.04.2021
4072 Clear 6 1030 45 10000 6.69 50 08:42 16.04.2021
4073 Clear 5 1030 45 10000 5.66 40 08:18 16.04.2021
4074 Clear 5 1030 48 10000 5.14 40 07:41 16.04.2021
4075 Clear 3 1030 52 10000 4.12 40 06:59 16.04.2021
4076 Clear 2 1030 60 10000 3.6 30 06:28 16.04.2021
4077 Clear 1 1030 60 10000 2.57 20 04:23 16.04.2021
4078 Clear 2 1030 60 10000 3.6 30 01:40 16.04.2021
4079 Clear 2 1030 56 10000 3.6 30 00:44 16.04.2021
4080 Clear 2 1030 56 10000 3.09 30 00:20 16.04.2021
4081 Clear 0 1030 69 10000 2.57 30 23:51 15.04.2021
4082 Clear 1 1030 69 10000 2.57 30 23:27 15.04.2021
4083 Clear 1 1030 80 10000 2.06 60 22:47 15.04.2021
4084 Clear 1 1030 80 10000 2.06 60 22:23 15.04.2021
4085 Clear 2 1030 69 10000 0.51 0 21:43 15.04.2021
4086 Clear 3 1030 69 10000 0.51 0 21:24 15.04.2021
4087 Clear 4 1029 56 10000 0.51 270 20:47 15.04.2021
4088 Clear 6 1029 45 10000 2.06 180 20:25 15.04.2021
4089 Clear 7 1029 39 10000 2.57 90 19:47 15.04.2021
4090 Clear 8 1029 34 10000 4.12 20 19:28 15.04.2021
4091 Clear 8 1029 34 10000 4.63 20 18:59 15.04.2021
4092 Clear 8 1029 34 10000 4.63 20 18:37 15.04.2021
4093 Clear 9 1029 32 10000 4.12 20 18:18 15.04.2021
4094 Clear 10 1029 32 10000 5.14 20 17:44 15.04.2021
4095 Clear 10 1029 32 10000 5.14 20 17:24 15.04.2021
4096 Clear 10 1029 32 10000 4.63 30 16:43 15.04.2021
4097 Clear 9 1029 32 10000 4.63 20 16:24 15.04.2021
4098 Clear 10 1029 32 10000 4.12 30 15:47 15.04.2021
4099 Clear 10 1029 32 10000 4.12 30 15:27 15.04.2021
4100 Clear 10 1030 30 10000 4.63 10 14:43 15.04.2021
4101 Clear 10 1030 34 10000 4.63 10 14:25 15.04.2021
4102 Clear 10 1030 32 10000 4.63 20 13:48 15.04.2021
4103 Clear 9 1031 31 10000 3.6 30 13:23 15.04.2021
4104 Clear 9 1031 34 10000 4.63 10 12:49 15.04.2021
4105 Clear 9 1031 34 10000 4.63 10 12:26 15.04.2021
4106 Clear 8 1031 36 10000 5.66 40 11:48 15.04.2021
4107 Clear 8 1031 36 10000 5.66 40 11:27 15.04.2021
4108 Clear 8 1031 36 10000 5.66 50 11:27 15.04.2021
4109 Clear 7 1031 36 10000 5.66 50 10:58 15.04.2021
4110 Clear 7 1031 36 10000 6.17 30 10:39 15.04.2021
4111 Clear 7 1031 36 10000 5.66 50 10:20 15.04.2021
4112 Clear 6 1031 45 10000 4.63 50 09:30 15.04.2021
4113 Clear 5 1031 48 10000 4.63 50 08:52 15.04.2021
4114 Clear 5 1031 48 10000 4.63 50 08:29 15.04.2021
4115 Clear 2 1030 60 10000 3.6 30 07:36 15.04.2021
4116 Clear 1 1030 64 10000 3.6 20 06:56 15.04.2021
4117 Clear 0 1030 69 10000 2.57 10 06:35 15.04.2021
4118 Clear -1 1029 74 10000 2.06 340 04:54 15.04.2021
4119 Clear 0 1028 74 10000 1.54 340 03:58 15.04.2021
4120 Clear -1 1027 86 10000 3.09 340 23:51 14.04.2021
4121 Clear -1 1027 86 10000 3.09 340 23:30 14.04.2021
4122 Clear 1 1026 69 10000 2.57 360 22:47 14.04.2021
4123 Clear 1 1026 69 10000 2.57 360 22:29 14.04.2021
4124 Clear 4 1026 52 10000 2.57 10 21:56 14.04.2021
4125 Clear 4 1026 52 10000 2.57 10 21:37 14.04.2021
4126 Clear 4 1025 52 10000 2.57 360 21:18 14.04.2021
4127 Clear 4 1025 48 10000 2.57 350 20:37 14.04.2021
4128 Clear 5 1025 48 10000 3.09 330 20:19 14.04.2021
4129 Clear 7 1024 45 10000 3.09 320 19:39 14.04.2021
4130 Clear 7 1024 42 10000 4.12 320 19:18 14.04.2021
4131 Clear 7 1024 42 10000 4.12 320 18:50 14.04.2021
4132 Clear 8 1023 39 10000 4.12 300 18:19 14.04.2021
4133 Clear 8 1023 39 10000 4.12 300 17:55 14.04.2021
4134 Clear 8 1023 39 10000 4.12 320 17:24 14.04.2021
4135 Clear 8 1023 37 10000 4.12 320 16:43 14.04.2021
4136 Clear 8 1022 37 10000 4.63 320 16:22 14.04.2021
4137 Clear 8 1022 37 10000 3.09 290 15:40 14.04.2021
4138 Clear 8 1022 36 10000 3.09 250 15:22 14.04.2021
4139 Clear 8 1022 36 10000 3.6 290 14:42 14.04.2021
4140 Clouds 8 1022 37 10000 4.63 280 14:22 14.04.2021
4141 Clouds 8 1022 42 10000 4.12 270 13:48 14.04.2021
4142 Clouds 8 1021 49 10000 3.6 270 12:54 14.04.2021
4143 Clouds 7 1021 49 10000 3.6 270 12:32 14.04.2021
4144 Clouds 6 1021 61 10000 3.6 270 11:42 14.04.2021
4145 Clouds 5 1021 70 10000 2.57 270 11:23 14.04.2021
4146 Clouds 4 1021 75 10000 2.57 270 10:35 14.04.2021
4147 Clouds 3 1021 87 10000 3.6 280 09:57 14.04.2021
4148 Clouds 3 1021 87 10000 3.6 280 09:57 14.04.2021
4149 Clouds 3 1021 87 10000 3.6 300 09:38 14.04.2021
4150 Clouds 3 1021 87 10000 4.12 290 09:18 14.04.2021
4151 Clouds 2 1021 93 10000 3.09 290 08:33 14.04.2021
4152 Clouds 2 1020 93 10000 4.12 260 07:51 14.04.2021
4153 Clouds 1 1020 93 10000 3.09 260 06:39 14.04.2021
4154 Clouds 1 1019 93 10000 3.6 260 05:52 14.04.2021
4155 Clear 1 1019 100 10000 1.54 250 03:44 14.04.2021
4156 Clear 2 1019 87 10000 2.57 230 01:28 14.04.2021
4157 Clear 2 1019 80 10000 2.57 220 00:34 14.04.2021
4158 Clear 3 1019 70 10000 2.06 220 23:39 13.04.2021
4159 Clear 3 1019 70 10000 2.06 220 22:55 13.04.2021
4160 Clear 4 1019 75 10000 2.57 220 22:36 13.04.2021
4161 Clear 4 1020 75 10000 2.57 230 22:18 13.04.2021
4162 Clear 4 1020 70 10000 2.57 230 21:40 13.04.2021
4163 Clear 4 1020 65 10000 3.6 230 21:20 13.04.2021
4164 Clear 5 1020 60 10000 4.12 230 20:39 13.04.2021
4165 Clear 5 1019 60 10000 4.63 220 20:20 13.04.2021
4166 Clear 6 1019 61 10000 4.63 230 19:27 13.04.2021
4167 Clouds 7 1019 53 10000 5.14 210 18:58 13.04.2021
4168 Clouds 7 1019 53 10000 5.14 210 18:35 13.04.2021
4169 Clouds 8 1019 49 10000 5.14 240 17:45 13.04.2021
4170 Clouds 8 1019 49 10000 5.14 240 17:23 13.04.2021
4171 Clouds 8 1019 46 10000 6.17 240 16:57 13.04.2021
4172 Clouds 8 1019 46 10000 6.17 240 16:38 13.04.2021
4173 Clouds 8 1019 49 10000 6.17 230 16:19 13.04.2021
4174 Clouds 8 1019 43 10000 4.63 230 15:39 13.04.2021
4175 Clouds 9 1019 49 10000 4.63 190 14:59 13.04.2021
4176 Clouds 9 1019 49 10000 4.12 200 14:38 13.04.2021
4177 Clouds 9 1019 46 10000 4.63 220 14:18 13.04.2021
4178 Clouds 8 1019 53 10000 6.17 220 13:41 13.04.2021
4179 Clouds 8 1019 53 10000 5.14 220 13:22 13.04.2021
4180 Rain 8 1019 53 10000 4.63 260 12:52 13.04.2021
4181 Clouds 9 1019 49 10000 4.12 230 12:23 13.04.2021
4182 Clouds 8 1019 57 10000 3.6 190 11:40 13.04.2021
4183 Clouds 7 1019 65 10000 3.09 200 11:18 13.04.2021
4184 Clouds 7 1019 65 10000 2.57 190 10:41 13.04.2021
4185 Clear 6 1019 70 10000 3.09 220 10:20 13.04.2021
4186 Clear 6 1019 70 10000 3.09 220 09:52 13.04.2021
4187 Clear 6 1019 70 10000 3.09 220 09:26 13.04.2021
4188 Clear 6 1018 81 10000 2.57 240 08:49 13.04.2021
4189 Rain 6 1018 75 10000 2.57 260 08:24 13.04.2021
4190 Clouds 5 1018 81 10000 3.09 260 07:51 13.04.2021
4191 Clouds 5 1018 81 10000 3.09 260 07:29 13.04.2021
4192 Clouds 5 1017 87 10000 5.14 260 06:27 13.04.2021
4193 Clouds 7 1016 81 10000 3.6 240 03:44 13.04.2021
4194 Clouds 8 1016 76 10000 2.57 240 01:34 13.04.2021
4195 Clear 8 1015 66 10000 2.57 160 23:55 12.04.2021
4196 Clear 8 1015 66 10000 2.57 160 23:33 12.04.2021
4197 Clear 9 1016 66 10000 2.57 140 22:55 12.04.2021
4198 Clear 9 1016 66 10000 2.57 140 22:36 12.04.2021
4199 Clear 8 1016 70 10000 1.54 110 21:49 12.04.2021
4200 Clear 9 1016 57 10000 2.06 180 21:25 12.04.2021
4201 Clear 9 1016 57 10000 2.06 180 20:59 12.04.2021
4202 Clear 9 1016 57 10000 1.54 180 20:36 12.04.2021
4203 Clear 10 1016 53 10000 1.54 170 20:18 12.04.2021
4204 Clear 11 1016 47 10000 3.6 190 19:40 12.04.2021
4205 Clear 12 1016 44 10000 4.12 180 19:21 12.04.2021
4206 Clear 12 1016 47 10000 3.6 160 18:51 12.04.2021
4207 Clear 12 1016 47 10000 3.6 160 18:33 12.04.2021
4208 Clear 12 1016 50 10000 3.09 160 17:59 12.04.2021
4209 Clear 13 1016 47 10000 3.09 170 17:41 12.04.2021
4210 Clear 13 1016 47 10000 4.12 160 17:19 12.04.2021
4211 Clear 13 1016 44 10000 4.12 170 16:41 12.04.2021
4212 Clear 14 1016 44 10000 4.12 160 16:23 12.04.2021
4213 Clear 14 1016 47 10000 4.12 160 15:45 12.04.2021
4214 Clear 14 1016 44 10000 4.63 160 14:59 12.04.2021
4215 Clear 14 1017 44 10000 4.12 150 14:40 12.04.2021
4216 Clear 13 1017 44 10000 5.66 160 14:22 12.04.2021
4217 Clear 13 1017 44 10000 5.66 150 13:41 12.04.2021
4218 Clear 12 1017 47 10000 5.14 170 13:19 12.04.2021
4219 Clear 12 1017 50 10000 5.14 150 12:44 12.04.2021
4220 Clear 11 1017 50 10000 5.66 150 12:23 12.04.2021
4221 Clear 11 1017 50 10000 6.17 150 11:41 12.04.2021
4222 Clear 10 1017 54 10000 6.69 150 10:51 12.04.2021
4223 Clear 10 1017 54 10000 6.69 150 10:51 12.04.2021
4224 Clear 10 1017 54 10000 6.69 150 10:28 12.04.2021
4225 Clear 9 1017 61 10000 5.14 140 09:53 12.04.2021
4226 Clear 9 1017 61 10000 5.14 140 09:25 12.04.2021
4227 Clear 8 1017 66 10000 5.14 120 08:54 12.04.2021
4228 Clear 7 1017 70 10000 4.63 120 07:58 12.04.2021
4229 Clear 6 1017 70 10000 4.12 110 07:30 12.04.2021
4230 Clear 5 1018 75 10000 4.12 110 06:40 12.04.2021
4231 Clear 5 1018 70 10000 6.17 100 05:48 12.04.2021
4232 Clear 5 1020 65 10000 5.14 70 03:19 12.04.2021
4233 Rain 5 1023 70 10000 5.14 90 00:30 12.04.2021
4234 Rain 6 1023 56 10000 5.14 90 23:56 11.04.2021
4235 Rain 6 1024 52 10000 4.12 90 23:38 11.04.2021
4236 Clouds 6 1024 45 10000 3.6 90 23:19 11.04.2021
4237 Clear 5 1024 52 10000 4.63 140 22:38 11.04.2021
4238 Clear 5 1024 52 10000 4.12 90 22:19 11.04.2021
4239 Clear 5 1024 60 10000 3.6 80 21:42 11.04.2021
4240 Clear 5 1024 60 10000 3.09 80 21:24 11.04.2021
4241 Clear 5 1024 60 10000 3.09 90 20:42 11.04.2021
4242 Clear 5 1024 49 10000 4.12 110 20:23 11.04.2021
4243 Clear 6 1024 39 10000 2.57 110 19:43 11.04.2021
4244 Clear 6 1023 34 10000 4.12 120 19:21 11.04.2021
4245 Clear 7 1023 34 10000 4.12 120 18:57 11.04.2021
4246 Clear 8 1023 31 10000 3.09 130 18:39 11.04.2021
4247 Clear 9 1023 29 10000 2.63 118 18:20 11.04.2021
4248 Clear 9 1023 29 10000 2.06 150 17:40 11.04.2021
4249 Clear 9 1024 29 10000 3.6 180 17:22 11.04.2021
4250 Clear 9 1024 29 10000 4.63 170 16:42 11.04.2021
4251 Clear 9 1023 40 10000 5.66 170 16:21 11.04.2021
4252 Clouds 9 1023 28 10000 4.12 170 15:46 11.04.2021
4253 Clouds 9 1023 28 10000 4.12 170 15:46 11.04.2021
4254 Clouds 9 1023 28 10000 4.12 170 15:26 11.04.2021
4255 Clouds 9 1023 46 10000 4.63 170 14:51 11.04.2021
4256 Clouds 9 1023 53 10000 5.14 180 14:24 11.04.2021
4257 Clouds 8 1023 57 10000 4.63 170 13:44 11.04.2021
4258 Clouds 8 1023 57 10000 4.63 170 13:26 11.04.2021
4259 Clouds 8 1022 49 10000 5.14 200 12:40 11.04.2021
4260 Clouds 8 1022 49 10000 5.14 210 12:20 11.04.2021
4261 Clouds 7 1022 53 10000 5.66 240 11:45 11.04.2021
4262 Clouds 7 1022 61 10000 3.6 210 11:20 11.04.2021
4263 Clouds 7 1021 65 10000 4.12 210 10:45 11.04.2021
4264 Clouds 6 1021 70 10000 3.6 180 10:23 11.04.2021
4265 Clouds 6 1020 75 10000 3.09 180 09:50 11.04.2021
4266 Clouds 5 1020 75 10000 3.09 180 09:29 11.04.2021
4267 Clouds 4 1019 87 10000 5.14 190 08:40 11.04.2021
4268 Clouds 3 1018 87 10000 4.12 200 07:54 11.04.2021
4269 Clouds 2 1018 93 10000 4.12 200 07:19 11.04.2021
4270 Clouds 1 1016 93 10000 5.14 200 05:55 11.04.2021
4271 Clouds 1 1016 93 10000 4.63 210 05:23 11.04.2021
4272 Clouds 1 1015 93 10000 5.14 200 04:51 11.04.2021
4273 Clouds 1 1015 93 10000 5.14 200 04:33 11.04.2021
4274 Clear 2 1014 87 10000 5.66 200 01:27 11.04.2021
4275 Clear 2 1013 87 10000 6.17 200 00:32 11.04.2021
4276 Clear 2 1013 87 10000 6.17 200 23:46 10.04.2021
4277 Clear 2 1012 87 10000 5.14 190 22:57 10.04.2021
4278 Clear 2 1012 87 10000 5.14 190 22:28 10.04.2021
4279 Clear 2 1012 87 10000 5.14 190 22:28 10.04.2021
4280 Clear 2 1012 87 10000 5.14 200 21:54 10.04.2021
4281 Clear 2 1011 87 10000 5.66 210 21:25 10.04.2021
4282 Clear 2 1011 87 10000 6.17 210 20:57 10.04.2021
4283 Clear 2 1011 87 10000 6.17 200 20:37 10.04.2021
4284 Clear 2 1010 87 10000 5.14 210 20:19 10.04.2021
4285 Clouds 3 1010 87 10000 5.66 210 19:42 10.04.2021
4286 Clouds 3 1010 87 10000 5.66 210 19:24 10.04.2021
4287 Clouds 4 1008 75 10000 7.2 210 18:42 10.04.2021
4288 Clouds 4 1008 70 10000 7.72 220 18:23 10.04.2021
4289 Clouds 4 1008 70 10000 8.75 220 17:36 10.04.2021
4290 Clouds 4 1007 75 10000 7.72 220 16:43 10.04.2021
4291 Clouds 4 1006 81 10000 6.69 220 16:24 10.04.2021
4292 Clouds 4 1006 87 7000 8.23 230 15:49 10.04.2021
4293 Clouds 4 1006 93 1000 10.29 230 14:55 10.04.2021
4294 Clouds 4 1006 93 1000 10.29 230 14:37 10.04.2021
4295 Clouds 4 1005 81 10000 10.8 220 13:58 10.04.2021
4296 Rain 4 1004 81 10000 8.75 220 13:36 10.04.2021
4297 Clouds 4 1004 87 10000 9.26 210 12:43 10.04.2021
4298 Clouds 3 1004 93 7000 6.17 210 12:20 10.04.2021
4299 Snow 2 1003 100 1500 7.2 220 11:46 10.04.2021
4300 Snow 3 1003 93 2000 8.23 210 11:23 10.04.2021
4301 Rain 3 1002 87 8000 10.8 200 10:51 10.04.2021
4302 Rain 3 1002 87 8000 10.8 200 10:31 10.04.2021
4303 Clouds 4 1001 75 10000 10.8 200 09:45 10.04.2021
4304 Clouds 4 1001 75 10000 11.83 200 09:19 10.04.2021
4305 Clouds 4 1000 81 10000 9.26 200 08:36 10.04.2021
4306 Clouds 3 1000 87 10000 9.77 200 08:18 10.04.2021
4307 Clouds 3 1000 81 10000 9.26 200 07:26 10.04.2021
4308 Clouds 3 1000 87 10000 8.23 190 06:42 10.04.2021
4309 Clouds 3 999 87 10000 9.26 200 05:36 10.04.2021
4310 Clouds 4 998 81 10000 9.77 210 03:42 10.04.2021
4311 Clouds 4 998 81 10000 10.29 200 02:48 10.04.2021
4312 Clouds 4 998 87 10000 10.29 210 01:28 10.04.2021
4313 Clouds 4 997 87 10000 11.32 200 00:37 10.04.2021
4314 Clouds 4 997 87 10000 12.35 200 23:55 09.04.2021
4315 Clouds 4 997 87 10000 11.83 200 23:30 09.04.2021
4316 Clouds 3 997 93 10000 12.35 190 22:54 09.04.2021
4317 Rain 3 997 93 10000 12.35 190 22:36 09.04.2021
4318 Clouds 3 997 93 10000 13.38 190 21:41 09.04.2021
4319 Rain 3 997 93 10000 13.38 190 21:22 09.04.2021
4320 Clouds 3 997 93 10000 12.35 190 20:57 09.04.2021
4321 Clouds 3 997 93 10000 12.35 190 20:39 09.04.2021
4322 Clouds 3 997 93 10000 12.86 190 20:20 09.04.2021
4323 Clouds 3 997 93 10000 13.38 190 19:43 09.04.2021
4324 Clouds 3 997 93 10000 13.89 190 19:22 09.04.2021
4325 Clouds 2 997 93 10000 13.89 190 18:43 09.04.2021
4326 Clouds 3 997 87 10000 14.92 190 18:25 09.04.2021
4327 Clouds 2 996 93 10000 13.89 190 17:48 09.04.2021
4328 Clouds 2 996 93 10000 13.89 190 17:29 09.04.2021
4329 Snow 2 997 93 7000 11.32 190 16:47 09.04.2021
4330 Snow 2 996 93 8000 12.86 190 16:28 09.04.2021
4331 Snow 2 996 93 7000 11.83 190 15:44 09.04.2021
4332 Snow 3 996 93 10000 12.35 190 15:24 09.04.2021
4333 Snow 3 997 93 7000 12.35 190 14:46 09.04.2021
4334 Snow 3 997 93 10000 11.32 190 14:22 09.04.2021
4335 Rain 3 997 93 10000 11.32 190 13:45 09.04.2021
4336 Rain 3 997 93 10000 11.83 190 13:22 09.04.2021
4337 Rain 3 997 93 10000 11.83 180 12:47 09.04.2021
4338 Clouds 3 998 87 9000 10.8 180 12:23 09.04.2021
4339 Clouds 3 998 93 8000 9.77 170 11:42 09.04.2021
4340 Snow 2 998 93 7000 9.77 170 11:20 09.04.2021
4341 Snow 2 999 93 7000 9.26 170 10:37 09.04.2021
4342 Snow 2 1000 93 7000 8.75 180 09:56 09.04.2021
4343 Snow 3 1000 93 7000 8.75 180 09:27 09.04.2021
4344 Rain 3 1000 81 10000 9.77 180 08:55 09.04.2021
4345 Clouds 3 1001 81 10000 8.23 190 08:28 09.04.2021
4346 Clouds 2 1002 93 10000 6.69 180 07:21 09.04.2021
4347 Clouds 2 1002 87 10000 6.17 180 06:26 09.04.2021
4348 Clouds 1 1003 80 10000 4.12 160 03:57 09.04.2021
4349 Clear 1 1004 80 10000 5.14 160 03:39 09.04.2021
4350 Clear -1 1005 74 10000 2.57 210 00:39 09.04.2021
4351 Clear -1 1005 80 10000 2.57 230 00:21 09.04.2021
4352 Clear 0 1005 74 10000 3.6 230 23:32 08.04.2021
4353 Clear 0 1005 69 10000 3.6 240 22:51 08.04.2021
4354 Clear 1 1005 69 10000 3.6 240 22:27 08.04.2021
4355 Clear 1 1005 69 10000 3.6 240 21:58 08.04.2021
4356 Clear 1 1004 60 10000 4.12 240 21:40 08.04.2021
4357 Clear 1 1004 60 10000 4.12 240 21:40 08.04.2021
4358 Clear 1 1004 55 10000 3.6 240 21:21 08.04.2021
4359 Clear 1 1004 55 10000 3.09 260 20:54 08.04.2021
4360 Clear 2 1004 55 10000 3.09 260 20:34 08.04.2021
4361 Clear 4 1004 44 10000 3.6 270 19:57 08.04.2021
4362 Clear 5 1003 41 10000 5.66 270 19:25 08.04.2021
4363 Clear 5 1003 41 10000 5.66 270 18:57 08.04.2021
4364 Clear 5 1003 36 10000 5.14 270 18:24 08.04.2021
4365 Clear 5 1003 38 10000 6.17 280 17:55 08.04.2021
4366 Clouds 7 1002 31 10000 7.2 270 17:27 08.04.2021
4367 Clouds 6 1002 33 10000 5.66 300 16:57 08.04.2021
4368 Clouds 6 1002 33 10000 5.66 300 16:36 08.04.2021
4369 Clouds 7 1002 33 10000 6.69 290 15:56 08.04.2021
4370 Clouds 7 1002 33 10000 6.17 280 15:37 08.04.2021
4371 Clouds 7 1002 39 10000 5.66 270 15:19 08.04.2021
4372 Clouds 7 1002 31 10000 6.69 290 14:40 08.04.2021
4373 Clouds 7 1002 31 10000 6.69 290 14:40 08.04.2021
4374 Clouds 6 1001 36 10000 7.72 290 14:20 08.04.2021
4375 Clear 7 1001 29 10000 7.72 280 13:44 08.04.2021
4376 Clear 7 1001 31 10000 6.17 290 13:23 08.04.2021
4377 Clear 6 1001 31 10000 6.69 300 12:53 08.04.2021
4378 Clear 6 1001 31 10000 6.69 300 12:32 08.04.2021
4379 Clear 6 1001 36 10000 6.69 310 11:56 08.04.2021
4380 Clouds 6 1000 39 10000 5.66 300 11:21 08.04.2021
4381 Clouds 5 1000 45 10000 6.69 290 10:49 08.04.2021
4382 Clouds 5 1000 45 10000 6.69 290 10:25 08.04.2021
4383 Clouds 3 1000 65 10000 4.63 280 09:43 08.04.2021
4384 Clear 3 1000 80 10000 3.09 280 08:54 08.04.2021
4385 Clear 2 1000 80 10000 3.09 280 08:36 08.04.2021
4386 Clouds 0 1000 93 10000 3.09 290 08:18 08.04.2021
4387 Clouds 1 1000 93 10000 3.6 290 07:42 08.04.2021
4388 Clouds 1 999 100 10000 3.09 290 04:56 08.04.2021
4389 Clouds 1 998 93 10000 2.06 210 01:25 08.04.2021
4390 Clouds 1 998 86 10000 2.06 220 00:30 08.04.2021
4391 Clouds 1 998 93 10000 1.54 180 23:47 07.04.2021
4392 Clouds 1 998 93 10000 1.54 180 23:47 07.04.2021
4393 Clouds 1 998 93 10000 2.57 180 23:24 07.04.2021
4394 Clouds 1 998 86 10000 3.6 170 22:55 07.04.2021
4395 Clouds 1 998 86 10000 3.6 170 22:37 07.04.2021
4396 Clear 2 998 87 10000 3.6 190 21:58 07.04.2021
4397 Clear 2 998 87 10000 3.6 190 21:34 07.04.2021
4398 Clear 2 998 87 10000 4.12 180 20:51 07.04.2021
4399 Clouds 3 998 81 10000 5.14 180 20:28 07.04.2021
4400 Clouds 4 998 75 10000 4.63 160 19:50 07.04.2021
4401 Clouds 4 998 75 10000 4.63 160 19:31 07.04.2021
4402 Clouds 5 997 60 10000 3.6 180 18:56 07.04.2021
4403 Clouds 5 997 65 10000 5.14 200 18:23 07.04.2021
4404 Clouds 5 997 60 10000 5.14 200 17:59 07.04.2021
4405 Clouds 5 997 65 10000 5.66 210 17:41 07.04.2021
4406 Clouds 5 997 60 10000 5.66 210 16:59 07.04.2021
4407 Clouds 5 997 60 10000 5.66 230 16:40 07.04.2021
4408 Clouds 5 997 61 10000 5.14 190 16:21 07.04.2021
4409 Clouds 6 996 61 10000 5.66 190 15:53 07.04.2021
4410 Clouds 6 996 61 10000 5.66 200 15:25 07.04.2021
4411 Clouds 5 996 65 10000 6.17 190 14:42 07.04.2021
4412 Clouds 5 996 65 10000 7.2 180 14:19 07.04.2021
4413 Clouds 5 996 65 10000 7.2 180 13:38 07.04.2021
4414 Clouds 4 996 70 10000 7.72 180 13:20 07.04.2021
4415 Clouds 4 996 70 10000 6.69 180 12:42 07.04.2021
4416 Clouds 4 996 70 10000 8.23 180 12:18 07.04.2021
4417 Clouds 3 995 81 10000 7.72 180 11:41 07.04.2021
4418 Clouds 3 995 81 10000 5.66 180 11:21 07.04.2021
4419 Clouds 4 995 75 10000 7.72 190 10:46 07.04.2021
4420 Clouds 3 994 75 10000 7.2 180 09:47 07.04.2021
4421 Clouds 3 994 75 10000 7.2 180 09:28 07.04.2021
4422 Clouds 3 994 80 10000 7.2 190 08:51 07.04.2021
4423 Clouds 2 994 80 10000 7.72 190 08:26 07.04.2021
4424 Clouds 2 993 80 10000 7.72 190 07:48 07.04.2021
4425 Clouds 2 993 80 10000 7.72 190 07:28 07.04.2021
4426 Clouds 2 993 80 10000 6.69 190 06:39 07.04.2021
4427 Clouds 2 992 80 10000 8.23 190 04:37 07.04.2021
4428 Clouds 2 990 80 10000 9.26 200 01:21 07.04.2021
4429 Clouds 3 989 75 10000 9.26 200 23:47 06.04.2021
4430 Clear 3 989 70 10000 9.26 190 23:22 06.04.2021
4431 Clear 3 989 70 10000 8.75 200 22:50 06.04.2021
4432 Clear 3 988 70 10000 8.75 200 22:21 06.04.2021
4433 Clear 3 988 70 10000 8.23 210 21:44 06.04.2021
4434 Clear 3 988 70 10000 8.23 210 21:23 06.04.2021
4435 Clear 3 988 70 10000 8.75 200 20:57 06.04.2021
4436 Clear 3 988 70 10000 9.77 200 20:36 06.04.2021
4437 Clear 3 988 70 10000 9.26 210 20:18 06.04.2021
4438 Clouds 3 987 70 10000 9.77 210 19:41 06.04.2021
4439 Clouds 3 987 70 10000 9.77 210 19:23 06.04.2021
4440 Clouds 3 987 70 10000 10.29 210 18:43 06.04.2021
4441 Clouds 3 987 65 10000 8.75 210 18:20 06.04.2021
4442 Clouds 4 986 60 10000 9.77 220 17:45 06.04.2021
4443 Clouds 4 986 60 10000 11.83 210 17:19 06.04.2021
4444 Clouds 4 986 60 10000 10.29 210 16:46 06.04.2021
4445 Clouds 4 986 60 10000 10.29 210 16:27 06.04.2021
4446 Clouds 3 985 75 10000 10.8 220 15:27 06.04.2021
4447 Clouds 4 984 56 10000 11.32 210 14:47 06.04.2021
4448 Clouds 4 984 56 10000 11.32 210 14:28 06.04.2021
4449 Clouds 4 984 60 10000 9.77 210 13:47 06.04.2021
4450 Clouds 4 984 60 10000 9.77 210 13:27 06.04.2021
4451 Clouds 4 984 56 10000 11.83 210 12:58 06.04.2021
4452 Clouds 4 983 65 10000 9.26 210 12:37 06.04.2021
4453 Clouds 5 983 60 10000 10.29 210 12:18 06.04.2021
4454 Clouds 4 983 56 10000 9.77 210 11:43 06.04.2021
4455 Clouds 4 983 65 10000 8.23 210 11:20 06.04.2021
4456 Clouds 4 982 65 10000 10.29 200 10:44 06.04.2021
4457 Clouds 3 982 75 10000 7.72 180 10:22 06.04.2021
4458 Clouds 2 982 87 10000 7.2 190 09:45 06.04.2021
4459 Snow 1 982 93 10000 7.72 180 09:25 06.04.2021
4460 Snow 1 982 100 2500 6.17 180 08:34 06.04.2021
4461 Snow 1 981 86 3000 9.26 190 07:32 06.04.2021
4462 Snow 0 981 86 1200 7.72 180 06:54 06.04.2021
4463 Clouds 0 981 80 10000 7.72 190 04:52 06.04.2021
4464 Clouds 0 982 80 10000 6.69 190 00:59 06.04.2021
4465 Clouds 0 982 80 10000 6.17 200 00:38 06.04.2021
4466 Clouds 0 982 80 10000 7.2 200 00:20 06.04.2021
4467 Clouds 0 982 80 10000 5.14 200 23:41 05.04.2021
4468 Clouds 0 982 80 10000 6.69 200 23:18 05.04.2021
4469 Clouds 0 982 74 10000 6.69 210 22:41 05.04.2021
4470 Clouds 0 981 69 10000 10.29 210 22:20 05.04.2021
4471 Snow 1 981 64 10000 10.29 200 21:38 05.04.2021
4472 Snow 1 981 64 10000 7.72 200 21:19 05.04.2021
4473 Clouds 1 981 64 10000 8.75 200 20:42 05.04.2021
4474 Clouds 1 981 64 10000 8.75 200 20:42 05.04.2021
4475 Snow 1 981 64 10000 8.75 200 20:42 05.04.2021
4476 Clouds 1 981 60 10000 8.23 210 20:22 05.04.2021
4477 Clouds 1 981 64 10000 8.75 210 19:38 05.04.2021
4478 Clouds 2 981 55 10000 9.77 210 19:19 05.04.2021
4479 Clouds 2 981 55 10000 10.8 210 18:42 05.04.2021
4480 Clouds 2 980 51 10000 11.32 210 18:20 05.04.2021
4481 Clouds 2 980 64 10000 9.26 210 17:47 05.04.2021
4482 Clouds 2 980 69 10000 12.35 210 17:24 05.04.2021
4483 Clouds 2 979 75 10000 11.32 200 16:47 05.04.2021
4484 Clouds 3 979 75 10000 10.8 200 16:23 05.04.2021
4485 Clouds 3 979 75 10000 10.8 200 16:23 05.04.2021
4486 Clouds 3 979 75 10000 10.8 200 15:58 05.04.2021
4487 Clouds 3 979 75 10000 10.29 200 15:38 05.04.2021
4488 Clouds 3 979 75 10000 8.75 190 15:20 05.04.2021
4489 Clouds 2 979 87 10000 8.23 200 14:36 05.04.2021
4490 Snow 3 978 87 10000 9.77 210 13:52 05.04.2021
4491 Snow 3 978 87 10000 9.77 210 13:27 05.04.2021
4492 Rain 3 978 93 10000 8.23 190 12:47 05.04.2021
4493 Rain 4 978 93 10000 8.75 190 12:25 05.04.2021
4494 Clouds 4 978 93 10000 8.75 200 11:48 05.04.2021
4495 Rain 3 978 93 10000 8.75 200 11:30 05.04.2021
4496 Rain 3 978 93 10000 11.32 200 10:55 05.04.2021
4497 Rain 3 978 93 7000 11.83 190 10:35 05.04.2021
4498 Rain 3 978 100 4000 11.32 190 09:48 05.04.2021
4499 Rain 3 978 100 4000 11.32 190 09:26 05.04.2021
4500 Rain 3 979 93 7000 10.8 190 08:47 05.04.2021
4501 Rain 3 979 93 7000 10.29 200 08:27 05.04.2021
4502 Rain 3 979 93 7000 10.29 200 07:58 05.04.2021
4503 Rain 4 979 87 10000 10.29 200 07:29 05.04.2021
4504 Rain 4 983 93 9000 10.8 190 03:42 05.04.2021
4505 Clouds 3 987 81 10000 10.8 200 00:54 05.04.2021
4506 Clouds 3 989 81 10000 11.32 200 23:53 04.04.2021
4507 Clouds 4 989 81 10000 11.32 200 23:31 04.04.2021
4508 Clouds 4 989 75 10000 11.32 210 22:57 04.04.2021
4509 Clouds 4 990 75 10000 11.83 210 22:34 04.04.2021
4510 Clouds 3 991 75 10000 10.8 200 21:57 04.04.2021
4511 Clear 4 992 65 10000 10.8 210 21:21 04.04.2021
4512 Clear 4 993 65 10000 10.29 200 20:43 04.04.2021
4513 Clear 4 994 60 10000 10.8 210 20:21 04.04.2021
4514 Clear 4 994 65 10000 10.8 210 19:40 04.04.2021
4515 Clear 4 995 65 10000 11.32 220 19:19 04.04.2021
4516 Clear 5 996 60 10000 10.29 210 18:51 04.04.2021
4517 Clear 5 996 60 10000 10.8 210 18:25 04.04.2021
4518 Clear 5 996 60 10000 10.8 210 17:58 04.04.2021
4519 Clear 6 997 56 10000 10.8 210 17:25 04.04.2021
4520 Clear 6 998 52 10000 9.26 210 16:57 04.04.2021
4521 Clear 6 998 53 10000 10.29 210 16:38 04.04.2021
4522 Clear 7 999 53 10000 8.23 220 15:54 04.04.2021
4523 Clear 7 999 53 10000 8.23 220 15:31 04.04.2021
4524 Clouds 7 1000 49 10000 9.77 200 14:40 04.04.2021
4525 Clouds 8 1000 49 10000 8.23 210 14:20 04.04.2021
4526 Clouds 8 1001 49 10000 9.77 220 13:27 04.04.2021
4527 Clouds 8 1002 49 10000 9.77 230 12:52 04.04.2021
4528 Clouds 8 1002 53 10000 9.77 230 12:28 04.04.2021
4529 Clouds 8 1003 50 10000 7.2 230 11:50 04.04.2021
4530 Clouds 8 1003 50 10000 7.2 230 11:30 04.04.2021
4531 Clear 7 1004 65 10000 5.14 220 10:49 04.04.2021
4532 Clear 6 1005 75 10000 4.63 220 10:29 04.04.2021
4533 Clear 5 1005 75 10000 5.14 220 09:48 04.04.2021
4534 Clear 4 1006 81 10000 4.63 230 09:21 04.04.2021
4535 Clear 4 1006 81 10000 4.12 230 08:45 04.04.2021
4536 Clear 4 1006 81 10000 4.12 230 08:26 04.04.2021
4537 Clouds 2 1007 93 10000 3.09 230 06:40 04.04.2021
4538 Clouds 1 1008 86 10000 2.57 240 05:44 04.04.2021
4539 Clouds 0 1010 74 10000 3.09 250 02:39 04.04.2021
4540 Clear -1 1011 74 10000 3.09 250 00:48 04.04.2021
4541 Clear 0 1011 80 10000 3.09 260 00:18 04.04.2021
4542 Clear 0 1011 69 10000 3.6 270 23:41 03.04.2021
4543 Clear 1 1011 74 10000 3.6 260 22:56 03.04.2021
4544 Clear 1 1011 69 10000 3.09 270 22:37 03.04.2021
4545 Clear 2 1011 64 10000 4.63 290 22:18 03.04.2021
4546 Clear 3 1011 60 10000 3.6 270 21:39 03.04.2021
4547 Clear 3 1011 60 10000 3.09 270 21:21 03.04.2021
4548 Clear 3 1011 60 10000 2.06 270 20:38 03.04.2021
4549 Clear 4 1011 56 10000 3.09 270 20:18 03.04.2021
4550 Clear 4 1011 56 10000 3.09 270 19:43 03.04.2021
4551 Clear 5 1011 48 10000 3.09 270 19:18 03.04.2021
4552 Clear 5 1011 45 10000 3.6 280 18:44 03.04.2021
4553 Clear 6 1011 45 10000 2.57 300 18:18 03.04.2021
4554 Clear 6 1011 39 10000 5.66 320 17:39 03.04.2021
4555 Clear 6 1011 39 10000 4.63 310 17:20 03.04.2021
4556 Clear 6 1012 42 10000 5.14 320 16:43 03.04.2021
4557 Clouds 6 1012 45 10000 5.66 320 16:21 03.04.2021
4558 Clouds 6 1012 45 10000 6.17 310 15:41 03.04.2021
4559 Clouds 6 1012 49 10000 6.17 330 15:19 03.04.2021
4560 Clouds 6 1012 49 10000 5.66 330 14:37 03.04.2021
4561 Clouds 6 1012 56 10000 5.14 310 14:19 03.04.2021
4562 Clouds 6 1011 56 10000 5.66 330 13:42 03.04.2021
4563 Clouds 6 1012 60 10000 4.63 330 13:20 03.04.2021
4564 Clouds 6 1012 61 10000 5.14 340 12:41 03.04.2021
4565 Clouds 5 1012 65 10000 5.14 330 12:19 03.04.2021
4566 Clouds 4 1011 70 10000 5.14 330 11:32 03.04.2021
4567 Clouds 3 1011 75 10000 5.14 310 10:49 03.04.2021
4568 Clouds 3 1011 75 10000 5.14 310 10:30 03.04.2021
4569 Clouds 3 1011 75 10000 5.66 310 09:50 03.04.2021
4570 Clouds 3 1011 75 10000 5.66 310 09:27 03.04.2021
4571 Clouds 2 1011 80 10000 4.63 350 08:40 03.04.2021
4572 Clouds 2 1010 75 10000 6.69 340 08:21 03.04.2021
4573 Clouds 1 1010 86 10000 4.63 330 07:27 03.04.2021
4574 Clouds 1 1009 86 10000 3.6 330 05:43 03.04.2021
4575 Clear 1 1008 93 10000 5.14 330 03:35 03.04.2021
4576 Clouds 2 1008 87 10000 4.12 330 02:38 03.04.2021
4577 Clear 2 1008 87 10000 4.12 320 01:56 03.04.2021
4578 Clouds 2 1008 87 10000 4.12 330 00:20 03.04.2021
4579 Clouds 2 1008 93 10000 3.09 330 23:47 02.04.2021
4580 Clear 2 1007 87 10000 3.09 320 23:24 02.04.2021
4581 Clear 2 1007 87 10000 3.6 320 22:50 02.04.2021
4582 Clear 2 1007 87 10000 3.6 320 22:32 02.04.2021
4583 Clear 2 1007 87 10000 3.09 320 21:42 02.04.2021
4584 Clouds 2 1007 87 10000 2.57 280 21:20 02.04.2021
4585 Clouds 2 1007 87 10000 2.06 270 20:48 02.04.2021
4586 Clouds 3 1007 81 10000 3.6 290 20:27 02.04.2021
4587 Clouds 3 1006 81 10000 2.06 260 19:56 02.04.2021
4588 Clouds 4 1006 81 10000 2.06 260 19:37 02.04.2021
4589 Clouds 4 1006 70 10000 2.57 270 19:19 02.04.2021
4590 Clouds 5 1006 65 10000 2.06 300 18:38 02.04.2021
4591 Clouds 5 1006 65 10000 1.54 310 18:19 02.04.2021
4592 Clouds 6 1006 61 10000 1.54 350 17:37 02.04.2021
4593 Clouds 5 1006 57 10000 2.06 310 16:48 02.04.2021
4594 Clouds 5 1006 61 10000 3.09 310 15:54 02.04.2021
4595 Clouds 5 1006 61 10000 3.09 310 15:32 02.04.2021
4596 Clouds 5 1006 65 10000 4.63 290 14:45 02.04.2021
4597 Clouds 6 1006 61 10000 4.12 300 14:21 02.04.2021
4598 Clouds 6 1006 61 10000 3.6 280 13:41 02.04.2021
4599 Clouds 6 1006 61 10000 4.12 280 13:19 02.04.2021
4600 Clouds 6 1006 61 10000 4.63 280 12:40 02.04.2021
4601 Clouds 6 1006 65 10000 5.66 270 12:20 02.04.2021
4602 Clouds 6 1006 65 10000 5.66 270 12:20 02.04.2021
4603 Clouds 5 1006 65 10000 3.09 250 11:49 02.04.2021
4604 Clear 4 1006 75 10000 3.6 280 11:19 02.04.2021
4605 Clear 4 1006 75 10000 3.6 270 10:44 02.04.2021
4606 Clear 4 1006 75 10000 3.6 270 10:25 02.04.2021
4607 Clear 4 1006 80 10000 4.63 270 09:52 02.04.2021
4608 Clear 3 1006 80 10000 4.63 270 09:26 02.04.2021
4609 Clear 3 1006 80 10000 4.63 270 09:26 02.04.2021
4610 Clear 3 1007 80 10000 3.09 270 08:46 02.04.2021
4611 Clear 2 1007 80 10000 3.09 270 08:27 02.04.2021
4612 Clear 2 1007 80 10000 3.6 260 07:23 02.04.2021
4613 Clouds 1 1007 86 10000 3.09 250 06:46 02.04.2021
4614 Clear 1 1009 80 10000 3.09 270 03:54 02.04.2021
4615 Clear 1 1009 80 10000 3.09 270 02:19 02.04.2021
4616 Clear 1 1010 80 10000 2.06 280 00:47 02.04.2021
4617 Clear 1 1010 75 10000 2.57 280 23:58 01.04.2021
4618 Clear 2 1011 69 10000 3.6 280 23:27 01.04.2021
4619 Clear 2 1011 69 10000 4.12 280 22:51 01.04.2021
4620 Clear 2 1011 69 10000 3.6 280 22:18 01.04.2021
4621 Clear 3 1011 65 10000 5.14 290 21:45 01.04.2021
4622 Clear 4 1011 60 10000 5.66 290 21:24 01.04.2021
4623 Clear 5 1011 60 10000 5.66 290 20:42 01.04.2021
4624 Clear 5 1011 60 10000 4.63 280 20:22 01.04.2021
4625 Clear 5 1011 56 10000 4.63 280 19:46 01.04.2021
4626 Clear 6 1010 49 10000 4.12 290 19:27 01.04.2021
4627 Clear 7 1011 49 10000 4.12 300 18:45 01.04.2021
4628 Clear 7 1010 46 10000 5.66 290 18:18 01.04.2021
4629 Clear 7 1010 42 10000 5.66 290 17:47 01.04.2021
4630 Clear 8 1010 42 10000 5.66 290 17:29 01.04.2021
4631 Clear 8 1010 46 10000 4.63 310 16:50 01.04.2021
4632 Clear 8 1010 46 10000 4.63 310 16:50 01.04.2021
4633 Clear 8 1010 46 10000 4.12 320 16:24 01.04.2021
4634 Clear 8 1010 42 10000 6.17 310 15:43 01.04.2021
4635 Clear 8 1011 42 10000 5.66 300 15:19 01.04.2021
4636 Clouds 8 1011 46 10000 5.14 310 14:42 01.04.2021
4637 Clouds 8 1011 46 10000 5.14 290 14:23 01.04.2021
4638 Clouds 8 1011 46 10000 6.17 300 13:52 01.04.2021
4639 Clouds 8 1011 46 10000 6.17 300 13:30 01.04.2021
4640 Clouds 7 1011 49 10000 5.66 320 12:49 01.04.2021
4641 Clouds 7 1011 49 10000 5.66 320 12:30 01.04.2021
4642 Clouds 7 1011 49 10000 7.2 310 11:47 01.04.2021
4643 Clouds 6 1011 56 10000 5.14 290 11:24 01.04.2021
4644 Clear 5 1011 65 10000 5.66 280 10:53 01.04.2021
4645 Clear 5 1011 70 10000 5.14 280 10:35 01.04.2021
4646 Clear 4 1011 70 10000 5.14 280 09:54 01.04.2021
4647 Clear 3 1011 75 10000 5.14 280 09:24 01.04.2021
4648 Clear 3 1011 75 10000 4.12 290 08:33 01.04.2021
4649 Clear 1 1011 86 10000 4.12 290 07:52 01.04.2021
4650 Clear 0 1011 86 10000 4.12 290 07:18 01.04.2021
4651 Clear -1 1011 93 10000 3.6 290 06:42 01.04.2021
4652 Clear 0 1011 80 10000 4.12 290 03:30 01.04.2021
4653 Clear 1 1011 80 10000 4.12 290 00:49 01.04.2021
4654 Clear 2 1011 75 10000 4.63 290 23:44 31.03.2021
4655 Clear 2 1011 75 10000 5.14 290 23:18 31.03.2021
4656 Clear 2 1011 80 10000 4.63 290 22:41 31.03.2021
4657 Clear 3 1011 75 10000 4.12 280 22:20 31.03.2021
4658 Clear 3 1011 70 10000 5.14 290 21:45 31.03.2021
4659 Clear 4 1011 70 10000 4.63 290 21:23 31.03.2021
4660 Clouds 5 1011 65 10000 4.63 270 20:44 31.03.2021
4661 Clouds 5 1011 65 10000 4.63 270 20:24 31.03.2021
4662 Clouds 5 1010 61 10000 3.6 260 19:55 31.03.2021
4663 Clouds 6 1010 61 10000 3.6 260 19:36 31.03.2021
4664 Clouds 7 1010 57 10000 4.63 260 19:18 31.03.2021
4665 Clouds 7 1010 53 10000 5.14 260 18:41 31.03.2021
4666 Clouds 9 1010 49 10000 5.14 280 17:56 31.03.2021
4667 Clouds 9 1010 49 10000 5.14 280 17:34 31.03.2021
4668 Clouds 9 1010 57 10000 5.14 280 16:58 31.03.2021
4669 Clouds 9 1010 53 10000 5.66 280 16:37 31.03.2021
4670 Clouds 9 1010 53 10000 5.66 280 16:19 31.03.2021
4671 Clouds 9 1010 53 10000 5.66 280 16:19 31.03.2021
4672 Clouds 10 1011 53 10000 5.66 280 15:50 31.03.2021
4673 Clouds 9 1011 53 10000 6.69 290 15:19 31.03.2021
4674 Clouds 10 1011 53 10000 5.66 270 14:43 31.03.2021
4675 Clouds 9 1011 53 10000 6.69 280 14:20 31.03.2021
4676 Clouds 9 1011 57 10000 5.66 270 13:41 31.03.2021
4677 Clouds 8 1011 61 10000 7.2 280 12:42 31.03.2021
4678 Clouds 7 1011 65 10000 6.17 280 12:20 31.03.2021
4679 Clouds 7 1011 65 10000 5.14 270 11:51 31.03.2021
4680 Clouds 6 1011 75 10000 4.63 270 11:20 31.03.2021
4681 Clouds 5 1011 81 10000 3.09 280 10:47 31.03.2021
4682 Clouds 5 1011 93 10000 2.06 260 10:25 31.03.2021
4683 Clouds 4 1011 87 10000 2.06 260 09:38 31.03.2021
4684 Clouds 3 1011 93 10000 1.54 250 08:55 31.03.2021
4685 Clouds 3 1011 93 10000 1.03 0 08:37 31.03.2021
4686 Clouds 3 1011 93 10000 2.57 340 07:52 31.03.2021
4687 Clouds 3 1011 93 10000 2.57 340 07:52 31.03.2021
4688 Clouds 3 1011 100 10000 2.06 340 06:46 31.03.2021
4689 Rain 3 1012 81 10000 3.09 270 03:51 31.03.2021
4690 Clear 2 1013 93 10000 2.57 230 01:43 31.03.2021
4691 Clear 3 1013 87 10000 2.57 250 00:49 31.03.2021
4692 Clear 2 1013 81 10000 3.6 260 00:20 31.03.2021
4693 Clear 3 1013 81 10000 3.6 260 23:39 30.03.2021
4694 Clear 3 1013 75 10000 4.12 260 22:59 30.03.2021
4695 Clear 4 1013 75 10000 3.6 260 22:40 30.03.2021
4696 Clear 4 1013 75 10000 4.12 270 22:21 30.03.2021
4697 Clear 4 1013 75 10000 4.12 270 21:48 30.03.2021
4698 Clear 4 1012 75 10000 4.12 260 21:20 30.03.2021
4699 Clear 5 1012 70 10000 4.63 260 20:52 30.03.2021
4700 Clear 5 1012 70 10000 4.63 260 20:28 30.03.2021
4701 Clear 5 1011 87 10000 3.6 260 19:51 30.03.2021
4702 Clear 5 1011 87 10000 3.6 260 19:27 30.03.2021
4703 Clear 6 1010 87 10000 3.6 230 18:39 30.03.2021
4704 Clear 7 1010 87 10000 4.12 240 17:56 30.03.2021
4705 Clouds 7 1010 87 10000 5.14 240 17:38 30.03.2021
4706 Clouds 7 1010 87 10000 5.14 220 17:20 30.03.2021
4707 Clouds 6 1010 93 10000 5.14 210 16:44 30.03.2021
4708 Clouds 6 1010 93 10000 4.63 210 16:23 30.03.2021
4709 Clouds 6 1010 93 10000 5.66 240 15:20 30.03.2021
4710 Clouds 6 1010 93 10000 5.66 240 14:56 30.03.2021
4711 Clouds 6 1010 93 10000 5.66 220 14:22 30.03.2021
4712 Clouds 6 1010 93 10000 5.66 220 13:58 30.03.2021
4713 Clouds 6 1010 93 8000 5.14 210 13:36 30.03.2021
4714 Clouds 6 1011 93 10000 5.14 220 12:49 30.03.2021
4715 Clouds 6 1011 93 10000 5.14 220 12:49 30.03.2021
4716 Clouds 6 1011 100 10000 5.14 210 12:27 30.03.2021
4717 Clouds 6 1011 100 10000 5.14 210 11:53 30.03.2021
4718 Clouds 6 1011 93 10000 3.6 220 11:23 30.03.2021
4719 Clouds 6 1011 93 8000 3.6 230 10:46 30.03.2021
4720 Clouds 6 1011 93 8000 4.12 220 10:25 30.03.2021
4721 Clouds 5 1011 93 8000 4.63 210 09:44 30.03.2021
4722 Clouds 5 1012 100 6000 3.6 210 09:26 30.03.2021
4723 Mist 5 1012 100 4500 4.12 210 08:54 30.03.2021
4724 Mist 5 1012 100 4500 4.12 210 08:36 30.03.2021
4725 Fog 4 1012 100 900 3.6 230 07:51 30.03.2021
4726 Fog 4 1012 100 900 3.6 230 07:22 30.03.2021
4727 Mist 4 1011 100 3000 4.12 220 05:25 30.03.2021
4728 Mist 4 1011 100 3000 4.12 220 04:58 30.03.2021
4729 Drizzle 4 1010 100 4500 9.77 210 00:30 30.03.2021
4730 Drizzle 4 1010 93 3000 9.77 200 23:33 29.03.2021
4731 Drizzle 4 1011 93 3000 8.23 190 22:45 29.03.2021
4732 Rain 4 1011 93 3000 8.75 200 22:25 29.03.2021
4733 Drizzle 4 1011 93 4000 8.75 190 21:43 29.03.2021
4734 Rain 4 1011 93 3000 9.26 190 21:23 29.03.2021
4735 Rain 4 1012 100 3000 8.23 190 20:47 29.03.2021
4736 Rain 4 1012 100 3000 8.23 190 20:26 29.03.2021
4737 Rain 4 1012 93 3000 8.75 180 19:48 29.03.2021
4738 Rain 4 1013 96 8031 3.58 194 19:22 29.03.2021
4739 Rain 4 1013 100 4000 7.72 170 18:42 29.03.2021
4740 Rain 4 1013 100 4000 7.72 170 18:23 29.03.2021
4741 Rain 4 1014 93 8000 7.2 170 17:45 29.03.2021
4742 Rain 4 1015 93 8000 6.69 180 17:18 29.03.2021
4743 Rain 4 1015 93 8000 7.72 180 16:37 29.03.2021
4744 Rain 4 1015 93 8000 8.75 190 16:18 29.03.2021
4745 Drizzle 4 1016 93 3000 8.75 180 15:35 29.03.2021
4746 Drizzle 4 1016 93 10000 9.26 180 14:57 29.03.2021
4747 Clouds 4 1016 93 10000 9.26 180 14:36 29.03.2021
4748 Drizzle 4 1016 93 7000 6.69 180 13:53 29.03.2021
4749 Drizzle 4 1016 93 4000 7.2 180 13:29 29.03.2021
4750 Drizzle 4 1016 93 3000 7.72 180 12:51 29.03.2021
4751 Drizzle 4 1016 93 3000 7.72 180 12:51 29.03.2021
4752 Drizzle 4 1016 93 3000 7.72 180 12:29 29.03.2021
4753 Clouds 3 1017 93 4000 7.72 180 11:41 29.03.2021
4754 Clouds 3 1017 93 4000 8.23 180 11:22 29.03.2021
4755 Drizzle 3 1017 93 5000 8.23 180 10:38 29.03.2021
4756 Rain 3 1017 93 10000 6.17 180 09:48 29.03.2021
4757 Clouds 3 1017 93 5000 6.69 170 08:59 29.03.2021
4758 Clouds 3 1017 93 7000 6.69 170 08:29 29.03.2021
4759 Rain 3 1018 95 10000 3.58 205 07:42 29.03.2021
4760 Clouds 3 1017 87 10000 6.69 170 06:42 29.03.2021
4761 Clouds 3 1018 81 10000 5.66 170 04:22 29.03.2021
4762 Clouds 3 1018 75 10000 6.17 180 01:58 29.03.2021
4763 Clouds 2 1018 75 10000 7.2 190 00:23 29.03.2021
4764 Clouds 2 1018 75 10000 6.69 170 23:50 28.03.2021
4765 Clouds 3 1019 70 10000 6.69 180 23:19 28.03.2021
4766 Clouds 3 1019 70 10000 8.23 190 22:41 28.03.2021
4767 Clouds 3 1019 70 10000 7.2 190 22:21 28.03.2021
4768 Clouds 4 1019 65 10000 7.72 190 21:42 28.03.2021
4769 Clouds 4 1018 60 10000 8.75 200 21:23 28.03.2021
4770 Clouds 4 1018 70 10000 6.69 190 20:50 28.03.2021
4771 Clouds 4 1018 70 10000 6.69 190 20:32 28.03.2021
4772 Clouds 4 1018 70 10000 6.69 190 19:46 28.03.2021
4773 Clouds 4 1018 70 10000 6.17 190 19:23 28.03.2021
4774 Clouds 5 1018 65 10000 6.17 190 18:58 28.03.2021
4775 Clouds 5 1018 65 10000 6.17 190 18:32 28.03.2021
4776 Clouds 6 1018 70 10000 5.66 190 17:55 28.03.2021
4777 Clouds 5 1018 70 10000 5.66 190 17:32 28.03.2021
4778 Clouds 6 1018 70 10000 5.14 160 16:47 28.03.2021
4779 Clouds 6 1018 70 10000 5.14 160 16:47 28.03.2021
4780 Clouds 6 1018 65 10000 7.2 190 16:23 28.03.2021
4781 Clouds 6 1018 70 10000 7.2 200 15:43 28.03.2021
4782 Clouds 6 1018 70 10000 6.69 190 15:22 28.03.2021
4783 Clouds 6 1018 75 10000 7.2 200 14:37 28.03.2021
4784 Clouds 5 1018 81 10000 4.63 190 13:49 28.03.2021
4785 Clouds 4 1018 87 10000 4.63 180 13:24 28.03.2021
4786 Clouds 4 1018 87 10000 4.63 190 12:52 28.03.2021
4787 Clouds 4 1018 87 10000 4.63 190 12:33 28.03.2021
4788 Clouds 4 1017 87 10000 5.14 190 11:46 28.03.2021
4789 Clouds 3 1017 87 10000 5.14 190 11:26 28.03.2021
4790 Clouds 3 1016 87 8000 3.09 180 10:45 28.03.2021
4791 Clouds 3 1016 87 8000 3.09 180 10:26 28.03.2021
4792 Rain 3 1016 87 10000 4.12 180 09:47 28.03.2021
4793 Rain 4 1016 81 10000 4.12 140 09:25 28.03.2021
4794 Rain 4 1016 81 10000 4.12 140 09:25 28.03.2021
4795 Rain 4 1016 81 10000 4.12 130 08:46 28.03.2021
4796 Rain 3 1015 87 10000 2.57 100 07:51 28.03.2021
4797 Clear 1 1015 93 10000 2.06 100 07:19 28.03.2021
4798 Clear 3 1015 87 10000 3.6 120 04:18 28.03.2021
4799 Clear 4 1015 81 10000 4.12 120 01:26 28.03.2021
4800 Clear 4 1016 81 10000 4.12 130 00:21 28.03.2021
4801 Clear 4 1016 81 10000 2.57 120 23:44 27.03.2021
4802 Clear 4 1016 81 10000 2.57 100 23:19 27.03.2021
4803 Clear 5 1016 81 10000 2.57 110 22:37 27.03.2021
4804 Clear 5 1016 81 10000 3.09 110 21:59 27.03.2021
4805 Clear 5 1016 81 10000 3.09 110 21:38 27.03.2021
4806 Clear 4 1016 81 10000 3.09 120 21:19 27.03.2021
4807 Clear 4 1016 81 10000 3.09 130 20:38 27.03.2021
4808 Clear 5 1016 75 10000 4.12 120 20:20 27.03.2021
4809 Clear 5 1016 75 10000 3.6 140 19:42 27.03.2021
4810 Clear 5 1016 75 10000 4.63 140 19:23 27.03.2021
4811 Clear 5 1016 75 10000 4.12 110 18:49 27.03.2021
4812 Clear 5 1016 75 10000 3.6 140 18:28 27.03.2021
4813 Rain 5 1016 75 10000 3.6 140 17:56 27.03.2021
4814 Rain 6 1016 65 10000 4.12 140 17:26 27.03.2021
4815 Clear 6 1016 61 10000 4.63 140 16:51 27.03.2021
4816 Clear 6 1016 61 10000 4.63 140 16:51 27.03.2021
4817 Clear 7 1016 61 10000 4.63 140 16:30 27.03.2021
4818 Clear 7 1017 57 10000 5.14 150 15:54 27.03.2021
4819 Clear 8 1017 57 10000 5.14 150 15:27 27.03.2021
4820 Clear 8 1017 57 10000 4.63 170 14:50 27.03.2021
4821 Clear 7 1017 61 10000 4.63 150 13:56 27.03.2021
4822 Clouds 7 1017 71 10000 4.63 150 13:26 27.03.2021
4823 Clouds 7 1017 71 10000 4.63 150 12:55 27.03.2021
4824 Clouds 7 1017 70 10000 4.63 150 12:24 27.03.2021
4825 Clouds 5 1017 75 10000 4.63 150 11:42 27.03.2021
4826 Clouds 6 1017 81 10000 5.14 160 11:20 27.03.2021
4827 Clouds 5 1017 75 10000 5.66 150 10:45 27.03.2021
4828 Clouds 5 1017 81 10000 5.14 160 10:22 27.03.2021
4829 Clear 5 1017 76 10000 5.66 140 09:28 27.03.2021
4830 Clouds 3 1017 87 8000 3.6 130 08:43 27.03.2021
4831 Clouds 4 1017 93 8000 3.6 130 08:21 27.03.2021
4832 Clouds 2 1017 100 6000 2.57 120 07:34 27.03.2021
4833 Mist 1 1017 100 4000 1.54 110 06:47 27.03.2021
4834 Mist 1 1017 100 4000 1.54 110 06:27 27.03.2021
4835 Fog 0 1017 100 1800 2.57 140 04:39 27.03.2021
4836 Fog 1 1018 100 350 2.57 200 00:50 27.03.2021
4837 Fog 1 1018 100 350 2.57 200 00:29 27.03.2021
4838 Mist 1 1018 100 4500 2.57 200 23:54 26.03.2021
4839 Clouds 1 1017 100 7000 1.03 190 22:56 26.03.2021
4840 Clouds 1 1017 100 9000 1.54 230 22:34 26.03.2021
4841 Mist 1 1017 100 4500 2.06 210 21:25 26.03.2021
4842 Mist 1 1017 100 4500 2.06 210 20:59 26.03.2021
4843 Fog 1 1017 100 2500 2.06 200 20:32 26.03.2021
4844 Fog 1 1017 100 400 2.06 180 19:56 26.03.2021
4845 Fog 1 1017 100 400 2.06 180 19:37 26.03.2021
4846 Fog 1 1016 100 6000 3.6 130 19:18 26.03.2021
4847 Clear 1 1016 93 10000 3.6 150 18:41 26.03.2021
4848 Clear 2 1016 87 10000 3.09 140 18:19 26.03.2021
4849 Clear 3 1016 81 10000 2.06 160 17:45 26.03.2021
4850 Clear 3 1016 81 10000 2.06 160 17:45 26.03.2021
4851 Clear 5 1016 75 10000 3.6 150 16:54 26.03.2021
4852 Clear 6 1016 75 10000 3.6 150 16:32 26.03.2021
4853 Clouds 6 1016 76 10000 3.6 140 15:51 26.03.2021
4854 Clouds 7 1016 71 10000 3.6 160 14:58 26.03.2021
4855 Clouds 7 1016 71 10000 2.57 190 14:23 26.03.2021
4856 Clouds 6 1016 71 10000 3.09 200 13:34 26.03.2021
4857 Clouds 5 1016 81 10000 3.09 220 12:49 26.03.2021
4858 Clouds 6 1016 87 10000 2.06 230 11:58 26.03.2021
4859 Clouds 4 1016 100 10000 2.06 220 11:31 26.03.2021
4860 Fog 3 1015 100 800 1.54 230 10:46 26.03.2021
4861 Fog 3 1015 100 400 2.06 190 10:27 26.03.2021
4862 Fog 2 1015 100 300 2.06 230 09:42 26.03.2021
4863 Fog 2 1015 100 250 2.06 230 09:18 26.03.2021
4864 Fog 2 1014 100 250 2.57 220 08:37 26.03.2021
4865 Fog 2 1014 100 300 2.06 220 07:59 26.03.2021
4866 Fog 2 1014 100 400 2.06 220 07:23 26.03.2021
4867 Fog 1 1013 100 400 2.06 220 06:57 26.03.2021
4868 Fog 1 1013 100 400 2.06 220 06:27 26.03.2021
4869 Fog 1 1013 100 500 2.57 210 05:26 26.03.2021
4870 Rain 1 1013 100 3500 3.09 190 01:57 26.03.2021
4871 Clouds 1 1012 100 7000 3.6 200 00:27 26.03.2021
4872 Clouds 1 1012 93 10000 3.09 190 23:44 25.03.2021
4873 Clear 0 1012 93 10000 1.54 210 22:56 25.03.2021
4874 Clear 0 1012 93 10000 1.54 210 22:28 25.03.2021
4875 Clear 1 1012 93 10000 3.09 230 21:51 25.03.2021
4876 Clear 0 1012 93 10000 3.09 230 21:33 25.03.2021
4877 Clear 1 1012 93 10000 2.57 220 20:45 25.03.2021
4878 Clear 1 1012 93 10000 2.57 220 20:25 25.03.2021
4879 Clear 2 1011 87 10000 2.57 230 19:45 25.03.2021
4880 Clear 2 1011 87 10000 2.57 230 19:45 25.03.2021
4881 Clear 2 1011 81 10000 3.09 220 19:27 25.03.2021
4882 Clear 3 1011 87 10000 3.6 220 18:47 25.03.2021
4883 Clear 2 1011 87 10000 3.6 220 18:26 25.03.2021
4884 Clear 2 1011 87 10000 3.6 220 18:26 25.03.2021
4885 Clear 4 1010 75 10000 3.6 220 17:45 25.03.2021
4886 Clear 5 1010 75 10000 3.6 220 17:27 25.03.2021
4887 Clear 5 1010 70 10000 3.6 200 16:50 25.03.2021
4888 Clear 6 1010 70 10000 3.6 200 16:29 25.03.2021
4889 Clouds 7 1009 57 10000 4.63 240 15:43 25.03.2021
4890 Clouds 7 1009 65 10000 4.63 260 15:20 25.03.2021
4891 Clouds 7 1009 57 10000 6.17 260 14:46 25.03.2021
4892 Clouds 7 1009 61 10000 3.6 250 13:49 25.03.2021
4893 Clouds 7 1009 61 10000 3.6 250 13:24 25.03.2021
4894 Clouds 7 1009 70 10000 5.66 240 12:44 25.03.2021
4895 Clouds 7 1009 70 10000 6.17 230 12:20 25.03.2021
4896 Clouds 7 1009 70 10000 5.66 230 11:52 25.03.2021
4897 Clouds 6 1009 70 10000 5.66 230 11:30 25.03.2021
4898 Clouds 6 1009 81 10000 4.63 230 10:54 25.03.2021
4899 Clouds 6 1009 81 10000 3.6 250 10:26 25.03.2021
4900 Clouds 5 1009 81 10000 3.6 250 09:57 25.03.2021
4901 Clouds 4 1009 87 10000 3.6 220 09:38 25.03.2021
4902 Clouds 3 1009 93 8000 4.63 220 08:57 25.03.2021
4903 Clouds 3 1009 93 8000 4.63 220 08:28 25.03.2021
4904 Mist 2 1008 100 4000 3.6 210 07:23 25.03.2021
4905 Fog 2 1008 100 300 3.6 200 06:26 25.03.2021
4906 Fog 2 1008 100 300 2.06 220 05:49 25.03.2021
4907 Fog 2 1008 100 400 3.09 210 03:55 25.03.2021
4908 Clouds 2 1009 100 5000 4.12 210 00:35 25.03.2021
4909 Clouds 2 1009 100 5000 4.12 210 00:35 25.03.2021
4910 Clouds 2 1009 93 8000 4.63 220 23:53 24.03.2021
4911 Clouds 2 1009 93 10000 4.63 210 23:30 24.03.2021
4912 Clouds 2 1009 93 10000 4.63 210 22:50 24.03.2021
4913 Clouds 2 1009 93 10000 4.63 210 22:30 24.03.2021
4914 Clouds 2 1009 93 10000 5.14 220 21:47 24.03.2021
4915 Clouds 2 1009 93 10000 5.14 220 21:25 24.03.2021
4916 Clouds 2 1009 93 10000 6.17 220 20:45 24.03.2021
4917 Clouds 2 1009 93 10000 7.72 210 20:20 24.03.2021
4918 Clouds 2 1009 93 10000 7.72 210 19:52 24.03.2021
4919 Clouds 2 1009 93 10000 7.72 210 19:29 24.03.2021
4920 Clouds 2 1009 93 10000 8.23 210 18:51 24.03.2021
4921 Clouds 2 1009 93 10000 8.23 210 18:51 24.03.2021
4922 Clouds 2 1009 93 10000 8.23 210 18:24 24.03.2021
4923 Clouds 2 1009 93 10000 9.26 210 17:52 24.03.2021
4924 Clouds 2 1009 93 10000 9.26 210 17:32 24.03.2021
4925 Clouds 2 1009 93 10000 8.75 210 16:53 24.03.2021
4926 Clouds 2 1009 93 10000 8.75 210 16:31 24.03.2021
4927 Clouds 2 1009 93 10000 7.72 210 15:55 24.03.2021
4928 Clouds 2 1009 93 10000 7.72 210 15:33 24.03.2021
4929 Clouds 2 1009 93 10000 8.75 210 14:48 24.03.2021
4930 Clouds 2 1009 93 10000 8.75 210 14:27 24.03.2021
4931 Clouds 2 1010 93 10000 8.75 210 13:57 24.03.2021
4932 Clouds 2 1010 93 10000 8.75 220 13:28 24.03.2021
4933 Clouds 3 1010 93 10000 8.75 230 12:45 24.03.2021
4934 Clouds 3 1010 93 10000 9.26 220 12:23 24.03.2021
4935 Clouds 3 1010 93 10000 8.75 220 11:49 24.03.2021
4936 Clouds 3 1010 93 10000 8.75 220 11:20 24.03.2021
4937 Clouds 3 1010 93 10000 9.77 220 10:44 24.03.2021
4938 Clouds 3 1010 93 10000 10.8 210 10:25 24.03.2021
4939 Clouds 3 1010 87 10000 10.29 220 09:54 24.03.2021
4940 Clouds 3 1010 81 10000 8.75 210 09:23 24.03.2021
4941 Clear 4 1010 81 10000 6.69 210 08:55 24.03.2021
4942 Clear 3 1010 81 10000 6.69 210 08:29 24.03.2021
4943 Clear 3 1010 87 10000 5.66 200 07:42 24.03.2021
4944 Clear 2 1010 81 10000 5.66 200 06:54 24.03.2021
4945 Clear 1 1010 93 10000 5.14 200 05:52 24.03.2021
4946 Clear 1 1011 86 10000 3.6 210 00:56 24.03.2021
4947 Clear 1 1011 86 10000 3.09 200 00:28 24.03.2021
4948 Clear 2 1012 75 10000 2.57 200 23:22 23.03.2021
4949 Clear 2 1012 75 10000 2.57 200 22:58 23.03.2021
4950 Clear 3 1012 81 10000 3.6 220 22:40 23.03.2021
4951 Clear 3 1012 81 10000 3.09 220 21:58 23.03.2021
4952 Clear 3 1012 81 10000 3.09 220 21:39 23.03.2021
4953 Clear 3 1012 81 10000 3.09 240 21:19 23.03.2021
4954 Clear 3 1012 75 10000 3.6 240 20:39 23.03.2021
4955 Clear 3 1012 75 10000 2.57 240 20:21 23.03.2021
4956 Clear 4 1012 75 10000 3.09 230 19:44 23.03.2021
4957 Clear 4 1011 75 10000 3.6 220 19:23 23.03.2021
4958 Clear 5 1011 70 10000 4.12 220 18:42 23.03.2021
4959 Clear 5 1011 70 10000 4.12 210 18:20 23.03.2021
4960 Clear 5 1011 70 10000 3.6 220 17:44 23.03.2021
4961 Clear 5 1011 75 10000 4.12 210 17:21 23.03.2021
4962 Clouds 6 1011 70 10000 4.63 220 16:26 23.03.2021
4963 Clouds 6 1011 70 10000 4.63 210 15:52 23.03.2021
4964 Clouds 6 1011 70 10000 4.63 210 15:25 23.03.2021
4965 Clouds 6 1012 65 10000 5.14 220 14:49 23.03.2021
4966 Clear 6 1012 70 10000 5.66 220 14:20 23.03.2021
4967 Clear 5 1012 75 10000 4.63 210 13:49 23.03.2021
4968 Clear 5 1012 75 10000 4.63 210 13:25 23.03.2021
4969 Clouds 4 1012 81 10000 4.63 210 12:46 23.03.2021
4970 Clouds 4 1012 81 10000 4.63 210 12:26 23.03.2021
4971 Clouds 4 1012 87 10000 4.63 210 11:49 23.03.2021
4972 Clouds 3 1012 87 10000 4.63 210 11:30 23.03.2021
4973 Clouds 2 1012 87 10000 3.6 220 10:43 23.03.2021
4974 Clouds 2 1012 87 10000 5.14 200 10:21 23.03.2021
4975 Rain 2 1012 93 10000 4.63 190 09:54 23.03.2021
4976 Clouds 1 1012 93 10000 4.63 190 09:25 23.03.2021
4977 Clouds 1 1012 93 10000 3.6 210 08:56 23.03.2021
4978 Clouds 0 1012 93 10000 5.14 200 08:38 23.03.2021
4979 Clouds 0 1012 93 10000 5.14 200 08:19 23.03.2021
4980 Clouds -1 1012 86 10000 1.54 230 07:28 23.03.2021
4981 Clouds -2 1011 86 10000 2.06 210 06:54 23.03.2021
4982 Clear -10 1011 85 10000 2.99 227 04:58 23.03.2021
4983 Clear -9 1011 79 10000 2.24 217 03:20 23.03.2021
4984 Clear -6 1010 73 10000 1.02 211 23:57 22.03.2021
4985 Clear -5 1010 68 10000 1.03 250 23:21 22.03.2021
4986 Clear -5 1010 79 10000 1.03 260 22:44 22.03.2021
4987 Clear -5 1010 79 10000 1.03 260 22:44 22.03.2021
4988 Clear -5 1010 73 10000 0.51 0 22:21 22.03.2021
4989 Clear -5 1009 73 10000 0.22 243 21:51 22.03.2021
4990 Clear -4 1009 63 10000 0.53 303 21:27 22.03.2021
4991 Clear -4 1009 68 10000 0.53 303 20:49 22.03.2021
4992 Clear -4 1009 68 10000 0.62 342 20:29 22.03.2021
4993 Clear -3 1009 58 10000 1.03 240 19:58 22.03.2021
4994 Clear -3 1009 50 10000 0.62 342 19:40 22.03.2021
4995 Clear -3 1008 54 10000 1.03 320 19:21 22.03.2021
4996 Clear -2 1008 50 10000 0.51 340 18:42 22.03.2021
4997 Clear 0 1008 37 10000 1.03 330 18:22 22.03.2021
4998 Clear 0 1008 29 10000 2.06 340 17:50 22.03.2021
4999 Clear 1 1007 32 10000 3.09 340 17:22 22.03.2021
5000 Clear 2 1007 27 10000 3.09 340 16:57 22.03.2021
5001 Clear 2 1008 27 10000 3.09 340 16:39 22.03.2021
5002 Clear 2 1007 27 10000 3.6 340 15:43 22.03.2021
5003 Clear 2 1007 27 10000 3.6 340 15:25 22.03.2021
5004 Clear 2 1006 27 10000 4.63 360 14:59 22.03.2021
5005 Clear 2 1006 27 10000 4.63 360 14:34 22.03.2021
5006 Clear 2 1006 32 10000 4.63 340 13:52 22.03.2021
5007 Clear 2 1006 32 10000 4.63 340 13:34 22.03.2021
5008 Clear 2 1006 34 10000 6.17 320 12:59 22.03.2021
5009 Clear 2 1006 34 10000 6.17 320 12:38 22.03.2021
5010 Clear 1 1006 34 10000 6.17 320 12:18 22.03.2021
5011 Clear 1 1006 34 10000 6.17 320 11:40 22.03.2021
5012 Clear 1 1006 34 10000 6.17 320 11:20 22.03.2021
5013 Clear 0 1006 43 10000 6.17 320 10:42 22.03.2021
5014 Clear 0 1006 43 10000 6.69 320 10:20 22.03.2021
5015 Clear -1 1005 51 10000 5.66 320 09:37 22.03.2021
5016 Clear -1 1005 54 10000 5.66 310 08:59 22.03.2021
5017 Clear -2 1005 54 10000 5.66 310 08:40 22.03.2021
5018 Clear -2 1005 59 10000 5.66 310 08:21 22.03.2021
5019 Clear -3 1004 59 10000 5.14 320 07:43 22.03.2021
5020 Clear -4 1004 63 10000 5.14 300 06:52 22.03.2021
5021 Clear -4 1003 63 10000 5.66 300 05:19 22.03.2021
5022 Clear -2 1000 54 10000 5.66 290 00:55 22.03.2021
5023 Clear -2 1000 54 10000 4.63 300 00:21 22.03.2021
5024 Clear -2 1000 54 10000 6.17 300 23:48 21.03.2021
5025 Clear -2 999 54 10000 6.17 300 23:19 21.03.2021
5026 Clear -2 999 54 10000 6.17 300 22:54 21.03.2021
5027 Clear -1 998 51 10000 6.69 310 21:45 21.03.2021
5028 Clear -1 998 51 10000 6.69 310 21:27 21.03.2021
5029 Clear -1 998 51 10000 6.69 310 20:58 21.03.2021
5030 Clear -1 998 55 10000 6.69 300 20:39 21.03.2021
5031 Clear -1 997 59 10000 7.2 310 20:21 21.03.2021
5032 Clear 0 997 47 10000 7.72 310 19:49 21.03.2021
5033 Clear 0 997 51 10000 7.2 310 19:20 21.03.2021
5034 Clouds 1 996 44 10000 9.26 310 18:45 21.03.2021
5035 Clouds 1 996 47 10000 9.26 310 18:26 21.03.2021
5036 Clouds 1 995 51 10000 8.75 310 17:44 21.03.2021
5037 Clouds 2 994 51 10000 8.75 300 17:19 21.03.2021
5038 Clouds 2 994 51 10000 12.35 310 16:51 21.03.2021
5039 Clouds 2 994 64 10000 10.29 310 16:28 21.03.2021
5040 Clouds 2 993 60 10000 10.8 320 15:49 21.03.2021
5041 Clouds 2 993 60 10000 10.8 320 15:23 21.03.2021
5042 Clouds 2 993 60 10000 11.32 310 14:58 21.03.2021
5043 Clouds 3 993 60 10000 11.32 310 14:39 21.03.2021
5044 Clouds 3 992 60 10000 10.8 310 14:20 21.03.2021
5045 Clouds 3 992 56 10000 10.29 310 13:51 21.03.2021
5046 Clouds 3 991 64 10000 9.26 300 12:46 21.03.2021
5047 Clouds 3 991 64 10000 9.26 300 12:26 21.03.2021
5048 Clouds 3 990 64 10000 8.23 310 11:47 21.03.2021
5049 Clouds 3 990 69 10000 7.2 300 11:27 21.03.2021
5050 Clouds 3 990 69 10000 8.75 300 10:53 21.03.2021
5051 Clouds 3 990 69 10000 8.75 300 10:32 21.03.2021
5052 Clouds 3 989 64 10000 8.75 290 09:56 21.03.2021
5053 Clouds 3 989 64 10000 10.29 290 09:37 21.03.2021
5054 Clouds 2 989 69 10000 7.2 290 09:19 21.03.2021
5055 Rain 2 989 69 10000 7.72 280 08:38 21.03.2021
5056 Rain 2 989 75 10000 7.2 280 08:19 21.03.2021
5057 Clear 1 989 75 10000 6.17 280 07:30 21.03.2021
5058 Clear 0 989 86 10000 4.63 250 06:21 21.03.2021
5059 Clear 1 989 86 10000 4.63 270 04:57 21.03.2021
5060 Rain 1 992 93 10000 4.12 230 00:58 21.03.2021
5061 Rain 1 992 93 10000 4.12 230 00:39 21.03.2021
5062 Rain 1 993 93 10000 4.12 230 00:20 21.03.2021
5063 Snow 1 993 93 10000 4.63 230 23:46 20.03.2021
5064 Clouds 1 994 93 10000 4.63 230 23:20 20.03.2021
5065 Snow 1 995 93 10000 4.63 230 22:25 20.03.2021
5066 Snow 1 995 93 10000 4.63 230 21:58 20.03.2021
5067 Snow 0 996 100 10000 5.14 230 21:40 20.03.2021
5068 Snow 0 996 100 10000 5.66 220 21:21 20.03.2021
5069 Rain 0 997 100 8000 5.66 220 20:41 20.03.2021
5070 Snow 0 998 100 9000 5.66 220 20:21 20.03.2021
5071 Snow 0 998 100 5000 5.66 230 19:42 20.03.2021
5072 Rain 0 999 93 6000 5.66 220 19:23 20.03.2021
5073 Snow 0 1000 93 3000 5.14 220 18:46 20.03.2021
5074 Snow 0 1000 93 3000 5.14 220 18:24 20.03.2021
5075 Snow 0 1001 93 2600 5.66 230 17:48 20.03.2021
5076 Snow 0 1001 93 2500 5.66 230 17:26 20.03.2021
5077 Snow 0 1002 93 2800 6.69 230 16:44 20.03.2021
5078 Snow 0 1002 93 2800 6.69 230 16:44 20.03.2021
5079 Snow 0 1003 93 6000 7.2 230 16:20 20.03.2021
5080 Snow 0 1003 93 7000 7.2 220 15:54 20.03.2021
5081 Snow 1 1003 93 7000 7.2 220 15:33 20.03.2021
5082 Snow 1 1004 93 3000 8.23 230 14:44 20.03.2021
5083 Snow 1 1005 93 2900 7.2 220 14:22 20.03.2021
5084 Snow 0 1006 86 4500 8.75 220 13:32 20.03.2021
5085 Snow 0 1007 86 9000 8.23 220 12:45 20.03.2021
5086 Snow 0 1008 86 10000 7.72 230 12:25 20.03.2021
5087 Snow 0 1008 86 9000 7.2 220 11:44 20.03.2021
5088 Snow 0 1009 86 6000 8.23 220 11:24 20.03.2021
5089 Snow -1 1009 86 10000 7.72 220 10:47 20.03.2021
5090 Snow -1 1009 86 10000 7.72 220 10:27 20.03.2021
5091 Snow -1 1010 86 10000 7.72 210 09:54 20.03.2021
5092 Snow -2 1011 93 6000 7.72 210 09:27 20.03.2021
5093 Snow -2 1011 86 6000 8.23 210 08:56 20.03.2021
5094 Snow -3 1011 86 6000 8.23 210 08:29 20.03.2021
5095 Snow -3 1013 74 10000 7.2 220 07:50 20.03.2021
5096 Snow -3 1013 74 10000 7.2 220 07:30 20.03.2021
5097 Clear -4 1014 68 10000 6.69 220 06:46 20.03.2021
5098 Clear -5 1015 68 10000 5.66 220 05:37 20.03.2021
5099 Clear -7 1018 63 10000 3.6 230 03:46 20.03.2021
5100 Clear -8 1019 73 10000 3.09 220 02:42 20.03.2021
5101 Clear -13 1021 85 10000 1.03 250 23:56 19.03.2021
5102 Clear -10 1021 85 10000 1.03 240 23:22 19.03.2021
5103 Clear -9 1021 79 10000 1.03 0 22:45 19.03.2021
5104 Clear -10 1022 85 10000 0.46 232 22:25 19.03.2021
5105 Clear -9 1022 79 10000 1.03 230 21:52 19.03.2021
5106 Clear -9 1022 79 10000 0.51 0 21:21 19.03.2021
5107 Clear -8 1022 73 10000 0.51 0 20:46 19.03.2021
5108 Clear -8 1023 73 10000 1.03 0 20:27 19.03.2021
5109 Clear -8 1023 73 10000 1.03 0 20:27 19.03.2021
5110 Clear -8 1023 79 10000 1.03 280 19:52 19.03.2021
5111 Clear -7 1023 79 10000 1.03 280 19:26 19.03.2021
5112 Clear -6 1023 63 10000 1.03 320 18:58 19.03.2021
5113 Clear -6 1023 63 10000 1.03 320 18:37 19.03.2021
5114 Clear -5 1023 50 10000 1.54 340 18:18 19.03.2021
5115 Clear -4 1023 46 10000 2.57 360 17:48 19.03.2021
5116 Clear -4 1023 46 10000 3.09 360 17:23 19.03.2021
5117 Clear -3 1023 46 10000 2.57 360 16:44 19.03.2021
5118 Clear -3 1023 43 10000 4.12 10 16:26 19.03.2021
5119 Clear -3 1023 43 10000 3.6 10 15:34 19.03.2021
5120 Clouds -2 1023 46 10000 5.14 340 14:56 19.03.2021
5121 Clouds -3 1023 46 10000 5.14 340 14:35 19.03.2021
5122 Clouds -3 1023 50 10000 5.14 340 13:59 19.03.2021
5123 Clouds -3 1024 50 10000 4.63 40 13:24 19.03.2021
5124 Clouds -3 1023 54 10000 5.66 40 12:48 19.03.2021
5125 Clouds -3 1023 54 10000 5.66 40 12:29 19.03.2021
5126 Clouds -4 1024 54 10000 5.14 10 11:36 19.03.2021
5127 Clouds -5 1023 58 10000 5.66 10 10:53 19.03.2021
5128 Clouds -5 1023 58 10000 6.17 360 10:26 19.03.2021
5129 Clouds -5 1023 63 10000 6.69 30 09:47 19.03.2021
5130 Clouds -6 1023 63 10000 6.69 30 09:27 19.03.2021
5131 Clouds -6 1022 63 10000 6.69 20 08:53 19.03.2021
5132 Snow -6 1022 68 10000 6.17 10 08:30 19.03.2021
5133 Snow -6 1022 73 10000 5.14 10 07:51 19.03.2021
5134 Snow -6 1022 73 10000 5.14 10 07:32 19.03.2021
5135 Clouds -8 1021 79 10000 4.63 340 06:36 19.03.2021
5136 Clear -7 1019 73 10000 4.63 340 02:45 19.03.2021
5137 Clear -6 1018 63 10000 4.63 340 23:58 18.03.2021
5138 Clear -6 1018 63 10000 4.63 340 23:30 18.03.2021
5139 Clear -6 1018 58 10000 4.63 340 22:58 18.03.2021
5140 Clear -5 1018 58 10000 3.09 330 22:27 18.03.2021
5141 Clear -5 1018 58 10000 3.6 330 21:59 18.03.2021
5142 Clear -5 1018 53 10000 3.09 330 21:38 18.03.2021
5143 Clear -4 1017 50 10000 4.63 340 20:43 18.03.2021
5144 Clear -4 1017 50 10000 4.12 330 20:23 18.03.2021
5145 Clear -4 1017 42 10000 3.6 330 19:45 18.03.2021
5146 Clear -4 1017 46 10000 3.6 330 19:24 18.03.2021
5147 Clear -4 1017 46 10000 2.06 330 18:54 18.03.2021
5148 Clear -3 1017 46 10000 2.06 330 18:27 18.03.2021
5149 Clear -2 1016 37 10000 3.09 350 17:49 18.03.2021
5150 Clear -2 1016 37 10000 6.17 360 17:25 18.03.2021
5151 Clear -2 1016 40 10000 6.69 360 16:44 18.03.2021
5152 Clear -1 1016 40 10000 5.66 10 16:26 18.03.2021
5153 Clouds -1 1016 40 10000 6.69 360 15:45 18.03.2021
5154 Clouds -1 1016 40 10000 6.17 350 15:23 18.03.2021
5155 Clouds -1 1016 43 10000 6.69 350 14:53 18.03.2021
5156 Clouds -1 1016 43 10000 6.69 350 14:30 18.03.2021
5157 Clouds 0 1015 43 10000 6.17 360 13:49 18.03.2021
5158 Clouds 0 1015 43 10000 6.17 360 13:26 18.03.2021
5159 Snow -1 1015 64 10000 5.14 350 12:42 18.03.2021
5160 Snow -1 1015 64 10000 5.14 350 12:24 18.03.2021
5161 Snow 0 1015 69 10000 5.14 360 11:51 18.03.2021
5162 Snow 0 1015 69 10000 5.14 360 11:32 18.03.2021
5163 Snow -1 1015 80 10000 6.17 350 10:45 18.03.2021
5164 Snow -1 1015 80 10000 6.17 350 10:27 18.03.2021
5165 Snow -2 1015 86 10000 4.63 330 09:54 18.03.2021
5166 Clouds -1 1015 86 10000 4.63 330 09:29 18.03.2021
5167 Clouds -2 1015 93 10000 3.09 300 08:50 18.03.2021
5168 Snow -2 1015 93 8000 2.57 280 08:30 18.03.2021
5169 Snow -2 1015 93 2800 2.57 280 07:52 18.03.2021
5170 Snow -3 1015 86 6000 2.57 280 07:24 18.03.2021
5171 Clouds -4 1015 93 10000 2.57 270 06:28 18.03.2021
5172 Clouds -5 1016 100 10000 3.09 270 05:53 18.03.2021
5173 Clear -3 1017 86 10000 2.57 300 02:29 18.03.2021
5174 Clouds -2 1017 86 10000 4.12 340 23:59 17.03.2021
5175 Clouds -2 1018 86 10000 4.12 340 22:54 17.03.2021
5176 Clouds -2 1018 93 10000 3.6 320 22:27 17.03.2021
5177 Clouds -2 1018 93 10000 3.6 320 21:57 17.03.2021
5178 Clouds -2 1018 93 10000 2.06 330 21:39 17.03.2021
5179 Clouds -2 1018 93 10000 2.06 320 21:19 17.03.2021
5180 Clouds -1 1018 86 10000 2.06 330 20:43 17.03.2021
5181 Clouds 0 1018 86 10000 2.06 330 20:24 17.03.2021
5182 Clouds 0 1018 80 10000 3.6 350 19:46 17.03.2021
5183 Clouds 0 1018 80 10000 4.12 350 19:22 17.03.2021
5184 Clouds 0 1018 80 10000 4.12 340 18:55 17.03.2021
5185 Clouds 1 1018 80 10000 4.12 340 18:37 17.03.2021
5186 Clouds 1 1018 80 10000 3.09 350 17:49 17.03.2021
5187 Snow 1 1017 86 5000 3.6 340 17:27 17.03.2021
5188 Snow 1 1017 86 5000 3.6 340 16:47 17.03.2021
5189 Snow 1 1017 86 5000 3.6 340 16:25 17.03.2021
5190 Clouds 1 1017 86 10000 4.63 350 15:53 17.03.2021
5191 Clouds 2 1017 86 10000 4.63 350 15:35 17.03.2021
5192 Clouds 2 1017 75 10000 4.63 340 14:45 17.03.2021
5193 Clouds 2 1017 86 10000 4.63 360 14:27 17.03.2021
5194 Clouds 2 1017 75 10000 3.6 350 13:55 17.03.2021
5195 Clouds 1 1017 75 10000 3.6 350 13:30 17.03.2021
5196 Clouds 1 1017 80 10000 3.6 10 12:51 17.03.2021
5197 Clouds 2 1017 80 10000 3.6 10 12:33 17.03.2021
5198 Clouds 1 1017 86 10000 4.12 350 11:51 17.03.2021
5199 Clouds 1 1017 86 10000 4.63 360 11:23 17.03.2021
5200 Clouds 1 1017 86 10000 4.63 360 10:55 17.03.2021
5201 Clouds 1 1017 86 10000 4.63 360 10:28 17.03.2021
5202 Snow 1 1016 93 8000 4.12 360 09:49 17.03.2021
5203 Clouds 1 1016 93 8000 4.12 360 09:26 17.03.2021
5204 Snow 0 1016 100 4000 3.6 360 08:58 17.03.2021
5205 Clouds 0 1016 100 10000 3.09 350 08:38 17.03.2021
5206 Snow 0 1015 93 3000 1.54 330 07:49 17.03.2021
5207 Snow -1 1015 93 3000 1.54 330 07:30 17.03.2021
5208 Clouds -1 1015 100 10000 2.06 330 06:46 17.03.2021
5209 Snow -2 1015 93 7000 2.06 290 04:26 17.03.2021
5210 Clouds -2 1015 100 10000 2.06 270 03:25 17.03.2021
5211 Fog -3 1014 100 10000 1.54 270 00:40 17.03.2021
5212 Clouds -1 1014 100 10000 2.57 280 23:33 16.03.2021
5213 Clouds -1 1014 100 10000 1.54 270 22:59 16.03.2021
5214 Snow -1 1014 100 7000 1.54 240 22:35 16.03.2021
5215 Snow -1 1014 100 7000 1.54 240 22:35 16.03.2021
5216 Snow -1 1014 100 4000 1.03 0 21:54 16.03.2021
5217 Snow -1 1014 100 4000 1.03 0 21:35 16.03.2021
5218 Snow -1 1014 100 8000 1.54 270 20:59 16.03.2021
5219 Snow -1 1014 100 8000 1.54 270 20:59 16.03.2021
5220 Snow -1 1014 100 7000 1.03 0 20:41 16.03.2021
5221 Clouds -1 1014 100 10000 1.54 190 20:18 16.03.2021
5222 Clouds -1 1014 100 10000 1.03 0 19:42 16.03.2021
5223 Clouds -1 1014 100 10000 2.06 180 19:23 16.03.2021
5224 Clouds 0 1014 93 10000 2.06 210 18:45 16.03.2021
5225 Clouds 0 1014 93 10000 2.06 210 18:27 16.03.2021
5226 Clouds 1 1013 93 10000 2.57 200 17:50 16.03.2021
5227 Clouds 1 1013 93 10000 2.57 200 17:32 16.03.2021
5228 Clouds 2 1013 87 10000 3.09 210 16:53 16.03.2021
5229 Clouds 2 1013 87 10000 3.09 210 16:30 16.03.2021
5230 Clouds 2 1013 87 10000 3.09 210 15:47 16.03.2021
5231 Clouds 2 1013 87 10000 3.09 210 15:22 16.03.2021
5232 Clouds 2 1013 87 10000 3.09 210 14:59 16.03.2021
5233 Clouds 1 1013 93 10000 3.09 220 14:40 16.03.2021
5234 Clouds 2 1013 93 10000 3.09 210 14:21 16.03.2021
5235 Clouds 1 1013 93 10000 3.09 210 13:54 16.03.2021
5236 Clouds 1 1013 93 10000 2.57 210 13:27 16.03.2021
5237 Clouds 2 1013 86 10000 4.12 230 12:54 16.03.2021
5238 Clouds 1 1013 86 10000 4.12 230 12:35 16.03.2021
5239 Clouds 1 1012 93 10000 3.6 210 11:54 16.03.2021
5240 Clouds 1 1012 86 10000 3.6 230 11:28 16.03.2021
5241 Clouds 1 1012 100 10000 3.09 220 10:45 16.03.2021
5242 Snow 0 1012 100 7000 2.57 220 10:20 16.03.2021
5243 Snow 0 1012 93 7000 2.57 220 09:39 16.03.2021
5244 Snow 0 1011 93 10000 2.57 200 09:19 16.03.2021
5245 Snow 0 1011 93 10000 2.57 230 08:49 16.03.2021
5246 Snow 0 1011 93 10000 2.57 230 08:31 16.03.2021
5247 Snow 0 1011 93 10000 2.06 230 07:50 16.03.2021
5248 Clouds 0 1011 100 10000 3.09 260 06:57 16.03.2021
5249 Clouds -1 1010 100 10000 2.57 260 06:37 16.03.2021
5250 Clouds -1 1010 100 10000 3.09 260 05:35 16.03.2021
5251 Clouds -1 1009 100 7000 2.57 270 02:46 16.03.2021
5252 Clouds -1 1008 93 10000 3.6 280 02:25 16.03.2021
5253 Clouds -1 1007 100 10000 2.06 260 00:25 16.03.2021
5254 Clouds -1 1007 100 10000 2.06 260 00:25 16.03.2021
5255 Clouds 0 1006 93 10000 2.57 290 23:29 15.03.2021
5256 Clouds 0 1006 93 10000 2.57 290 22:57 15.03.2021
5257 Clouds 0 1006 93 10000 3.09 280 22:38 15.03.2021
5258 Clouds 0 1006 93 10000 3.09 290 22:20 15.03.2021
5259 Clear 0 1006 93 10000 3.09 290 21:44 15.03.2021
5260 Clear 0 1006 93 10000 3.09 290 21:26 15.03.2021
5261 Clear 0 1005 93 10000 3.09 290 20:47 15.03.2021
5262 Clear 0 1005 93 10000 3.09 290 20:27 15.03.2021
5263 Clouds 1 1004 93 10000 3.6 300 19:57 15.03.2021
5264 Clouds 1 1004 93 10000 3.6 300 19:38 15.03.2021
5265 Clouds 1 1004 93 10000 3.09 290 19:19 15.03.2021
5266 Clouds 1 1003 93 10000 3.6 280 18:40 15.03.2021
5267 Clouds 1 1003 93 10000 4.12 280 18:22 15.03.2021
5268 Clouds 1 1003 93 10000 3.6 280 17:43 15.03.2021
5269 Snow 1 1002 93 10000 3.09 290 17:22 15.03.2021
5270 Rain 1 1002 93 10000 4.12 300 16:43 15.03.2021
5271 Rain 1 1001 93 10000 4.63 290 15:56 15.03.2021
5272 Snow 2 1000 87 10000 5.14 290 15:28 15.03.2021
5273 Snow 2 1000 87 10000 5.14 290 14:55 15.03.2021
5274 Rain 1 1000 100 10000 4.12 300 14:36 15.03.2021
5275 Rain 1 999 93 10000 4.12 290 14:18 15.03.2021
5276 Clouds 2 999 93 10000 4.12 300 13:41 15.03.2021
5277 Snow 2 998 100 9000 5.14 300 13:23 15.03.2021
5278 Rain 2 998 93 10000 5.66 310 12:45 15.03.2021
5279 Rain 2 997 100 9000 5.14 300 12:18 15.03.2021
5280 Clouds 2 997 100 9000 5.66 310 11:41 15.03.2021
5281 Clouds 2 996 100 7000 5.66 310 11:21 15.03.2021
5282 Clouds 2 996 100 10000 5.14 310 10:43 15.03.2021
5283 Snow 1 995 93 10000 5.14 300 10:24 15.03.2021
5284 Snow 1 995 93 10000 4.63 300 09:44 15.03.2021
5285 Snow 1 995 93 10000 4.63 300 09:22 15.03.2021
5286 Clouds 1 994 93 10000 4.63 300 08:45 15.03.2021
5287 Clouds 1 994 93 10000 4.12 300 08:25 15.03.2021
5288 Snow 1 993 93 5000 4.63 290 07:40 15.03.2021
5289 Snow 1 993 93 4000 4.12 280 07:22 15.03.2021
5290 Snow 0 992 100 5000 4.12 280 05:37 15.03.2021
5291 Snow 0 991 100 3500 2.57 260 03:21 15.03.2021
5292 Snow 0 991 100 2600 1.03 270 00:42 15.03.2021
5293 Mist 0 991 100 2000 1.03 240 23:24 14.03.2021
5294 Snow 0 991 100 2900 1.13 289 22:50 14.03.2021
5295 Snow 0 991 100 3500 1.03 240 22:28 14.03.2021
5296 Snow 0 991 100 3500 1.54 140 21:56 14.03.2021
5297 Snow 0 991 100 4000 2.06 140 21:24 14.03.2021
5298 Snow 0 991 100 3500 1.54 130 20:59 14.03.2021
5299 Snow 0 991 100 3500 1.54 130 20:40 14.03.2021
5300 Mist 0 991 100 2600 1.03 0 20:22 14.03.2021
5301 Mist 0 990 100 3000 1.54 120 19:41 14.03.2021
5302 Mist 0 990 100 2800 1.54 120 19:19 14.03.2021
5303 Snow 0 990 100 3000 1.54 120 18:37 14.03.2021
5304 Snow 0 990 100 3000 1.03 110 17:56 14.03.2021
5305 Snow 0 990 100 3000 1.03 110 17:37 14.03.2021
5306 Snow 0 990 100 3000 1.54 80 17:19 14.03.2021
5307 Snow 1 990 100 6000 1.54 80 16:40 14.03.2021
5308 Snow 1 990 100 8000 2.57 60 16:21 14.03.2021
5309 Snow 1 990 100 3000 3.09 50 15:47 14.03.2021
5310 -273 0 0 0 0 0 14:55 14.03.2021
5311 Snow 1 990 100 2500 3.6 50 14:31 14.03.2021
5312 Snow 1 990 100 1500 4.12 60 13:55 14.03.2021
5313 Snow 1 990 100 1500 4.12 60 13:36 14.03.2021
5314 Snow 1 990 100 1500 4.63 60 12:59 14.03.2021
5315 Snow 1 990 100 1200 4.63 60 12:41 14.03.2021
5316 Snow 1 991 100 1200 4.12 60 12:22 14.03.2021
5317 Snow 1 991 93 2500 4.12 60 11:40 14.03.2021
5318 Snow 1 991 93 2500 4.12 70 11:22 14.03.2021
5319 Snow 1 991 93 2500 4.63 70 10:38 14.03.2021
5320 Clouds 1 991 93 9000 5.14 80 10:20 14.03.2021
5321 Snow 1 992 93 9000 4.12 90 09:57 14.03.2021
5322 Clouds 1 992 93 9000 4.12 90 09:39 14.03.2021
5323 Clouds 1 992 100 9000 3.6 80 09:20 14.03.2021
5324 Clouds 1 992 100 8000 3.6 80 08:37 14.03.2021
5325 Clouds 1 992 100 7000 3.09 80 07:58 14.03.2021
5326 Clouds 1 992 100 5000 2.57 100 07:28 14.03.2021
5327 Drizzle 1 992 100 1200 3.09 150 05:34 14.03.2021
5328 Snow 1 993 100 2800 3.09 130 01:27 14.03.2021
5329 Snow 1 993 100 7000 3.09 130 00:20 14.03.2021
5330 Snow 1 993 100 7000 2.57 130 23:59 13.03.2021
5331 Snow 1 993 100 7000 2.57 130 23:39 13.03.2021
5332 Clouds 1 993 100 8000 3.09 130 23:18 13.03.2021
5333 Clouds 1 993 100 7000 3.6 150 22:46 13.03.2021
5334 Clouds 1 993 100 7000 3.09 150 22:18 13.03.2021
5335 Clouds 1 993 100 7000 3.6 150 21:35 13.03.2021
5336 Clouds 1 994 100 6000 3.6 150 20:59 13.03.2021
5337 Clouds 1 994 100 7000 3.6 150 20:41 13.03.2021
5338 Clouds 1 994 100 7000 3.6 150 20:41 13.03.2021
5339 Clouds 1 994 100 7000 3.6 150 20:41 13.03.2021
5340 Clouds 1 994 100 7000 3.6 150 20:22 13.03.2021
5341 Clouds 1 994 93 7000 3.6 140 19:38 13.03.2021
5342 Clouds 1 994 100 8000 3.6 160 19:20 13.03.2021
5343 Snow 2 994 93 8000 4.12 170 18:42 13.03.2021
5344 Snow 2 994 93 10000 4.12 160 18:20 13.03.2021
5345 Drizzle 2 993 93 6000 3.6 140 17:47 13.03.2021
5346 Drizzle 2 993 93 4000 4.12 150 17:28 13.03.2021
5347 Rain 2 993 93 10000 3.09 160 16:51 13.03.2021
5348 Clouds 2 993 93 10000 3.09 160 16:33 13.03.2021
5349 Rain 3 993 93 10000 3.6 170 15:55 13.03.2021
5350 Clouds 3 993 93 10000 3.09 170 14:59 13.03.2021
5351 Clouds 3 993 93 10000 3.09 170 14:40 13.03.2021
5352 Clouds 2 993 93 10000 4.12 190 14:19 13.03.2021
5353 Clouds 3 993 93 10000 6.69 210 13:27 13.03.2021
5354 Clouds 2 993 93 10000 6.69 210 12:52 13.03.2021
5355 Clouds 2 993 87 10000 5.14 200 12:30 13.03.2021
5356 Clouds 2 993 87 10000 6.17 210 11:53 13.03.2021
5357 Clouds 2 993 87 10000 6.17 210 11:31 13.03.2021
5358 Clouds 2 992 87 10000 5.14 210 10:56 13.03.2021
5359 Clouds 2 992 93 10000 6.17 200 10:31 13.03.2021
5360 Clouds 2 992 93 10000 3.6 200 09:57 13.03.2021
5361 Clouds 2 992 93 10000 4.63 210 09:31 13.03.2021
5362 Clouds 2 991 93 10000 4.12 210 08:53 13.03.2021
5363 Clouds 2 991 93 10000 5.14 210 08:20 13.03.2021
5364 Clouds 2 991 93 10000 5.14 210 07:56 13.03.2021
5365 Clouds 1 990 100 10000 4.12 210 07:28 13.03.2021
5366 Clouds 0 989 100 8000 3.6 210 04:45 13.03.2021
5367 Snow -1 987 100 3000 1.03 100 01:21 13.03.2021
5368 Snow -1 987 100 3000 1.54 60 00:23 13.03.2021
5369 Snow -1 987 100 3500 1.54 80 23:33 12.03.2021
5370 Snow -1 987 100 3500 2.57 70 22:57 12.03.2021
5371 Snow -1 987 100 5000 2.57 60 22:30 12.03.2021
5372 Snow -1 986 100 6000 3.09 60 21:56 12.03.2021
5373 Rain -1 986 93 10000 3.09 70 21:37 12.03.2021
5374 Snow -1 986 93 10000 3.09 70 21:37 12.03.2021
5375 Rain -1 986 93 10000 2.57 70 21:18 12.03.2021
5376 Rain -1 986 93 10000 3.09 70 20:47 12.03.2021
5377 Clouds -1 986 93 10000 3.09 60 20:21 12.03.2021
5378 Clouds -1 986 93 10000 2.57 70 19:44 12.03.2021
5379 Rain -1 986 93 10000 2.57 70 19:25 12.03.2021
5380 Rain -1 986 86 10000 3.6 90 18:43 12.03.2021
5381 Rain -1 986 86 10000 3.6 90 18:24 12.03.2021
5382 Rain -1 986 86 10000 4.12 100 17:43 12.03.2021
5383 Snow -1 986 86 10000 4.12 100 17:24 12.03.2021
5384 Snow -1 986 86 10000 4.63 100 16:44 12.03.2021
5385 Snow -1 986 93 10000 5.14 110 16:23 12.03.2021
5386 Snow -1 986 93 10000 5.66 100 15:38 12.03.2021
5387 Snow -1 987 93 10000 5.66 100 14:52 12.03.2021
5388 Snow -1 987 93 10000 5.66 110 14:22 12.03.2021
5389 Snow -1 987 93 10000 5.66 110 14:22 12.03.2021
5390 Snow -1 987 93 10000 5.66 110 13:55 12.03.2021
5391 Snow -1 987 93 10000 5.66 110 13:37 12.03.2021
5392 Snow -1 987 86 10000 6.17 110 13:18 12.03.2021
5393 Snow -1 987 86 10000 6.17 110 12:42 12.03.2021
5394 Snow -1 987 86 10000 6.69 110 12:23 12.03.2021
5395 Snow -1 987 86 8000 6.69 120 11:52 12.03.2021
5396 Snow -1 988 93 4000 7.2 120 11:24 12.03.2021
5397 Snow -1 988 93 4000 7.2 120 10:55 12.03.2021
5398 Snow -1 988 86 5000 7.2 120 10:26 12.03.2021
5399 Snow -2 988 93 3800 8.23 120 09:57 12.03.2021
5400 Snow -2 988 86 10000 7.72 130 09:26 12.03.2021
5401 Snow -1 989 86 10000 7.72 130 08:46 12.03.2021
5402 Snow -2 989 86 10000 8.75 130 07:58 12.03.2021
5403 Snow -2 989 86 10000 8.23 130 07:34 12.03.2021
5404 Snow -2 990 86 10000 9.26 130 06:53 12.03.2021
5405 Snow -2 990 86 10000 9.26 130 06:28 12.03.2021
5406 Snow -2 990 86 10000 9.26 130 06:28 12.03.2021
5407 Snow -3 994 93 3000 7.2 120 02:49 12.03.2021
5408 Snow -3 997 80 3000 9.26 150 00:47 12.03.2021
5409 Clouds -2 998 69 10000 9.26 140 23:30 11.03.2021
5410 Clouds -3 999 74 10000 9.26 140 22:50 11.03.2021
5411 Clouds -3 999 74 10000 9.26 140 22:30 11.03.2021
5412 Clear -3 1001 74 10000 9.26 130 21:54 11.03.2021
5413 Clear -3 1001 74 10000 9.26 130 21:32 11.03.2021
5414 Clear -2 1002 74 10000 9.26 130 20:55 11.03.2021
5415 Clear -2 1002 69 10000 8.75 140 20:37 11.03.2021
5416 Clear -2 1003 69 10000 9.26 140 20:19 11.03.2021
5417 Clear -2 1003 74 10000 9.26 140 19:41 11.03.2021
5418 Clear -2 1004 74 10000 9.77 140 19:22 11.03.2021
5419 Clear -2 1004 74 10000 8.23 130 18:46 11.03.2021
5420 Clear -2 1005 64 10000 9.26 140 18:28 11.03.2021
5421 Clear -2 1005 69 10000 7.72 140 17:43 11.03.2021
5422 Clouds -1 1008 72 10000 5.36 138 16:47 11.03.2021
5423 Clear -1 1007 74 10000 7.72 130 16:27 11.03.2021
5424 Clouds -1 1008 74 10000 7.2 140 15:48 11.03.2021
5425 Clouds -1 1008 74 10000 7.72 140 15:21 11.03.2021
5426 Snow -1 1009 80 10000 8.23 140 14:46 11.03.2021
5427 Snow -1 1010 80 10000 7.2 140 14:19 11.03.2021
5428 Snow -2 1010 80 10000 8.23 140 13:47 11.03.2021
5429 Snow -2 1010 80 10000 8.23 140 13:28 11.03.2021
5430 Snow -2 1011 86 10000 7.72 140 12:57 11.03.2021
5431 Snow -2 1011 86 10000 7.2 150 12:37 11.03.2021
5432 Snow -3 1012 86 10000 5.66 150 12:19 11.03.2021
5433 Clouds -3 1012 86 10000 6.69 160 11:42 11.03.2021
5434 Clouds -3 1013 93 10000 7.2 150 11:20 11.03.2021
5435 Snow -4 1013 86 10000 6.69 140 10:30 11.03.2021
5436 Snow -4 1014 93 3000 7.2 140 09:57 11.03.2021
5437 Snow -4 1014 86 10000 6.17 130 09:37 11.03.2021
5438 Snow -5 1014 86 6000 6.69 130 09:18 11.03.2021
5439 Snow -5 1015 93 10000 5.66 130 08:44 11.03.2021
5440 Snow -6 1016 86 10000 4.63 130 08:18 11.03.2021
5441 Snow -7 1016 93 10000 6.17 150 07:22 11.03.2021
5442 Clouds -7 1016 93 10000 6.69 130 06:49 11.03.2021
5443 Clouds -7 1016 86 10000 6.17 130 06:23 11.03.2021
5444 Snow -8 1020 73 10000 5.14 130 02:48 11.03.2021
5445 Clouds -9 1022 67 10000 4.12 130 00:49 11.03.2021
5446 Clear -9 1022 62 10000 3.6 110 23:27 10.03.2021
5447 Clear -9 1023 78 10000 3.6 100 22:47 10.03.2021
5448 Clear -9 1023 78 10000 3.6 100 22:47 10.03.2021
5449 Clear -11 1023 78 10000 3.6 100 22:47 10.03.2021
5450 Clear -10 1023 85 10000 2.57 60 22:27 10.03.2021
5451 Clear -10 1024 78 10000 3.09 70 21:47 10.03.2021
5452 Clear -10 1024 78 10000 4.12 70 21:24 10.03.2021
5453 Clear -10 1024 78 10000 4.63 70 20:46 10.03.2021
5454 Clear -10 1024 78 10000 4.63 70 20:28 10.03.2021
5455 Clouds -10 1025 72 10000 5.14 60 19:50 10.03.2021
5456 Clouds -10 1025 72 10000 5.14 60 19:50 10.03.2021
5457 Clouds -10 1025 72 10000 5.14 60 19:28 10.03.2021
5458 Clouds -10 1025 72 10000 5.14 60 18:47 10.03.2021
5459 Clouds -10 1025 72 10000 5.14 60 18:28 10.03.2021
5460 Clouds -10 1025 73 10000 4.12 70 17:57 10.03.2021
5461 Clouds -10 1025 73 10000 4.12 70 17:37 10.03.2021
5462 Clouds -9 1025 67 10000 5.66 80 17:19 10.03.2021
5463 Clouds -9 1025 67 10000 5.14 80 16:44 10.03.2021
5464 Clouds -8 1026 62 10000 6.17 90 16:24 10.03.2021
5465 Clouds -8 1026 62 10000 5.66 70 15:47 10.03.2021
5466 Clouds -8 1026 57 10000 5.66 90 15:25 10.03.2021
5467 Clouds -8 1026 57 10000 5.66 90 15:25 10.03.2021
5468 Clouds -8 1026 57 10000 5.66 90 14:56 10.03.2021
5469 Clouds -8 1026 62 10000 6.17 90 14:21 10.03.2021
5470 Clouds -8 1026 57 10000 6.69 80 13:52 10.03.2021
5471 Clouds -8 1026 57 10000 6.69 80 13:31 10.03.2021
5472 Clouds -8 1027 57 10000 6.17 80 12:46 10.03.2021
5473 Clouds -8 1027 57 10000 6.17 90 12:23 10.03.2021
5474 Clouds -9 1027 62 10000 5.66 80 11:47 10.03.2021
5475 Clouds -9 1027 62 10000 5.66 80 11:21 10.03.2021
5476 Clouds -10 1027 67 10000 6.69 70 10:50 10.03.2021
5477 Clouds -9 1027 67 10000 6.69 70 10:31 10.03.2021
5478 Clouds -11 1027 72 10000 6.69 70 09:52 10.03.2021
5479 Clouds -12 1027 72 10000 6.69 70 09:32 10.03.2021
5480 Clouds -12 1027 72 10000 6.69 60 08:59 10.03.2021
5481 Clouds -13 1027 72 10000 5.66 60 08:40 10.03.2021
5482 Clouds -13 1026 78 10000 6.69 50 08:21 10.03.2021
5483 Clear -16 1026 85 10000 5.66 50 07:41 10.03.2021
5484 Clouds -16 1026 85 10000 5.66 40 07:19 10.03.2021
5485 Clouds -17 1026 78 10000 6.17 50 06:46 10.03.2021
5486 Clouds -16 1025 78 10000 5.66 50 02:42 10.03.2021
5487 Clear -14 1024 72 10000 7.2 50 23:53 09.03.2021
5488 Clear -13 1023 72 10000 8.23 50 23:26 09.03.2021
5489 Clear -13 1023 78 10000 7.72 50 22:47 09.03.2021
5490 Clear -13 1023 78 10000 7.72 50 22:28 09.03.2021
5491 Clear -13 1023 78 10000 7.2 50 21:56 09.03.2021
5492 Clear -12 1022 72 10000 6.69 60 21:37 09.03.2021
5493 Snow -12 1022 78 10000 7.2 60 21:18 09.03.2021
5494 Snow -12 1022 78 10000 7.2 60 21:18 09.03.2021
5495 Snow -11 1022 72 10000 7.2 60 20:43 09.03.2021
5496 Snow -11 1021 72 10000 7.2 60 20:21 09.03.2021
5497 Snow -11 1021 73 10000 7.72 60 19:53 09.03.2021
5498 Snow -10 1021 79 10000 7.2 60 19:28 09.03.2021
5499 Snow -10 1020 79 4500 8.75 60 18:51 09.03.2021
5500 Snow -9 1020 79 4500 8.75 60 18:29 09.03.2021
5501 Snow -9 1020 85 3500 8.23 60 17:54 09.03.2021
5502 Snow -8 1019 85 1400 8.75 60 17:34 09.03.2021
5503 Snow -7 1018 92 700 9.26 60 16:55 09.03.2021
5504 Snow -7 1018 92 700 9.26 60 16:37 09.03.2021
5505 Snow -7 1018 86 700 8.75 70 16:19 09.03.2021
5506 Snow -6 1018 86 700 8.75 70 15:44 09.03.2021
5507 Snow -6 1017 86 700 7.72 70 15:22 09.03.2021
5508 Snow -6 1017 86 1000 8.23 70 14:36 09.03.2021
5509 Snow -5 1017 93 1000 8.23 80 14:18 09.03.2021
5510 Snow -5 1016 86 700 7.72 80 13:38 09.03.2021
5511 Snow -5 1016 93 600 8.23 90 13:20 09.03.2021
5512 Snow -5 1016 93 1200 8.23 100 12:40 09.03.2021
5513 Snow -4 1015 93 1200 8.75 90 12:21 09.03.2021
5514 Snow -4 1015 93 1200 7.72 100 11:42 09.03.2021
5515 Snow -4 1015 93 2000 8.75 100 11:21 09.03.2021
5516 Snow -4 1015 86 2000 7.2 110 10:55 09.03.2021
5517 Snow -4 1015 86 2000 7.2 110 10:36 09.03.2021
5518 Snow -3 1015 86 2500 5.66 110 10:18 09.03.2021
5519 Snow -3 1015 86 2500 6.17 110 09:42 09.03.2021
5520 Snow -4 1015 93 1600 6.17 110 09:23 09.03.2021
5521 Snow -4 1016 95 5954 5.81 126 08:46 09.03.2021
5522 Snow -4 1015 93 2000 5.14 110 08:21 09.03.2021
5523 Snow -4 1015 93 2500 4.12 90 07:38 09.03.2021
5524 Snow -4 1015 93 1800 4.12 90 07:20 09.03.2021
5525 Snow -7 1015 93 3000 3.09 90 05:55 09.03.2021
5526 Snow -7 1015 93 3000 3.09 90 05:37 09.03.2021
5527 Clear -11 1017 79 10000 1.54 90 00:29 09.03.2021
5528 Clear -13 1017 85 10000 0.51 40 23:42 08.03.2021
5529 Clear -13 1017 85 10000 0.51 0 23:23 08.03.2021
5530 Clear -13 1017 78 10000 0.51 0 22:45 08.03.2021
5531 Clear -11 1017 78 10000 0.51 0 22:27 08.03.2021
5532 Clear -10 1017 78 10000 0.51 0 21:55 08.03.2021
5533 Clear -11 1017 78 10000 0.51 0 21:35 08.03.2021
5534 Clear -9 1017 79 10000 1.03 250 20:47 08.03.2021
5535 Clear -9 1017 79 10000 1.03 340 20:26 08.03.2021
5536 Clear -9 1017 73 10000 1.03 340 19:59 08.03.2021
5537 Clear -8 1017 73 10000 1.03 340 19:36 08.03.2021
5538 Clear -7 1017 62 10000 2.06 320 18:42 08.03.2021
5539 Clear -6 1017 53 10000 2.57 320 18:21 08.03.2021
5540 Clear -6 1017 53 10000 2.57 320 17:51 08.03.2021
5541 Clear -5 1016 46 10000 2.57 330 17:26 08.03.2021
5542 Clear -4 1016 42 10000 3.09 340 16:49 08.03.2021
5543 Clear -4 1016 42 10000 3.09 340 16:29 08.03.2021
5544 Clear -4 1016 42 10000 3.6 330 15:51 08.03.2021
5545 Clear -3 1016 46 10000 4.63 330 15:29 08.03.2021
5546 Clear -3 1016 42 10000 3.6 340 14:46 08.03.2021
5547 Clear -3 1016 46 10000 4.63 320 14:20 08.03.2021
5548 Clear -4 1016 42 10000 4.12 350 13:40 08.03.2021
5549 Clear -4 1015 46 10000 4.12 350 13:19 08.03.2021
5550 Clear -4 1015 50 10000 4.63 330 12:45 08.03.2021
5551 Clear -4 1015 50 10000 4.63 330 12:26 08.03.2021
5552 Clear -5 1015 58 10000 4.63 330 11:40 08.03.2021
5553 Clear -6 1015 63 10000 5.14 320 11:19 08.03.2021
5554 Clear -6 1015 68 10000 4.63 330 10:43 08.03.2021
5555 Clear -6 1015 68 10000 4.63 330 10:24 08.03.2021
5556 Clear -7 1014 67 10000 5.14 330 09:41 08.03.2021
5557 Clear -7 1014 73 10000 4.63 340 09:22 08.03.2021
5558 Clear -8 1013 73 10000 5.14 340 08:28 08.03.2021
5559 Clouds -9 1012 79 10000 4.63 340 07:24 08.03.2021
5560 Clouds -9 1012 79 10000 4.63 340 07:24 08.03.2021
5561 Clouds -9 1012 79 10000 3.09 340 06:44 08.03.2021
5562 Snow -6 1009 79 10000 4.63 350 03:39 08.03.2021
5563 Snow -5 1007 74 7000 5.14 350 00:45 08.03.2021
5564 Snow -5 1006 74 9000 5.66 340 23:59 07.03.2021
5565 Snow -5 1005 80 7000 5.66 350 23:39 07.03.2021
5566 Snow -5 1005 80 8000 5.14 340 23:19 07.03.2021
5567 Snow -5 1004 80 7000 5.66 340 22:43 07.03.2021
5568 Snow -5 1004 74 10000 7.2 350 22:25 07.03.2021
5569 Snow -6 1003 74 10000 6.17 340 21:45 07.03.2021
5570 Snow -5 1003 74 10000 5.66 340 21:25 07.03.2021
5571 Clouds -6 1002 73 10000 5.14 350 20:48 07.03.2021
5572 Clouds -6 1002 73 10000 5.14 350 20:30 07.03.2021
5573 Clouds -5 1001 68 10000 6.69 350 19:57 07.03.2021
5574 Clouds -5 1001 68 10000 6.69 350 19:38 07.03.2021
5575 Snow -5 1001 80 10000 5.14 360 19:20 07.03.2021
5576 Snow -5 1001 80 10000 5.14 360 19:20 07.03.2021
5577 Snow -5 1000 80 10000 6.17 340 18:42 07.03.2021
5578 Snow -5 999 80 9000 6.17 340 18:19 07.03.2021
5579 Snow -5 998 80 10000 7.72 330 17:41 07.03.2021
5580 Clouds -5 998 80 10000 7.2 330 17:21 07.03.2021
5581 Clouds -4 998 80 10000 7.2 330 16:58 07.03.2021
5582 Snow -4 997 80 2500 7.72 330 16:38 07.03.2021
5583 Snow -4 996 80 10000 7.2 330 16:19 07.03.2021
5584 Clouds -3 996 68 10000 8.75 330 15:43 07.03.2021
5585 Clouds -3 995 68 10000 6.69 330 15:22 07.03.2021
5586 Snow -3 994 80 10000 8.23 330 14:37 07.03.2021
5587 Snow -3 993 68 10000 8.75 320 14:19 07.03.2021
5588 Clouds -2 993 74 10000 9.77 320 13:41 07.03.2021
5589 Clouds -3 992 74 10000 8.23 320 13:21 07.03.2021
5590 Snow -3 992 80 2200 7.72 310 12:46 07.03.2021
5591 Snow -3 992 80 2200 7.72 310 12:28 07.03.2021
5592 Snow -3 991 86 2800 6.69 300 11:45 07.03.2021
5593 Snow -3 991 86 2800 6.69 300 11:22 07.03.2021
5594 Snow -4 991 93 1600 6.17 280 10:43 07.03.2021
5595 Snow -4 990 86 2000 5.14 270 10:25 07.03.2021
5596 Snow -4 990 80 5000 5.14 270 09:43 07.03.2021
5597 Snow -4 990 74 10000 6.17 290 09:23 07.03.2021
5598 Snow -5 990 80 10000 6.69 290 08:45 07.03.2021
5599 Snow -5 990 86 3000 4.63 290 08:24 07.03.2021
5600 Snow -6 990 79 10000 6.69 270 07:34 07.03.2021
5601 Snow -4 992 74 6000 5.14 320 02:42 07.03.2021
5602 Snow -3 992 50 10000 9.26 290 00:51 07.03.2021
5603 Clouds -2 992 40 10000 10.8 290 23:45 06.03.2021
5604 Clouds -2 992 54 10000 8.75 280 23:24 06.03.2021
5605 Clouds -2 993 69 10000 8.75 290 22:48 06.03.2021
5606 Clouds -1 993 69 10000 8.75 290 22:28 06.03.2021
5607 Clouds 0 992 69 10000 7.2 280 21:58 06.03.2021
5608 Snow 0 993 75 10000 8.75 290 21:22 06.03.2021
5609 Snow 1 993 86 8000 6.69 270 20:52 06.03.2021
5610 Snow 1 993 86 8000 6.69 270 20:27 06.03.2021
5611 Snow 1 994 93 5000 7.2 260 19:49 06.03.2021
5612 Snow 1 994 93 5000 7.2 260 19:22 06.03.2021
5613 Snow 2 994 75 10000 6.69 230 18:54 06.03.2021
5614 Snow 2 994 75 10000 6.69 230 18:36 06.03.2021
5615 Clouds 2 994 75 10000 6.17 230 18:18 06.03.2021
5616 Clouds 2 995 75 10000 5.66 230 17:42 06.03.2021
5617 Snow 1 995 86 10000 6.69 240 17:21 06.03.2021
5618 Snow 2 997 85 1415 3.13 243 16:43 06.03.2021
5619 Snow 2 997 80 10000 7.2 240 16:24 06.03.2021
5620 Snow 2 997 80 10000 7.2 230 15:51 06.03.2021
5621 Snow 2 997 80 10000 7.2 230 15:31 06.03.2021
5622 Snow 1 999 86 10000 5.66 230 14:53 06.03.2021
5623 Clouds 1 999 86 10000 7.2 230 14:29 06.03.2021
5624 Clouds 1 999 86 10000 7.2 230 14:29 06.03.2021
5625 Snow 1 1000 86 4500 6.69 230 13:42 06.03.2021
5626 Snow 1 1001 93 4500 7.2 220 13:20 06.03.2021
5627 Snow 0 1002 93 2500 7.2 220 12:44 06.03.2021
5628 Snow 0 1003 93 2500 6.69 220 12:20 06.03.2021
5629 Snow 0 1003 93 2200 6.69 210 11:55 06.03.2021
5630 Snow 0 1004 93 1600 7.72 220 11:22 06.03.2021
5631 Snow 0 1005 93 2500 8.23 210 10:49 06.03.2021
5632 Snow 0 1006 93 1300 7.72 210 10:24 06.03.2021
5633 Snow 0 1006 86 2500 8.75 200 09:47 06.03.2021
5634 Snow 0 1007 80 10000 6.69 190 09:20 06.03.2021
5635 Clouds -1 1008 86 10000 8.23 200 08:46 06.03.2021
5636 Clouds -1 1009 86 10000 7.72 200 07:58 06.03.2021
5637 Clouds -2 1010 80 10000 6.69 190 07:39 06.03.2021
5638 Clouds -4 1011 80 10000 6.17 190 07:19 06.03.2021
5639 Clouds -6 1014 86 10000 3.6 190 05:37 06.03.2021
5640 Clear -8 1017 85 10000 2.57 230 02:38 06.03.2021
5641 Clear -7 1017 86 10000 3.09 250 00:56 06.03.2021
5642 Clear -7 1018 86 10000 2.06 280 23:54 05.03.2021
5643 Clear -6 1018 86 10000 2.57 250 23:29 05.03.2021
5644 Clear -6 1018 79 10000 2.06 270 22:49 05.03.2021
5645 Clear -6 1018 79 10000 2.06 270 22:23 05.03.2021
5646 Clear -6 1018 73 10000 2.57 280 21:54 05.03.2021
5647 Clear -6 1018 79 10000 2.57 290 21:35 05.03.2021
5648 Clear -5 1018 73 10000 3.09 300 20:58 05.03.2021
5649 Clear -5 1018 73 10000 3.6 300 20:40 05.03.2021
5650 Clear -5 1018 68 10000 3.6 290 20:21 05.03.2021
5651 Clear -5 1018 68 10000 3.6 290 19:36 05.03.2021
5652 Clear -4 1017 68 10000 3.09 290 19:18 05.03.2021
5653 Clear -4 1017 63 10000 3.6 300 18:42 05.03.2021
5654 Clear -4 1017 63 10000 3.6 300 18:42 05.03.2021
5655 Clouds -3 1017 63 10000 4.12 310 18:23 05.03.2021
5656 Clouds -3 1016 54 10000 3.6 320 17:37 05.03.2021
5657 Clouds -2 1016 54 10000 3.6 320 17:37 05.03.2021
5658 Clouds -2 1016 54 10000 4.63 330 16:58 05.03.2021
5659 Clouds -2 1016 54 10000 4.63 330 16:38 05.03.2021
5660 Clouds -2 1016 50 10000 5.14 340 16:20 05.03.2021
5661 Clouds -1 1015 50 10000 5.66 340 15:46 05.03.2021
5662 Clouds -1 1015 50 10000 5.14 340 15:23 05.03.2021
5663 Clouds -1 1015 50 10000 6.17 340 14:39 05.03.2021
5664 Clouds -1 1015 50 10000 6.69 340 13:59 05.03.2021
5665 Clouds -1 1014 50 10000 6.17 310 13:22 05.03.2021
5666 Clouds -2 1014 50 10000 6.17 310 13:00 05.03.2021
5667 Clouds -2 1014 46 10000 5.66 330 12:27 05.03.2021
5668 Clear -3 1014 54 10000 5.14 340 11:37 05.03.2021
5669 Clear -3 1014 54 10000 5.14 340 11:37 05.03.2021
5670 Clear -3 1014 50 10000 6.17 340 11:18 05.03.2021
5671 Clear -3 1014 50 10000 5.66 330 10:42 05.03.2021
5672 Clear -3 1013 54 10000 4.63 330 10:23 05.03.2021
5673 Clear -4 1013 58 10000 4.12 310 09:50 05.03.2021
5674 Clear -4 1013 58 10000 4.12 320 09:27 05.03.2021
5675 Clear -5 1013 68 10000 2.57 290 08:46 05.03.2021
5676 Clear -6 1012 68 10000 3.6 310 08:27 05.03.2021
5677 Clear -6 1012 73 10000 4.12 310 07:55 05.03.2021
5678 Clear -8 1012 79 10000 3.09 300 07:28 05.03.2021
5679 Clear -8 1012 85 10000 4.12 310 06:33 05.03.2021
5680 Clear -7 1011 73 10000 3.6 310 03:34 05.03.2021
5681 Clouds -5 1010 73 10000 3.6 330 00:49 05.03.2021
5682 Clouds -5 1010 63 10000 4.63 320 23:43 04.03.2021
5683 Clouds -4 1009 63 10000 6.17 320 22:55 04.03.2021
5684 Clouds -3 1009 59 10000 4.63 330 22:26 04.03.2021
5685 Clouds -3 1009 59 10000 7.72 340 21:51 04.03.2021
5686 Clouds -3 1009 59 10000 7.72 340 21:29 04.03.2021
5687 Snow -3 1008 74 10000 5.14 330 20:42 04.03.2021
5688 Snow -3 1008 74 10000 4.63 330 20:23 04.03.2021
5689 Snow -3 1008 74 10000 4.63 330 19:58 04.03.2021
5690 Snow -3 1008 80 10000 5.14 330 19:39 04.03.2021
5691 Snow -3 1008 80 10000 4.63 320 19:19 04.03.2021
5692 Snow -3 1008 93 10000 2.57 290 18:45 04.03.2021
5693 Clouds -2 1007 100 10000 3.09 290 18:23 04.03.2021
5694 Clouds -2 1007 86 10000 3.6 300 17:46 04.03.2021
5695 Snow -2 1007 80 8000 2.57 290 17:27 04.03.2021
5696 Snow -2 1007 80 8000 2.57 290 17:27 04.03.2021
5697 Clouds -1 1007 80 10000 2.57 310 16:46 04.03.2021
5698 Clouds -1 1007 80 10000 4.12 320 16:25 04.03.2021
5699 Snow -1 1007 80 6000 6.69 300 15:50 04.03.2021
5700 Snow 0 1007 80 6000 6.69 300 15:31 04.03.2021
5701 Clear 1 1007 40 10000 5.14 300 14:48 04.03.2021
5702 Clear 1 1007 51 10000 4.63 280 14:26 04.03.2021
5703 Clear 1 1007 51 10000 5.14 280 13:47 04.03.2021
5704 Clear 1 1007 51 10000 5.66 310 13:29 04.03.2021
5705 Clear 0 1007 51 10000 5.66 310 12:49 04.03.2021
5706 Clear 1 1007 51 10000 5.66 310 12:31 04.03.2021
5707 Clear 0 1007 59 10000 5.66 310 11:43 04.03.2021
5708 Clear -1 1008 59 10000 5.66 310 11:23 04.03.2021
5709 Clear -1 1007 64 10000 6.17 330 10:47 04.03.2021
5710 Clear -1 1007 64 10000 6.17 330 10:26 04.03.2021
5711 Clouds -2 1007 64 10000 6.69 330 09:39 04.03.2021
5712 Clear -2 1007 74 10000 5.66 320 08:59 04.03.2021
5713 Clear -3 1007 74 10000 5.66 320 08:34 04.03.2021
5714 Clear -3 1006 74 10000 5.66 320 07:53 04.03.2021
5715 Clear -3 1006 74 10000 5.66 320 07:21 04.03.2021
5716 Clear -3 1006 80 10000 4.63 320 06:24 04.03.2021
5717 Clear -3 1006 80 10000 4.63 320 06:24 04.03.2021
5718 Clear -2 1006 86 10000 4.12 300 03:25 04.03.2021
5719 Clear -1 1006 86 10000 4.63 300 01:40 04.03.2021
5720 Snow 1 1006 86 4000 5.66 330 22:44 03.03.2021
5721 Snow 1 1006 86 6000 3.09 310 22:26 03.03.2021
5722 Clouds 2 1006 80 10000 4.63 280 21:43 03.03.2021
5723 Clouds 2 1006 87 10000 5.14 290 21:24 03.03.2021
5724 Clouds 2 1006 87 10000 5.66 280 20:58 03.03.2021
5725 Clouds 3 1006 87 10000 5.66 280 20:40 03.03.2021
5726 Clouds 3 1006 87 10000 4.63 270 19:59 03.03.2021
5727 Clouds 3 1006 93 10000 4.12 270 19:40 03.03.2021
5728 Clouds 3 1006 87 10000 4.63 270 19:21 03.03.2021
5729 Clouds 4 1006 81 10000 7.2 270 18:46 03.03.2021
5730 Rain 4 1007 75 10000 6.69 280 18:21 03.03.2021
5731 Rain 5 1007 75 10000 6.17 270 17:43 03.03.2021
5732 Rain 5 1007 70 10000 6.69 270 17:18 03.03.2021
5733 Rain 5 1007 70 10000 6.69 270 17:18 03.03.2021
5734 Clouds 6 1007 65 10000 5.66 260 16:41 03.03.2021
5735 Clouds 5 1008 70 10000 6.69 270 16:22 03.03.2021
5736 Clouds 6 1008 65 10000 6.17 260 15:33 03.03.2021
5737 Clouds 6 1009 61 10000 7.2 260 14:58 03.03.2021
5738 Clouds 6 1009 61 10000 7.2 260 14:30 03.03.2021
5739 Clouds 6 1011 61 10000 6.17 250 13:52 03.03.2021
5740 Clouds 6 1011 56 10000 7.2 260 13:31 03.03.2021
5741 Clouds 5 1012 60 10000 6.17 260 12:45 03.03.2021
5742 Clouds 5 1012 60 10000 5.66 260 12:26 03.03.2021
5743 Clear 4 1013 65 10000 5.66 260 11:48 03.03.2021
5744 Clear 4 1013 65 10000 5.66 260 11:28 03.03.2021
5745 Clouds 4 1014 70 10000 5.14 270 10:50 03.03.2021
5746 Clouds 3 1014 70 10000 5.14 270 10:31 03.03.2021
5747 Clear 3 1015 75 10000 5.14 260 09:49 03.03.2021
5748 Clear 2 1015 75 10000 5.14 260 09:31 03.03.2021
5749 Clear 1 1016 80 10000 4.63 260 08:44 03.03.2021
5750 Clear 0 1017 86 10000 4.63 260 08:22 03.03.2021
5751 Clear 0 1017 86 10000 4.63 260 07:41 03.03.2021
5752 Clear -2 1018 93 10000 4.12 250 06:51 03.03.2021
5753 Clear -2 1019 93 10000 4.12 250 05:49 03.03.2021
5754 Clear -1 1019 86 10000 4.12 240 04:59 03.03.2021
5755 Clear -1 1019 86 10000 3.6 250 04:35 03.03.2021
5756 Clear -1 1021 86 10000 5.14 270 02:19 03.03.2021
5757 Clear 0 1022 80 10000 5.14 270 23:58 02.03.2021
5758 Clear 0 1022 80 10000 5.14 270 23:28 02.03.2021
5759 Clear 0 1022 80 10000 4.63 270 22:42 02.03.2021
5760 Clear 0 1022 80 10000 4.63 270 22:19 02.03.2021
5761 Clear 0 1022 80 10000 4.12 270 21:40 02.03.2021
5762 Clear 1 1022 75 10000 5.14 270 21:22 02.03.2021
5763 Clear 1 1022 75 10000 5.14 270 20:47 02.03.2021
5764 Clear 1 1022 80 10000 4.63 270 20:22 02.03.2021
5765 Clear 2 1022 75 10000 5.14 280 19:53 02.03.2021
5766 Clear 2 1022 75 10000 5.14 280 19:33 02.03.2021
5767 Clear 2 1022 75 10000 5.14 280 18:58 02.03.2021
5768 Clear 2 1022 75 10000 5.14 280 18:40 02.03.2021
5769 Clear 3 1021 65 10000 4.63 270 18:21 02.03.2021
5770 Clear 3 1021 65 10000 4.12 280 17:49 02.03.2021
5771 Clear 3 1021 65 10000 4.12 280 17:29 02.03.2021
5772 Clear 4 1020 60 10000 5.66 290 16:49 02.03.2021
5773 Clear 5 1020 56 10000 5.66 290 16:20 02.03.2021
5774 Clear 5 1020 56 10000 5.66 290 16:20 02.03.2021
5775 Clear 5 1020 56 10000 6.17 300 15:48 02.03.2021
5776 Clear 5 1020 56 10000 6.17 300 15:22 02.03.2021
5777 Clouds 6 1019 56 10000 8.23 300 14:22 02.03.2021
5778 Clouds 5 1019 60 10000 7.72 290 13:49 02.03.2021
5779 Clouds 5 1019 60 10000 7.72 290 13:29 02.03.2021
5780 Clouds 5 1019 65 10000 8.75 300 12:51 02.03.2021
5781 Clouds 5 1019 65 10000 8.75 300 12:51 02.03.2021
5782 Clouds 5 1019 65 10000 8.75 300 12:29 02.03.2021
5783 Clouds 5 1019 65 10000 9.26 290 11:53 02.03.2021
5784 Clouds 4 1019 65 10000 9.26 290 11:30 02.03.2021
5785 Clouds 4 1018 65 10000 8.75 300 10:57 02.03.2021
5786 Clouds 4 1018 65 10000 6.69 300 10:31 02.03.2021
5787 Clouds 3 1018 70 10000 7.2 310 09:44 02.03.2021
5788 Clouds 3 1017 70 10000 6.69 300 09:24 02.03.2021
5789 Clear 2 1017 75 10000 6.17 300 08:56 02.03.2021
5790 Clear 2 1017 75 10000 6.17 300 08:33 02.03.2021
5791 Clear 2 1016 75 10000 5.66 310 07:52 02.03.2021
5792 Clear 2 1015 75 10000 6.17 300 06:39 02.03.2021
5793 Clear 2 1014 80 10000 5.66 310 05:52 02.03.2021
5794 Clear 2 1014 80 10000 5.66 310 05:33 02.03.2021
5795 Clear 3 1013 75 10000 6.17 300 04:38 02.03.2021
5796 Clear 3 1014 75 10000 5.14 270 01:43 02.03.2021
5797 Clear 3 1014 75 10000 5.14 270 01:43 02.03.2021
5798 Clear 3 1014 75 10000 5.14 270 01:43 02.03.2021
5799 Clear 3 1014 75 10000 4.12 270 01:21 02.03.2021
5800 Clear 3 1015 75 10000 4.63 270 23:37 01.03.2021
5801 Clear 3 1015 75 10000 4.63 270 23:19 01.03.2021
5802 Clear 3 1015 75 10000 4.63 270 22:38 01.03.2021
5803 Clear 3 1015 75 10000 5.14 270 22:19 01.03.2021
5804 Clear 3 1015 75 10000 5.66 270 21:41 01.03.2021
5805 Clear 3 1015 75 10000 5.66 270 21:23 01.03.2021
5806 Clear 3 1015 75 10000 5.14 260 20:43 01.03.2021
5807 Clear 3 1015 75 10000 5.14 260 20:43 01.03.2021
5808 Clear 3 1015 75 10000 4.63 260 20:21 01.03.2021
5809 Clear 3 1015 75 10000 5.14 270 19:43 01.03.2021
5810 Clear 3 1015 75 10000 5.14 270 19:24 01.03.2021
5811 Clear 4 1015 70 10000 5.14 270 18:43 01.03.2021
5812 Clear 4 1015 70 10000 6.17 270 18:23 01.03.2021
5813 Clear 4 1015 70 10000 6.17 270 17:47 01.03.2021
5814 Clear 5 1015 70 10000 6.17 270 17:22 01.03.2021
5815 Clear 5 1015 65 10000 5.66 270 16:47 01.03.2021
5816 Clear 5 1015 65 10000 5.66 270 16:27 01.03.2021
5817 Clear 5 1015 65 10000 5.14 270 15:49 01.03.2021
5818 Clear 5 1015 65 10000 5.14 270 15:23 01.03.2021
5819 Clear 5 1015 70 10000 4.12 260 14:58 01.03.2021
5820 Clear 5 1015 70 10000 4.12 260 14:39 01.03.2021
5821 Clear 6 1015 70 10000 4.63 260 13:56 01.03.2021
5822 Clear 5 1016 75 10000 4.12 260 13:37 01.03.2021
5823 Clear 5 1016 70 10000 4.63 260 13:18 01.03.2021
5824 Clear 5 1016 70 10000 4.63 250 12:42 01.03.2021
5825 Clear 5 1016 70 10000 4.63 250 12:22 01.03.2021
5826 Clear 5 1018 75 10000 3.09 240 11:47 01.03.2021
5827 Clear 5 1018 75 10000 3.09 240 11:47 01.03.2021
5828 Clear 4 1018 81 10000 3.09 230 11:18 01.03.2021
5829 Clear 4 1018 81 10000 3.6 240 10:37 01.03.2021
5830 Clear 4 1019 81 10000 3.09 250 10:18 01.03.2021
5831 Clear 3 1019 87 10000 4.12 240 09:48 01.03.2021
5832 Clear 2 1019 87 10000 4.12 240 09:28 01.03.2021
5833 Clear 2 1019 93 10000 4.12 230 08:55 01.03.2021
5834 Clear 1 1019 86 10000 2.57 250 08:22 01.03.2021
5835 Clear 0 1020 93 10000 4.63 240 07:19 01.03.2021
5836 Clear 0 1020 93 10000 3.6 240 06:24 01.03.2021
5837 Clear 1 1021 93 10000 3.6 250 02:38 01.03.2021
5838 Clear 2 1022 87 10000 4.12 270 23:44 28.02.2021
5839 Clear 3 1022 87 10000 4.12 280 22:57 28.02.2021
5840 Clear 3 1022 87 10000 4.12 280 22:28 28.02.2021
5841 Clear 3 1022 87 10000 4.12 280 22:28 28.02.2021
5842 Clear 3 1022 87 10000 4.12 280 21:58 28.02.2021
5843 Clear 2 1022 87 10000 4.63 270 21:33 28.02.2021
5844 Clear 2 1022 87 10000 4.12 270 20:59 28.02.2021
5845 Clear 3 1021 81 10000 4.12 270 20:39 28.02.2021
5846 Clear 3 1021 87 10000 4.12 290 20:18 28.02.2021
5847 Clear 2 1021 80 10000 2.57 270 19:45 28.02.2021
5848 Clear 3 1021 87 10000 2.06 280 19:24 28.02.2021
5849 Clear 3 1021 81 10000 3.09 260 18:44 28.02.2021
5850 Clear 4 1021 75 10000 3.09 270 18:25 28.02.2021
5851 Clear 4 1021 65 10000 2.57 290 17:51 28.02.2021
5852 Clear 5 1020 65 10000 4.12 300 17:28 28.02.2021
5853 Clear 5 1020 65 10000 3.09 300 16:56 28.02.2021
5854 Clear 5 1020 65 10000 3.09 300 16:38 28.02.2021
5855 Clear 6 1020 65 10000 4.12 310 16:18 28.02.2021
5856 Clear 7 1020 65 10000 3.09 320 15:47 28.02.2021
5857 Clear 7 1020 65 10000 4.63 320 15:24 28.02.2021
5858 Clear 7 1019 61 10000 6.69 320 14:52 28.02.2021
5859 Clouds 7 1019 65 10000 4.63 320 14:29 28.02.2021
5860 Clouds 7 1019 61 10000 6.17 320 13:52 28.02.2021
5861 Clouds 7 1018 61 10000 6.69 320 13:21 28.02.2021
5862 Clouds 7 1018 65 10000 7.2 320 12:56 28.02.2021
5863 Clouds 6 1018 65 10000 7.2 320 12:38 28.02.2021
5864 Clouds 7 1017 65 10000 6.17 320 12:19 28.02.2021
5865 Clouds 6 1017 70 10000 7.72 330 11:46 28.02.2021
5866 Clouds 6 1017 70 10000 6.69 330 11:26 28.02.2021
5867 Clouds 6 1017 75 10000 7.2 320 10:55 28.02.2021
5868 Clouds 5 1017 75 10000 7.2 320 10:29 28.02.2021
5869 Clouds 5 1016 75 10000 6.17 320 09:54 28.02.2021
5870 Clouds 5 1016 75 10000 6.17 320 09:34 28.02.2021
5871 Clear 4 1015 75 10000 7.2 300 08:52 28.02.2021
5872 Clear 4 1015 75 10000 7.2 300 08:32 28.02.2021
5873 Clear 2 1015 81 10000 6.69 300 07:57 28.02.2021
5874 Clear 3 1015 81 10000 5.66 300 07:38 28.02.2021
5875 Clear 2 1015 87 10000 5.66 290 07:18 28.02.2021
5876 Clear 2 1015 87 10000 5.14 290 06:21 28.02.2021
5877 Clouds 1 1015 93 10000 4.63 270 03:45 28.02.2021
5878 Clear 1 1016 93 10000 4.12 270 02:19 28.02.2021
5879 Clouds 1 1017 93 10000 5.14 260 00:58 28.02.2021
5880 Clouds 1 1017 93 10000 4.63 270 00:35 28.02.2021
5881 Clouds 1 1018 93 10000 3.09 230 23:48 27.02.2021
5882 Rain 1 1019 93 10000 3.6 240 23:20 27.02.2021
5883 Rain 1 1019 93 10000 3.09 240 22:49 27.02.2021
5884 Rain 1 1020 100 10000 2.06 230 22:22 27.02.2021
5885 Snow 1 1020 100 8000 3.6 260 21:50 27.02.2021
5886 Snow 1 1020 100 8000 3.6 260 21:32 27.02.2021
5887 Snow 2 1020 69 7000 4.12 270 20:53 27.02.2021
5888 Snow 2 1020 69 7000 4.12 270 20:33 27.02.2021
5889 Clear 2 1021 69 10000 3.09 270 19:48 27.02.2021
5890 Clear 2 1021 69 10000 3.09 270 19:29 27.02.2021
5891 Clear 2 1021 69 10000 3.09 270 18:56 27.02.2021
5892 Clear 2 1021 69 10000 3.09 270 18:36 27.02.2021
5893 Clear 2 1021 64 10000 4.12 280 18:18 27.02.2021
5894 Clear 2 1021 64 10000 4.12 290 17:42 27.02.2021
5895 Clear 2 1021 64 10000 4.63 290 17:19 27.02.2021
5896 Clear 3 1021 60 10000 3.6 290 16:50 27.02.2021
5897 Clear 3 1021 60 10000 3.6 290 16:28 27.02.2021
5898 Clear 4 1021 56 10000 5.14 310 15:46 27.02.2021
5899 Clear 5 1021 56 10000 3.6 300 15:20 27.02.2021
5900 Clear 4 1021 56 10000 5.66 320 14:41 27.02.2021
5901 Clear 4 1021 56 10000 5.66 320 14:41 27.02.2021
5902 Clear 4 1021 56 10000 6.17 310 14:21 27.02.2021
5903 Clear 4 1021 60 10000 6.69 320 13:46 27.02.2021
5904 Clear 4 1020 65 10000 6.17 320 13:22 27.02.2021
5905 Clouds 3 1020 65 10000 6.69 320 12:49 27.02.2021
5906 Clouds 3 1020 65 10000 5.66 330 12:25 27.02.2021
5907 Clouds 3 1020 65 10000 7.2 330 11:52 27.02.2021
5908 Clouds 3 1020 65 10000 7.2 330 11:31 27.02.2021
5909 Clouds 2 1020 69 10000 6.69 320 10:53 27.02.2021
5910 Clouds 2 1019 69 10000 6.69 330 10:35 27.02.2021
5911 Clouds 2 1019 69 10000 7.2 330 09:54 27.02.2021
5912 Clouds 1 1019 75 10000 6.17 340 09:33 27.02.2021
5913 Clouds 1 1018 75 10000 7.72 330 08:44 27.02.2021
5914 Clouds 1 1018 75 10000 7.72 330 08:24 27.02.2021
5915 Clear 0 1017 80 10000 7.72 320 07:58 27.02.2021
5916 Clear 0 1016 80 10000 7.2 320 07:25 27.02.2021
5917 Clear 2 1012 80 10000 6.17 320 01:30 27.02.2021
5918 Clear 2 1011 87 10000 5.14 310 00:31 27.02.2021
5919 Clear 2 1010 87 10000 6.69 320 23:41 26.02.2021
5920 Clouds 2 1010 87 10000 7.2 330 23:22 26.02.2021
5921 Clouds 2 1009 93 10000 8.23 320 22:34 26.02.2021
5922 Clouds 3 1008 87 10000 6.69 330 21:54 26.02.2021
5923 Clouds 3 1008 87 10000 6.69 330 21:35 26.02.2021
5924 Clouds 3 1007 87 10000 6.17 320 20:56 26.02.2021
5925 Clouds 3 1007 87 10000 6.17 320 20:56 26.02.2021
5926 Clouds 3 1007 87 10000 6.17 320 20:37 26.02.2021
5927 Clouds 3 1007 87 10000 5.66 310 20:18 26.02.2021
5928 Clouds 3 1006 87 10000 5.14 300 19:27 26.02.2021
5929 Clear 3 1006 87 10000 3.09 280 18:57 26.02.2021
5930 Clear 3 1006 87 10000 3.09 280 18:25 26.02.2021
5931 Clear 2 1005 93 10000 2.06 260 17:59 26.02.2021
5932 Clear 2 1005 93 10000 2.06 260 17:37 26.02.2021
5933 Clear 3 1005 93 10000 3.09 270 17:18 26.02.2021
5934 Clouds 3 1005 93 10000 2.06 280 16:46 26.02.2021
5935 Clouds 3 1005 93 10000 3.09 270 16:27 26.02.2021
5936 Clouds 3 1005 93 10000 3.09 270 15:44 26.02.2021
5937 Clouds 3 1005 87 10000 4.12 280 15:24 26.02.2021
5938 Clouds 3 1005 87 10000 4.63 280 14:57 26.02.2021
5939 Clouds 3 1005 87 10000 4.63 280 14:35 26.02.2021
5940 Clouds 4 1005 87 10000 5.66 300 13:59 26.02.2021
5941 Clouds 3 1004 93 10000 4.12 280 13:39 26.02.2021
5942 Clouds 3 1004 93 10000 4.12 270 12:58 26.02.2021
5943 Clouds 3 1004 93 10000 4.12 270 12:31 26.02.2021
5944 Clouds 3 1004 100 10000 5.66 260 11:47 26.02.2021
5945 Clouds 3 1003 93 10000 4.12 280 11:20 26.02.2021
5946 Clouds 3 1003 93 10000 4.12 280 11:20 26.02.2021
5947 Clouds 4 1003 93 10000 3.6 270 10:43 26.02.2021
5948 Clouds 3 1003 93 10000 5.66 280 09:48 26.02.2021
5949 Clouds 3 1003 93 10000 5.66 280 09:28 26.02.2021
5950 Clouds 3 1002 93 10000 5.66 260 08:39 26.02.2021
5951 Clouds 3 1002 100 10000 7.2 260 07:59 26.02.2021
5952 Clouds 3 1002 100 10000 7.2 260 07:59 26.02.2021
5953 Clouds 3 1001 93 10000 6.17 270 07:24 26.02.2021
5954 Drizzle 3 1001 93 10000 6.17 280 06:35 26.02.2021
5955 Rain 3 1000 93 10000 6.17 270 05:20 26.02.2021
5956 Drizzle 4 1001 93 10000 4.12 240 02:41 26.02.2021
5957 Clouds 3 1002 100 10000 4.12 230 00:33 26.02.2021
5958 Clouds 3 1002 100 7000 3.6 230 23:41 25.02.2021
5959 Mist 3 1003 100 3000 3.6 220 23:19 25.02.2021
5960 Drizzle 3 1003 100 3000 3.6 210 22:38 25.02.2021
5961 Drizzle 3 1003 100 2500 3.6 210 21:56 25.02.2021
5962 Drizzle 3 1004 100 2500 3.09 220 21:34 25.02.2021
5963 Drizzle 3 1004 100 3000 3.6 210 20:57 25.02.2021
5964 Drizzle 3 1004 100 3000 3.09 210 20:37 25.02.2021
5965 Drizzle 3 1005 93 2500 2.57 210 20:19 25.02.2021
5966 Mist 2 1005 100 3000 3.09 220 19:49 25.02.2021
5967 Rain 2 1006 100 3000 3.6 220 19:21 25.02.2021
5968 Mist 2 1006 100 4000 2.57 220 18:44 25.02.2021
5969 Fog 3 1006 100 900 3.6 200 18:18 25.02.2021
5970 Drizzle 3 1007 100 400 3.6 190 17:42 25.02.2021
5971 Drizzle 3 1007 100 600 3.6 210 17:23 25.02.2021
5972 Fog 3 1007 100 800 4.12 210 16:35 25.02.2021
5973 Drizzle 3 1008 100 700 2.57 210 15:55 25.02.2021
5974 Mist 3 1008 100 1300 4.12 210 15:29 25.02.2021
5975 Mist 4 1009 100 3500 3.09 210 14:40 25.02.2021
5976 Mist 4 1009 100 4000 4.12 210 14:21 25.02.2021
5977 Drizzle 4 1009 100 6000 3.09 210 13:48 25.02.2021
5978 Drizzle 4 1010 100 6000 4.12 210 13:24 25.02.2021
5979 Drizzle 3 1010 100 6000 4.12 210 12:40 25.02.2021
5980 Fog 4 1010 100 700 4.12 210 12:20 25.02.2021
5981 Fog 4 1010 100 700 4.12 210 11:43 25.02.2021
5982 Mist 4 1010 100 4000 4.63 220 10:58 25.02.2021
5983 Mist 3 1010 100 4000 4.63 220 10:37 25.02.2021
5984 Drizzle 3 1010 100 800 4.63 220 09:53 25.02.2021
5985 Drizzle 3 1010 100 800 4.63 220 09:34 25.02.2021
5986 Fog 3 1010 100 800 5.14 220 08:46 25.02.2021
5987 Mist 3 1010 100 1500 5.14 220 08:21 25.02.2021
5988 Fog 2 1010 100 600 5.14 220 07:42 25.02.2021
5989 Fog 3 1010 100 800 5.14 220 07:18 25.02.2021
5990 Clouds 3 1011 93 5000 3.6 230 05:55 25.02.2021
5991 Clouds 4 1011 100 10000 5.66 270 01:52 25.02.2021
5992 Clouds 4 1011 93 10000 5.14 270 01:27 25.02.2021
5993 Clouds 4 1011 100 10000 5.14 270 00:33 25.02.2021
5994 Clouds 3 1010 100 8000 5.14 260 23:40 24.02.2021
5995 Clouds 3 1010 100 5000 4.12 260 22:56 24.02.2021
5996 Clouds 3 1010 100 5000 4.12 260 22:30 24.02.2021
5997 Fog 2 1010 100 450 4.12 210 21:52 24.02.2021
5998 Fog 2 1010 100 450 4.12 210 21:33 24.02.2021
5999 Fog 2 1010 100 350 4.63 220 20:50 24.02.2021
6000 Fog 2 1010 100 350 4.63 220 20:28 24.02.2021
6001 Fog 2 1010 100 500 6.69 210 19:47 24.02.2021
6002 Fog 3 1010 100 900 6.17 220 19:21 24.02.2021
6003 Fog 2 1010 100 900 6.17 220 18:54 24.02.2021
6004 Fog 2 1011 100 350 6.17 210 18:32 24.02.2021
6005 Fog 2 1011 100 400 7.72 220 17:45 24.02.2021
6006 Fog 2 1012 100 450 8.23 210 17:25 24.02.2021
6007 Mist 2 1012 100 2200 6.69 210 16:48 24.02.2021
6008 Drizzle 2 1012 100 2700 6.17 190 16:21 24.02.2021
6009 Drizzle 2 1013 100 2600 6.69 190 15:55 24.02.2021
6010 Drizzle 2 1013 100 2600 6.69 190 15:34 24.02.2021
6011 Rain 1 1015 100 800 5.14 190 14:50 24.02.2021
6012 Drizzle 1 1015 100 800 5.14 190 14:29 24.02.2021
6013 Fog 0 1016 100 300 4.63 180 13:44 24.02.2021
6014 Fog 0 1017 100 200 3.6 170 13:24 24.02.2021
6015 Fog 0 1018 100 350 3.6 140 12:58 24.02.2021
6016 Fog 0 1018 100 350 3.6 140 12:38 24.02.2021
6017 Drizzle 0 1019 100 400 2.57 140 12:20 24.02.2021
6018 Fog -1 1019 100 200 2.57 130 11:33 24.02.2021
6019 Fog -2 1020 93 300 2.57 160 10:47 24.02.2021
6020 Fog -2 1020 93 300 2.57 160 10:26 24.02.2021
6021 Snow -4 1021 93 900 2.06 120 09:30 24.02.2021
6022 Fog -5 1021 100 900 1.54 110 08:51 24.02.2021
6023 Fog -3 1021 100 900 1.54 110 08:32 24.02.2021
6024 Fog -4 1021 93 500 1.03 90 07:38 24.02.2021
6025 Mist -4 1022 100 1400 0.51 0 07:18 24.02.2021
6026 Clouds -4 1022 100 6000 1.54 350 05:26 24.02.2021
6027 Fog -3 1021 93 800 2.06 20 01:59 24.02.2021
6028 Drizzle -3 1021 100 1000 1.54 20 23:39 23.02.2021
6029 Drizzle -3 1021 100 1800 2.57 60 22:50 23.02.2021
6030 Mist -3 1020 100 1800 3.6 70 22:23 23.02.2021
6031 Drizzle -3 1021 100 2000 3.09 80 21:48 23.02.2021
6032 Drizzle -3 1020 93 1800 3.09 80 21:25 23.02.2021
6033 Drizzle -3 1020 93 1800 3.09 80 20:57 23.02.2021
6034 Drizzle -3 1020 93 1800 2.57 90 20:37 23.02.2021
6035 Drizzle -3 1020 93 1900 3.6 90 20:19 23.02.2021
6036 Drizzle -2 1021 93 2200 3.6 80 19:42 23.02.2021
6037 Drizzle -2 1021 93 2400 3.6 90 19:24 23.02.2021
6038 Drizzle -2 1021 100 2500 3.09 90 18:44 23.02.2021
6039 Drizzle -2 1022 100 2500 3.09 90 18:24 23.02.2021
6040 Drizzle -2 1021 93 4500 3.6 90 17:51 23.02.2021
6041 Drizzle -2 1021 93 4500 3.6 90 17:27 23.02.2021
6042 Drizzle -3 1021 100 5000 4.63 110 16:45 23.02.2021
6043 Snow -3 1021 100 5000 4.63 110 16:23 23.02.2021
6044 Rain -3 1021 93 5000 4.63 110 15:46 23.02.2021
6045 Rain -3 1021 93 5000 4.63 110 15:28 23.02.2021
6046 Snow -4 1022 93 7000 3.6 100 14:50 23.02.2021
6047 Snow -4 1022 93 5000 4.63 100 14:28 23.02.2021
6048 Snow -4 1022 93 5000 4.63 100 13:59 23.02.2021
6049 Snow -4 1022 93 5000 4.12 110 13:34 23.02.2021
6050 Rain -5 1023 93 4000 5.66 110 12:57 23.02.2021
6051 Rain -5 1023 93 5000 6.69 110 12:24 23.02.2021
6052 Rain -6 1023 93 5000 6.69 110 11:55 23.02.2021
6053 Snow -6 1024 93 9000 6.17 110 11:26 23.02.2021
6054 Snow -6 1024 93 10000 6.69 110 10:55 23.02.2021
6055 Snow -6 1024 93 4500 6.17 110 10:37 23.02.2021
6056 Snow -6 1025 93 7000 5.66 100 09:57 23.02.2021
6057 Snow -6 1025 93 1700 6.17 110 09:36 23.02.2021
6058 Snow -6 1025 93 1700 6.17 110 09:36 23.02.2021
6059 Snow -6 1025 93 2700 6.69 120 09:18 23.02.2021
6060 Snow -6 1025 93 3500 6.69 110 08:43 23.02.2021
6061 Snow -6 1026 86 3500 6.69 110 08:20 23.02.2021
6062 Snow -7 1028 93 3500 6.69 110 06:52 23.02.2021
6063 Snow -7 1028 86 3500 6.17 100 05:25 23.02.2021
6064 Clouds -7 1030 86 10000 6.17 100 02:37 23.02.2021
6065 Snow -8 1030 92 10000 5.14 100 01:55 23.02.2021
6066 Clouds -8 1031 92 10000 4.12 70 00:19 23.02.2021
6067 Clouds -9 1031 92 10000 4.63 80 23:25 22.02.2021
6068 Clouds -9 1030 85 10000 6.17 80 22:42 22.02.2021
6069 Clouds -9 1030 85 10000 6.17 80 22:42 22.02.2021
6070 Clouds -9 1031 85 10000 6.17 70 22:21 22.02.2021
6071 Clouds -9 1031 85 10000 6.17 70 21:54 22.02.2021
6072 Clouds -9 1031 85 10000 6.17 70 21:36 22.02.2021
6073 Snow -9 1031 92 8000 5.14 80 21:18 22.02.2021
6074 Snow -9 1031 92 8000 6.17 80 20:42 22.02.2021
6075 Snow -9 1031 92 8000 6.17 80 20:22 22.02.2021
6076 Snow -9 1031 92 8000 6.17 90 19:38 22.02.2021
6077 Snow -9 1031 92 8000 6.69 80 19:19 22.02.2021
6078 Snow -9 1030 92 10000 6.17 80 18:46 22.02.2021
6079 Snow -9 1030 92 10000 5.14 80 18:22 22.02.2021
6080 Snow -9 1030 85 8000 5.14 80 17:43 22.02.2021
6081 Snow -9 1030 85 9000 5.14 80 17:18 22.02.2021
6082 Snow -9 1030 79 10000 5.14 70 16:46 22.02.2021
6083 Snow -9 1029 79 10000 4.12 70 15:57 22.02.2021
6084 Snow -9 1028 86 10000 5.66 60 15:31 22.02.2021
6085 Snow -9 1028 86 10000 4.63 60 14:49 22.02.2021
6086 Snow -9 1028 86 10000 4.63 60 14:30 22.02.2021
6087 Snow -8 1027 79 10000 5.66 60 13:48 22.02.2021
6088 Snow -8 1026 79 10000 5.66 60 13:23 22.02.2021
6089 Snow -8 1026 79 10000 5.14 70 12:42 22.02.2021
6090 Snow -8 1026 86 10000 4.63 60 12:20 22.02.2021
6091 Clouds -8 1025 86 10000 6.17 60 11:45 22.02.2021
6092 Clouds -8 1025 86 10000 5.14 50 11:25 22.02.2021
6093 Snow -8 1024 86 10000 5.66 50 10:50 22.02.2021
6094 Snow -8 1024 86 10000 5.66 50 10:27 22.02.2021
6095 Clouds -8 1023 86 8000 5.14 50 09:49 22.02.2021
6096 Clouds -8 1023 86 8000 5.14 50 09:49 22.02.2021
6097 Clouds -8 1023 86 5000 5.14 60 09:29 22.02.2021
6098 Clouds -8 1022 86 4500 5.66 60 08:54 22.02.2021
6099 Clouds -8 1022 86 4500 5.66 60 08:31 22.02.2021
6100 Drizzle -7 1021 93 5000 5.66 50 07:58 22.02.2021
6101 Drizzle -7 1020 93 4500 6.17 60 07:26 22.02.2021
6102 Drizzle -6 1020 100 4500 5.66 60 06:45 22.02.2021
6103 Drizzle -6 1019 93 5000 6.17 50 05:45 22.02.2021
6104 Drizzle -4 1017 93 8000 4.12 50 03:29 22.02.2021
6105 Drizzle -4 1017 93 8000 4.12 50 03:29 22.02.2021
6106 Rain -4 1017 100 6000 2.57 60 02:51 22.02.2021
6107 Rain -4 1016 100 4000 3.6 100 00:46 22.02.2021
6108 Drizzle -4 1017 93 3000 4.63 100 00:23 22.02.2021
6109 Snow -5 1017 93 4000 3.6 100 23:33 21.02.2021
6110 Rain -5 1016 93 7000 7.2 110 22:53 21.02.2021
6111 Rain -5 1017 93 8000 6.17 110 22:23 21.02.2021
6112 Rain -5 1017 93 7000 5.14 110 21:43 21.02.2021
6113 Rain -5 1018 93 7000 5.14 100 21:24 21.02.2021
6114 Drizzle -5 1018 93 10000 5.66 100 20:43 21.02.2021
6115 Rain -5 1018 93 7000 5.66 100 20:20 21.02.2021
6116 Drizzle -5 1018 93 4000 5.66 100 19:51 21.02.2021
6117 Drizzle -5 1018 93 4000 5.66 100 19:33 21.02.2021
6118 Rain -4 1019 93 4000 5.66 120 18:49 21.02.2021
6119 Rain -4 1019 93 4000 5.66 120 18:25 21.02.2021
6120 Rain -3 1018 93 5000 5.66 120 17:30 21.02.2021
6121 Rain -3 1018 100 4000 6.17 130 16:58 21.02.2021
6122 Rain -2 1018 93 4000 6.17 120 16:35 21.02.2021
6123 Rain -2 1018 100 3500 5.66 130 15:57 21.02.2021
6124 Rain 0 1017 100 5000 5.66 110 15:23 21.02.2021
6125 Rain 1 1017 100 5000 5.66 110 14:54 21.02.2021
6126 Rain 2 1017 93 6000 2.57 100 14:35 21.02.2021
6127 Rain 3 1016 87 10000 1.54 150 13:48 21.02.2021
6128 Clouds 3 1016 87 10000 1.54 150 13:25 21.02.2021
6129 Clouds 3 1015 87 10000 1.03 40 12:32 21.02.2021
6130 Rain 3 1015 87 10000 1.03 330 11:58 21.02.2021
6131 Clouds 3 1015 87 10000 1.54 320 11:40 21.02.2021
6132 Clouds 2 1015 93 8000 2.06 260 10:40 21.02.2021
6133 Clouds 2 1014 93 8000 2.06 260 10:21 21.02.2021
6134 Clouds 2 1014 100 8000 2.06 310 09:42 21.02.2021
6135 Clouds 2 1013 93 6000 3.09 300 09:23 21.02.2021
6136 Mist 2 1013 93 5000 3.09 280 08:33 21.02.2021
6137 Mist 2 1012 100 3500 3.6 280 07:44 21.02.2021
6138 Mist 2 1012 100 5000 3.6 270 07:21 21.02.2021
6139 Drizzle 2 1011 100 6000 3.6 260 05:28 21.02.2021
6140 Drizzle 2 1010 93 6000 4.63 230 02:40 21.02.2021
6141 Rain 1 1010 100 4000 7.2 210 00:55 21.02.2021
6142 Rain 1 1011 100 6000 7.72 210 00:20 21.02.2021
6143 Rain 1 1011 100 8000 8.75 200 23:31 20.02.2021
6144 Snow 1 1012 100 8000 7.2 200 22:54 20.02.2021
6145 Rain 1 1012 100 8000 7.2 200 22:31 20.02.2021
6146 Rain 1 1014 94 10000 1.79 290 21:47 20.02.2021
6147 Rain 1 1013 93 2500 6.69 190 21:27 20.02.2021
6148 Snow 0 1014 100 8000 6.69 190 20:56 20.02.2021
6149 Snow 0 1014 100 8000 6.69 190 20:36 20.02.2021
6150 Snow 0 1014 100 10000 5.66 180 19:59 20.02.2021
6151 Snow 0 1015 100 2500 4.63 170 19:40 20.02.2021
6152 Snow -1 1015 100 2000 3.6 140 18:48 20.02.2021
6153 Snow -1 1015 100 2000 3.6 140 18:29 20.02.2021
6154 Snow -1 1016 100 1100 3.6 120 17:45 20.02.2021
6155 Snow -1 1016 100 1100 3.6 120 17:26 20.02.2021
6156 Snow -2 1016 93 800 4.12 120 16:48 20.02.2021
6157 Fog -2 1017 100 800 4.12 110 16:22 20.02.2021
6158 Mist -3 1017 100 1200 3.6 110 15:40 20.02.2021
6159 Mist -3 1017 100 1500 3.09 110 14:51 20.02.2021
6160 Drizzle -3 1017 100 1300 3.09 110 14:25 20.02.2021
6161 Drizzle -3 1017 93 1100 3.6 110 13:53 20.02.2021
6162 Drizzle -3 1017 93 1100 3.6 110 13:28 20.02.2021
6163 Mist -4 1017 93 3000 3.6 120 12:56 20.02.2021
6164 Mist -4 1017 93 3000 3.6 120 12:33 20.02.2021
6165 Clouds -4 1017 86 10000 4.12 130 11:49 20.02.2021
6166 Clouds -4 1017 86 10000 4.12 130 11:30 20.02.2021
6167 Clouds -4 1017 93 10000 4.12 130 10:50 20.02.2021
6168 Snow -4 1017 93 10000 3.6 140 10:21 20.02.2021
6169 Snow -4 1017 86 4000 4.12 140 09:45 20.02.2021
6170 Snow -5 1017 93 3500 3.6 140 08:51 20.02.2021
6171 Snow -5 1016 93 3000 3.6 130 08:23 20.02.2021
6172 Snow -5 1017 80 10000 2.06 120 04:37 20.02.2021
6173 Clouds -5 1017 74 10000 2.57 140 02:32 20.02.2021
6174 Clear -6 1017 79 10000 2.06 100 01:55 20.02.2021
6175 Clear -5 1017 79 10000 2.06 110 00:55 20.02.2021
6176 Snow -6 1017 79 10000 1.54 100 00:36 20.02.2021
6177 Clear -6 1017 86 10000 2.06 90 23:26 19.02.2021
6178 Clear -6 1017 86 10000 2.06 90 22:43 19.02.2021
6179 Clear -6 1017 86 10000 2.06 100 22:19 19.02.2021
6180 Clear -6 1017 86 10000 3.09 90 21:43 19.02.2021
6181 Clear -6 1017 86 10000 3.09 100 21:21 19.02.2021
6182 Clouds -6 1017 86 10000 2.57 100 20:40 19.02.2021
6183 Clouds -6 1017 86 10000 3.09 90 20:22 19.02.2021
6184 Clear -6 1017 86 10000 3.09 90 19:44 19.02.2021
6185 Clouds -6 1017 86 10000 2.57 90 19:20 19.02.2021
6186 Clouds -6 1017 86 10000 3.09 100 18:46 19.02.2021
6187 Clouds -6 1017 86 10000 3.09 100 18:26 19.02.2021
6188 Clouds -7 1017 86 10000 3.6 120 17:35 19.02.2021
6189 Clouds -6 1017 86 10000 4.12 120 16:41 19.02.2021
6190 Clouds -6 1017 86 10000 4.12 120 16:21 19.02.2021
6191 Clouds -6 1017 79 10000 5.14 120 15:53 19.02.2021
6192 Clouds -6 1017 79 10000 4.12 110 15:27 19.02.2021
6193 Clouds -6 1017 79 10000 3.6 120 14:46 19.02.2021
6194 Clouds -6 1017 79 10000 3.6 120 14:26 19.02.2021
6195 Clouds -6 1017 86 10000 4.12 140 13:53 19.02.2021
6196 Clouds -6 1017 86 10000 4.12 140 13:30 19.02.2021
6197 Clouds -6 1018 79 10000 4.12 150 12:52 19.02.2021
6198 Clouds -6 1018 86 10000 3.6 150 12:24 19.02.2021
6199 Clouds -6 1018 86 10000 4.63 150 11:54 19.02.2021
6200 Clouds -6 1018 86 10000 4.63 150 11:26 19.02.2021
6201 Clouds -6 1018 86 10000 4.63 160 10:55 19.02.2021
6202 Clouds -6 1018 86 10000 4.63 160 10:32 19.02.2021
6203 Clouds -6 1018 79 10000 3.09 150 09:51 19.02.2021
6204 Clouds -6 1018 79 10000 3.09 150 09:27 19.02.2021
6205 Clouds -7 1018 86 10000 3.6 170 08:54 19.02.2021
6206 Clouds -7 1018 86 10000 4.12 150 08:25 19.02.2021
6207 Clouds -7 1018 93 10000 2.57 140 07:49 19.02.2021
6208 Clouds -7 1018 93 10000 2.57 140 07:31 19.02.2021
6209 Clouds -7 1018 93 10000 2.57 160 06:54 19.02.2021
6210 Clouds -6 1018 86 10000 3.09 170 05:41 19.02.2021
6211 Clouds -7 1019 93 10000 3.6 170 04:41 19.02.2021
6212 Clouds -8 1021 93 10000 2.57 160 01:48 19.02.2021
6213 Clouds -8 1021 86 10000 3.09 170 00:37 19.02.2021
6214 Clouds -8 1022 86 10000 3.6 170 23:56 18.02.2021
6215 Clouds -8 1022 86 10000 3.6 170 23:35 18.02.2021
6216 Clouds -9 1022 86 10000 2.57 180 22:51 18.02.2021
6217 Clouds -9 1022 86 10000 3.09 170 22:30 18.02.2021
6218 Snow -9 1022 85 10000 4.12 200 21:55 18.02.2021
6219 Snow -10 1022 85 10000 4.12 200 21:27 18.02.2021
6220 Snow -11 1023 85 10000 4.12 200 20:44 18.02.2021
6221 Snow -11 1023 85 10000 2.57 190 20:24 18.02.2021
6222 Snow -12 1023 85 10000 2.57 190 19:56 18.02.2021
6223 Snow -12 1023 92 10000 1.54 130 19:37 18.02.2021
6224 Snow -12 1024 92 10000 1.03 110 19:18 18.02.2021
6225 Snow -12 1024 85 10000 1.03 120 18:42 18.02.2021
6226 Snow -12 1024 85 10000 1.03 120 18:24 18.02.2021
6227 Clouds -11 1024 85 10000 2.06 200 17:42 18.02.2021
6228 Clear -11 1025 79 10000 2.06 210 17:23 18.02.2021
6229 Clear -11 1024 79 10000 2.57 210 16:41 18.02.2021
6230 Clear -11 1024 79 10000 2.57 210 16:22 18.02.2021
6231 Clear -10 1025 73 10000 3.6 180 15:39 18.02.2021
6232 Clear -10 1025 73 10000 2.06 220 15:21 18.02.2021
6233 Clear -10 1025 73 10000 2.57 200 14:49 18.02.2021
6234 Clear -10 1025 73 10000 2.57 200 14:29 18.02.2021
6235 Clouds -10 1026 67 10000 3.09 210 13:46 18.02.2021
6236 Clouds -10 1026 73 10000 1.54 230 13:20 18.02.2021
6237 Clouds -10 1026 67 10000 2.06 210 12:53 18.02.2021
6238 Clear -11 1026 62 10000 1.54 210 12:23 18.02.2021
6239 Clear -12 1027 78 10000 1.54 310 11:46 18.02.2021
6240 Clear -12 1027 78 10000 1.54 310 11:27 18.02.2021
6241 Clear -13 1027 78 10000 1.54 280 10:52 18.02.2021
6242 Clear -15 1026 71 10000 2.57 130 10:31 18.02.2021
6243 Fog -19 1026 78 10000 1.92 177 09:50 18.02.2021
6244 Fog -19 1026 78 10000 1.15 158 09:26 18.02.2021
6245 Clear -23 1027 84 10000 1.03 290 08:48 18.02.2021
6246 Clear -23 1027 84 10000 1.03 290 08:29 18.02.2021
6247 Fog -25 1026 77 10000 0.76 147 07:37 18.02.2021
6248 Clear -26 1027 76 10000 0.51 0 06:59 18.02.2021
6249 Clear -25 1027 84 10000 0.51 320 04:48 18.02.2021
6250 Clear -20 1027 84 10000 1.54 350 23:57 17.02.2021
6251 Clear -19 1027 84 10000 1.54 10 23:37 17.02.2021
6252 Clear -18 1026 84 10000 1.03 0 22:56 17.02.2021
6253 Clear -18 1026 78 10000 1.54 30 22:27 17.02.2021
6254 Clear -18 1026 78 10000 2.57 50 21:57 17.02.2021
6255 Clear -17 1026 84 10000 2.57 60 21:23 17.02.2021
6256 Clear -17 1025 78 10000 2.57 40 20:56 17.02.2021
6257 Clear -17 1025 78 10000 2.57 40 20:37 17.02.2021
6258 Clear -17 1025 78 10000 3.09 50 19:55 17.02.2021
6259 Clear -16 1025 78 10000 3.09 40 19:35 17.02.2021
6260 Clear -16 1025 85 10000 2.06 40 18:50 17.02.2021
6261 Clear -16 1025 85 10000 2.06 40 18:31 17.02.2021
6262 Clear -15 1025 78 10000 2.06 30 17:46 17.02.2021
6263 Clear -14 1024 85 10000 1.54 20 17:21 17.02.2021
6264 Clear -14 1024 78 10000 2.06 20 16:50 17.02.2021
6265 Clear -14 1024 78 10000 2.06 20 16:29 17.02.2021
6266 Clear -13 1024 78 10000 2.57 20 15:46 17.02.2021
6267 Clear -13 1024 72 10000 2.57 20 15:27 17.02.2021
6268 Clear -13 1024 78 10000 3.6 20 14:51 17.02.2021
6269 Clear -13 1024 78 10000 3.6 20 14:29 17.02.2021
6270 Clear -13 1024 72 10000 3.09 20 13:52 17.02.2021
6271 Clear -13 1024 72 10000 3.09 20 13:33 17.02.2021
6272 Clear -13 1024 78 10000 2.57 30 12:58 17.02.2021
6273 Clear -14 1024 78 10000 2.57 30 12:26 17.02.2021
6274 Clear -15 1024 78 10000 2.57 50 11:48 17.02.2021
6275 Clear -15 1024 78 10000 3.09 30 11:29 17.02.2021
6276 Clear -15 1024 78 10000 3.09 30 10:56 17.02.2021
6277 Clear -15 1023 85 10000 2.57 30 10:38 17.02.2021
6278 Clear -15 1023 85 10000 2.57 30 10:19 17.02.2021
6279 Clear -16 1023 85 10000 2.57 40 09:38 17.02.2021
6280 Clear -17 1023 85 10000 2.57 40 08:56 17.02.2021
6281 Clear -16 1023 85 10000 3.09 30 08:36 17.02.2021
6282 Clear -16 1023 85 10000 2.57 20 08:18 17.02.2021
6283 Clear -17 1022 92 10000 2.57 20 06:37 17.02.2021
6284 Clear -15 1022 85 10000 2.57 20 03:53 17.02.2021
6285 Clear -15 1022 92 10000 2.06 350 02:32 17.02.2021
6286 Clear -14 1022 92 10000 2.06 20 01:36 17.02.2021
6287 Clear -14 1021 85 10000 2.57 10 00:28 17.02.2021
6288 Clear -14 1021 92 10000 2.57 20 23:39 16.02.2021
6289 Clear -14 1021 92 10000 1.54 10 22:58 16.02.2021
6290 Clear -14 1021 92 10000 1.54 10 22:39 16.02.2021
6291 Clear -13 1021 92 10000 1.54 340 22:21 16.02.2021
6292 Clear -12 1021 92 10000 1.03 10 21:40 16.02.2021
6293 Clear -12 1021 92 10000 1.54 20 21:21 16.02.2021
6294 Clear -12 1021 92 10000 1.54 20 20:56 16.02.2021
6295 Clear -11 1021 92 10000 1.54 30 20:37 16.02.2021
6296 Clear -11 1021 85 10000 2.57 30 20:18 16.02.2021
6297 Clear -10 1020 85 10000 3.09 20 19:39 16.02.2021
6298 Clear -10 1020 85 10000 3.09 20 19:19 16.02.2021
6299 Clear -10 1020 85 10000 2.57 10 18:37 16.02.2021
6300 Clear -9 1020 85 10000 3.09 350 18:18 16.02.2021
6301 Clear -8 1019 79 10000 3.6 20 17:47 16.02.2021
6302 Clear -8 1019 73 10000 3.09 10 17:23 16.02.2021
6303 Clear -7 1019 73 10000 4.12 20 16:45 16.02.2021
6304 Clear -7 1019 68 10000 4.12 10 16:22 16.02.2021
6305 Clouds -6 1018 73 10000 5.14 10 15:43 16.02.2021
6306 Clouds -5 1018 68 10000 5.14 20 15:24 16.02.2021
6307 Clouds -5 1018 63 10000 5.14 350 14:44 16.02.2021
6308 Clouds -5 1017 63 10000 5.66 360 14:25 16.02.2021
6309 Clouds -5 1017 63 10000 5.14 20 13:48 16.02.2021
6310 Clouds -4 1017 63 10000 5.14 20 13:24 16.02.2021
6311 Clouds -3 1017 68 10000 5.14 10 12:43 16.02.2021
6312 Clouds -4 1016 74 10000 5.66 350 12:20 16.02.2021
6313 Clouds -3 1016 74 10000 6.17 360 11:44 16.02.2021
6314 Clouds -4 1016 80 10000 5.14 360 11:22 16.02.2021
6315 Clouds -4 1016 80 10000 4.12 340 10:50 16.02.2021
6316 Clouds -4 1016 80 10000 4.12 340 10:31 16.02.2021
6317 Clouds -4 1015 80 10000 5.14 350 09:56 16.02.2021
6318 Clouds -3 1015 86 10000 4.63 340 09:29 16.02.2021
6319 Clouds -3 1015 80 10000 4.63 350 08:58 16.02.2021
6320 Clouds -3 1015 80 10000 4.63 350 08:38 16.02.2021
6321 Clouds -3 1014 80 10000 5.66 320 08:18 16.02.2021
6322 Snow -3 1014 86 10000 5.66 320 07:18 16.02.2021
6323 Snow -3 1014 86 10000 5.66 320 07:18 16.02.2021
6324 Snow -4 1015 86 10000 6.69 280 04:33 16.02.2021
6325 Clouds -6 1017 86 10000 2.57 280 00:44 16.02.2021
6326 Clear -6 1018 86 10000 3.6 250 23:31 15.02.2021
6327 Clear -6 1019 86 10000 4.63 240 22:59 15.02.2021
6328 Clear -6 1019 86 10000 4.63 240 22:40 15.02.2021
6329 Clear -6 1019 93 10000 4.12 240 21:56 15.02.2021
6330 Clear -6 1020 86 10000 4.12 230 21:37 15.02.2021
6331 Clouds -6 1020 86 10000 3.6 220 21:19 15.02.2021
6332 Clear -6 1021 86 10000 3.09 220 20:44 15.02.2021
6333 Clear -5 1022 79 10000 3.09 240 20:24 15.02.2021
6334 Clear -5 1022 80 10000 4.63 230 19:43 15.02.2021
6335 Clear -6 1023 79 10000 4.63 240 19:22 15.02.2021
6336 Clear -6 1023 79 10000 4.12 240 18:44 15.02.2021
6337 Clear -6 1023 79 10000 4.12 240 18:25 15.02.2021
6338 Clear -6 1024 79 10000 3.09 240 17:41 15.02.2021
6339 Clouds -6 1025 79 10000 3.09 230 17:22 15.02.2021
6340 Clouds -5 1025 74 10000 3.6 250 16:53 15.02.2021
6341 Clouds -5 1025 74 10000 3.6 250 16:26 15.02.2021
6342 Clear -5 1026 74 10000 4.63 250 15:49 15.02.2021
6343 Clear -5 1026 74 10000 3.6 240 15:22 15.02.2021
6344 Clear -5 1027 68 10000 4.12 250 14:49 15.02.2021
6345 Clear -5 1027 73 10000 3.09 270 14:22 15.02.2021
6346 Clear -5 1027 73 10000 3.09 270 13:58 15.02.2021
6347 Clear -6 1027 73 10000 3.6 260 13:37 15.02.2021
6348 Clear -6 1028 68 10000 2.06 260 13:18 15.02.2021
6349 Clear -7 1028 73 10000 2.06 270 12:38 15.02.2021
6350 Clear -7 1028 79 10000 1.54 240 11:59 15.02.2021
6351 Clear -8 1029 79 10000 2.57 290 11:39 15.02.2021
6352 Clear -9 1029 79 10000 1.54 280 11:18 15.02.2021
6353 Clouds -9 1029 85 10000 1.54 280 10:42 15.02.2021
6354 Clouds -9 1029 92 10000 1.54 270 10:21 15.02.2021
6355 Clouds -10 1029 92 10000 1.54 230 09:52 15.02.2021
6356 Clouds -10 1029 92 10000 1.54 230 09:32 15.02.2021
6357 Clouds -10 1029 92 10000 1.54 230 09:32 15.02.2021
6358 Clouds -12 1029 85 10000 2.06 250 08:34 15.02.2021
6359 Clouds -12 1031 85 10000 1.54 260 07:34 15.02.2021
6360 Clouds -13 1029 85 10000 2.57 250 06:44 15.02.2021
6361 Clouds -14 1030 85 10000 2.12 323 04:59 15.02.2021
6362 Clear -12 1030 92 10000 3.09 310 02:22 15.02.2021
6363 Clouds -10 1029 79 10000 3.09 310 00:32 15.02.2021
6364 Clouds -10 1029 79 10000 3.6 330 23:32 14.02.2021
6365 Snow -9 1029 79 10000 5.14 10 22:52 14.02.2021
6366 Snow -9 1029 79 10000 5.14 10 22:34 14.02.2021
6367 Snow -9 1029 86 10000 5.14 10 21:57 14.02.2021
6368 Snow -8 1028 79 10000 5.66 360 21:36 14.02.2021
6369 Snow -7 1028 73 10000 6.69 340 20:56 14.02.2021
6370 Snow -7 1028 73 10000 6.69 340 20:32 14.02.2021
6371 Snow -7 1028 79 10000 4.63 340 19:59 14.02.2021
6372 Snow -7 1028 73 10000 5.66 340 19:36 14.02.2021
6373 Snow -7 1027 73 10000 6.69 350 18:47 14.02.2021
6374 Snow -7 1027 73 10000 6.69 350 18:28 14.02.2021
6375 Clouds -7 1027 79 10000 4.63 340 17:45 14.02.2021
6376 Clouds -7 1027 79 10000 6.69 330 17:26 14.02.2021
6377 Clouds -7 1026 79 10000 5.66 330 16:40 14.02.2021
6378 Clouds -7 1026 79 10000 5.66 310 16:21 14.02.2021
6379 Clouds -7 1026 79 10000 4.63 320 15:45 14.02.2021
6380 Clouds -6 1026 79 10000 5.66 330 14:59 14.02.2021
6381 Clouds -6 1026 79 10000 5.66 330 14:33 14.02.2021
6382 Clouds -6 1026 79 10000 6.69 340 13:58 14.02.2021
6383 Clouds -6 1026 79 10000 7.2 340 13:32 14.02.2021
6384 Clouds -6 1026 79 10000 5.66 340 12:54 14.02.2021
6385 Clouds -5 1025 73 10000 5.14 330 12:22 14.02.2021
6386 Clouds -5 1025 73 10000 5.14 330 12:22 14.02.2021
6387 Clouds -6 1025 73 10000 5.14 330 11:51 14.02.2021
6388 Clouds -6 1025 73 10000 5.14 330 11:26 14.02.2021
6389 Clouds -6 1025 79 10000 5.14 330 10:53 14.02.2021
6390 Clouds -6 1025 79 10000 3.6 340 09:59 14.02.2021
6391 Clouds -6 1025 79 10000 4.63 350 09:40 14.02.2021
6392 Clouds -7 1024 79 10000 6.17 330 09:21 14.02.2021
6393 Clouds -7 1024 79 10000 5.14 320 08:43 14.02.2021
6394 Clear -8 1024 93 10000 4.63 320 07:58 14.02.2021
6395 Clouds -8 1023 93 10000 3.6 330 06:54 14.02.2021
6396 Clouds -5 1023 86 10000 3.6 340 05:43 14.02.2021
6397 Clouds -4 1023 86 10000 4.63 350 03:33 14.02.2021
6398 Clouds -4 1023 93 10000 5.66 340 02:29 14.02.2021
6399 Clouds -4 1023 93 10000 4.12 330 00:49 14.02.2021
6400 Clouds -4 1023 93 10000 4.12 330 00:31 14.02.2021
6401 Clouds -4 1023 93 10000 4.12 330 00:31 14.02.2021
6402 Clouds -4 1023 93 10000 4.12 340 23:42 13.02.2021
6403 Clouds -4 1023 93 10000 3.6 340 23:21 13.02.2021
6404 Clouds -4 1023 93 10000 3.09 330 22:46 13.02.2021
6405 Clouds -4 1023 93 10000 4.12 330 22:20 13.02.2021
6406 Clouds -4 1023 93 10000 3.6 350 21:44 13.02.2021
6407 Clouds -4 1023 93 10000 4.63 340 21:22 13.02.2021
6408 Clouds -4 1023 93 10000 3.09 350 20:30 13.02.2021
6409 Clouds -4 1023 93 10000 2.57 10 19:58 13.02.2021
6410 Snow -4 1023 93 10000 2.06 330 19:39 13.02.2021
6411 Snow -4 1023 93 10000 2.06 330 19:21 13.02.2021
6412 Snow -4 1023 100 10000 2.06 320 18:44 13.02.2021
6413 Snow -4 1023 93 10000 2.06 320 18:22 13.02.2021
6414 Snow -4 1023 93 10000 2.06 310 17:42 13.02.2021
6415 Clouds -4 1023 93 10000 4.12 320 17:22 13.02.2021
6416 Clouds -3 1024 93 10000 3.09 310 16:42 13.02.2021
6417 Clouds -3 1024 86 10000 3.6 320 16:21 13.02.2021
6418 Clouds -3 1024 86 10000 3.6 310 15:39 13.02.2021
6419 Clouds -3 1024 86 10000 3.6 290 14:57 13.02.2021
6420 Clouds -3 1024 86 10000 4.63 290 14:32 13.02.2021
6421 Clouds -3 1024 86 10000 3.09 330 13:48 13.02.2021
6422 Clouds -3 1024 93 10000 4.12 330 13:24 13.02.2021
6423 Clouds -3 1024 93 10000 4.12 330 12:46 13.02.2021
6424 Clouds -3 1024 93 10000 3.6 320 12:18 13.02.2021
6425 Clouds -4 1025 93 10000 4.63 330 11:45 13.02.2021
6426 Clouds -4 1025 93 10000 3.6 340 11:19 13.02.2021
6427 Clouds -4 1025 93 10000 4.12 340 10:46 13.02.2021
6428 Clouds -4 1025 93 10000 5.14 350 10:25 13.02.2021
6429 Clouds -4 1025 93 10000 5.14 340 09:55 13.02.2021
6430 Clouds -4 1025 93 10000 5.14 340 09:30 13.02.2021
6431 Clouds -4 1025 93 10000 5.66 340 08:55 13.02.2021
6432 Clouds -4 1025 93 10000 5.66 340 08:34 13.02.2021
6433 Clouds -6 1025 100 10000 4.12 310 07:50 13.02.2021
6434 Clouds -6 1025 93 10000 3.6 310 06:38 13.02.2021
6435 Clouds -8 1025 100 10000 3.09 290 05:20 13.02.2021
6436 Clouds -8 1025 92 10000 2.57 270 03:58 13.02.2021
6437 Fog -10 1026 92 400 1.03 260 01:43 13.02.2021
6438 Fog -10 1027 92 300 2.06 270 00:36 13.02.2021
6439 Clouds -12 1027 92 9000 2.06 250 23:53 12.02.2021
6440 Fog -11 1028 92 10000 1.03 0 23:20 12.02.2021
6441 Fog -11 1028 92 10000 1.79 308 22:40 12.02.2021
6442 Fog -11 1028 85 10000 2.03 316 22:19 12.02.2021
6443 Clouds -10 1028 100 10000 0.51 0 21:45 12.02.2021
6444 Clouds -10 1028 100 10000 0.51 0 21:25 12.02.2021
6445 Clouds -9 1028 93 10000 4.63 300 20:46 12.02.2021
6446 Clouds -9 1028 93 10000 4.63 300 20:27 12.02.2021
6447 Snow -9 1027 93 10000 3.09 310 19:55 12.02.2021
6448 Clouds -9 1028 100 10000 3.09 310 19:55 12.02.2021
6449 Clouds -9 1028 100 10000 3.09 310 19:30 12.02.2021
6450 Clouds -9 1028 92 8000 2.57 300 18:54 12.02.2021
6451 Clouds -9 1028 92 10000 2.06 280 18:28 12.02.2021
6452 Clouds -10 1028 92 10000 1.54 280 17:44 12.02.2021
6453 Clouds -10 1028 92 10000 2.57 250 17:20 12.02.2021
6454 Clouds -10 1028 92 10000 2.06 230 16:25 12.02.2021
6455 Clouds -10 1028 85 3200 1.03 0 15:46 12.02.2021
6456 Snow -10 1028 79 10000 1.54 230 15:20 12.02.2021
6457 Snow -11 1028 85 10000 1.54 190 14:40 12.02.2021
6458 Clouds -10 1029 85 10000 0.51 0 13:58 12.02.2021
6459 Snow -10 1029 85 10000 2.46 261 13:40 12.02.2021
6460 Snow -11 1030 92 10000 1.54 230 12:55 12.02.2021
6461 Snow -11 1030 92 10000 1.54 230 12:36 12.02.2021
6462 Snow -12 1030 85 10000 1.54 210 11:49 12.02.2021
6463 Snow -13 1030 85 8000 1.54 230 11:26 12.02.2021
6464 Snow -14 1030 85 6000 1.03 260 10:52 12.02.2021
6465 Fog -14 1030 85 6000 1.03 260 10:34 12.02.2021
6466 Snow -19 1030 92 8000 0.81 309 09:44 12.02.2021
6467 Fog -19 1030 84 8000 1.03 0 09:24 12.02.2021
6468 Snow -20 1030 84 4500 1.54 330 08:48 12.02.2021
6469 Snow -20 1030 84 4500 1.54 330 08:27 12.02.2021
6470 Fog -20 1030 84 500 2.06 320 07:53 12.02.2021
6471 Fog -20 1030 84 500 2.06 320 07:53 12.02.2021
6472 Fog -20 1030 84 400 2.06 330 07:28 12.02.2021
6473 Snow -21 1030 92 2800 2.06 330 06:55 12.02.2021
6474 Mist -22 1029 77 1800 1.03 0 05:39 12.02.2021
6475 Snow -24 1029 84 8000 1.54 350 03:48 12.02.2021
6476 Clear -23 1030 84 10000 1.54 290 00:47 12.02.2021
6477 Clear -19 1030 84 10000 2.22 10 23:39 11.02.2021
6478 Clear -17 1030 84 10000 1.03 290 23:20 11.02.2021
6479 Clear -17 1030 77 10000 1.54 330 22:44 11.02.2021
6480 Clear -18 1030 77 10000 1.54 330 22:23 11.02.2021
6481 Clear -17 1029 84 10000 1.54 300 21:46 11.02.2021
6482 Clear -17 1029 84 10000 1.54 300 21:26 11.02.2021
6483 Clear -17 1029 84 10000 2.57 310 20:58 11.02.2021
6484 Clear -17 1029 84 10000 2.57 310 20:39 11.02.2021
6485 Clear -17 1029 84 10000 3.6 310 20:21 11.02.2021
6486 Clouds -17 1029 84 10000 3.09 310 19:47 11.02.2021
6487 Clouds -20 1029 84 10000 3.09 310 19:26 11.02.2021
6488 Clouds -17 1029 84 10000 1.03 300 18:43 11.02.2021
6489 Clear -17 1029 84 10000 2.06 310 18:21 11.02.2021
6490 Clear -18 1029 92 10000 2.57 310 17:48 11.02.2021
6491 Clear -16 1029 85 10000 3.09 320 17:21 11.02.2021
6492 Clear -15 1029 85 10000 2.06 310 16:46 11.02.2021
6493 Clear -15 1029 85 10000 2.06 310 16:27 11.02.2021
6494 Clear -14 1028 85 10000 2.57 330 15:45 11.02.2021
6495 Clouds -14 1028 78 10000 2.57 330 15:26 11.02.2021
6496 Clouds -14 1028 78 10000 2.57 330 14:56 11.02.2021
6497 Clouds -13 1028 78 10000 3.6 320 14:31 11.02.2021
6498 Clouds -13 1028 78 10000 3.09 340 13:44 11.02.2021
6499 Clouds -13 1028 85 10000 3.6 330 13:21 11.02.2021
6500 Clouds -13 1028 78 10000 3.09 360 12:56 11.02.2021
6501 Clouds -13 1028 78 10000 3.09 360 12:35 11.02.2021
6502 Clouds -14 1027 78 10000 4.12 350 11:48 11.02.2021
6503 Snow -16 1027 85 10000 3.6 350 11:28 11.02.2021
6504 Clouds -18 1027 78 10000 4.12 350 10:55 11.02.2021
6505 Clouds -17 1027 78 10000 4.12 350 10:37 11.02.2021
6506 Snow -18 1027 84 7000 3.6 350 10:19 11.02.2021
6507 Snow -20 1027 84 6000 3.6 360 09:38 11.02.2021
6508 Clouds -19 1027 78 10000 3.6 350 09:18 11.02.2021
6509 Clear -20 1026 84 10000 3.6 360 08:44 11.02.2021
6510 Clouds -19 1026 84 10000 3.09 360 07:52 11.02.2021
6511 Clear -19 1025 84 10000 3.6 360 06:44 11.02.2021
6512 Clear -18 1025 84 10000 3.09 360 06:20 11.02.2021
6513 Clear -15 1024 85 10000 2.57 360 03:45 11.02.2021
6514 Clouds -15 1023 85 10000 4.12 360 02:23 11.02.2021
6515 Clear -14 1023 85 10000 2.57 360 00:23 11.02.2021
6516 Clear -14 1023 92 10000 3.09 10 23:52 10.02.2021
6517 Clear -14 1023 92 10000 3.6 360 23:20 10.02.2021
6518 Clear -14 1022 85 10000 1.54 360 22:43 10.02.2021
6519 Clear -14 1023 85 10000 1.54 360 22:23 10.02.2021
6520 Clear -16 1022 84 10000 3.09 340 21:40 10.02.2021
6521 Clouds -16 1022 84 10000 2.06 330 21:21 10.02.2021
6522 Clouds -15 1022 84 10000 1.54 340 20:51 10.02.2021
6523 Clouds -16 1022 84 10000 1.54 340 20:28 10.02.2021
6524 Clouds -15 1022 85 10000 2.91 46 19:50 10.02.2021
6525 Clouds -15 1022 85 10000 2.9 50 19:28 10.02.2021
6526 Clear -14 1021 85 10000 2.06 340 18:49 10.02.2021
6527 Clear -13 1021 85 10000 1.03 0 18:27 10.02.2021
6528 Clear -13 1021 85 10000 1.03 0 17:59 10.02.2021
6529 Clear -13 1021 92 10000 1.54 360 17:39 10.02.2021
6530 Clear -13 1021 92 10000 1.54 10 17:19 10.02.2021
6531 Clear -12 1021 85 10000 1.03 30 16:45 10.02.2021
6532 Clear -12 1021 85 10000 1.03 30 16:24 10.02.2021
6533 Clear -12 1021 92 10000 1.54 360 15:25 10.02.2021
6534 Clear -11 1021 85 10000 1.54 80 14:54 10.02.2021
6535 Clear -11 1021 85 10000 1.54 80 14:35 10.02.2021
6536 Clear -11 1021 92 10000 2.57 40 13:55 10.02.2021
6537 Clear -11 1020 85 10000 2.57 10 13:30 10.02.2021
6538 Clouds -11 1020 85 10000 2.57 50 12:54 10.02.2021
6539 Clouds -11 1020 85 10000 2.57 50 12:31 10.02.2021
6540 Clouds -11 1020 85 10000 2.57 50 11:59 10.02.2021
6541 Clouds -11 1020 85 10000 2.57 40 11:39 10.02.2021
6542 Clouds -12 1020 85 9000 2.06 40 11:21 10.02.2021
6543 Clouds -13 1020 92 10000 2.57 50 10:25 10.02.2021
6544 Clouds -13 1020 85 10000 1.54 30 09:57 10.02.2021
6545 Clouds -13 1020 85 10000 1.54 30 09:33 10.02.2021
6546 Clouds -15 1020 92 10000 1.54 50 08:57 10.02.2021
6547 Clouds -15 1019 85 10000 1.54 40 08:39 10.02.2021
6548 Clouds -16 1019 85 10000 2.06 50 07:41 10.02.2021
6549 Clouds -16 1019 92 10000 1.03 20 06:33 10.02.2021
6550 Mist -15 1019 85 4500 1.54 20 01:56 10.02.2021
6551 Mist -14 1019 85 3500 2.06 10 00:24 10.02.2021
6552 Mist -14 1019 85 3500 2.06 10 00:24 10.02.2021
6553 Mist -14 1019 92 2500 1.54 20 23:34 09.02.2021
6554 Snow -14 1019 92 8000 1.54 20 22:53 09.02.2021
6555 Snow -14 1019 92 8000 1.54 60 22:24 09.02.2021
6556 Snow -15 1019 92 7000 2.06 50 21:52 09.02.2021
6557 Snow -15 1019 84 6000 1.54 80 21:27 09.02.2021
6558 Clouds -15 1019 84 8000 0.51 0 20:46 09.02.2021
6559 Clouds -15 1019 84 8000 0.51 0 20:26 09.02.2021
6560 Clouds -15 1019 92 10000 2.06 30 19:55 09.02.2021
6561 Clouds -15 1019 92 10000 2.06 30 19:31 09.02.2021
6562 Clouds -13 1019 92 8000 1.54 80 18:58 09.02.2021
6563 Clouds -13 1019 92 8000 1.54 80 18:36 09.02.2021
6564 Snow -13 1019 85 8000 2.06 40 17:57 09.02.2021
6565 Snow -13 1019 92 8000 2.57 30 17:36 09.02.2021
6566 Snow -12 1019 92 4000 2.06 20 17:18 09.02.2021
6567 Snow -11 1019 92 5000 3.09 30 16:39 09.02.2021
6568 Snow -11 1019 85 4000 2.57 40 16:18 09.02.2021
6569 Snow -11 1019 92 4000 2.06 80 15:47 09.02.2021
6570 Snow -11 1019 92 3000 2.06 80 15:24 09.02.2021
6571 Snow -11 1020 85 4000 2.57 70 14:49 09.02.2021
6572 Snow -10 1020 85 4000 2.57 70 14:26 09.02.2021
6573 Snow -10 1020 92 6000 2.57 60 13:45 09.02.2021
6574 Snow -11 1020 92 6000 3.09 60 13:21 09.02.2021
6575 Snow -11 1020 92 5000 2.06 60 12:48 09.02.2021
6576 Snow -10 1020 92 5000 2.06 60 12:30 09.02.2021
6577 Snow -11 1021 85 5000 2.57 80 11:45 09.02.2021
6578 Snow -11 1021 85 5000 2.57 80 11:45 09.02.2021
6579 Snow -11 1021 85 3000 3.09 70 11:24 09.02.2021
6580 Snow -11 1021 85 3000 3.09 70 10:58 09.02.2021
6581 Snow -11 1021 85 6000 3.09 60 10:38 09.02.2021
6582 Snow -11 1021 92 3000 2.57 60 10:18 09.02.2021
6583 Snow -11 1021 85 3500 3.09 40 09:41 09.02.2021
6584 Snow -11 1021 92 3500 3.09 10 09:21 09.02.2021
6585 Snow -12 1021 92 3500 2.57 40 08:34 09.02.2021
6586 Snow -12 1021 92 4000 2.06 20 07:57 09.02.2021
6587 Snow -12 1021 92 10000 2.06 50 05:40 09.02.2021
6588 Snow -11 1022 85 10000 2.06 20 03:49 09.02.2021
6589 Snow -12 1022 92 10000 4.12 10 02:26 09.02.2021
6590 Snow -11 1022 85 10000 2.57 40 00:31 09.02.2021
6591 Snow -11 1022 92 10000 2.57 30 23:44 08.02.2021
6592 Snow -11 1023 92 10000 2.57 30 23:19 08.02.2021
6593 Snow -11 1023 92 10000 2.57 30 22:43 08.02.2021
6594 Snow -11 1023 92 10000 3.09 40 22:22 08.02.2021
6595 Snow -10 1023 92 10000 2.06 10 21:49 08.02.2021
6596 Snow -10 1023 92 10000 2.06 10 21:30 08.02.2021
6597 Snow -10 1023 85 10000 1.03 0 20:55 08.02.2021
6598 Snow -10 1023 85 10000 1.03 0 20:36 08.02.2021
6599 Snow -10 1023 85 10000 1.03 0 20:36 08.02.2021
6600 Snow -10 1023 85 10000 2.57 20 20:18 08.02.2021
6601 Snow -10 1023 85 10000 2.57 40 19:41 08.02.2021
6602 Snow -10 1023 85 10000 3.09 30 19:21 08.02.2021
6603 Snow -10 1023 85 10000 3.09 30 18:44 08.02.2021
6604 Snow -10 1022 85 10000 3.09 40 18:19 08.02.2021
6605 Clouds -10 1023 79 10000 1.54 20 17:43 08.02.2021
6606 Clouds -10 1023 79 10000 2.57 20 17:23 08.02.2021
6607 Clouds -9 1023 79 10000 3.09 360 16:42 08.02.2021
6608 Snow -9 1023 79 10000 4.12 350 16:21 08.02.2021
6609 Snow -8 1023 86 10000 3.09 330 15:42 08.02.2021
6610 Clouds -8 1023 86 10000 3.09 350 15:20 08.02.2021
6611 Snow -8 1023 79 10000 2.57 340 14:51 08.02.2021
6612 Snow -8 1023 79 10000 2.57 340 14:31 08.02.2021
6613 Clouds -7 1024 73 10000 2.06 30 13:56 08.02.2021
6614 Clouds -7 1024 73 10000 2.06 30 13:32 08.02.2021
6615 Clouds -7 1024 79 10000 2.57 10 12:53 08.02.2021
6616 Clouds -7 1024 79 10000 2.57 10 12:34 08.02.2021
6617 Snow -7 1024 86 10000 2.57 30 11:44 08.02.2021
6618 Snow -7 1024 86 10000 4.12 40 11:19 08.02.2021
6619 Snow -8 1024 86 10000 2.57 10 10:44 08.02.2021
6620 Snow -8 1024 86 10000 2.57 10 10:23 08.02.2021
6621 Snow -8 1023 86 10000 2.06 20 09:50 08.02.2021
6622 Snow -8 1023 86 10000 2.06 20 09:29 08.02.2021
6623 Snow -9 1023 86 10000 2.06 360 08:32 08.02.2021
6624 Clouds -9 1023 86 10000 2.57 360 07:51 08.02.2021
6625 Clouds -9 1023 86 10000 2.57 360 07:22 08.02.2021
6626 Clouds -9 1022 92 10000 2.06 20 05:53 08.02.2021
6627 Snow -7 1021 86 10000 2.06 340 02:28 08.02.2021
6628 Snow -7 1021 93 10000 2.06 340 00:56 08.02.2021
6629 Clouds -7 1021 93 10000 2.06 340 00:21 08.02.2021
6630 Clouds -7 1021 93 10000 2.57 310 23:46 07.02.2021
6631 Clouds -7 1021 93 10000 3.09 310 23:20 07.02.2021
6632 Snow -7 1021 93 10000 2.57 300 22:44 07.02.2021
6633 Snow -7 1021 93 10000 2.57 300 22:25 07.02.2021
6634 Snow -7 1021 93 10000 2.06 290 21:52 07.02.2021
6635 Snow -6 1020 86 10000 2.57 300 21:27 07.02.2021
6636 Snow -6 1020 93 5000 3.09 310 20:54 07.02.2021
6637 Snow -6 1020 93 5000 3.09 310 20:33 07.02.2021
6638 Clouds -6 1020 86 10000 2.57 310 19:55 07.02.2021
6639 Clouds -6 1020 86 10000 2.57 310 19:31 07.02.2021
6640 Clouds -6 1020 86 10000 2.57 320 18:56 07.02.2021
6641 Clouds -6 1020 86 10000 3.09 300 18:36 07.02.2021
6642 Clouds -6 1020 86 10000 3.6 300 18:18 07.02.2021
6643 Clouds -6 1020 86 10000 3.09 310 17:41 07.02.2021
6644 Clouds -6 1020 93 10000 3.09 330 17:19 07.02.2021
6645 Clouds -6 1020 86 10000 3.6 300 16:47 07.02.2021
6646 Clouds -6 1020 86 10000 3.6 300 16:26 07.02.2021
6647 Clouds -6 1020 86 10000 3.6 300 15:49 07.02.2021
6648 Clouds -6 1020 86 10000 4.12 310 15:28 07.02.2021
6649 Clouds -5 1020 80 10000 4.12 300 14:57 07.02.2021
6650 Clouds -5 1020 80 10000 4.12 300 14:39 07.02.2021
6651 Clear -5 1020 80 10000 4.63 300 14:18 07.02.2021
6652 Clear -5 1021 86 10000 4.12 300 13:35 07.02.2021
6653 Clear -6 1021 79 10000 4.63 310 12:46 07.02.2021
6654 Clear -6 1021 79 10000 4.12 310 12:23 07.02.2021
6655 Clear -7 1021 86 10000 4.12 320 11:53 07.02.2021
6656 Clear -7 1021 86 10000 4.12 320 11:27 07.02.2021
6657 Clouds -7 1021 86 10000 4.63 320 10:51 07.02.2021
6658 Clouds -8 1021 93 10000 5.14 320 10:26 07.02.2021
6659 Clouds -8 1021 86 10000 4.63 320 09:49 07.02.2021
6660 Clouds -9 1021 92 10000 5.14 320 09:21 07.02.2021